<?xml version='1.0' encoding='UTF-8'?><gpx version="1.1" creator="JPX - https://github.com/jenetics/jpx" xmlns="http://www.topografix.com/GPX/1/1"><trk><trkseg><trkpt lat="45.05199627970258" lon="9.597784571054051"><ele>59.00000000000001</ele><time>2026-05-03T07:00:56Z</time></trkpt><trkpt lat="45.05199595015578" lon="9.597693015021472"><ele>59.0</ele><time>2026-05-03T07:00:59Z</time></trkpt><trkpt lat="45.051970346274864" lon="9.597588978216308"><ele>59.0</ele><time>2026-05-03T07:01:02Z</time></trkpt><trkpt lat="45.05195785066739" lon="9.597456394693657"><ele>59.0</ele><time>2026-05-03T07:01:05Z</time></trkpt><trkpt lat="45.051942721410754" lon="9.597350612679984"><ele>59.00000000000001</ele><time>2026-05-03T07:01:07Z</time></trkpt><trkpt lat="45.05195159181277" lon="9.597189781877905"><ele>59.0</ele><time>2026-05-03T07:01:10.001Z</time></trkpt><trkpt lat="45.05198635042439" lon="9.597095997619695"><ele>59.0</ele><time>2026-05-03T07:01:12.001Z</time></trkpt><trkpt lat="45.05206339823521" lon="9.597068906516453"><ele>59.00000000000001</ele><time>2026-05-03T07:01:14.001Z</time></trkpt><trkpt lat="45.052126741535744" lon="9.597058674620293"><ele>59.00000000000001</ele><time>2026-05-03T07:01:16.001Z</time></trkpt><trkpt lat="45.05219941179579" lon="9.597066802571625"><ele>59.0</ele><time>2026-05-03T07:01:18.001Z</time></trkpt><trkpt lat="45.052276591986285" lon="9.596805082597136"><ele>59.0</ele><time>2026-05-03T07:01:25.001Z</time></trkpt><trkpt lat="45.052240474740316" lon="9.596666110586034"><ele>59.16666666666667</ele><time>2026-05-03T07:01:27.001Z</time></trkpt><trkpt lat="45.052223932937956" lon="9.596559557328545"><ele>59.333333333333336</ele><time>2026-05-03T07:01:29.001Z</time></trkpt><trkpt lat="45.05220018920358" lon="9.596454331273012"><ele>59.5</ele><time>2026-05-03T07:01:31.001Z</time></trkpt><trkpt lat="45.052176051340325" lon="9.596364354027823"><ele>59.66666666666667</ele><time>2026-05-03T07:01:33.001Z</time></trkpt><trkpt lat="45.05216410528827" lon="9.596239764520202"><ele>59.833333333333336</ele><time>2026-05-03T07:01:35.001Z</time></trkpt><trkpt lat="45.05214974511514" lon="9.596131602976241"><ele>60.0</ele><time>2026-05-03T07:01:37.001Z</time></trkpt><trkpt lat="45.05213854058088" lon="9.59601646814299"><ele>60.0</ele><time>2026-05-03T07:01:39.001Z</time></trkpt><trkpt lat="45.052140307087676" lon="9.595889114110479"><ele>60.0</ele><time>2026-05-03T07:01:41.001Z</time></trkpt><trkpt lat="45.052136218096365" lon="9.595771062921129"><ele>60.0</ele><time>2026-05-03T07:01:43.001Z</time></trkpt><trkpt lat="45.05213395537093" lon="9.595654928087928"><ele>60.0</ele><time>2026-05-03T07:01:45.001Z</time></trkpt><trkpt lat="45.052140756714046" lon="9.595538608619421"><ele>60.0</ele><time>2026-05-03T07:01:47.001Z</time></trkpt><trkpt lat="45.05213406795688" lon="9.595412666240756"><ele>60.0</ele><time>2026-05-03T07:01:49.001Z</time></trkpt><trkpt lat="45.05213606023263" lon="9.595290435095352"><ele>60.0</ele><time>2026-05-03T07:01:51.001Z</time></trkpt><trkpt lat="45.052137322695266" lon="9.595164003090547"><ele>60.0</ele><time>2026-05-03T07:01:53.001Z</time></trkpt><trkpt lat="45.05213483118049" lon="9.595056962859989"><ele>60.0</ele><time>2026-05-03T07:01:55.001Z</time></trkpt><trkpt lat="45.0521356740574" lon="9.594929936509988"><ele>60.0</ele><time>2026-05-03T07:01:57.001Z</time></trkpt><trkpt lat="45.052134952561474" lon="9.594805733714843"><ele>60.0</ele><time>2026-05-03T07:01:59.001Z</time></trkpt><trkpt lat="45.05213154262742" lon="9.594679257393576"><ele>60.0</ele><time>2026-05-03T07:02:01.001Z</time></trkpt><trkpt lat="45.0521323480202" lon="9.594554194443425"><ele>59.8</ele><time>2026-05-03T07:02:03.001Z</time></trkpt><trkpt lat="45.05213452314961" lon="9.594422448787348"><ele>59.6</ele><time>2026-05-03T07:02:05.001Z</time></trkpt><trkpt lat="45.05213452804289" lon="9.594303914906135"><ele>59.400000000000006</ele><time>2026-05-03T07:02:07.001Z</time></trkpt><trkpt lat="45.05213367660379" lon="9.59417248996424"><ele>59.2</ele><time>2026-05-03T07:02:09.001Z</time></trkpt><trkpt lat="45.0521388461874" lon="9.594053238423129"><ele>59.0</ele><time>2026-05-03T07:02:11.001Z</time></trkpt><trkpt lat="45.052144923003354" lon="9.593917552290685"><ele>59.0</ele><time>2026-05-03T07:02:13.001Z</time></trkpt><trkpt lat="45.0521438113728" lon="9.59378812273198"><ele>59.00000000000001</ele><time>2026-05-03T07:02:15.001Z</time></trkpt><trkpt lat="45.05214770137371" lon="9.59365974212044"><ele>59.00000000000001</ele><time>2026-05-03T07:02:17.001Z</time></trkpt><trkpt lat="45.05214971387293" lon="9.593533623577281"><ele>59.0</ele><time>2026-05-03T07:02:19.001Z</time></trkpt><trkpt lat="45.05214913802935" lon="9.593409691124764"><ele>59.0</ele><time>2026-05-03T07:02:21.001Z</time></trkpt><trkpt lat="45.052152818286785" lon="9.593280283198984"><ele>59.0</ele><time>2026-05-03T07:02:23.001Z</time></trkpt><trkpt lat="45.05215466790606" lon="9.593151421626784"><ele>59.00000000000001</ele><time>2026-05-03T07:02:25.001Z</time></trkpt><trkpt lat="45.05215921579713" lon="9.593016038405661"><ele>59.00000000000001</ele><time>2026-05-03T07:02:27.001Z</time></trkpt><trkpt lat="45.05215495932753" lon="9.59289363665804"><ele>59.0</ele><time>2026-05-03T07:02:29.001Z</time></trkpt><trkpt lat="45.05215356268656" lon="9.592766276290059"><ele>59.0</ele><time>2026-05-03T07:02:31.001Z</time></trkpt><trkpt lat="45.05215077416211" lon="9.59263733700251"><ele>59.2</ele><time>2026-05-03T07:02:33.001Z</time></trkpt><trkpt lat="45.05214811438354" lon="9.59250831952669"><ele>59.400000000000006</ele><time>2026-05-03T07:02:35.001Z</time></trkpt><trkpt lat="45.052137036049274" lon="9.592374003114633"><ele>59.6</ele><time>2026-05-03T07:02:37.001Z</time></trkpt><trkpt lat="45.05212144319389" lon="9.59224601795045"><ele>59.8</ele><time>2026-05-03T07:02:39.001Z</time></trkpt><trkpt lat="45.05211580120347" lon="9.592113482263127"><ele>60.0</ele><time>2026-05-03T07:02:41.001Z</time></trkpt><trkpt lat="45.05209644577266" lon="9.591988012008109"><ele>60.4</ele><time>2026-05-03T07:02:43.001Z</time></trkpt><trkpt lat="45.052081010750335" lon="9.591868463640806"><ele>60.8</ele><time>2026-05-03T07:02:45.001Z</time></trkpt><trkpt lat="45.052063324481416" lon="9.591734513831192"><ele>61.2</ele><time>2026-05-03T07:02:47.001Z</time></trkpt><trkpt lat="45.05204830202811" lon="9.59160085546673"><ele>61.6</ele><time>2026-05-03T07:02:49.001Z</time></trkpt><trkpt lat="45.052040080312274" lon="9.591461268998454"><ele>62.0</ele><time>2026-05-03T07:02:51.001Z</time></trkpt><trkpt lat="45.05202350151175" lon="9.591334386197403"><ele>62.0</ele><time>2026-05-03T07:02:53.001Z</time></trkpt><trkpt lat="45.052013381320386" lon="9.591197295391565"><ele>62.0</ele><time>2026-05-03T07:02:55.001Z</time></trkpt><trkpt lat="45.05199478386436" lon="9.591068915793493"><ele>62.0</ele><time>2026-05-03T07:02:57.001Z</time></trkpt><trkpt lat="45.05198703617055" lon="9.590935646370179"><ele>62.0</ele><time>2026-05-03T07:02:59.001Z</time></trkpt><trkpt lat="45.05196836575094" lon="9.59080447898797"><ele>62.0</ele><time>2026-05-03T07:03:01.001Z</time></trkpt><trkpt lat="45.051956753744626" lon="9.590673250124523"><ele>62.0</ele><time>2026-05-03T07:03:03.001Z</time></trkpt><trkpt lat="45.05194304543033" lon="9.590534172317167"><ele>62.0</ele><time>2026-05-03T07:03:05.001Z</time></trkpt><trkpt lat="45.0519255101911" lon="9.590403305937782"><ele>62.0</ele><time>2026-05-03T07:03:07.001Z</time></trkpt><trkpt lat="45.0519089182539" lon="9.590266140089254"><ele>62.0</ele><time>2026-05-03T07:03:09.001Z</time></trkpt><trkpt lat="45.051894460619856" lon="9.590137081916698"><ele>62.0</ele><time>2026-05-03T07:03:11.001Z</time></trkpt><trkpt lat="45.05188413692679" lon="9.59000713420639"><ele>61.8</ele><time>2026-05-03T07:03:13.001Z</time></trkpt><trkpt lat="45.05186958010119" lon="9.589875352125896"><ele>61.6</ele><time>2026-05-03T07:03:15.001Z</time></trkpt><trkpt lat="45.05185320492862" lon="9.589738819268632"><ele>61.39999999999999</ele><time>2026-05-03T07:03:17.001Z</time></trkpt><trkpt lat="45.05184176573504" lon="9.589605522409109"><ele>61.199999999999996</ele><time>2026-05-03T07:03:19.001Z</time></trkpt><trkpt lat="45.05182713164403" lon="9.589480503312378"><ele>61.0</ele><time>2026-05-03T07:03:21.001Z</time></trkpt><trkpt lat="45.05181097868068" lon="9.589350629035133"><ele>61.0</ele><time>2026-05-03T07:03:23.001Z</time></trkpt><trkpt lat="45.05179350237142" lon="9.589222622294994"><ele>60.99999999999999</ele><time>2026-05-03T07:03:25.001Z</time></trkpt><trkpt lat="45.05175126543776" lon="9.589090721888853"><ele>60.99999999999999</ele><time>2026-05-03T07:03:27.001Z</time></trkpt><trkpt lat="45.051707871433706" lon="9.588967917129093"><ele>61.0</ele><time>2026-05-03T07:03:29.001Z</time></trkpt><trkpt lat="45.051665774268" lon="9.588844481112444"><ele>61.0</ele><time>2026-05-03T07:03:31.001Z</time></trkpt><trkpt lat="45.051618147989686" lon="9.588723721381692"><ele>61.4</ele><time>2026-05-03T07:03:33.001Z</time></trkpt><trkpt lat="45.05155876367006" lon="9.588610730459907"><ele>61.8</ele><time>2026-05-03T07:03:35.001Z</time></trkpt><trkpt lat="45.051490949572205" lon="9.588515634127562"><ele>62.199999999999996</ele><time>2026-05-03T07:03:37.001Z</time></trkpt><trkpt lat="45.0514247080648" lon="9.588418284767824"><ele>62.599999999999994</ele><time>2026-05-03T07:03:39.001Z</time></trkpt><trkpt lat="45.05135215278391" lon="9.588325878232254"><ele>63.0</ele><time>2026-05-03T07:03:41.001Z</time></trkpt><trkpt lat="45.05128721138619" lon="9.588236539823882"><ele>63.0</ele><time>2026-05-03T07:03:43.001Z</time></trkpt><trkpt lat="45.05122142996256" lon="9.588132597046483"><ele>63.0</ele><time>2026-05-03T07:03:45.001Z</time></trkpt><trkpt lat="45.051150050171294" lon="9.58803412649936"><ele>63.0</ele><time>2026-05-03T07:03:47.001Z</time></trkpt><trkpt lat="45.05108579740038" lon="9.58794130363161"><ele>63.0</ele><time>2026-05-03T07:03:49.001Z</time></trkpt><trkpt lat="45.0510200525764" lon="9.587841796075333"><ele>63.0</ele><time>2026-05-03T07:03:51.001Z</time></trkpt><trkpt lat="45.05094853956279" lon="9.58775184946124"><ele>62.8</ele><time>2026-05-03T07:03:53.001Z</time></trkpt><trkpt lat="45.050882197124814" lon="9.58765245640614"><ele>62.599999999999994</ele><time>2026-05-03T07:03:55.001Z</time></trkpt><trkpt lat="45.050808327873256" lon="9.587564963697881"><ele>62.400000000000006</ele><time>2026-05-03T07:03:57.001Z</time></trkpt><trkpt lat="45.05074075857373" lon="9.587474977873606"><ele>62.2</ele><time>2026-05-03T07:03:59Z</time></trkpt><trkpt lat="45.05066293853555" lon="9.587376223624167"><ele>62.0</ele><time>2026-05-03T07:04:01Z</time></trkpt><trkpt lat="45.05059710838922" lon="9.58728256640949"><ele>62.0</ele><time>2026-05-03T07:04:03Z</time></trkpt><trkpt lat="45.050524656731604" lon="9.587186069128524"><ele>62.0</ele><time>2026-05-03T07:04:05Z</time></trkpt><trkpt lat="45.05045355127292" lon="9.58709204292225"><ele>62.0</ele><time>2026-05-03T07:04:07Z</time></trkpt><trkpt lat="45.05037884051109" lon="9.586988906514753"><ele>62.0</ele><time>2026-05-03T07:04:09Z</time></trkpt><trkpt lat="45.050314535419496" lon="9.586896232685715"><ele>62.0</ele><time>2026-05-03T07:04:11Z</time></trkpt><trkpt lat="45.050236514789496" lon="9.586793645758402"><ele>61.8</ele><time>2026-05-03T07:04:13Z</time></trkpt><trkpt lat="45.05016699345238" lon="9.586694132129113"><ele>61.6</ele><time>2026-05-03T07:04:15Z</time></trkpt><trkpt lat="45.050092064068" lon="9.586598158291931"><ele>61.39999999999999</ele><time>2026-05-03T07:04:17Z</time></trkpt><trkpt lat="45.05001394066741" lon="9.58649412428588"><ele>61.199999999999996</ele><time>2026-05-03T07:04:19Z</time></trkpt><trkpt lat="45.049936384400425" lon="9.586388882928345"><ele>61.0</ele><time>2026-05-03T07:04:21Z</time></trkpt><trkpt lat="45.04986408035124" lon="9.586303676314234"><ele>61.0</ele><time>2026-05-03T07:04:23Z</time></trkpt><trkpt lat="45.04978916007393" lon="9.586211528954001"><ele>60.99999999999999</ele><time>2026-05-03T07:04:25Z</time></trkpt><trkpt lat="45.049723293265174" lon="9.586116418774262"><ele>60.99999999999999</ele><time>2026-05-03T07:04:27Z</time></trkpt><trkpt lat="45.04964105943303" lon="9.5860136970192"><ele>61.0</ele><time>2026-05-03T07:04:29Z</time></trkpt><trkpt lat="45.04958033776356" lon="9.585905588573429"><ele>61.0</ele><time>2026-05-03T07:04:31Z</time></trkpt><trkpt lat="45.04952254340912" lon="9.585769906701197"><ele>61.199999999999996</ele><time>2026-05-03T07:04:33Z</time></trkpt><trkpt lat="45.04947231530441" lon="9.585645808380091"><ele>61.39999999999999</ele><time>2026-05-03T07:04:35Z</time></trkpt><trkpt lat="45.049409239372444" lon="9.585520149610455"><ele>61.6</ele><time>2026-05-03T07:04:37Z</time></trkpt><trkpt lat="45.04935819625348" lon="9.58539656482869"><ele>61.8</ele><time>2026-05-03T07:04:39Z</time></trkpt><trkpt lat="45.04930950757845" lon="9.585267043320181"><ele>62.0</ele><time>2026-05-03T07:04:41Z</time></trkpt><trkpt lat="45.04925843287122" lon="9.585148001671035"><ele>62.2</ele><time>2026-05-03T07:04:43Z</time></trkpt><trkpt lat="45.04920992425848" lon="9.585024117406904"><ele>62.400000000000006</ele><time>2026-05-03T07:04:45Z</time></trkpt><trkpt lat="45.04915745479245" lon="9.584897204256277"><ele>62.599999999999994</ele><time>2026-05-03T07:04:47Z</time></trkpt><trkpt lat="45.049105155715345" lon="9.584782002625621"><ele>62.8</ele><time>2026-05-03T07:04:49Z</time></trkpt><trkpt lat="45.04905471735793" lon="9.58466000136404"><ele>63.0</ele><time>2026-05-03T07:04:51Z</time></trkpt><trkpt lat="45.04900357661826" lon="9.584545488893449"><ele>62.8</ele><time>2026-05-03T07:04:53Z</time></trkpt><trkpt lat="45.04894808411793" lon="9.584432799806121"><ele>62.599999999999994</ele><time>2026-05-03T07:04:55Z</time></trkpt><trkpt lat="45.04890345704279" lon="9.584299613619459"><ele>62.400000000000006</ele><time>2026-05-03T07:04:57Z</time></trkpt><trkpt lat="45.048857831360195" lon="9.584188479424476"><ele>62.2</ele><time>2026-05-03T07:04:59Z</time></trkpt><trkpt lat="45.048805585617664" lon="9.584070542993524"><ele>62.0</ele><time>2026-05-03T07:05:01Z</time></trkpt><trkpt lat="45.04875765945622" lon="9.58395052686173"><ele>62.0</ele><time>2026-05-03T07:05:03Z</time></trkpt><trkpt lat="45.04870715282042" lon="9.583829441287897"><ele>62.0</ele><time>2026-05-03T07:05:05Z</time></trkpt><trkpt lat="45.04866027182627" lon="9.583702388366103"><ele>62.0</ele><time>2026-05-03T07:05:07Z</time></trkpt><trkpt lat="45.04860460183758" lon="9.5835761874974"><ele>62.0</ele><time>2026-05-03T07:05:09Z</time></trkpt><trkpt lat="45.048555761501234" lon="9.583453679158941"><ele>62.0</ele><time>2026-05-03T07:05:11Z</time></trkpt><trkpt lat="45.048501013275626" lon="9.583324725921422"><ele>62.0</ele><time>2026-05-03T07:05:13Z</time></trkpt><trkpt lat="45.04844862723104" lon="9.583202342899295"><ele>62.0</ele><time>2026-05-03T07:05:15Z</time></trkpt><trkpt lat="45.04840136167856" lon="9.583081366144238"><ele>62.0</ele><time>2026-05-03T07:05:17Z</time></trkpt><trkpt lat="45.048346263306236" lon="9.582951346821906"><ele>62.0</ele><time>2026-05-03T07:05:19Z</time></trkpt><trkpt lat="45.04830004934457" lon="9.582831835612758"><ele>62.0</ele><time>2026-05-03T07:05:21Z</time></trkpt><trkpt lat="45.0482479374368" lon="9.582707075976197"><ele>62.2</ele><time>2026-05-03T07:05:23Z</time></trkpt><trkpt lat="45.04819403167257" lon="9.58258708172859"><ele>62.400000000000006</ele><time>2026-05-03T07:05:25Z</time></trkpt><trkpt lat="45.04814256765452" lon="9.582474087280298"><ele>62.599999999999994</ele><time>2026-05-03T07:05:27Z</time></trkpt><trkpt lat="45.04809546661158" lon="9.582362333327524"><ele>62.8</ele><time>2026-05-03T07:05:29Z</time></trkpt><trkpt lat="45.048042601629014" lon="9.582240134303413"><ele>63.0</ele><time>2026-05-03T07:05:31Z</time></trkpt><trkpt lat="45.04799130800848" lon="9.582121407695908"><ele>63.0</ele><time>2026-05-03T07:05:33Z</time></trkpt><trkpt lat="45.04794102993461" lon="9.582006250884254"><ele>63.0</ele><time>2026-05-03T07:05:35Z</time></trkpt><trkpt lat="45.04789095652199" lon="9.581878965036537"><ele>63.0</ele><time>2026-05-03T07:05:37Z</time></trkpt><trkpt lat="45.04783509879967" lon="9.5817541742532"><ele>63.0</ele><time>2026-05-03T07:05:39Z</time></trkpt><trkpt lat="45.04778056891767" lon="9.581634957222063"><ele>63.0</ele><time>2026-05-03T07:05:41Z</time></trkpt><trkpt lat="45.047729975260324" lon="9.581510043390873"><ele>63.0</ele><time>2026-05-03T07:05:43Z</time></trkpt><trkpt lat="45.04767323393412" lon="9.581390732343083"><ele>63.0</ele><time>2026-05-03T07:05:45Z</time></trkpt><trkpt lat="45.04761720017547" lon="9.581260585197949"><ele>63.0</ele><time>2026-05-03T07:05:47Z</time></trkpt><trkpt lat="45.047572486573564" lon="9.581119538780918"><ele>63.0</ele><time>2026-05-03T07:05:49Z</time></trkpt><trkpt lat="45.0475206193068" lon="9.581003438886778"><ele>63.0</ele><time>2026-05-03T07:05:51Z</time></trkpt><trkpt lat="45.0474703211362" lon="9.580875296174641"><ele>63.0</ele><time>2026-05-03T07:05:53Z</time></trkpt><trkpt lat="45.04741376396209" lon="9.58073981670579"><ele>63.0</ele><time>2026-05-03T07:05:55Z</time></trkpt><trkpt lat="45.0473579291011" lon="9.580603472321243"><ele>63.0</ele><time>2026-05-03T07:05:57Z</time></trkpt><trkpt lat="45.04730511256592" lon="9.580474728234092"><ele>63.0</ele><time>2026-05-03T07:05:59Z</time></trkpt><trkpt lat="45.0472561941063" lon="9.580347929916021"><ele>63.0</ele><time>2026-05-03T07:06:00.999Z</time></trkpt><trkpt lat="45.04720615136283" lon="9.580228160406579"><ele>62.8</ele><time>2026-05-03T07:06:02.999Z</time></trkpt><trkpt lat="45.047156356406994" lon="9.580100929134264"><ele>62.599999999999994</ele><time>2026-05-03T07:06:04.999Z</time></trkpt><trkpt lat="45.0471020240065" lon="9.579984639937289"><ele>62.400000000000006</ele><time>2026-05-03T07:06:06.999Z</time></trkpt><trkpt lat="45.04705350158207" lon="9.579857866665838"><ele>62.2</ele><time>2026-05-03T07:06:08.999Z</time></trkpt><trkpt lat="45.047000466897764" lon="9.57973821921358"><ele>62.0</ele><time>2026-05-03T07:06:10.999Z</time></trkpt><trkpt lat="45.04694770259271" lon="9.579612822571638"><ele>61.8</ele><time>2026-05-03T07:06:12.999Z</time></trkpt><trkpt lat="45.04689639741024" lon="9.579486790176695"><ele>61.6</ele><time>2026-05-03T07:06:14.999Z</time></trkpt><trkpt lat="45.046847601512404" lon="9.579368174374649"><ele>61.39999999999999</ele><time>2026-05-03T07:06:16.999Z</time></trkpt><trkpt lat="45.046800036122" lon="9.579244320780466"><ele>61.199999999999996</ele><time>2026-05-03T07:06:18.999Z</time></trkpt><trkpt lat="45.04675255412725" lon="9.579118715375031"><ele>61.0</ele><time>2026-05-03T07:06:20.999Z</time></trkpt><trkpt lat="45.04670647859127" lon="9.578991931950267"><ele>61.0</ele><time>2026-05-03T07:06:22.999Z</time></trkpt><trkpt lat="45.04666287651002" lon="9.578862363905174"><ele>60.99999999999999</ele><time>2026-05-03T07:06:24.999Z</time></trkpt><trkpt lat="45.046621650826545" lon="9.578729896974764"><ele>60.99999999999999</ele><time>2026-05-03T07:06:26.999Z</time></trkpt><trkpt lat="45.04657823895502" lon="9.57859597213051"><ele>61.0</ele><time>2026-05-03T07:06:28.999Z</time></trkpt><trkpt lat="45.04653646759355" lon="9.578465601269325"><ele>61.0</ele><time>2026-05-03T07:06:30.999Z</time></trkpt><trkpt lat="45.04649162168831" lon="9.578334518280252"><ele>61.0</ele><time>2026-05-03T07:06:32.999Z</time></trkpt><trkpt lat="45.04645049217217" lon="9.578201312427495"><ele>60.99999999999999</ele><time>2026-05-03T07:06:34.999Z</time></trkpt><trkpt lat="45.04640507150936" lon="9.578069250013684"><ele>60.99999999999999</ele><time>2026-05-03T07:06:36.999Z</time></trkpt><trkpt lat="45.046369228406455" lon="9.577941921809712"><ele>61.0</ele><time>2026-05-03T07:06:38.999Z</time></trkpt><trkpt lat="45.04632812825345" lon="9.577819294217187"><ele>61.0</ele><time>2026-05-03T07:06:40.999Z</time></trkpt><trkpt lat="45.046282294573814" lon="9.577694712465853"><ele>61.0</ele><time>2026-05-03T07:06:42.999Z</time></trkpt><trkpt lat="45.046240565015545" lon="9.57756926536239"><ele>60.99999999999999</ele><time>2026-05-03T07:06:44.999Z</time></trkpt><trkpt lat="45.04620349335204" lon="9.577437989063258"><ele>60.99999999999999</ele><time>2026-05-03T07:06:46.999Z</time></trkpt><trkpt lat="45.04615851172267" lon="9.577306760146158"><ele>61.0</ele><time>2026-05-03T07:06:48.999Z</time></trkpt><trkpt lat="45.04611801573396" lon="9.57718172224408"><ele>61.0</ele><time>2026-05-03T07:06:50.999Z</time></trkpt><trkpt lat="45.04607131275659" lon="9.577053998793094"><ele>61.199999999999996</ele><time>2026-05-03T07:06:52.999Z</time></trkpt><trkpt lat="45.04603029888864" lon="9.576928117548144"><ele>61.39999999999999</ele><time>2026-05-03T07:06:54.999Z</time></trkpt><trkpt lat="45.04598650249486" lon="9.57679292691891"><ele>61.6</ele><time>2026-05-03T07:06:56.999Z</time></trkpt><trkpt lat="45.04594895495948" lon="9.576660624042871"><ele>61.8</ele><time>2026-05-03T07:06:58.999Z</time></trkpt><trkpt lat="45.04590494708115" lon="9.576528388471832"><ele>62.0</ele><time>2026-05-03T07:07:00.999Z</time></trkpt><trkpt lat="45.045861057465615" lon="9.576398713818945"><ele>62.0</ele><time>2026-05-03T07:07:02.999Z</time></trkpt><trkpt lat="45.04581689066835" lon="9.57626760071426"><ele>62.0</ele><time>2026-05-03T07:07:04.999Z</time></trkpt><trkpt lat="45.0457763354817" lon="9.576135446477778"><ele>62.0</ele><time>2026-05-03T07:07:06.999Z</time></trkpt><trkpt lat="45.04573089506111" lon="9.576008155158402"><ele>62.0</ele><time>2026-05-03T07:07:08.999Z</time></trkpt><trkpt lat="45.04568991974499" lon="9.57587759823377"><ele>62.0</ele><time>2026-05-03T07:07:10.999Z</time></trkpt><trkpt lat="45.04564856445634" lon="9.575742880997632"><ele>62.2</ele><time>2026-05-03T07:07:12.999Z</time></trkpt><trkpt lat="45.04560387732493" lon="9.575610411569595"><ele>62.400000000000006</ele><time>2026-05-03T07:07:14.999Z</time></trkpt><trkpt lat="45.04556043090939" lon="9.575479145910874"><ele>62.599999999999994</ele><time>2026-05-03T07:07:16.999Z</time></trkpt><trkpt lat="45.045514751350886" lon="9.575343473405223"><ele>62.8</ele><time>2026-05-03T07:07:18.999Z</time></trkpt><trkpt lat="45.045465508823845" lon="9.575211451900033"><ele>63.0</ele><time>2026-05-03T07:07:20.999Z</time></trkpt><trkpt lat="45.04542645916357" lon="9.575073782208834"><ele>63.2</ele><time>2026-05-03T07:07:22.999Z</time></trkpt><trkpt lat="45.045376914522606" lon="9.574932910340372"><ele>63.4</ele><time>2026-05-03T07:07:24.999Z</time></trkpt><trkpt lat="45.04533718976202" lon="9.574798346913354"><ele>63.60000000000001</ele><time>2026-05-03T07:07:26.999Z</time></trkpt><trkpt lat="45.04529192832283" lon="9.574652020922562"><ele>63.800000000000004</ele><time>2026-05-03T07:07:28.999Z</time></trkpt><trkpt lat="45.04525484150242" lon="9.574530018271988"><ele>64.0</ele><time>2026-05-03T07:07:30.999Z</time></trkpt><trkpt lat="45.045209045327624" lon="9.574390616129293"><ele>64.4</ele><time>2026-05-03T07:07:32.999Z</time></trkpt><trkpt lat="45.04517014741172" lon="9.574252270913693"><ele>64.80000000000001</ele><time>2026-05-03T07:07:34.999Z</time></trkpt><trkpt lat="45.045123819524804" lon="9.5741239887397"><ele>65.19999999999999</ele><time>2026-05-03T07:07:36.999Z</time></trkpt><trkpt lat="45.045087037897474" lon="9.5739945884159"><ele>65.6</ele><time>2026-05-03T07:07:38.999Z</time></trkpt><trkpt lat="45.04504103997498" lon="9.573859975850924"><ele>66.0</ele><time>2026-05-03T07:07:40.999Z</time></trkpt><trkpt lat="45.04499400386" lon="9.573735388018257"><ele>65.39999999999999</ele><time>2026-05-03T07:07:42.999Z</time></trkpt><trkpt lat="45.0449501166988" lon="9.573609436669667"><ele>64.8</ele><time>2026-05-03T07:07:44.999Z</time></trkpt><trkpt lat="45.04490698678371" lon="9.573466218781585"><ele>64.19999999999999</ele><time>2026-05-03T07:07:46.999Z</time></trkpt><trkpt lat="45.0448608518092" lon="9.57332834107201"><ele>63.599999999999994</ele><time>2026-05-03T07:07:48.999Z</time></trkpt><trkpt lat="45.04481779817465" lon="9.573187554246863"><ele>63.0</ele><time>2026-05-03T07:07:50.999Z</time></trkpt><trkpt lat="45.04477978435369" lon="9.573046839666743"><ele>63.0</ele><time>2026-05-03T07:07:52.999Z</time></trkpt><trkpt lat="45.04473679109115" lon="9.572910461692862"><ele>63.0</ele><time>2026-05-03T07:07:54.999Z</time></trkpt><trkpt lat="45.04470400067761" lon="9.572769885835495"><ele>63.0</ele><time>2026-05-03T07:07:56.999Z</time></trkpt><trkpt lat="45.04469373832783" lon="9.57262413927259"><ele>63.0</ele><time>2026-05-03T07:07:58.999Z</time></trkpt><trkpt lat="45.04470450520562" lon="9.572481079489094"><ele>63.0</ele><time>2026-05-03T07:08:00.999Z</time></trkpt><trkpt lat="45.0447233181978" lon="9.572334905068507"><ele>63.0</ele><time>2026-05-03T07:08:02.999Z</time></trkpt><trkpt lat="45.04474099500587" lon="9.57218543611619"><ele>63.0</ele><time>2026-05-03T07:08:04.999Z</time></trkpt><trkpt lat="45.04475915564909" lon="9.572038111052331"><ele>63.0</ele><time>2026-05-03T07:08:06.999Z</time></trkpt><trkpt lat="45.04477255350847" lon="9.571888292290664"><ele>63.0</ele><time>2026-05-03T07:08:08.999Z</time></trkpt><trkpt lat="45.044783900742296" lon="9.571744667121486"><ele>63.0</ele><time>2026-05-03T07:08:10.999Z</time></trkpt><trkpt lat="45.0447961963291" lon="9.571598757407441"><ele>63.0</ele><time>2026-05-03T07:08:12.999Z</time></trkpt><trkpt lat="45.04480364478753" lon="9.571455536977753"><ele>63.0</ele><time>2026-05-03T07:08:14.999Z</time></trkpt><trkpt lat="45.04479346264059" lon="9.571315344123848"><ele>63.0</ele><time>2026-05-03T07:08:16.999Z</time></trkpt><trkpt lat="45.04475689425838" lon="9.571184518652482"><ele>63.0</ele><time>2026-05-03T07:08:18.999Z</time></trkpt><trkpt lat="45.0447019093132" lon="9.571065391622236"><ele>63.0</ele><time>2026-05-03T07:08:20.999Z</time></trkpt><trkpt lat="45.04464133189222" lon="9.570947200061378"><ele>63.2</ele><time>2026-05-03T07:08:22.999Z</time></trkpt><trkpt lat="45.04457586479937" lon="9.57082652947631"><ele>63.4</ele><time>2026-05-03T07:08:24.999Z</time></trkpt><trkpt lat="45.04451331748477" lon="9.570704386403142"><ele>63.60000000000001</ele><time>2026-05-03T07:08:26.999Z</time></trkpt><trkpt lat="45.0444508730885" lon="9.570580918649124"><ele>63.800000000000004</ele><time>2026-05-03T07:08:28.999Z</time></trkpt><trkpt lat="45.04438504456986" lon="9.570459833023492"><ele>64.0</ele><time>2026-05-03T07:08:30.999Z</time></trkpt><trkpt lat="45.044323050299816" lon="9.570340383142213"><ele>64.0</ele><time>2026-05-03T07:08:32.999Z</time></trkpt><trkpt lat="45.04425386158489" lon="9.570220545945675"><ele>64.0</ele><time>2026-05-03T07:08:34.999Z</time></trkpt><trkpt lat="45.04419325398985" lon="9.570092879150977"><ele>64.0</ele><time>2026-05-03T07:08:36.999Z</time></trkpt><trkpt lat="45.04412666554799" lon="9.569973439785771"><ele>64.0</ele><time>2026-05-03T07:08:38.999Z</time></trkpt><trkpt lat="45.04406736272164" lon="9.569855243772267"><ele>64.0</ele><time>2026-05-03T07:08:40.999Z</time></trkpt><trkpt lat="45.04400687481626" lon="9.569733014758755"><ele>63.800000000000004</ele><time>2026-05-03T07:08:42.999Z</time></trkpt><trkpt lat="45.04395034181712" lon="9.569609272283998"><ele>63.60000000000001</ele><time>2026-05-03T07:08:44.999Z</time></trkpt><trkpt lat="45.043892650597165" lon="9.569480698332736"><ele>63.4</ele><time>2026-05-03T07:08:46.999Z</time></trkpt><trkpt lat="45.04384042849395" lon="9.569357315172054"><ele>63.2</ele><time>2026-05-03T07:08:48.999Z</time></trkpt><trkpt lat="45.043783314619034" lon="9.569239923888174"><ele>63.0</ele><time>2026-05-03T07:08:50.999Z</time></trkpt><trkpt lat="45.0437247293768" lon="9.569122257335305"><ele>63.0</ele><time>2026-05-03T07:08:52.999Z</time></trkpt><trkpt lat="45.04366716335603" lon="9.569008085322574"><ele>63.0</ele><time>2026-05-03T07:08:54.999Z</time></trkpt><trkpt lat="45.043610838136594" lon="9.568882236562558"><ele>63.0</ele><time>2026-05-03T07:08:56.999Z</time></trkpt><trkpt lat="45.043551593592575" lon="9.568771223420434"><ele>63.0</ele><time>2026-05-03T07:08:58.999Z</time></trkpt><trkpt lat="45.04349492371513" lon="9.56865302999458"><ele>63.0</ele><time>2026-05-03T07:09:00.999Z</time></trkpt><trkpt lat="45.04344149993169" lon="9.5685392182788"><ele>63.2</ele><time>2026-05-03T07:09:02.999Z</time></trkpt><trkpt lat="45.043389803399705" lon="9.568425068631695"><ele>63.4</ele><time>2026-05-03T07:09:04.999Z</time></trkpt><trkpt lat="45.043333904627495" lon="9.568308098179223"><ele>63.60000000000001</ele><time>2026-05-03T07:09:06.999Z</time></trkpt><trkpt lat="45.04327661084072" lon="9.56819545081152"><ele>63.800000000000004</ele><time>2026-05-03T07:09:08.999Z</time></trkpt><trkpt lat="45.04320516438417" lon="9.56810545913498"><ele>64.0</ele><time>2026-05-03T07:09:10.999Z</time></trkpt><trkpt lat="45.04309434838227" lon="9.568143224771294"><ele>64.0</ele><time>2026-05-03T07:09:12.999Z</time></trkpt><trkpt lat="45.04300107264399" lon="9.568239452767404"><ele>64.0</ele><time>2026-05-03T07:09:14.999Z</time></trkpt><trkpt lat="45.04291446937757" lon="9.568342562085558"><ele>64.0</ele><time>2026-05-03T07:09:16.999Z</time></trkpt><trkpt lat="45.042823815529886" lon="9.56842834618463"><ele>64.0</ele><time>2026-05-03T07:09:18.999Z</time></trkpt><trkpt lat="45.042736202553385" lon="9.568534668950315"><ele>64.0</ele><time>2026-05-03T07:09:20.999Z</time></trkpt><trkpt lat="45.04264418104632" lon="9.568628077810688"><ele>64.0</ele><time>2026-05-03T07:09:22.999Z</time></trkpt><trkpt lat="45.04254731869861" lon="9.56872443647832"><ele>64.0</ele><time>2026-05-03T07:09:24.999Z</time></trkpt><trkpt lat="45.04245087582717" lon="9.568817253225188"><ele>64.0</ele><time>2026-05-03T07:09:26.999Z</time></trkpt><trkpt lat="45.0423624885683" lon="9.568917310000284"><ele>64.0</ele><time>2026-05-03T07:09:28.999Z</time></trkpt><trkpt lat="45.042268154426665" lon="9.569016397226404"><ele>64.0</ele><time>2026-05-03T07:09:30.999Z</time></trkpt><trkpt lat="45.0421726267062" lon="9.569112990113343"><ele>64.0</ele><time>2026-05-03T07:09:32.999Z</time></trkpt><trkpt lat="45.04207707510803" lon="9.56922115573211"><ele>64.0</ele><time>2026-05-03T07:09:34.999Z</time></trkpt><trkpt lat="45.04198431577173" lon="9.569308475470633"><ele>64.0</ele><time>2026-05-03T07:09:36.999Z</time></trkpt><trkpt lat="45.04189582112817" lon="9.569407889092341"><ele>64.0</ele><time>2026-05-03T07:09:38.999Z</time></trkpt><trkpt lat="45.04180617323961" lon="9.569503828127564"><ele>64.0</ele><time>2026-05-03T07:09:40.999Z</time></trkpt><trkpt lat="45.04172375352385" lon="9.569600568220228"><ele>64.0</ele><time>2026-05-03T07:09:42.999Z</time></trkpt><trkpt lat="45.04163469743337" lon="9.569695940837649"><ele>64.0</ele><time>2026-05-03T07:09:44.999Z</time></trkpt><trkpt lat="45.04154305099752" lon="9.56980112104774"><ele>64.5</ele><time>2026-05-03T07:09:46.999Z</time></trkpt><trkpt lat="45.04145022766326" lon="9.569899566989044"><ele>65.0</ele><time>2026-05-03T07:09:48.999Z</time></trkpt><trkpt lat="45.041351896694295" lon="9.569978734219362"><ele>65.5</ele><time>2026-05-03T07:09:50.999Z</time></trkpt><trkpt lat="45.041265688622495" lon="9.570081449447555"><ele>66.0</ele><time>2026-05-03T07:09:52.999Z</time></trkpt><trkpt lat="45.04117015903108" lon="9.57017433331327"><ele>66.0</ele><time>2026-05-03T07:09:54.999Z</time></trkpt><trkpt lat="45.04108312033118" lon="9.570270210029701"><ele>66.0</ele><time>2026-05-03T07:09:56.999Z</time></trkpt><trkpt lat="45.041001195252775" lon="9.570372239293564"><ele>66.0</ele><time>2026-05-03T07:09:58.999Z</time></trkpt><trkpt lat="45.04091138734321" lon="9.570470328610366"><ele>66.0</ele><time>2026-05-03T07:10:00.999Z</time></trkpt><trkpt lat="45.040830147618955" lon="9.57056425984758"><ele>66.0</ele><time>2026-05-03T07:10:02.999Z</time></trkpt><trkpt lat="45.04074717355114" lon="9.5706684576375"><ele>65.8</ele><time>2026-05-03T07:10:04.999Z</time></trkpt><trkpt lat="45.04065904070457" lon="9.570765034952"><ele>65.6</ele><time>2026-05-03T07:10:06.999Z</time></trkpt><trkpt lat="45.04057886898502" lon="9.570862786691729"><ele>65.4</ele><time>2026-05-03T07:10:08.999Z</time></trkpt><trkpt lat="45.04049384159942" lon="9.57094628197643"><ele>65.2</ele><time>2026-05-03T07:10:10.999Z</time></trkpt><trkpt lat="45.04040773672155" lon="9.571038340356608"><ele>65.0</ele><time>2026-05-03T07:10:12.999Z</time></trkpt><trkpt lat="45.040326505865174" lon="9.571133127219497"><ele>64.6</ele><time>2026-05-03T07:10:14.999Z</time></trkpt><trkpt lat="45.04024035749492" lon="9.571223325288374"><ele>64.2</ele><time>2026-05-03T07:10:16.999Z</time></trkpt><trkpt lat="45.04015448397564" lon="9.571328115816783"><ele>63.8</ele><time>2026-05-03T07:10:18.999Z</time></trkpt><trkpt lat="45.04007055632809" lon="9.571424456177933"><ele>63.4</ele><time>2026-05-03T07:10:20.999Z</time></trkpt><trkpt lat="45.03998549813856" lon="9.571523756619333"><ele>63.0</ele><time>2026-05-03T07:10:22.999Z</time></trkpt><trkpt lat="45.03990033174231" lon="9.571616591570429"><ele>62.8</ele><time>2026-05-03T07:10:24.999Z</time></trkpt><trkpt lat="45.03981082557623" lon="9.57171353690566"><ele>62.599999999999994</ele><time>2026-05-03T07:10:26.999Z</time></trkpt><trkpt lat="45.03972362935624" lon="9.571816300434767"><ele>62.400000000000006</ele><time>2026-05-03T07:10:28.999Z</time></trkpt><trkpt lat="45.039637099127056" lon="9.57191050716779"><ele>62.2</ele><time>2026-05-03T07:10:30.999Z</time></trkpt><trkpt lat="45.039553681274306" lon="9.572007602226817"><ele>62.0</ele><time>2026-05-03T07:10:32.999Z</time></trkpt><trkpt lat="45.03946862313521" lon="9.572106324583126"><ele>62.400000000000006</ele><time>2026-05-03T07:10:34.999Z</time></trkpt><trkpt lat="45.03938035433085" lon="9.572204685093205"><ele>62.800000000000004</ele><time>2026-05-03T07:10:36.999Z</time></trkpt><trkpt lat="45.0392955374779" lon="9.572295673142465"><ele>63.2</ele><time>2026-05-03T07:10:38.999Z</time></trkpt><trkpt lat="45.039211141115736" lon="9.572397273405352"><ele>63.6</ele><time>2026-05-03T07:10:40.999Z</time></trkpt><trkpt lat="45.039119883738806" lon="9.572494238918962"><ele>64.0</ele><time>2026-05-03T07:10:42.999Z</time></trkpt><trkpt lat="45.03903562505672" lon="9.572593750375177"><ele>64.2</ele><time>2026-05-03T07:10:44.999Z</time></trkpt><trkpt lat="45.03894972902599" lon="9.572689161169459"><ele>64.4</ele><time>2026-05-03T07:10:46.999Z</time></trkpt><trkpt lat="45.038859969485955" lon="9.572784493418208"><ele>64.6</ele><time>2026-05-03T07:10:48.999Z</time></trkpt><trkpt lat="45.03877527507433" lon="9.57287939426836"><ele>64.8</ele><time>2026-05-03T07:10:50.999Z</time></trkpt><trkpt lat="45.038693067231904" lon="9.572971401557913"><ele>65.0</ele><time>2026-05-03T07:10:52.999Z</time></trkpt><trkpt lat="45.03860594561328" lon="9.57306748884031"><ele>65.0</ele><time>2026-05-03T07:10:54.999Z</time></trkpt><trkpt lat="45.03852417720788" lon="9.57316002090307"><ele>65.0</ele><time>2026-05-03T07:10:56.999Z</time></trkpt><trkpt lat="45.038440713448956" lon="9.573250303934111"><ele>65.0</ele><time>2026-05-03T07:10:58.999Z</time></trkpt><trkpt lat="45.03835484361798" lon="9.57335279961748"><ele>65.0</ele><time>2026-05-03T07:11:00.999Z</time></trkpt><trkpt lat="45.038272804702494" lon="9.57344333107937"><ele>65.0</ele><time>2026-05-03T07:11:02.999Z</time></trkpt><trkpt lat="45.03818918209266" lon="9.573538680430577"><ele>65.4</ele><time>2026-05-03T07:11:04.999Z</time></trkpt><trkpt lat="45.03810197178846" lon="9.57363724314668"><ele>65.8</ele><time>2026-05-03T07:11:06.999Z</time></trkpt><trkpt lat="45.03802226569379" lon="9.573729646632813"><ele>66.2</ele><time>2026-05-03T07:11:08.999Z</time></trkpt><trkpt lat="45.03793691175749" lon="9.573822196164544"><ele>66.6</ele><time>2026-05-03T07:11:10.999Z</time></trkpt><trkpt lat="45.037857064534826" lon="9.57391139345472"><ele>67.0</ele><time>2026-05-03T07:11:12.999Z</time></trkpt><trkpt lat="45.03777609891364" lon="9.574003811189709"><ele>67.2</ele><time>2026-05-03T07:11:14.999Z</time></trkpt><trkpt lat="45.03769336947538" lon="9.574099225292473"><ele>67.4</ele><time>2026-05-03T07:11:16.999Z</time></trkpt><trkpt lat="45.03761486759648" lon="9.574199158289924"><ele>67.6</ele><time>2026-05-03T07:11:18.999Z</time></trkpt><trkpt lat="45.037530243833864" lon="9.574288002885206"><ele>67.8</ele><time>2026-05-03T07:11:20.999Z</time></trkpt><trkpt lat="45.03744457045163" lon="9.57438316631463"><ele>68.0</ele><time>2026-05-03T07:11:22.999Z</time></trkpt><trkpt lat="45.037358046358854" lon="9.5744676023957"><ele>68.2</ele><time>2026-05-03T07:11:24.999Z</time></trkpt><trkpt lat="45.03727410097659" lon="9.57456750056419"><ele>68.4</ele><time>2026-05-03T07:11:26.999Z</time></trkpt><trkpt lat="45.037186205959856" lon="9.5746605450874"><ele>68.60000000000001</ele><time>2026-05-03T07:11:28.999Z</time></trkpt><trkpt lat="45.0370999448746" lon="9.574755201760285"><ele>68.8</ele><time>2026-05-03T07:11:30.999Z</time></trkpt><trkpt lat="45.037006900366116" lon="9.574850392638814"><ele>69.0</ele><time>2026-05-03T07:11:32.999Z</time></trkpt><trkpt lat="45.036922325565286" lon="9.574943749083204"><ele>69.0</ele><time>2026-05-03T07:11:34.999Z</time></trkpt><trkpt lat="45.036840673481315" lon="9.575042611441573"><ele>69.0</ele><time>2026-05-03T07:11:36.999Z</time></trkpt><trkpt lat="45.03674840192151" lon="9.575140242251585"><ele>69.0</ele><time>2026-05-03T07:11:38.999Z</time></trkpt><trkpt lat="45.036666841309604" lon="9.575219609091432"><ele>69.0</ele><time>2026-05-03T07:11:40.999Z</time></trkpt><trkpt lat="45.03657273390648" lon="9.57531945087671"><ele>69.0</ele><time>2026-05-03T07:11:42.999Z</time></trkpt><trkpt lat="45.03649293779368" lon="9.575412459675128"><ele>69.66666666666667</ele><time>2026-05-03T07:11:44.999Z</time></trkpt><trkpt lat="45.03640473639078" lon="9.575521000272222"><ele>70.33333333333333</ele><time>2026-05-03T07:11:46.999Z</time></trkpt><trkpt lat="45.03632225329432" lon="9.575609772612198"><ele>71.0</ele><time>2026-05-03T07:11:48.999Z</time></trkpt><trkpt lat="45.03626352681955" lon="9.575655785949923"><ele>71.66666666666666</ele><time>2026-05-03T07:11:49.999Z</time></trkpt><trkpt lat="45.03620794588147" lon="9.575699331765607"><ele>72.33333333333333</ele><time>2026-05-03T07:11:50.999Z</time></trkpt><trkpt lat="45.036146019057455" lon="9.575753562620022"><ele>73.0</ele><time>2026-05-03T07:11:51.999Z</time></trkpt><trkpt lat="45.03606448882731" lon="9.575786106080248"><ele>73.0</ele><time>2026-05-03T07:11:53.999Z</time></trkpt><trkpt lat="45.03597498268864" lon="9.575851232377222"><ele>73.0</ele><time>2026-05-03T07:11:55.999Z</time></trkpt><trkpt lat="45.03587373112594" lon="9.575940016537084"><ele>73.0</ele><time>2026-05-03T07:11:57.999Z</time></trkpt><trkpt lat="45.03577459991702" lon="9.576040504467228"><ele>73.0</ele><time>2026-05-03T07:11:59.999Z</time></trkpt><trkpt lat="45.03567264680132" lon="9.576124530454734"><ele>72.4</ele><time>2026-05-03T07:12:01.999Z</time></trkpt><trkpt lat="45.03556555057665" lon="9.576166884331753"><ele>71.8</ele><time>2026-05-03T07:12:03.999Z</time></trkpt><trkpt lat="45.03550583087359" lon="9.5761958018056"><ele>71.2</ele><time>2026-05-03T07:12:04.999Z</time></trkpt><trkpt lat="45.035411957422106" lon="9.576255085041364"><ele>70.6</ele><time>2026-05-03T07:12:06.999Z</time></trkpt><trkpt lat="45.03531207267303" lon="9.576285435998729"><ele>70.0</ele><time>2026-05-03T07:12:08.999Z</time></trkpt><trkpt lat="45.03520595395098" lon="9.57632132600499"><ele>70.0</ele><time>2026-05-03T07:12:10.999Z</time></trkpt><trkpt lat="45.035103720583976" lon="9.576359894002806"><ele>70.0</ele><time>2026-05-03T07:12:12.999Z</time></trkpt><trkpt lat="45.034993597549345" lon="9.576407201464248"><ele>70.0</ele><time>2026-05-03T07:12:14.999Z</time></trkpt><trkpt lat="45.03488920630565" lon="9.576455516270055"><ele>70.0</ele><time>2026-05-03T07:12:16.999Z</time></trkpt><trkpt lat="45.03478374097788" lon="9.576497249813201"><ele>70.0</ele><time>2026-05-03T07:12:18.999Z</time></trkpt><trkpt lat="45.03468113451968" lon="9.576544459185092"><ele>70.4</ele><time>2026-05-03T07:12:20.999Z</time></trkpt><trkpt lat="45.03458072343828" lon="9.576589928285616"><ele>70.8</ele><time>2026-05-03T07:12:22.999Z</time></trkpt><trkpt lat="45.03451592286" lon="9.576608000963105"><ele>71.2</ele><time>2026-05-03T07:12:23.999Z</time></trkpt><trkpt lat="45.03441312692602" lon="9.576643802622142"><ele>71.6</ele><time>2026-05-03T07:12:25.999Z</time></trkpt><trkpt lat="45.03430486120481" lon="9.576689410419744"><ele>72.0</ele><time>2026-05-03T07:12:27.999Z</time></trkpt><trkpt lat="45.03420725705253" lon="9.576730222859329"><ele>71.6</ele><time>2026-05-03T07:12:29.999Z</time></trkpt><trkpt lat="45.03410643620157" lon="9.57678024273944"><ele>71.2</ele><time>2026-05-03T07:12:31.999Z</time></trkpt><trkpt lat="45.03399852534791" lon="9.576825686386123"><ele>70.8</ele><time>2026-05-03T07:12:33.999Z</time></trkpt><trkpt lat="45.03389261491567" lon="9.576866404904374"><ele>70.4</ele><time>2026-05-03T07:12:35.999Z</time></trkpt><trkpt lat="45.03379204548726" lon="9.576908711048468"><ele>70.0</ele><time>2026-05-03T07:12:37.999Z</time></trkpt><trkpt lat="45.03367960069321" lon="9.57695421212718"><ele>70.0</ele><time>2026-05-03T07:12:39.999Z</time></trkpt><trkpt lat="45.03357086639466" lon="9.576993574917276"><ele>70.0</ele><time>2026-05-03T07:12:41.999Z</time></trkpt><trkpt lat="45.03346134368422" lon="9.577033346460253"><ele>70.0</ele><time>2026-05-03T07:12:43.999Z</time></trkpt><trkpt lat="45.03335756899946" lon="9.577080079436792"><ele>70.0</ele><time>2026-05-03T07:12:45.999Z</time></trkpt><trkpt lat="45.033254159719526" lon="9.577118247782398"><ele>70.0</ele><time>2026-05-03T07:12:47.999Z</time></trkpt><trkpt lat="45.03316108190732" lon="9.577161290641754"><ele>70.0</ele><time>2026-05-03T07:12:49.999Z</time></trkpt><trkpt lat="45.03306113840017" lon="9.577205899241648"><ele>70.0</ele><time>2026-05-03T07:12:51.999Z</time></trkpt><trkpt lat="45.03296234064411" lon="9.577243259379262"><ele>70.0</ele><time>2026-05-03T07:12:53.999Z</time></trkpt><trkpt lat="45.032858084376876" lon="9.577287228353242"><ele>70.0</ele><time>2026-05-03T07:12:55.999Z</time></trkpt><trkpt lat="45.03276686639602" lon="9.57733199174489"><ele>70.0</ele><time>2026-05-03T07:12:57.999Z</time></trkpt><trkpt lat="45.0326767257553" lon="9.577372148773735"><ele>70.0</ele><time>2026-05-03T07:12:59.999Z</time></trkpt><trkpt lat="45.032595423204675" lon="9.577420384745523"><ele>70.0</ele><time>2026-05-03T07:13:01.999Z</time></trkpt><trkpt lat="45.03250442813597" lon="9.577481006623412"><ele>70.0</ele><time>2026-05-03T07:13:03.999Z</time></trkpt><trkpt lat="45.032435216916504" lon="9.577586481493839"><ele>70.0</ele><time>2026-05-03T07:13:05.999Z</time></trkpt><trkpt lat="45.03235547143832" lon="9.577655897887855"><ele>70.0</ele><time>2026-05-03T07:13:07.999Z</time></trkpt><trkpt lat="45.03229086182433" lon="9.5777499944976"><ele>70.0</ele><time>2026-05-03T07:13:09.999Z</time></trkpt><trkpt lat="45.03230315069296" lon="9.577877767239432"><ele>70.0</ele><time>2026-05-03T07:13:11.999Z</time></trkpt><trkpt lat="45.03231769759016" lon="9.577985546157365"><ele>70.0</ele><time>2026-05-03T07:13:13.999Z</time></trkpt><trkpt lat="45.03231382797062" lon="9.578085152561385"><ele>70.0</ele><time>2026-05-03T07:13:15.999Z</time></trkpt><trkpt lat="45.032309625989775" lon="9.578190812559429"><ele>70.0</ele><time>2026-05-03T07:13:17.999Z</time></trkpt><trkpt lat="45.03229631346363" lon="9.578283852598625"><ele>70.0</ele><time>2026-05-03T07:13:20.999Z</time></trkpt><trkpt lat="45.03223802147112" lon="9.578336537780274"><ele>70.0</ele><time>2026-05-03T07:13:46.999Z</time></trkpt><trkpt lat="45.032187351642925" lon="9.578403957927364"><ele>70.0</ele><time>2026-05-03T07:13:51.999Z</time></trkpt><trkpt lat="45.03213122765287" lon="9.578460048011488"><ele>70.0</ele><time>2026-05-03T07:13:54.999Z</time></trkpt><trkpt lat="45.032066284438706" lon="9.578461235131462"><ele>70.0</ele><time>2026-05-03T07:13:56.999Z</time></trkpt><trkpt lat="45.03198859831311" lon="9.57847968415766"><ele>70.0</ele><time>2026-05-03T07:13:58.999Z</time></trkpt><trkpt lat="45.03189274136642" lon="9.5785042795935"><ele>70.0</ele><time>2026-05-03T07:14:00.999Z</time></trkpt><trkpt lat="45.03180609582536" lon="9.57852595720464"><ele>70.0</ele><time>2026-05-03T07:14:02.999Z</time></trkpt><trkpt lat="45.03171918348107" lon="9.578553402292822"><ele>70.0</ele><time>2026-05-03T07:14:04.998Z</time></trkpt><trkpt lat="45.0316183981601" lon="9.578578325729461"><ele>70.0</ele><time>2026-05-03T07:14:06.998Z</time></trkpt><trkpt lat="45.031521119835105" lon="9.578606060003553"><ele>70.0</ele><time>2026-05-03T07:14:08.998Z</time></trkpt><trkpt lat="45.03142603620562" lon="9.578634484104366"><ele>70.0</ele><time>2026-05-03T07:14:10.998Z</time></trkpt><trkpt lat="45.03132821986978" lon="9.578655435811998"><ele>69.8</ele><time>2026-05-03T07:14:12.998Z</time></trkpt><trkpt lat="45.03122835075056" lon="9.578675637103919"><ele>69.6</ele><time>2026-05-03T07:14:14.998Z</time></trkpt><trkpt lat="45.03113323146025" lon="9.578709311400015"><ele>69.4</ele><time>2026-05-03T07:14:16.998Z</time></trkpt><trkpt lat="45.03104244567633" lon="9.578733659793643"><ele>69.2</ele><time>2026-05-03T07:14:18.998Z</time></trkpt><trkpt lat="45.030934755440725" lon="9.578755899108929"><ele>69.0</ele><time>2026-05-03T07:14:20.998Z</time></trkpt><trkpt lat="45.030837327407156" lon="9.578780512798842"><ele>69.2</ele><time>2026-05-03T07:14:22.998Z</time></trkpt><trkpt lat="45.03073682506829" lon="9.57881611275311"><ele>69.4</ele><time>2026-05-03T07:14:24.998Z</time></trkpt><trkpt lat="45.03061756050781" lon="9.578850775931985"><ele>69.6</ele><time>2026-05-03T07:14:26.998Z</time></trkpt><trkpt lat="45.030500533823776" lon="9.578879773592591"><ele>69.8</ele><time>2026-05-03T07:14:28.998Z</time></trkpt><trkpt lat="45.03039922260905" lon="9.578903267291205"><ele>70.0</ele><time>2026-05-03T07:14:30.998Z</time></trkpt><trkpt lat="45.03030413369087" lon="9.578933859445515"><ele>70.0</ele><time>2026-05-03T07:14:32.998Z</time></trkpt><trkpt lat="45.03020938591897" lon="9.578945519132773"><ele>70.0</ele><time>2026-05-03T07:14:34.998Z</time></trkpt><trkpt lat="45.030125759576364" lon="9.578950422992326"><ele>70.0</ele><time>2026-05-03T07:14:36.998Z</time></trkpt><trkpt lat="45.030027698892575" lon="9.578966725170353"><ele>70.0</ele><time>2026-05-03T07:14:38.998Z</time></trkpt><trkpt lat="45.02993045841494" lon="9.578958743777187"><ele>70.0</ele><time>2026-05-03T07:14:40.998Z</time></trkpt><trkpt lat="45.02983561864276" lon="9.578964554156906"><ele>70.0</ele><time>2026-05-03T07:14:42.998Z</time></trkpt><trkpt lat="45.029747394370894" lon="9.578969913553262"><ele>70.0</ele><time>2026-05-03T07:14:44.998Z</time></trkpt><trkpt lat="45.02965696621241" lon="9.5789937129306"><ele>70.0</ele><time>2026-05-03T07:14:46.998Z</time></trkpt><trkpt lat="45.029563345636625" lon="9.57901878950067"><ele>70.0</ele><time>2026-05-03T07:14:48.998Z</time></trkpt><trkpt lat="45.029468563830534" lon="9.579039257576317"><ele>70.0</ele><time>2026-05-03T07:14:50.998Z</time></trkpt><trkpt lat="45.02938015446007" lon="9.579087915853892"><ele>70.0</ele><time>2026-05-03T07:14:52.998Z</time></trkpt><trkpt lat="45.0292810899074" lon="9.579111238744446"><ele>70.0</ele><time>2026-05-03T07:14:54.998Z</time></trkpt><trkpt lat="45.029189630427794" lon="9.579114804473967"><ele>70.0</ele><time>2026-05-03T07:14:56.998Z</time></trkpt><trkpt lat="45.02909180638025" lon="9.579094963718742"><ele>70.0</ele><time>2026-05-03T07:14:58.998Z</time></trkpt><trkpt lat="45.02899444013885" lon="9.57909724735141"><ele>70.0</ele><time>2026-05-03T07:15:00.998Z</time></trkpt><trkpt lat="45.02890119118024" lon="9.579086444730828"><ele>70.0</ele><time>2026-05-03T07:15:02.998Z</time></trkpt><trkpt lat="45.028800593083005" lon="9.579085651926356"><ele>70.0</ele><time>2026-05-03T07:15:04.998Z</time></trkpt><trkpt lat="45.028706057512245" lon="9.579085702102486"><ele>70.0</ele><time>2026-05-03T07:15:06.998Z</time></trkpt><trkpt lat="45.0286084848962" lon="9.579069600883292"><ele>70.0</ele><time>2026-05-03T07:15:08.998Z</time></trkpt><trkpt lat="45.028511513902956" lon="9.579063411735792"><ele>70.0</ele><time>2026-05-03T07:15:10.998Z</time></trkpt><trkpt lat="45.028416392038814" lon="9.579059200452402"><ele>70.0</ele><time>2026-05-03T07:15:12.998Z</time></trkpt><trkpt lat="45.02831511306334" lon="9.579045377588674"><ele>70.0</ele><time>2026-05-03T07:15:14.998Z</time></trkpt><trkpt lat="45.02822059177122" lon="9.579051537972537"><ele>70.0</ele><time>2026-05-03T07:15:16.998Z</time></trkpt><trkpt lat="45.02811939723979" lon="9.579038686742152"><ele>70.0</ele><time>2026-05-03T07:15:18.998Z</time></trkpt><trkpt lat="45.02802685345676" lon="9.579023182682173"><ele>70.0</ele><time>2026-05-03T07:15:20.998Z</time></trkpt><trkpt lat="45.02793161811641" lon="9.57898682491462"><ele>70.0</ele><time>2026-05-03T07:15:22.998Z</time></trkpt><trkpt lat="45.027858836406786" lon="9.578928751570242"><ele>70.0</ele><time>2026-05-03T07:15:24.998Z</time></trkpt><trkpt lat="45.02778768340122" lon="9.578875246235505"><ele>70.0</ele><time>2026-05-03T07:15:26.998Z</time></trkpt><trkpt lat="45.02773053673591" lon="9.578826646723849"><ele>70.0</ele><time>2026-05-03T07:15:28.998Z</time></trkpt><trkpt lat="45.02764791227102" lon="9.578808040503544"><ele>70.0</ele><time>2026-05-03T07:15:30.998Z</time></trkpt><trkpt lat="45.027575365206644" lon="9.578829758155168"><ele>70.0</ele><time>2026-05-03T07:15:32.998Z</time></trkpt><trkpt lat="45.0275468907779" lon="9.578955218102694"><ele>70.0</ele><time>2026-05-03T07:15:34.998Z</time></trkpt><trkpt lat="45.027557225596205" lon="9.57910412462333"><ele>70.0</ele><time>2026-05-03T07:15:36.998Z</time></trkpt><trkpt lat="45.02757114677654" lon="9.579255662850898"><ele>70.0</ele><time>2026-05-03T07:15:38.998Z</time></trkpt><trkpt lat="45.02758292383143" lon="9.579412124653507"><ele>70.0</ele><time>2026-05-03T07:15:40.998Z</time></trkpt><trkpt lat="45.027586983828236" lon="9.579575761038015"><ele>70.0</ele><time>2026-05-03T07:15:42.998Z</time></trkpt><trkpt lat="45.027607670413026" lon="9.57973231659139"><ele>69.8</ele><time>2026-05-03T07:15:44.998Z</time></trkpt><trkpt lat="45.027612483054135" lon="9.579886834008125"><ele>69.6</ele><time>2026-05-03T07:15:46.998Z</time></trkpt><trkpt lat="45.027622199453525" lon="9.580040555887487"><ele>69.4</ele><time>2026-05-03T07:15:48.998Z</time></trkpt><trkpt lat="45.02763617505292" lon="9.580198151538783"><ele>69.2</ele><time>2026-05-03T07:15:50.998Z</time></trkpt><trkpt lat="45.027647874274074" lon="9.580353561141267"><ele>69.0</ele><time>2026-05-03T07:15:52.998Z</time></trkpt><trkpt lat="45.02766540631598" lon="9.580513896868167"><ele>69.0</ele><time>2026-05-03T07:15:54.998Z</time></trkpt><trkpt lat="45.02767982389486" lon="9.580666789594162"><ele>69.0</ele><time>2026-05-03T07:15:56.998Z</time></trkpt><trkpt lat="45.02769233616629" lon="9.580824811598292"><ele>69.0</ele><time>2026-05-03T07:15:58.998Z</time></trkpt><trkpt lat="45.02770661638591" lon="9.580981095352554"><ele>69.0</ele><time>2026-05-03T07:16:00.998Z</time></trkpt><trkpt lat="45.02771934685524" lon="9.581140891266495"><ele>69.0</ele><time>2026-05-03T07:16:02.998Z</time></trkpt><trkpt lat="45.027738185299945" lon="9.58130153615109"><ele>69.0</ele><time>2026-05-03T07:16:04.998Z</time></trkpt><trkpt lat="45.02775202791799" lon="9.581452488761508"><ele>69.0</ele><time>2026-05-03T07:16:06.998Z</time></trkpt><trkpt lat="45.02776997510816" lon="9.581616186864267"><ele>69.0</ele><time>2026-05-03T07:16:08.998Z</time></trkpt><trkpt lat="45.02778047133558" lon="9.581773959985762"><ele>69.0</ele><time>2026-05-03T07:16:10.998Z</time></trkpt><trkpt lat="45.02779016348659" lon="9.581935721595226"><ele>69.0</ele><time>2026-05-03T07:16:12.998Z</time></trkpt><trkpt lat="45.02780529503003" lon="9.582097776380346"><ele>69.0</ele><time>2026-05-03T07:16:14.998Z</time></trkpt><trkpt lat="45.02781579598613" lon="9.582254494589842"><ele>69.0</ele><time>2026-05-03T07:16:16.998Z</time></trkpt><trkpt lat="45.027827084850024" lon="9.582405847654085"><ele>69.0</ele><time>2026-05-03T07:16:18.998Z</time></trkpt><trkpt lat="45.02784164788114" lon="9.582567835209952"><ele>69.0</ele><time>2026-05-03T07:16:20.998Z</time></trkpt><trkpt lat="45.02785859382584" lon="9.58272503901183"><ele>69.0</ele><time>2026-05-03T07:16:22.998Z</time></trkpt><trkpt lat="45.02786740534225" lon="9.58288239772428"><ele>69.0</ele><time>2026-05-03T07:16:24.998Z</time></trkpt><trkpt lat="45.02788305050407" lon="9.583048450363492"><ele>69.0</ele><time>2026-05-03T07:16:26.998Z</time></trkpt><trkpt lat="45.02789718422555" lon="9.583208690265458"><ele>69.0</ele><time>2026-05-03T07:16:28.998Z</time></trkpt><trkpt lat="45.02790772795293" lon="9.583369435507725"><ele>69.0</ele><time>2026-05-03T07:16:30.998Z</time></trkpt><trkpt lat="45.02792100495125" lon="9.583526625205051"><ele>69.0</ele><time>2026-05-03T07:16:32.998Z</time></trkpt><trkpt lat="45.02793370936876" lon="9.583688395108954"><ele>69.0</ele><time>2026-05-03T07:16:34.998Z</time></trkpt><trkpt lat="45.02794572408306" lon="9.583841245386534"><ele>69.0</ele><time>2026-05-03T07:16:36.998Z</time></trkpt><trkpt lat="45.02795769325749" lon="9.584013201991834"><ele>69.0</ele><time>2026-05-03T07:16:38.998Z</time></trkpt><trkpt lat="45.02796929163148" lon="9.584158060245775"><ele>69.0</ele><time>2026-05-03T07:16:40.998Z</time></trkpt><trkpt lat="45.02798476235274" lon="9.584318401455342"><ele>69.0</ele><time>2026-05-03T07:16:42.998Z</time></trkpt><trkpt lat="45.02799832326539" lon="9.584472800742187"><ele>69.0</ele><time>2026-05-03T07:16:44.998Z</time></trkpt><trkpt lat="45.02801018927501" lon="9.584626460522477"><ele>69.4</ele><time>2026-05-03T07:16:46.998Z</time></trkpt><trkpt lat="45.028026093792676" lon="9.584773379995125"><ele>69.80000000000001</ele><time>2026-05-03T07:16:48.998Z</time></trkpt><trkpt lat="45.028036198173254" lon="9.584915736321388"><ele>70.19999999999999</ele><time>2026-05-03T07:16:50.998Z</time></trkpt><trkpt lat="45.02804865509033" lon="9.585043533744768"><ele>70.6</ele><time>2026-05-03T07:16:52.998Z</time></trkpt><trkpt lat="45.02804956403824" lon="9.585161149218319"><ele>71.0</ele><time>2026-05-03T07:16:54.998Z</time></trkpt><trkpt lat="45.02799482669116" lon="9.585252793186326"><ele>71.0</ele><time>2026-05-03T07:16:57.998Z</time></trkpt><trkpt lat="45.02789879480182" lon="9.585252855017472"><ele>71.0</ele><time>2026-05-03T07:16:59.998Z</time></trkpt><trkpt lat="45.02780034161469" lon="9.585259920000412"><ele>71.0</ele><time>2026-05-03T07:17:01.998Z</time></trkpt><trkpt lat="45.02770163665258" lon="9.585275872013705"><ele>71.0</ele><time>2026-05-03T07:17:03.998Z</time></trkpt><trkpt lat="45.02759339037317" lon="9.585295633466705"><ele>71.0</ele><time>2026-05-03T07:17:05.998Z</time></trkpt><trkpt lat="45.02748621565232" lon="9.58531053426792"><ele>71.0</ele><time>2026-05-03T07:17:07.998Z</time></trkpt><trkpt lat="45.02737774760142" lon="9.585326228232699"><ele>71.0</ele><time>2026-05-03T07:17:09.998Z</time></trkpt><trkpt lat="45.0272736355251" lon="9.585344378892733"><ele>71.0</ele><time>2026-05-03T07:17:11.998Z</time></trkpt><trkpt lat="45.027160599004205" lon="9.58536400400615"><ele>71.0</ele><time>2026-05-03T07:17:13.998Z</time></trkpt><trkpt lat="45.027051618337765" lon="9.585383115743866"><ele>71.0</ele><time>2026-05-03T07:17:15.998Z</time></trkpt><trkpt lat="45.026941141300426" lon="9.585398562353516"><ele>71.0</ele><time>2026-05-03T07:17:17.998Z</time></trkpt><trkpt lat="45.02682883761602" lon="9.585369199516181"><ele>71.0</ele><time>2026-05-03T07:17:19.998Z</time></trkpt><trkpt lat="45.026730826324034" lon="9.585284292862541"><ele>71.0</ele><time>2026-05-03T07:17:21.998Z</time></trkpt><trkpt lat="45.02663979147388" lon="9.585163519131527"><ele>71.0</ele><time>2026-05-03T07:17:23.998Z</time></trkpt><trkpt lat="45.02659269749859" lon="9.58502403503028"><ele>70.75</ele><time>2026-05-03T07:17:25.998Z</time></trkpt><trkpt lat="45.026570732051916" lon="9.584867168007273"><ele>70.5</ele><time>2026-05-03T07:17:27.998Z</time></trkpt><trkpt lat="45.02654892706175" lon="9.584705095370799"><ele>70.25</ele><time>2026-05-03T07:17:29.998Z</time></trkpt><trkpt lat="45.02652702234674" lon="9.584538696811961"><ele>70.0</ele><time>2026-05-03T07:17:31.998Z</time></trkpt><trkpt lat="45.02649511519583" lon="9.584386389365811"><ele>70.0</ele><time>2026-05-03T07:17:33.998Z</time></trkpt><trkpt lat="45.026468957613055" lon="9.584223496468748"><ele>70.0</ele><time>2026-05-03T07:17:35.998Z</time></trkpt><trkpt lat="45.02644688156171" lon="9.584065987701859"><ele>70.0</ele><time>2026-05-03T07:17:37.998Z</time></trkpt><trkpt lat="45.02642684436418" lon="9.583908010931765"><ele>70.0</ele><time>2026-05-03T07:17:39.998Z</time></trkpt><trkpt lat="45.02640134069576" lon="9.583749711112349"><ele>70.0</ele><time>2026-05-03T07:17:41.998Z</time></trkpt><trkpt lat="45.0263613092881" lon="9.58361091080271"><ele>70.0</ele><time>2026-05-03T07:17:43.998Z</time></trkpt><trkpt lat="45.026306272204344" lon="9.583556613825362"><ele>70.0</ele><time>2026-05-03T07:17:44.998Z</time></trkpt><trkpt lat="45.0262382186574" lon="9.583551731816533"><ele>70.0</ele><time>2026-05-03T07:17:45.998Z</time></trkpt><trkpt lat="45.02617150217726" lon="9.583567991428549"><ele>70.0</ele><time>2026-05-03T07:17:46.998Z</time></trkpt><trkpt lat="45.026112804829005" lon="9.583609229759649"><ele>70.0</ele><time>2026-05-03T07:17:47.998Z</time></trkpt><trkpt lat="45.02599871751074" lon="9.583678224425661"><ele>70.0</ele><time>2026-05-03T07:17:49.998Z</time></trkpt><trkpt lat="45.025884299677614" lon="9.583747449012236"><ele>70.0</ele><time>2026-05-03T07:17:51.998Z</time></trkpt><trkpt lat="45.025781398015425" lon="9.5838064916157"><ele>70.0</ele><time>2026-05-03T07:17:53.998Z</time></trkpt><trkpt lat="45.02567612399419" lon="9.583872844872094"><ele>70.0</ele><time>2026-05-03T07:17:55.998Z</time></trkpt><trkpt lat="45.025612257742026" lon="9.583901949926615"><ele>70.0</ele><time>2026-05-03T07:17:56.998Z</time></trkpt><trkpt lat="45.025500916935954" lon="9.583959093825072"><ele>70.2</ele><time>2026-05-03T07:17:58.998Z</time></trkpt><trkpt lat="45.02538898948131" lon="9.58402161258904"><ele>70.4</ele><time>2026-05-03T07:18:00.998Z</time></trkpt><trkpt lat="45.02532033904405" lon="9.584043445846989"><ele>70.6</ele><time>2026-05-03T07:18:01.998Z</time></trkpt><trkpt lat="45.0252001853025" lon="9.584078449098113"><ele>70.8</ele><time>2026-05-03T07:18:03.998Z</time></trkpt><trkpt lat="45.025087793834544" lon="9.584112986035633"><ele>71.0</ele><time>2026-05-03T07:18:05.998Z</time></trkpt><trkpt lat="45.02502636930865" lon="9.584134305011297"><ele>71.0</ele><time>2026-05-03T07:18:06.998Z</time></trkpt><trkpt lat="45.024916451303476" lon="9.5841672066483"><ele>71.0</ele><time>2026-05-03T07:18:08.998Z</time></trkpt><trkpt lat="45.02485148670572" lon="9.584186079517826"><ele>71.0</ele><time>2026-05-03T07:18:09.998Z</time></trkpt><trkpt lat="45.024734080771786" lon="9.584218003594096"><ele>71.0</ele><time>2026-05-03T07:18:11.998Z</time></trkpt><trkpt lat="45.02462045183348" lon="9.584249901487084"><ele>71.0</ele><time>2026-05-03T07:18:13.998Z</time></trkpt><trkpt lat="45.02449897575834" lon="9.584280381160907"><ele>71.0</ele><time>2026-05-03T07:18:15.998Z</time></trkpt><trkpt lat="45.02438726059913" lon="9.584311993095126"><ele>71.0</ele><time>2026-05-03T07:18:17.998Z</time></trkpt><trkpt lat="45.024325198975546" lon="9.58432948865145"><ele>71.0</ele><time>2026-05-03T07:18:18.998Z</time></trkpt><trkpt lat="45.024209312030095" lon="9.584350571840297"><ele>71.0</ele><time>2026-05-03T07:18:20.998Z</time></trkpt><trkpt lat="45.02410084282737" lon="9.584389787771215"><ele>71.0</ele><time>2026-05-03T07:18:22.998Z</time></trkpt><trkpt lat="45.02398325922747" lon="9.58442299371488"><ele>70.75</ele><time>2026-05-03T07:18:24.998Z</time></trkpt><trkpt lat="45.02387026514967" lon="9.584447471750309"><ele>70.5</ele><time>2026-05-03T07:18:26.998Z</time></trkpt><trkpt lat="45.02375432274907" lon="9.584478544447904"><ele>70.25</ele><time>2026-05-03T07:18:28.998Z</time></trkpt><trkpt lat="45.023644617701265" lon="9.584508991826263"><ele>70.0</ele><time>2026-05-03T07:18:30.998Z</time></trkpt><trkpt lat="45.02352861718823" lon="9.584526536899524"><ele>70.4</ele><time>2026-05-03T07:18:32.998Z</time></trkpt><trkpt lat="45.02342664489801" lon="9.584561955961076"><ele>70.8</ele><time>2026-05-03T07:18:34.998Z</time></trkpt><trkpt lat="45.02331866971108" lon="9.584588977864232"><ele>71.2</ele><time>2026-05-03T07:18:36.998Z</time></trkpt><trkpt lat="45.023216755752706" lon="9.584616054976818"><ele>71.6</ele><time>2026-05-03T07:18:38.998Z</time></trkpt><trkpt lat="45.023116245868025" lon="9.5846496594791"><ele>72.0</ele><time>2026-05-03T07:18:40.998Z</time></trkpt><trkpt lat="45.02300762173101" lon="9.584653247699304"><ele>72.2</ele><time>2026-05-03T07:18:42.998Z</time></trkpt><trkpt lat="45.02295557148571" lon="9.584599953835122"><ele>72.4</ele><time>2026-05-03T07:18:43.998Z</time></trkpt><trkpt lat="45.02290297948195" lon="9.584445278967575"><ele>72.6</ele><time>2026-05-03T07:18:45.998Z</time></trkpt><trkpt lat="45.02285203497287" lon="9.584301919160792"><ele>72.8</ele><time>2026-05-03T07:18:47.998Z</time></trkpt><trkpt lat="45.022798356817" lon="9.58415741128859"><ele>73.0</ele><time>2026-05-03T07:18:49.998Z</time></trkpt><trkpt lat="45.022743889434715" lon="9.584022770896093"><ele>72.5</ele><time>2026-05-03T07:18:51.998Z</time></trkpt><trkpt lat="45.02268886442566" lon="9.583886087913768"><ele>72.0</ele><time>2026-05-03T07:18:53.998Z</time></trkpt><trkpt lat="45.02263314854752" lon="9.583744617279285"><ele>71.5</ele><time>2026-05-03T07:18:55.998Z</time></trkpt><trkpt lat="45.02257924426118" lon="9.583608089911111"><ele>71.0</ele><time>2026-05-03T07:18:57.998Z</time></trkpt><trkpt lat="45.022526111142966" lon="9.583463131365308"><ele>71.25</ele><time>2026-05-03T07:18:59.998Z</time></trkpt><trkpt lat="45.02246524006872" lon="9.58332136562866"><ele>71.5</ele><time>2026-05-03T07:19:01.998Z</time></trkpt><trkpt lat="45.02240521044267" lon="9.583175987805372"><ele>71.75</ele><time>2026-05-03T07:19:03.998Z</time></trkpt><trkpt lat="45.02235238586578" lon="9.583040864336247"><ele>72.0</ele><time>2026-05-03T07:19:05.998Z</time></trkpt><trkpt lat="45.022291995585846" lon="9.582894818572564"><ele>72.5</ele><time>2026-05-03T07:19:07.998Z</time></trkpt><trkpt lat="45.02223139810903" lon="9.582758460291085"><ele>73.0</ele><time>2026-05-03T07:19:09.998Z</time></trkpt><trkpt lat="45.02216259063353" lon="9.582615995159097"><ele>73.5</ele><time>2026-05-03T07:19:11.998Z</time></trkpt><trkpt lat="45.02209140285616" lon="9.58248338131745"><ele>74.0</ele><time>2026-05-03T07:19:13.998Z</time></trkpt><trkpt lat="45.022026171060126" lon="9.582366882706902"><ele>74.0</ele><time>2026-05-03T07:19:15.998Z</time></trkpt><trkpt lat="45.02196578819474" lon="9.582258420153725"><ele>74.0</ele><time>2026-05-03T07:19:17.998Z</time></trkpt><trkpt lat="45.02190717069255" lon="9.582152668672764"><ele>74.0</ele><time>2026-05-03T07:19:19.998Z</time></trkpt><trkpt lat="45.021848535457245" lon="9.582067828825455"><ele>74.0</ele><time>2026-05-03T07:19:21.998Z</time></trkpt><trkpt lat="45.02176319262486" lon="9.582033226060167"><ele>74.0</ele><time>2026-05-03T07:19:23.998Z</time></trkpt><trkpt lat="45.02167735349787" lon="9.582060229665137"><ele>73.60000000000001</ele><time>2026-05-03T07:19:25.998Z</time></trkpt><trkpt lat="45.0215850388466" lon="9.582117589421673"><ele>73.2</ele><time>2026-05-03T07:19:27.998Z</time></trkpt><trkpt lat="45.021485038285306" lon="9.582188923241024"><ele>72.80000000000001</ele><time>2026-05-03T07:19:29.998Z</time></trkpt><trkpt lat="45.02138622416483" lon="9.582249137410857"><ele>72.4</ele><time>2026-05-03T07:19:31.998Z</time></trkpt><trkpt lat="45.02128267379524" lon="9.582320633631014"><ele>72.0</ele><time>2026-05-03T07:19:33.998Z</time></trkpt><trkpt lat="45.02118496414429" lon="9.582379169749482"><ele>72.0</ele><time>2026-05-03T07:19:35.998Z</time></trkpt><trkpt lat="45.021084771154385" lon="9.582439336479599"><ele>72.0</ele><time>2026-05-03T07:19:37.998Z</time></trkpt><trkpt lat="45.02099276143487" lon="9.582494288945615"><ele>72.0</ele><time>2026-05-03T07:19:39.998Z</time></trkpt><trkpt lat="45.020899109245775" lon="9.582556276059305"><ele>72.0</ele><time>2026-05-03T07:19:41.998Z</time></trkpt><trkpt lat="45.020814945184426" lon="9.582619013868271"><ele>72.0</ele><time>2026-05-03T07:19:43.998Z</time></trkpt><trkpt lat="45.02074460222055" lon="9.582661659834985"><ele>71.8</ele><time>2026-05-03T07:19:45.998Z</time></trkpt><trkpt lat="45.020661314097055" lon="9.582654428789732"><ele>71.6</ele><time>2026-05-03T07:19:48.998Z</time></trkpt><trkpt lat="45.0206158863738" lon="9.58254764210065"><ele>71.39999999999999</ele><time>2026-05-03T07:19:50.998Z</time></trkpt><trkpt lat="45.02057325139301" lon="9.582430154708005"><ele>71.2</ele><time>2026-05-03T07:19:52.998Z</time></trkpt><trkpt lat="45.020505144475635" lon="9.582317444929984"><ele>71.0</ele><time>2026-05-03T07:19:54.998Z</time></trkpt><trkpt lat="45.02044475179363" lon="9.582196786258256"><ele>71.0</ele><time>2026-05-03T07:19:56.998Z</time></trkpt><trkpt lat="45.020361608210045" lon="9.582086751982668"><ele>71.0</ele><time>2026-05-03T07:19:58.998Z</time></trkpt><trkpt lat="45.02027408782859" lon="9.582011667525082"><ele>71.0</ele><time>2026-05-03T07:20:00.998Z</time></trkpt><trkpt lat="45.020175964762274" lon="9.581934024686172"><ele>71.0</ele><time>2026-05-03T07:20:02.998Z</time></trkpt><trkpt lat="45.0200723940688" lon="9.581881517424838"><ele>71.0</ele><time>2026-05-03T07:20:04.998Z</time></trkpt><trkpt lat="45.01997154379012" lon="9.581843193178065"><ele>71.8</ele><time>2026-05-03T07:20:06.998Z</time></trkpt><trkpt lat="45.01986614529693" lon="9.581804159795627"><ele>72.6</ele><time>2026-05-03T07:20:08.998Z</time></trkpt><trkpt lat="45.01976547335946" lon="9.581776790401065"><ele>73.4</ele><time>2026-05-03T07:20:10.998Z</time></trkpt><trkpt lat="45.01966245987272" lon="9.581737185021703"><ele>74.2</ele><time>2026-05-03T07:20:12.998Z</time></trkpt><trkpt lat="45.01956722247136" lon="9.58169699414084"><ele>75.0</ele><time>2026-05-03T07:20:15.002Z</time></trkpt><trkpt lat="45.019460924660606" lon="9.58165065304588"><ele>75.0</ele><time>2026-05-03T07:20:17.002Z</time></trkpt><trkpt lat="45.019359055814185" lon="9.581612431798495"><ele>75.0</ele><time>2026-05-03T07:20:19.002Z</time></trkpt><trkpt lat="45.01924811792985" lon="9.58160000293481"><ele>75.0</ele><time>2026-05-03T07:20:21.002Z</time></trkpt><trkpt lat="45.019144790268605" lon="9.581612230001996"><ele>75.0</ele><time>2026-05-03T07:20:23.002Z</time></trkpt><trkpt lat="45.01903444435849" lon="9.581601052684576"><ele>75.0</ele><time>2026-05-03T07:20:25.002Z</time></trkpt><trkpt lat="45.01892682474495" lon="9.581604615912264"><ele>74.8</ele><time>2026-05-03T07:20:27.002Z</time></trkpt><trkpt lat="45.01881972624726" lon="9.58160076495515"><ele>74.6</ele><time>2026-05-03T07:20:29.002Z</time></trkpt><trkpt lat="45.018705732649835" lon="9.581598404305964"><ele>74.4</ele><time>2026-05-03T07:20:31.002Z</time></trkpt><trkpt lat="45.01859793173354" lon="9.58159216541535"><ele>74.2</ele><time>2026-05-03T07:20:33.002Z</time></trkpt><trkpt lat="45.018495412779046" lon="9.581595774524967"><ele>74.0</ele><time>2026-05-03T07:20:35.002Z</time></trkpt><trkpt lat="45.01838651412282" lon="9.581604865665842"><ele>74.0</ele><time>2026-05-03T07:20:37.002Z</time></trkpt><trkpt lat="45.018275440288356" lon="9.581604307115896"><ele>74.0</ele><time>2026-05-03T07:20:39.002Z</time></trkpt><trkpt lat="45.018168000995345" lon="9.581610315771014"><ele>74.0</ele><time>2026-05-03T07:20:41.002Z</time></trkpt><trkpt lat="45.018065741377754" lon="9.581611080986553"><ele>74.0</ele><time>2026-05-03T07:20:43.002Z</time></trkpt><trkpt lat="45.01796014329436" lon="9.581618835326722"><ele>74.0</ele><time>2026-05-03T07:20:45.002Z</time></trkpt><trkpt lat="45.01786222852537" lon="9.5816290604045"><ele>74.0</ele><time>2026-05-03T07:20:47.002Z</time></trkpt><trkpt lat="45.01775318976543" lon="9.581641726690366"><ele>74.0</ele><time>2026-05-03T07:20:49.002Z</time></trkpt><trkpt lat="45.017645301221" lon="9.581666959376012"><ele>74.0</ele><time>2026-05-03T07:20:51.002Z</time></trkpt><trkpt lat="45.01753941891747" lon="9.58171783085569"><ele>74.0</ele><time>2026-05-03T07:20:53.002Z</time></trkpt><trkpt lat="45.01743819231226" lon="9.581801743721053"><ele>74.0</ele><time>2026-05-03T07:20:55.002Z</time></trkpt><trkpt lat="45.017336746711564" lon="9.581886147493217"><ele>74.0</ele><time>2026-05-03T07:20:57.002Z</time></trkpt><trkpt lat="45.01723541180489" lon="9.581983694244448"><ele>74.0</ele><time>2026-05-03T07:20:59.002Z</time></trkpt><trkpt lat="45.01713392036919" lon="9.582081686644836"><ele>74.0</ele><time>2026-05-03T07:21:01.002Z</time></trkpt><trkpt lat="45.01703769977384" lon="9.582179208581207"><ele>74.0</ele><time>2026-05-03T07:21:03.003Z</time></trkpt><trkpt lat="45.01693551208772" lon="9.582259186924045"><ele>74.0</ele><time>2026-05-03T07:21:05.002Z</time></trkpt><trkpt lat="45.01683435182279" lon="9.582351117752417"><ele>74.0</ele><time>2026-05-03T07:21:07.002Z</time></trkpt><trkpt lat="45.01673594691772" lon="9.582433473910987"><ele>74.0</ele><time>2026-05-03T07:21:09.003Z</time></trkpt><trkpt lat="45.01663591171947" lon="9.582527629674923"><ele>74.0</ele><time>2026-05-03T07:21:11.002Z</time></trkpt><trkpt lat="45.016588463792985" lon="9.582586765628108"><ele>74.0</ele><time>2026-05-03T07:21:12.002Z</time></trkpt><trkpt lat="45.01648814451095" lon="9.582661543945798"><ele>74.2</ele><time>2026-05-03T07:21:14.002Z</time></trkpt><trkpt lat="45.01639386005231" lon="9.582754512834821"><ele>74.4</ele><time>2026-05-03T07:21:16.003Z</time></trkpt><trkpt lat="45.01634696849904" lon="9.582815053894558"><ele>74.6</ele><time>2026-05-03T07:21:17.003Z</time></trkpt><trkpt lat="45.01629800659351" lon="9.582871853572838"><ele>74.8</ele><time>2026-05-03T07:21:18.003Z</time></trkpt><trkpt lat="45.01620206871554" lon="9.582952079268757"><ele>75.0</ele><time>2026-05-03T07:21:20.003Z</time></trkpt><trkpt lat="45.01612125977612" lon="9.583054498826773"><ele>75.2</ele><time>2026-05-03T07:21:22.003Z</time></trkpt><trkpt lat="45.01606873857063" lon="9.583113295009461"><ele>75.4</ele><time>2026-05-03T07:21:23.003Z</time></trkpt><trkpt lat="45.015974168416975" lon="9.583195665923181"><ele>75.6</ele><time>2026-05-03T07:21:25.003Z</time></trkpt><trkpt lat="45.01589143527374" lon="9.583295030141642"><ele>75.8</ele><time>2026-05-03T07:21:27.003Z</time></trkpt><trkpt lat="45.01579675937629" lon="9.583384551488406"><ele>76.0</ele><time>2026-05-03T07:21:29.003Z</time></trkpt><trkpt lat="45.015718522328385" lon="9.583451677192357"><ele>76.0</ele><time>2026-05-03T07:21:31.003Z</time></trkpt><trkpt lat="45.01564964117657" lon="9.58350640497666"><ele>76.0</ele><time>2026-05-03T07:21:33.003Z</time></trkpt><trkpt lat="45.01557924269664" lon="9.583490096536037"><ele>76.0</ele><time>2026-05-03T07:21:35.003Z</time></trkpt><trkpt lat="45.01555497957002" lon="9.583382738136798"><ele>76.0</ele><time>2026-05-03T07:21:37.003Z</time></trkpt><trkpt lat="45.01554694287766" lon="9.583247817599117"><ele>76.0</ele><time>2026-05-03T07:21:39.003Z</time></trkpt><trkpt lat="45.01552989726311" lon="9.583086509283351"><ele>76.0</ele><time>2026-05-03T07:21:41.002Z</time></trkpt><trkpt lat="45.01550969853185" lon="9.58294640556885"><ele>75.8</ele><time>2026-05-03T07:21:43.002Z</time></trkpt><trkpt lat="45.01548516223655" lon="9.582794722556738"><ele>75.6</ele><time>2026-05-03T07:21:45.002Z</time></trkpt><trkpt lat="45.01544445346487" lon="9.582645096658371"><ele>75.4</ele><time>2026-05-03T07:21:47.002Z</time></trkpt><trkpt lat="45.0154015612994" lon="9.582517821747487"><ele>75.2</ele><time>2026-05-03T07:21:49.002Z</time></trkpt><trkpt lat="45.01535062030314" lon="9.582382781718863"><ele>75.0</ele><time>2026-05-03T07:21:51.002Z</time></trkpt><trkpt lat="45.0153065468518" lon="9.582249359962587"><ele>75.0</ele><time>2026-05-03T07:21:53.002Z</time></trkpt><trkpt lat="45.01526015702119" lon="9.582118359300308"><ele>75.0</ele><time>2026-05-03T07:21:55.002Z</time></trkpt><trkpt lat="45.015220285735396" lon="9.581985354289683"><ele>75.0</ele><time>2026-05-03T07:21:57.002Z</time></trkpt><trkpt lat="45.01518359771908" lon="9.581854873678614"><ele>75.0</ele><time>2026-05-03T07:21:59.002Z</time></trkpt><trkpt lat="45.015154673391436" lon="9.581720599050271"><ele>75.0</ele><time>2026-05-03T07:22:01.002Z</time></trkpt><trkpt lat="45.015121865450354" lon="9.581580493745804"><ele>75.2</ele><time>2026-05-03T07:22:03.002Z</time></trkpt><trkpt lat="45.01510243867556" lon="9.581441667940553"><ele>75.4</ele><time>2026-05-03T07:22:05.002Z</time></trkpt><trkpt lat="45.01508634992246" lon="9.581297746772366"><ele>75.6</ele><time>2026-05-03T07:22:07.002Z</time></trkpt><trkpt lat="45.01508174380349" lon="9.58115146216423"><ele>75.8</ele><time>2026-05-03T07:22:09.002Z</time></trkpt><trkpt lat="45.015077788941646" lon="9.580999805006938"><ele>76.0</ele><time>2026-05-03T07:22:11.002Z</time></trkpt><trkpt lat="45.01507011439704" lon="9.580844180091276"><ele>76.0</ele><time>2026-05-03T07:22:13.002Z</time></trkpt><trkpt lat="45.015057702001286" lon="9.580695757683793"><ele>76.0</ele><time>2026-05-03T07:22:15.002Z</time></trkpt><trkpt lat="45.0150518647317" lon="9.580541251581844"><ele>76.0</ele><time>2026-05-03T07:22:17.002Z</time></trkpt><trkpt lat="45.01504152801879" lon="9.580385022078758"><ele>76.0</ele><time>2026-05-03T07:22:19.002Z</time></trkpt><trkpt lat="45.01503028353456" lon="9.580230676096265"><ele>76.0</ele><time>2026-05-03T07:22:21.002Z</time></trkpt><trkpt lat="45.01501759582413" lon="9.580068832784443"><ele>76.0</ele><time>2026-05-03T07:22:23.002Z</time></trkpt><trkpt lat="45.01500965749022" lon="9.579908443794086"><ele>76.0</ele><time>2026-05-03T07:22:25.002Z</time></trkpt><trkpt lat="45.014992238013825" lon="9.579752345047197"><ele>76.0</ele><time>2026-05-03T07:22:27.002Z</time></trkpt><trkpt lat="45.01498774242408" lon="9.579588728421887"><ele>76.0</ele><time>2026-05-03T07:22:29.002Z</time></trkpt><trkpt lat="45.01496236329025" lon="9.579425513678464"><ele>76.2</ele><time>2026-05-03T07:22:31.002Z</time></trkpt><trkpt lat="45.014940700718206" lon="9.579272346796099"><ele>76.39999999999999</ele><time>2026-05-03T07:22:33.002Z</time></trkpt><trkpt lat="45.01490869396277" lon="9.579121777873498"><ele>76.6</ele><time>2026-05-03T07:22:35.002Z</time></trkpt><trkpt lat="45.01487585577125" lon="9.578975150909198"><ele>76.8</ele><time>2026-05-03T07:22:37.002Z</time></trkpt><trkpt lat="45.01483391436524" lon="9.57882868739437"><ele>77.0</ele><time>2026-05-03T07:22:39.002Z</time></trkpt><trkpt lat="45.01479064193695" lon="9.578679790607207"><ele>77.0</ele><time>2026-05-03T07:22:41.002Z</time></trkpt><trkpt lat="45.01474607317744" lon="9.578531975189037"><ele>77.0</ele><time>2026-05-03T07:22:43.002Z</time></trkpt><trkpt lat="45.01470233499879" lon="9.578379634290473"><ele>77.0</ele><time>2026-05-03T07:22:45.002Z</time></trkpt><trkpt lat="45.01464765038856" lon="9.57823445827888"><ele>77.0</ele><time>2026-05-03T07:22:47.002Z</time></trkpt><trkpt lat="45.01457348974933" lon="9.578123510526536"><ele>77.0</ele><time>2026-05-03T07:22:49.002Z</time></trkpt><trkpt lat="45.014474995395254" lon="9.57805035560085"><ele>77.0</ele><time>2026-05-03T07:22:51.002Z</time></trkpt><trkpt lat="45.0143684550227" lon="9.577998194815876"><ele>77.0</ele><time>2026-05-03T07:22:53.002Z</time></trkpt><trkpt lat="45.01425925055404" lon="9.577949284528216"><ele>77.0</ele><time>2026-05-03T07:22:55.002Z</time></trkpt><trkpt lat="45.014153140367796" lon="9.577896043701669"><ele>77.0</ele><time>2026-05-03T07:22:57.002Z</time></trkpt><trkpt lat="45.01404020723167" lon="9.577839854236407"><ele>77.0</ele><time>2026-05-03T07:22:59.002Z</time></trkpt><trkpt lat="45.0139333813233" lon="9.57779488917575"><ele>77.0</ele><time>2026-05-03T07:23:01.002Z</time></trkpt><trkpt lat="45.013819983248084" lon="9.577761839707987"><ele>77.0</ele><time>2026-05-03T07:23:03.002Z</time></trkpt><trkpt lat="45.01371251362146" lon="9.577712285715139"><ele>77.0</ele><time>2026-05-03T07:23:05.002Z</time></trkpt><trkpt lat="45.01361919695108" lon="9.577640536181507"><ele>77.0</ele><time>2026-05-03T07:23:07.002Z</time></trkpt><trkpt lat="45.01360811534619" lon="9.577464697569162"><ele>77.0</ele><time>2026-05-03T07:23:09.002Z</time></trkpt><trkpt lat="45.01361025818644" lon="9.577365167949763"><ele>77.0</ele><time>2026-05-03T07:23:10.002Z</time></trkpt><trkpt lat="45.01361169172942" lon="9.577274908770223"><ele>77.0</ele><time>2026-05-03T07:23:11.002Z</time></trkpt><trkpt lat="45.01360413514616" lon="9.577106538912583"><ele>76.6</ele><time>2026-05-03T07:23:13.003Z</time></trkpt><trkpt lat="45.01360121141204" lon="9.577015336495245"><ele>76.2</ele><time>2026-05-03T07:23:14.003Z</time></trkpt><trkpt lat="45.0135920949535" lon="9.576843735769225"><ele>75.8</ele><time>2026-05-03T07:23:16.003Z</time></trkpt><trkpt lat="45.01357309155336" lon="9.576678760342189"><ele>75.4</ele><time>2026-05-03T07:23:18.002Z</time></trkpt><trkpt lat="45.01355396022632" lon="9.576516543431305"><ele>75.0</ele><time>2026-05-03T07:23:20.003Z</time></trkpt><trkpt lat="45.01353402201618" lon="9.576347141256981"><ele>75.5</ele><time>2026-05-03T07:23:22.002Z</time></trkpt><trkpt lat="45.0135179855978" lon="9.576177822274113"><ele>76.0</ele><time>2026-05-03T07:23:24.002Z</time></trkpt><trkpt lat="45.01349590504836" lon="9.576009810921521"><ele>76.5</ele><time>2026-05-03T07:23:26.002Z</time></trkpt><trkpt lat="45.013476525282364" lon="9.575857082710632"><ele>77.0</ele><time>2026-05-03T07:23:28.002Z</time></trkpt><trkpt lat="45.01345231080721" lon="9.575694055623044"><ele>77.0</ele><time>2026-05-03T07:23:30.002Z</time></trkpt><trkpt lat="45.01342893510899" lon="9.575530176007788"><ele>77.0</ele><time>2026-05-03T07:23:32.002Z</time></trkpt><trkpt lat="45.013410623588705" lon="9.575383720937078"><ele>77.0</ele><time>2026-05-03T07:23:34.002Z</time></trkpt><trkpt lat="45.01338785092302" lon="9.575228713230654"><ele>77.0</ele><time>2026-05-03T07:23:36.002Z</time></trkpt><trkpt lat="45.01335950714913" lon="9.575067569367722"><ele>77.0</ele><time>2026-05-03T07:23:38.002Z</time></trkpt><trkpt lat="45.01333370348012" lon="9.574910958956611"><ele>77.0</ele><time>2026-05-03T07:23:40.002Z</time></trkpt><trkpt lat="45.013314066902076" lon="9.574743033832108"><ele>77.0</ele><time>2026-05-03T07:23:42.002Z</time></trkpt><trkpt lat="45.013284096393974" lon="9.574577661353914"><ele>77.0</ele><time>2026-05-03T07:23:44.002Z</time></trkpt><trkpt lat="45.01325894187985" lon="9.574415779429783"><ele>76.5</ele><time>2026-05-03T07:23:46.002Z</time></trkpt><trkpt lat="45.01322519457954" lon="9.574254097999795"><ele>76.0</ele><time>2026-05-03T07:23:48.002Z</time></trkpt><trkpt lat="45.013206010789446" lon="9.574080836072243"><ele>75.5</ele><time>2026-05-03T07:23:50.002Z</time></trkpt><trkpt lat="45.01318360487163" lon="9.573917260761553"><ele>75.0</ele><time>2026-05-03T07:23:52.002Z</time></trkpt><trkpt lat="45.01315926920177" lon="9.573762258698457"><ele>75.2</ele><time>2026-05-03T07:23:54.002Z</time></trkpt><trkpt lat="45.013134384110174" lon="9.573601208456347"><ele>75.4</ele><time>2026-05-03T07:23:56.002Z</time></trkpt><trkpt lat="45.013126828192206" lon="9.573512233411314"><ele>75.6</ele><time>2026-05-03T07:23:57.002Z</time></trkpt><trkpt lat="45.013125104010676" lon="9.573416649473726"><ele>75.8</ele><time>2026-05-03T07:23:58.002Z</time></trkpt><trkpt lat="45.013118895974515" lon="9.573250512551073"><ele>76.0</ele><time>2026-05-03T07:24:00.002Z</time></trkpt><trkpt lat="45.01310834495955" lon="9.573083071239846"><ele>76.0</ele><time>2026-05-03T07:24:02.002Z</time></trkpt><trkpt lat="45.01310869615215" lon="9.572913278999104"><ele>76.0</ele><time>2026-05-03T07:24:04.002Z</time></trkpt><trkpt lat="45.01309718304819" lon="9.572737609806063"><ele>76.0</ele><time>2026-05-03T07:24:06.002Z</time></trkpt><trkpt lat="45.01309279500579" lon="9.57257662048881"><ele>76.0</ele><time>2026-05-03T07:24:08.002Z</time></trkpt><trkpt lat="45.013089085137274" lon="9.572406779476328"><ele>76.5</ele><time>2026-05-03T07:24:10.002Z</time></trkpt><trkpt lat="45.013078592562124" lon="9.572240645384646"><ele>77.0</ele><time>2026-05-03T07:24:12.002Z</time></trkpt><trkpt lat="45.0130619728992" lon="9.572078787754888"><ele>77.5</ele><time>2026-05-03T07:24:14.002Z</time></trkpt><trkpt lat="45.01304746743019" lon="9.571913209196149"><ele>78.0</ele><time>2026-05-03T07:24:16.002Z</time></trkpt><trkpt lat="45.013041296990046" lon="9.571739922603365"><ele>78.16666666666667</ele><time>2026-05-03T07:24:18.002Z</time></trkpt><trkpt lat="45.01302999723968" lon="9.571594252581475"><ele>78.33333333333333</ele><time>2026-05-03T07:24:20.002Z</time></trkpt><trkpt lat="45.013020941052034" lon="9.571459972334537"><ele>78.5</ele><time>2026-05-03T07:24:22.002Z</time></trkpt><trkpt lat="45.01300220259568" lon="9.57135973719197"><ele>78.66666666666666</ele><time>2026-05-03T07:24:25.002Z</time></trkpt><trkpt lat="45.01294503747056" lon="9.571311803720178"><ele>78.83333333333333</ele><time>2026-05-03T07:24:27.002Z</time></trkpt><trkpt lat="45.01286847548061" lon="9.571314345202781"><ele>79.0</ele><time>2026-05-03T07:24:29.002Z</time></trkpt><trkpt lat="45.01277911802167" lon="9.571329790852102"><ele>79.0</ele><time>2026-05-03T07:24:31.002Z</time></trkpt><trkpt lat="45.01268886706275" lon="9.571336895321233"><ele>79.0</ele><time>2026-05-03T07:24:33.002Z</time></trkpt><trkpt lat="45.01258199176909" lon="9.57135451651993"><ele>79.0</ele><time>2026-05-03T07:24:35.002Z</time></trkpt><trkpt lat="45.012486550538185" lon="9.57136321471768"><ele>79.0</ele><time>2026-05-03T07:24:37.002Z</time></trkpt><trkpt lat="45.012375710224305" lon="9.571357701489731"><ele>79.0</ele><time>2026-05-03T07:24:39.002Z</time></trkpt><trkpt lat="45.01227231597241" lon="9.571355799015112"><ele>79.0</ele><time>2026-05-03T07:24:41.002Z</time></trkpt><trkpt lat="45.012163543576364" lon="9.571358215156035"><ele>79.0</ele><time>2026-05-03T07:24:43.002Z</time></trkpt><trkpt lat="45.01205683235724" lon="9.571355981242618"><ele>79.0</ele><time>2026-05-03T07:24:45.002Z</time></trkpt><trkpt lat="45.011949993660096" lon="9.571344091732776"><ele>79.0</ele><time>2026-05-03T07:24:47.002Z</time></trkpt><trkpt lat="45.011843129091616" lon="9.571347179585972"><ele>79.0</ele><time>2026-05-03T07:24:49.002Z</time></trkpt><trkpt lat="45.01174080674949" lon="9.571346672869476"><ele>78.8</ele><time>2026-05-03T07:24:51.002Z</time></trkpt><trkpt lat="45.01163710085087" lon="9.571354371300918"><ele>78.60000000000001</ele><time>2026-05-03T07:24:53.002Z</time></trkpt><trkpt lat="45.01153230955363" lon="9.571363343278199"><ele>78.4</ele><time>2026-05-03T07:24:55.002Z</time></trkpt><trkpt lat="45.01142204936051" lon="9.571374307962955"><ele>78.2</ele><time>2026-05-03T07:24:57.002Z</time></trkpt><trkpt lat="45.01131529930119" lon="9.57139417167507"><ele>78.0</ele><time>2026-05-03T07:24:59.002Z</time></trkpt><trkpt lat="45.011205337588834" lon="9.571403606108628"><ele>78.0</ele><time>2026-05-03T07:25:01.002Z</time></trkpt><trkpt lat="45.0110948479692" lon="9.571417835707699"><ele>78.0</ele><time>2026-05-03T07:25:03.002Z</time></trkpt><trkpt lat="45.01098568933495" lon="9.571431091329469"><ele>78.0</ele><time>2026-05-03T07:25:05.002Z</time></trkpt><trkpt lat="45.010879367024884" lon="9.571450557035586"><ele>78.0</ele><time>2026-05-03T07:25:07.002Z</time></trkpt><trkpt lat="45.010775066539296" lon="9.57147604109848"><ele>78.0</ele><time>2026-05-03T07:25:09.002Z</time></trkpt><trkpt lat="45.01067413622187" lon="9.57149128002693"><ele>78.4</ele><time>2026-05-03T07:25:11.002Z</time></trkpt><trkpt lat="45.01058229291989" lon="9.571500311882518"><ele>78.8</ele><time>2026-05-03T07:25:13.002Z</time></trkpt><trkpt lat="45.01050196539338" lon="9.571503282557245"><ele>79.2</ele><time>2026-05-03T07:25:15.003Z</time></trkpt><trkpt lat="45.0104190476697" lon="9.57150932372082"><ele>79.6</ele><time>2026-05-03T07:25:17.002Z</time></trkpt><trkpt lat="45.010314861570684" lon="9.571523746675695"><ele>80.0</ele><time>2026-05-03T07:25:19.003Z</time></trkpt><trkpt lat="45.010210534331186" lon="9.571551206460697"><ele>80.0</ele><time>2026-05-03T07:25:21.003Z</time></trkpt><trkpt lat="45.0100990103682" lon="9.57156719107009"><ele>80.0</ele><time>2026-05-03T07:25:23.003Z</time></trkpt><trkpt lat="45.009987913700414" lon="9.571581989439041"><ele>80.0</ele><time>2026-05-03T07:25:25.002Z</time></trkpt><trkpt lat="45.009872912394705" lon="9.571606165206342"><ele>80.0</ele><time>2026-05-03T07:25:27.003Z</time></trkpt><trkpt lat="45.00976033594182" lon="9.571621414918383"><ele>80.0</ele><time>2026-05-03T07:25:29.003Z</time></trkpt><trkpt lat="45.009643278047925" lon="9.571638215892674"><ele>80.0</ele><time>2026-05-03T07:25:31.003Z</time></trkpt><trkpt lat="45.009528418274705" lon="9.571661463195875"><ele>80.0</ele><time>2026-05-03T07:25:33.003Z</time></trkpt><trkpt lat="45.00941602277984" lon="9.571681572496335"><ele>80.0</ele><time>2026-05-03T07:25:35.003Z</time></trkpt><trkpt lat="45.009308642164584" lon="9.571714656412771"><ele>80.0</ele><time>2026-05-03T07:25:37.003Z</time></trkpt><trkpt lat="45.00919687117664" lon="9.571733644203537"><ele>80.0</ele><time>2026-05-03T07:25:39.003Z</time></trkpt><trkpt lat="45.00908000408087" lon="9.571747085275835"><ele>80.0</ele><time>2026-05-03T07:25:41.003Z</time></trkpt><trkpt lat="45.00896965096894" lon="9.571773044605163"><ele>80.0</ele><time>2026-05-03T07:25:43.003Z</time></trkpt><trkpt lat="45.008863304147226" lon="9.571798159344054"><ele>80.0</ele><time>2026-05-03T07:25:45.003Z</time></trkpt><trkpt lat="45.0087984699536" lon="9.571807259088805"><ele>80.0</ele><time>2026-05-03T07:25:46.003Z</time></trkpt><trkpt lat="45.00868512358656" lon="9.571824464955323"><ele>80.0</ele><time>2026-05-03T07:25:48.003Z</time></trkpt><trkpt lat="45.00857766815896" lon="9.571852564768056"><ele>80.0</ele><time>2026-05-03T07:25:50.003Z</time></trkpt><trkpt lat="45.00846605530609" lon="9.571863238717182"><ele>80.0</ele><time>2026-05-03T07:25:52.003Z</time></trkpt><trkpt lat="45.00835887693091" lon="9.571882196779095"><ele>80.0</ele><time>2026-05-03T07:25:54.003Z</time></trkpt><trkpt lat="45.008257681018975" lon="9.57188947735021"><ele>79.83333333333334</ele><time>2026-05-03T07:25:56.003Z</time></trkpt><trkpt lat="45.008155888257804" lon="9.571899092951833"><ele>79.66666666666667</ele><time>2026-05-03T07:25:58.003Z</time></trkpt><trkpt lat="45.008063518253394" lon="9.571914746155128"><ele>79.5</ele><time>2026-05-03T07:26:00.003Z</time></trkpt><trkpt lat="45.007983666848865" lon="9.571935671277693"><ele>79.33333333333333</ele><time>2026-05-03T07:26:02.003Z</time></trkpt><trkpt lat="45.00791451665846" lon="9.571941499123053"><ele>79.16666666666666</ele><time>2026-05-03T07:26:04.003Z</time></trkpt><trkpt lat="45.00787944631025" lon="9.571855238081984"><ele>79.0</ele><time>2026-05-03T07:26:06.003Z</time></trkpt><trkpt lat="45.0078988176005" lon="9.571721426968477"><ele>79.0</ele><time>2026-05-03T07:26:08.003Z</time></trkpt><trkpt lat="45.007893178118564" lon="9.571587476621195"><ele>79.0</ele><time>2026-05-03T07:26:10.003Z</time></trkpt><trkpt lat="45.00790168381489" lon="9.571449131691974"><ele>79.0</ele><time>2026-05-03T07:26:12.003Z</time></trkpt><trkpt lat="45.00790868167966" lon="9.571303671229025"><ele>79.0</ele><time>2026-05-03T07:26:14.003Z</time></trkpt><trkpt lat="45.00791661824418" lon="9.571159646387672"><ele>79.0</ele><time>2026-05-03T07:26:16.003Z</time></trkpt><trkpt lat="45.007928844637476" lon="9.571014427176033"><ele>79.2</ele><time>2026-05-03T07:26:18.003Z</time></trkpt><trkpt lat="45.007936585647926" lon="9.570870253412425"><ele>79.4</ele><time>2026-05-03T07:26:20.003Z</time></trkpt><trkpt lat="45.007950966930586" lon="9.570725781625056"><ele>79.6</ele><time>2026-05-03T07:26:22.003Z</time></trkpt><trkpt lat="45.00796446647643" lon="9.570590607241376"><ele>79.8</ele><time>2026-05-03T07:26:24.003Z</time></trkpt><trkpt lat="45.00798635567046" lon="9.570445007958556"><ele>80.0</ele><time>2026-05-03T07:26:26.003Z</time></trkpt><trkpt lat="45.007994965664466" lon="9.570304628394117"><ele>80.0</ele><time>2026-05-03T07:26:28.003Z</time></trkpt><trkpt lat="45.0080189304915" lon="9.57018151178115"><ele>80.0</ele><time>2026-05-03T07:26:30.003Z</time></trkpt><trkpt lat="45.00804824462302" lon="9.570084930216652"><ele>80.0</ele><time>2026-05-03T07:26:32.003Z</time></trkpt><trkpt lat="45.00806942047109" lon="9.569973322156777"><ele>80.0</ele><time>2026-05-03T07:26:34.003Z</time></trkpt><trkpt lat="45.00807324119785" lon="9.56988117803176"><ele>80.0</ele><time>2026-05-03T07:26:36.003Z</time></trkpt><trkpt lat="45.00809987738046" lon="9.569766115745919"><ele>80.0</ele><time>2026-05-03T07:26:39.003Z</time></trkpt><trkpt lat="45.00811508502959" lon="9.56964698328014"><ele>79.8</ele><time>2026-05-03T07:26:41.003Z</time></trkpt><trkpt lat="45.008113977916" lon="9.569503809046063"><ele>79.6</ele><time>2026-05-03T07:26:43.003Z</time></trkpt><trkpt lat="45.0081275236744" lon="9.569359389426742"><ele>79.4</ele><time>2026-05-03T07:26:45.003Z</time></trkpt><trkpt lat="45.008139853345625" lon="9.56922514821648"><ele>79.2</ele><time>2026-05-03T07:26:47.003Z</time></trkpt><trkpt lat="45.008146509940296" lon="9.569090081485665"><ele>79.0</ele><time>2026-05-03T07:26:49.003Z</time></trkpt><trkpt lat="45.00815987605427" lon="9.568951845310389"><ele>79.0</ele><time>2026-05-03T07:26:51.003Z</time></trkpt><trkpt lat="45.00816721346049" lon="9.568814254619376"><ele>79.0</ele><time>2026-05-03T07:26:53.003Z</time></trkpt><trkpt lat="45.00818238825804" lon="9.568686843028644"><ele>79.0</ele><time>2026-05-03T07:26:55.003Z</time></trkpt><trkpt lat="45.00819136769615" lon="9.56856346209984"><ele>79.0</ele><time>2026-05-03T07:26:57.003Z</time></trkpt><trkpt lat="45.008202657520485" lon="9.568444256741321"><ele>79.0</ele><time>2026-05-03T07:26:59.003Z</time></trkpt><trkpt lat="45.00820442541607" lon="9.568328225824535"><ele>79.0</ele><time>2026-05-03T07:27:01.003Z</time></trkpt><trkpt lat="45.00821352958261" lon="9.568200542767546"><ele>79.0</ele><time>2026-05-03T07:27:03.003Z</time></trkpt><trkpt lat="45.00819363268043" lon="9.568055453824138"><ele>79.0</ele><time>2026-05-03T07:27:05.003Z</time></trkpt><trkpt lat="45.00817296109966" lon="9.567881926734294"><ele>79.0</ele><time>2026-05-03T07:27:07.003Z</time></trkpt><trkpt lat="45.00818408821957" lon="9.567715037599113"><ele>79.0</ele><time>2026-05-03T07:27:09.003Z</time></trkpt><trkpt lat="45.00818589316092" lon="9.567538992270322"><ele>79.0</ele><time>2026-05-03T07:27:11.003Z</time></trkpt><trkpt lat="45.008187099286005" lon="9.567374529034307"><ele>79.0</ele><time>2026-05-03T07:27:13.003Z</time></trkpt><trkpt lat="45.008160935589146" lon="9.567218764239607"><ele>79.0</ele><time>2026-05-03T07:27:15.003Z</time></trkpt><trkpt lat="45.0081340252025" lon="9.567052822219642"><ele>79.0</ele><time>2026-05-03T07:27:17.003Z</time></trkpt><trkpt lat="45.008084171437666" lon="9.56689784929267"><ele>78.60000000000001</ele><time>2026-05-03T07:27:19.003Z</time></trkpt><trkpt lat="45.00802931863266" lon="9.566764062001395"><ele>78.2</ele><time>2026-05-03T07:27:21.003Z</time></trkpt><trkpt lat="45.00797701419944" lon="9.566631927547544"><ele>77.80000000000001</ele><time>2026-05-03T07:27:23.003Z</time></trkpt><trkpt lat="45.00791561634505" lon="9.566495308970099"><ele>77.4</ele><time>2026-05-03T07:27:25.002Z</time></trkpt><trkpt lat="45.0078546947058" lon="9.566363511845438"><ele>77.0</ele><time>2026-05-03T07:27:27.003Z</time></trkpt><trkpt lat="45.0078060461866" lon="9.56622792578161"><ele>77.4</ele><time>2026-05-03T07:27:29.002Z</time></trkpt><trkpt lat="45.00775313536029" lon="9.566092565668539"><ele>77.80000000000001</ele><time>2026-05-03T07:27:31.003Z</time></trkpt><trkpt lat="45.007696552012085" lon="9.565961039473745"><ele>78.2</ele><time>2026-05-03T07:27:33.003Z</time></trkpt><trkpt lat="45.00764379098471" lon="9.565831239780522"><ele>78.60000000000001</ele><time>2026-05-03T07:27:35.002Z</time></trkpt><trkpt lat="45.00760055230127" lon="9.565692835245217"><ele>79.0</ele><time>2026-05-03T07:27:37.002Z</time></trkpt><trkpt lat="45.00754594959297" lon="9.565556845664815"><ele>79.0</ele><time>2026-05-03T07:27:39.002Z</time></trkpt><trkpt lat="45.00748762879139" lon="9.565424419593018"><ele>79.0</ele><time>2026-05-03T07:27:41.002Z</time></trkpt><trkpt lat="45.00743743896614" lon="9.565299801791744"><ele>79.0</ele><time>2026-05-03T07:27:43.002Z</time></trkpt><trkpt lat="45.00738635864401" lon="9.565171200745223"><ele>79.0</ele><time>2026-05-03T07:27:45.002Z</time></trkpt><trkpt lat="45.00733241236027" lon="9.565053305633947"><ele>79.0</ele><time>2026-05-03T07:27:47.002Z</time></trkpt><trkpt lat="45.007271112842886" lon="9.564922015108854"><ele>79.2</ele><time>2026-05-03T07:27:49.002Z</time></trkpt><trkpt lat="45.00722509134961" lon="9.564796625850136"><ele>79.4</ele><time>2026-05-03T07:27:51.002Z</time></trkpt><trkpt lat="45.00718270773359" lon="9.5646661242787"><ele>79.6</ele><time>2026-05-03T07:27:53.002Z</time></trkpt><trkpt lat="45.00713437459068" lon="9.564531139187062"><ele>79.8</ele><time>2026-05-03T07:27:55.002Z</time></trkpt><trkpt lat="45.007082682282125" lon="9.56440199980305"><ele>80.0</ele><time>2026-05-03T07:27:57.002Z</time></trkpt><trkpt lat="45.007037100759334" lon="9.564281210327565"><ele>80.0</ele><time>2026-05-03T07:27:59.002Z</time></trkpt><trkpt lat="45.00698444917077" lon="9.564161528508654"><ele>80.0</ele><time>2026-05-03T07:28:01.002Z</time></trkpt><trkpt lat="45.00691498094986" lon="9.56407898437259"><ele>80.0</ele><time>2026-05-03T07:28:03.002Z</time></trkpt><trkpt lat="45.006826321853524" lon="9.564043516952891"><ele>80.0</ele><time>2026-05-03T07:28:05.002Z</time></trkpt><trkpt lat="45.00672765745454" lon="9.564039545186489"><ele>80.0</ele><time>2026-05-03T07:28:07.002Z</time></trkpt><trkpt lat="45.00663448885299" lon="9.564044553503695"><ele>80.2</ele><time>2026-05-03T07:28:09.002Z</time></trkpt><trkpt lat="45.006534817584146" lon="9.564047495414579"><ele>80.4</ele><time>2026-05-03T07:28:11.002Z</time></trkpt><trkpt lat="45.00643431128597" lon="9.564056237612478"><ele>80.6</ele><time>2026-05-03T07:28:13.002Z</time></trkpt><trkpt lat="45.00633514602401" lon="9.564069307883996"><ele>80.8</ele><time>2026-05-03T07:28:15.002Z</time></trkpt><trkpt lat="45.00622604352276" lon="9.56408862412302"><ele>81.0</ele><time>2026-05-03T07:28:17.002Z</time></trkpt><trkpt lat="45.00611816489168" lon="9.564099394530873"><ele>81.0</ele><time>2026-05-03T07:28:19.002Z</time></trkpt><trkpt lat="45.00601063473231" lon="9.564107232165878"><ele>81.0</ele><time>2026-05-03T07:28:21.002Z</time></trkpt><trkpt lat="45.00590563341053" lon="9.564121275452829"><ele>81.0</ele><time>2026-05-03T07:28:23.002Z</time></trkpt><trkpt lat="45.005803273474186" lon="9.564129022397776"><ele>81.0</ele><time>2026-05-03T07:28:25.002Z</time></trkpt><trkpt lat="45.00570359477672" lon="9.564137805071766"><ele>81.0</ele><time>2026-05-03T07:28:27.002Z</time></trkpt><trkpt lat="45.00559273546057" lon="9.564141977774414"><ele>80.8</ele><time>2026-05-03T07:28:29.002Z</time></trkpt><trkpt lat="45.00549533589489" lon="9.564153007978152"><ele>80.6</ele><time>2026-05-03T07:28:31.002Z</time></trkpt><trkpt lat="45.005393194291685" lon="9.564160284872747"><ele>80.4</ele><time>2026-05-03T07:28:33.002Z</time></trkpt><trkpt lat="45.00533024692718" lon="9.564154668450398"><ele>80.2</ele><time>2026-05-03T07:28:34.002Z</time></trkpt><trkpt lat="45.005224746537664" lon="9.56416473960189"><ele>80.0</ele><time>2026-05-03T07:28:36.002Z</time></trkpt><trkpt lat="45.0051143004555" lon="9.564170993000522"><ele>80.0</ele><time>2026-05-03T07:28:38.002Z</time></trkpt><trkpt lat="45.00500759436909" lon="9.564181635368325"><ele>80.0</ele><time>2026-05-03T07:28:40.002Z</time></trkpt><trkpt lat="45.004904567585825" lon="9.564191973892347"><ele>80.0</ele><time>2026-05-03T07:28:42.002Z</time></trkpt><trkpt lat="45.00479624094779" lon="9.5641964805688"><ele>80.0</ele><time>2026-05-03T07:28:44.002Z</time></trkpt><trkpt lat="45.00468657795165" lon="9.56420404658195"><ele>80.0</ele><time>2026-05-03T07:28:46.002Z</time></trkpt><trkpt lat="45.00457873091884" lon="9.564209397720735"><ele>80.25</ele><time>2026-05-03T07:28:48.002Z</time></trkpt><trkpt lat="45.004470800625676" lon="9.564214634702148"><ele>80.5</ele><time>2026-05-03T07:28:50.002Z</time></trkpt><trkpt lat="45.00435675759754" lon="9.564242475323475"><ele>80.75</ele><time>2026-05-03T07:28:52.002Z</time></trkpt><trkpt lat="45.004244486987574" lon="9.564254809243746"><ele>81.0</ele><time>2026-05-03T07:28:54.002Z</time></trkpt><trkpt lat="45.00412734800106" lon="9.56426005624197"><ele>81.25</ele><time>2026-05-03T07:28:56.002Z</time></trkpt><trkpt lat="45.00401425634961" lon="9.564263580585386"><ele>81.5</ele><time>2026-05-03T07:28:58.002Z</time></trkpt><trkpt lat="45.0039013184145" lon="9.564272263176967"><ele>81.75</ele><time>2026-05-03T07:29:00.002Z</time></trkpt><trkpt lat="45.003785034265064" lon="9.564287619036412"><ele>82.0</ele><time>2026-05-03T07:29:02.002Z</time></trkpt><trkpt lat="45.00367808643207" lon="9.564296053335326"><ele>82.0</ele><time>2026-05-03T07:29:04.002Z</time></trkpt><trkpt lat="45.00361490985967" lon="9.564301099525034"><ele>82.0</ele><time>2026-05-03T07:29:05.002Z</time></trkpt><trkpt lat="45.003506615798095" lon="9.564302279872425"><ele>82.0</ele><time>2026-05-03T07:29:07.002Z</time></trkpt><trkpt lat="45.00338636792063" lon="9.564309869561328"><ele>82.0</ele><time>2026-05-03T07:29:09.002Z</time></trkpt><trkpt lat="45.00326750241236" lon="9.564312980825015"><ele>82.0</ele><time>2026-05-03T07:29:11.002Z</time></trkpt><trkpt lat="45.00320224823788" lon="9.564307564437081"><ele>81.5</ele><time>2026-05-03T07:29:12.002Z</time></trkpt><trkpt lat="45.00309132710513" lon="9.564319823327676"><ele>81.0</ele><time>2026-05-03T07:29:14.002Z</time></trkpt><trkpt lat="45.00297806431576" lon="9.564333297418868"><ele>80.5</ele><time>2026-05-03T07:29:16.002Z</time></trkpt><trkpt lat="45.00285951706612" lon="9.56433824159866"><ele>80.0</ele><time>2026-05-03T07:29:18.002Z</time></trkpt><trkpt lat="45.00274394860846" lon="9.564360326277223"><ele>80.0</ele><time>2026-05-03T07:29:20.002Z</time></trkpt><trkpt lat="45.002630094260255" lon="9.564371027832532"><ele>80.0</ele><time>2026-05-03T07:29:22.002Z</time></trkpt><trkpt lat="45.002512995847184" lon="9.564391792199947"><ele>80.0</ele><time>2026-05-03T07:29:24.002Z</time></trkpt><trkpt lat="45.00239806759099" lon="9.564442557934335"><ele>80.0</ele><time>2026-05-03T07:29:26.002Z</time></trkpt><trkpt lat="45.00228700090096" lon="9.564477071461274"><ele>80.16666666666667</ele><time>2026-05-03T07:29:28.003Z</time></trkpt><trkpt lat="45.002178519396864" lon="9.56451102436549"><ele>80.33333333333334</ele><time>2026-05-03T07:29:30.003Z</time></trkpt><trkpt lat="45.00206251446344" lon="9.564526577814089"><ele>80.5</ele><time>2026-05-03T07:29:32.003Z</time></trkpt><trkpt lat="45.00199904007241" lon="9.564525718578153"><ele>80.66666666666667</ele><time>2026-05-03T07:29:33.003Z</time></trkpt><trkpt lat="45.001935862608335" lon="9.564520888421486"><ele>80.83333333333333</ele><time>2026-05-03T07:29:34.003Z</time></trkpt><trkpt lat="45.001872607690004" lon="9.564517503680852"><ele>81.0</ele><time>2026-05-03T07:29:35.003Z</time></trkpt><trkpt lat="45.001746827179026" lon="9.564524605845941"><ele>81.0</ele><time>2026-05-03T07:29:37.003Z</time></trkpt><trkpt lat="45.00161746320867" lon="9.564536631204813"><ele>81.0</ele><time>2026-05-03T07:29:39.003Z</time></trkpt><trkpt lat="45.001498320984744" lon="9.564547002134162"><ele>81.0</ele><time>2026-05-03T07:29:41.003Z</time></trkpt><trkpt lat="45.00137252395309" lon="9.564558404281483"><ele>81.0</ele><time>2026-05-03T07:29:43.003Z</time></trkpt><trkpt lat="45.00124812168076" lon="9.56456449124746"><ele>81.0</ele><time>2026-05-03T07:29:45.003Z</time></trkpt><trkpt lat="45.00112947249581" lon="9.564569631304698"><ele>81.0</ele><time>2026-05-03T07:29:47.003Z</time></trkpt><trkpt lat="45.00101411773606" lon="9.564573019716692"><ele>81.0</ele><time>2026-05-03T07:29:49.003Z</time></trkpt><trkpt lat="45.00089009444638" lon="9.564587426557534"><ele>81.0</ele><time>2026-05-03T07:29:51.003Z</time></trkpt><trkpt lat="45.00082273226124" lon="9.564588853420716"><ele>81.0</ele><time>2026-05-03T07:29:52.003Z</time></trkpt><trkpt lat="45.000705329384225" lon="9.56459963198105"><ele>81.0</ele><time>2026-05-03T07:29:54.003Z</time></trkpt><trkpt lat="45.00060435430997" lon="9.564600816663305"><ele>81.0</ele><time>2026-05-03T07:29:56.003Z</time></trkpt><trkpt lat="45.00051608086004" lon="9.564515451076131"><ele>81.0</ele><time>2026-05-03T07:29:58.003Z</time></trkpt><trkpt lat="45.00048512506916" lon="9.564368939088068"><ele>81.0</ele><time>2026-05-03T07:30:00.003Z</time></trkpt><trkpt lat="45.00048645207713" lon="9.564206000221853"><ele>81.0</ele><time>2026-05-03T07:30:02.003Z</time></trkpt><trkpt lat="45.00047837112383" lon="9.564046897647751"><ele>81.4</ele><time>2026-05-03T07:30:04.003Z</time></trkpt><trkpt lat="45.00046436730558" lon="9.563891269965657"><ele>81.8</ele><time>2026-05-03T07:30:06.003Z</time></trkpt><trkpt lat="45.00045890732192" lon="9.56374006571792"><ele>82.2</ele><time>2026-05-03T07:30:08.003Z</time></trkpt><trkpt lat="45.00044576683339" lon="9.563597832281351"><ele>82.60000000000001</ele><time>2026-05-03T07:30:10.003Z</time></trkpt><trkpt lat="45.000434245818184" lon="9.563453547226855"><ele>83.0</ele><time>2026-05-03T07:30:12.003Z</time></trkpt><trkpt lat="45.00041748553022" lon="9.563301231842479"><ele>83.0</ele><time>2026-05-03T07:30:14.003Z</time></trkpt><trkpt lat="45.000398877034115" lon="9.5631507652333"><ele>83.0</ele><time>2026-05-03T07:30:16.003Z</time></trkpt><trkpt lat="45.00038971744732" lon="9.562990430793729"><ele>83.0</ele><time>2026-05-03T07:30:18.003Z</time></trkpt><trkpt lat="45.0003820638442" lon="9.562833374844816"><ele>83.0</ele><time>2026-05-03T07:30:20.003Z</time></trkpt><trkpt lat="45.00037514058263" lon="9.562744290353738"><ele>83.0</ele><time>2026-05-03T07:30:21.003Z</time></trkpt><trkpt lat="45.00036742644179" lon="9.562589422268513"><ele>83.2</ele><time>2026-05-03T07:30:23.003Z</time></trkpt><trkpt lat="45.000355397522135" lon="9.562428865600738"><ele>83.4</ele><time>2026-05-03T07:30:25.003Z</time></trkpt><trkpt lat="45.00036126219138" lon="9.562281429732982"><ele>83.60000000000001</ele><time>2026-05-03T07:30:27.003Z</time></trkpt><trkpt lat="45.000371116919275" lon="9.562135022260636"><ele>83.80000000000001</ele><time>2026-05-03T07:30:29.003Z</time></trkpt><trkpt lat="45.00039438979687" lon="9.56199032392186"><ele>84.0</ele><time>2026-05-03T07:30:31.003Z</time></trkpt><trkpt lat="45.00036696739372" lon="9.561848115644576"><ele>84.2</ele><time>2026-05-03T07:30:33.003Z</time></trkpt><trkpt lat="45.000269153335886" lon="9.561802294646489"><ele>84.4</ele><time>2026-05-03T07:30:35.003Z</time></trkpt><trkpt lat="45.00016450504129" lon="9.56180313058503"><ele>84.6</ele><time>2026-05-03T07:30:37.003Z</time></trkpt><trkpt lat="45.00005882359556" lon="9.561802023785278"><ele>84.8</ele><time>2026-05-03T07:30:39.003Z</time></trkpt><trkpt lat="44.999954804219236" lon="9.561783794266292"><ele>85.0</ele><time>2026-05-03T07:30:41.003Z</time></trkpt><trkpt lat="44.99985078245916" lon="9.561770692026206"><ele>85.0</ele><time>2026-05-03T07:30:43.003Z</time></trkpt><trkpt lat="44.99974330892952" lon="9.561756082322232"><ele>85.0</ele><time>2026-05-03T07:30:45.003Z</time></trkpt><trkpt lat="44.99963111014253" lon="9.561759470503798"><ele>85.0</ele><time>2026-05-03T07:30:47.003Z</time></trkpt><trkpt lat="44.9995152223196" lon="9.561759201138479"><ele>85.0</ele><time>2026-05-03T07:30:49.003Z</time></trkpt><trkpt lat="44.99940508460167" lon="9.561758808258089"><ele>85.0</ele><time>2026-05-03T07:30:51.003Z</time></trkpt><trkpt lat="44.99928786773715" lon="9.561759440486194"><ele>85.0</ele><time>2026-05-03T07:30:53.003Z</time></trkpt><trkpt lat="44.99917221489353" lon="9.561754248912804"><ele>85.0</ele><time>2026-05-03T07:30:55.003Z</time></trkpt><trkpt lat="44.99906272700447" lon="9.561755251206465"><ele>85.0</ele><time>2026-05-03T07:30:57.003Z</time></trkpt><trkpt lat="44.99894717499339" lon="9.561768120338378"><ele>85.0</ele><time>2026-05-03T07:30:59.003Z</time></trkpt><trkpt lat="44.998833684321056" lon="9.561754447351824"><ele>85.0</ele><time>2026-05-03T07:31:01.003Z</time></trkpt><trkpt lat="44.998712258597" lon="9.561760825339622"><ele>85.0</ele><time>2026-05-03T07:31:03.003Z</time></trkpt><trkpt lat="44.99858892057909" lon="9.561761515968495"><ele>85.0</ele><time>2026-05-03T07:31:05.003Z</time></trkpt><trkpt lat="44.99847546210392" lon="9.561768874705345"><ele>85.0</ele><time>2026-05-03T07:31:07.003Z</time></trkpt><trkpt lat="44.99836035040279" lon="9.561764738202221"><ele>85.16666666666666</ele><time>2026-05-03T07:31:09.003Z</time></trkpt><trkpt lat="44.998295640252024" lon="9.561764947300224"><ele>85.33333333333333</ele><time>2026-05-03T07:31:10.003Z</time></trkpt><trkpt lat="44.99817721470514" lon="9.561771230462922"><ele>85.5</ele><time>2026-05-03T07:31:12.003Z</time></trkpt><trkpt lat="44.998114110723584" lon="9.561772311089953"><ele>85.66666666666667</ele><time>2026-05-03T07:31:13.003Z</time></trkpt><trkpt lat="44.99799350927453" lon="9.561773532073467"><ele>85.83333333333334</ele><time>2026-05-03T07:31:15.003Z</time></trkpt><trkpt lat="44.9979268485202" lon="9.561776646578839"><ele>86.0</ele><time>2026-05-03T07:31:16.003Z</time></trkpt><trkpt lat="44.99780600237606" lon="9.56178034754414"><ele>86.0</ele><time>2026-05-03T07:31:18.003Z</time></trkpt><trkpt lat="44.99774247926077" lon="9.561778289947679"><ele>86.0</ele><time>2026-05-03T07:31:19.003Z</time></trkpt><trkpt lat="44.99763699649749" lon="9.561778264533377"><ele>86.0</ele><time>2026-05-03T07:31:21.003Z</time></trkpt><trkpt lat="44.99752786022701" lon="9.561795721031693"><ele>86.0</ele><time>2026-05-03T07:31:23.003Z</time></trkpt><trkpt lat="44.997419569602975" lon="9.561801564980199"><ele>86.0</ele><time>2026-05-03T07:31:25.003Z</time></trkpt><trkpt lat="44.99731552424671" lon="9.561804815808896"><ele>85.8</ele><time>2026-05-03T07:31:27.003Z</time></trkpt><trkpt lat="44.99720767504206" lon="9.561813036431076"><ele>85.6</ele><time>2026-05-03T07:31:29.003Z</time></trkpt><trkpt lat="44.997102663196316" lon="9.561806126133318"><ele>85.4</ele><time>2026-05-03T07:31:31.003Z</time></trkpt><trkpt lat="44.99703902790442" lon="9.561809310215855"><ele>85.2</ele><time>2026-05-03T07:31:32.003Z</time></trkpt><trkpt lat="44.996975907777546" lon="9.56181145311721"><ele>85.0</ele><time>2026-05-03T07:31:33.003Z</time></trkpt><trkpt lat="44.99686263536516" lon="9.561817743279104"><ele>85.0</ele><time>2026-05-03T07:31:35.003Z</time></trkpt><trkpt lat="44.99674743437728" lon="9.561814273956157"><ele>85.0</ele><time>2026-05-03T07:31:37.003Z</time></trkpt><trkpt lat="44.996626685012565" lon="9.56181134452526"><ele>85.0</ele><time>2026-05-03T07:31:39.003Z</time></trkpt><trkpt lat="44.996508661149484" lon="9.561812200093941"><ele>85.0</ele><time>2026-05-03T07:31:41.003Z</time></trkpt><trkpt lat="44.996391287300796" lon="9.561817829292451"><ele>85.0</ele><time>2026-05-03T07:31:43.004Z</time></trkpt><trkpt lat="44.99626953075402" lon="9.56183148398501"><ele>85.0</ele><time>2026-05-03T07:31:45.003Z</time></trkpt><trkpt lat="44.99614355275068" lon="9.56183321725225"><ele>85.0</ele><time>2026-05-03T07:31:47.003Z</time></trkpt><trkpt lat="44.99602479796793" lon="9.561814237892776"><ele>85.0</ele><time>2026-05-03T07:31:49.003Z</time></trkpt><trkpt lat="44.99590230702824" lon="9.561805920462778"><ele>85.5</ele><time>2026-05-03T07:31:51.003Z</time></trkpt><trkpt lat="44.9957798474864" lon="9.561788788146242"><ele>86.0</ele><time>2026-05-03T07:31:53.003Z</time></trkpt><trkpt lat="44.99566078808228" lon="9.561778913997951"><ele>86.5</ele><time>2026-05-03T07:31:55.003Z</time></trkpt><trkpt lat="44.99554242982016" lon="9.561763458326292"><ele>87.0</ele><time>2026-05-03T07:31:57.003Z</time></trkpt><trkpt lat="44.99541894525824" lon="9.56175427770619"><ele>87.0</ele><time>2026-05-03T07:31:59.003Z</time></trkpt><trkpt lat="44.9953046780257" lon="9.561743896507512"><ele>87.0</ele><time>2026-05-03T07:32:01.003Z</time></trkpt><trkpt lat="44.99518900958573" lon="9.56173122214616"><ele>87.0</ele><time>2026-05-03T07:32:03.003Z</time></trkpt><trkpt lat="44.99507719339374" lon="9.561715512688545"><ele>87.0</ele><time>2026-05-03T07:32:05.003Z</time></trkpt><trkpt lat="44.994964255335404" lon="9.561702542616732"><ele>87.19999999999999</ele><time>2026-05-03T07:32:07.003Z</time></trkpt><trkpt lat="44.99485445523727" lon="9.561697071747446"><ele>87.4</ele><time>2026-05-03T07:32:09.003Z</time></trkpt><trkpt lat="44.99474629253997" lon="9.561683225338967"><ele>87.6</ele><time>2026-05-03T07:32:11.003Z</time></trkpt><trkpt lat="44.99463490286054" lon="9.561673507577403"><ele>87.80000000000001</ele><time>2026-05-03T07:32:13.003Z</time></trkpt><trkpt lat="44.994525841185606" lon="9.56166316064081"><ele>88.0</ele><time>2026-05-03T07:32:15.003Z</time></trkpt><trkpt lat="44.99441216322989" lon="9.56165667477077"><ele>88.0</ele><time>2026-05-03T07:32:17.003Z</time></trkpt><trkpt lat="44.99430689167489" lon="9.561649463878009"><ele>88.0</ele><time>2026-05-03T07:32:19.003Z</time></trkpt><trkpt lat="44.99419530565856" lon="9.561629041280668"><ele>88.0</ele><time>2026-05-03T07:32:21.003Z</time></trkpt><trkpt lat="44.994093894184175" lon="9.561612607686417"><ele>88.0</ele><time>2026-05-03T07:32:23.003Z</time></trkpt><trkpt lat="44.99399661943584" lon="9.561600597298584"><ele>88.0</ele><time>2026-05-03T07:32:25.003Z</time></trkpt><trkpt lat="44.993916555513785" lon="9.561587484328712"><ele>88.16666666666666</ele><time>2026-05-03T07:32:27.003Z</time></trkpt><trkpt lat="44.99382852449783" lon="9.561591491085672"><ele>88.33333333333333</ele><time>2026-05-03T07:32:29.003Z</time></trkpt><trkpt lat="44.99375916989101" lon="9.561574641367917"><ele>88.5</ele><time>2026-05-03T07:32:31.003Z</time></trkpt><trkpt lat="44.993753137093684" lon="9.561474535578673"><ele>88.66666666666667</ele><time>2026-05-03T07:32:33.003Z</time></trkpt><trkpt lat="44.99376960501436" lon="9.561360061013872"><ele>88.83333333333334</ele><time>2026-05-03T07:32:35.003Z</time></trkpt><trkpt lat="44.99378724023281" lon="9.561237629062559"><ele>89.0</ele><time>2026-05-03T07:32:37.003Z</time></trkpt><trkpt lat="44.99381135127771" lon="9.56111910050173"><ele>89.33333333333334</ele><time>2026-05-03T07:32:39.003Z</time></trkpt><trkpt lat="44.99383142389089" lon="9.560996704032023"><ele>89.66666666666667</ele><time>2026-05-03T07:32:41.003Z</time></trkpt><trkpt lat="44.99385414836335" lon="9.560867250412082"><ele>90.0</ele><time>2026-05-03T07:32:43.003Z</time></trkpt><trkpt lat="44.99387122608673" lon="9.56075212138067"><ele>90.33333333333333</ele><time>2026-05-03T07:32:45.003Z</time></trkpt><trkpt lat="44.993895414414226" lon="9.560635885856414"><ele>90.66666666666666</ele><time>2026-05-03T07:32:47.003Z</time></trkpt><trkpt lat="44.993871528306535" lon="9.560545077364212"><ele>91.0</ele><time>2026-05-03T07:32:51.003Z</time></trkpt><trkpt lat="44.993803057098596" lon="9.56051361405934"><ele>91.0</ele><time>2026-05-03T07:32:53.003Z</time></trkpt><trkpt lat="44.993718868547475" lon="9.560484893920503"><ele>91.0</ele><time>2026-05-03T07:32:55.003Z</time></trkpt><trkpt lat="44.99363096403122" lon="9.560457311429431"><ele>91.0</ele><time>2026-05-03T07:32:57.003Z</time></trkpt><trkpt lat="44.99354089753665" lon="9.560424773362532"><ele>91.0</ele><time>2026-05-03T07:32:59.003Z</time></trkpt><trkpt lat="44.99344945978908" lon="9.56039885115003"><ele>91.0</ele><time>2026-05-03T07:33:01.003Z</time></trkpt><trkpt lat="44.9933531653381" lon="9.560384572476472"><ele>91.0</ele><time>2026-05-03T07:33:03.003Z</time></trkpt><trkpt lat="44.99326933503239" lon="9.560376979327605"><ele>91.0</ele><time>2026-05-03T07:33:05.003Z</time></trkpt><trkpt lat="44.993186542534616" lon="9.560384239270439"><ele>91.0</ele><time>2026-05-03T07:33:07.003Z</time></trkpt><trkpt lat="44.99312021051005" lon="9.56045023501635"><ele>91.0</ele><time>2026-05-03T07:33:09.003Z</time></trkpt><trkpt lat="44.99305548685232" lon="9.56054993306778"><ele>91.0</ele><time>2026-05-03T07:33:11.003Z</time></trkpt><trkpt lat="44.9929638300436" lon="9.560588261360364"><ele>91.0</ele><time>2026-05-03T07:33:13.003Z</time></trkpt><trkpt lat="44.992868361180115" lon="9.560615394022308"><ele>91.0</ele><time>2026-05-03T07:33:15.003Z</time></trkpt><trkpt lat="44.992761056020164" lon="9.560616335049362"><ele>91.0</ele><time>2026-05-03T07:33:17.003Z</time></trkpt><trkpt lat="44.99266977664734" lon="9.56063269725666"><ele>91.0</ele><time>2026-05-03T07:33:19.003Z</time></trkpt><trkpt lat="44.99257216993703" lon="9.560643415645183"><ele>91.0</ele><time>2026-05-03T07:33:21.003Z</time></trkpt><trkpt lat="44.992466391717" lon="9.560652632344947"><ele>91.0</ele><time>2026-05-03T07:33:23.003Z</time></trkpt><trkpt lat="44.9923696840346" lon="9.560670834411894"><ele>90.8</ele><time>2026-05-03T07:33:25.003Z</time></trkpt><trkpt lat="44.992270543514245" lon="9.56069253943171"><ele>90.6</ele><time>2026-05-03T07:33:27.003Z</time></trkpt><trkpt lat="44.992170252869194" lon="9.560717679813227"><ele>90.4</ele><time>2026-05-03T07:33:29.003Z</time></trkpt><trkpt lat="44.99206529830961" lon="9.560747082251032"><ele>90.2</ele><time>2026-05-03T07:33:31.003Z</time></trkpt><trkpt lat="44.99196069406503" lon="9.560770285647155"><ele>90.0</ele><time>2026-05-03T07:33:33.003Z</time></trkpt><trkpt lat="44.991853900646646" lon="9.56079413789133"><ele>90.0</ele><time>2026-05-03T07:33:35.003Z</time></trkpt><trkpt lat="44.99175536023947" lon="9.560801292171657"><ele>90.0</ele><time>2026-05-03T07:33:37.003Z</time></trkpt><trkpt lat="44.99165399294843" lon="9.560795828999709"><ele>90.0</ele><time>2026-05-03T07:33:39.004Z</time></trkpt><trkpt lat="44.99156935729085" lon="9.560776767537787"><ele>90.0</ele><time>2026-05-03T07:33:41.003Z</time></trkpt><trkpt lat="44.991453146232516" lon="9.560778852570797"><ele>90.0</ele><time>2026-05-03T07:33:43.003Z</time></trkpt><trkpt lat="44.99135555855176" lon="9.560775298696239"><ele>90.4</ele><time>2026-05-03T07:33:45.003Z</time></trkpt><trkpt lat="44.99125513500977" lon="9.56078383242465"><ele>90.8</ele><time>2026-05-03T07:33:47.003Z</time></trkpt><trkpt lat="44.99115568900579" lon="9.560779990391193"><ele>91.19999999999999</ele><time>2026-05-03T07:33:49.003Z</time></trkpt><trkpt lat="44.991068969648914" lon="9.560771037424967"><ele>91.6</ele><time>2026-05-03T07:33:51.003Z</time></trkpt><trkpt lat="44.990988822073476" lon="9.560761328369432"><ele>92.0</ele><time>2026-05-03T07:33:53.003Z</time></trkpt><trkpt lat="44.99090123182029" lon="9.560748571494097"><ele>92.0</ele><time>2026-05-03T07:33:55.003Z</time></trkpt><trkpt lat="44.99081132774292" lon="9.560786789811857"><ele>92.0</ele><time>2026-05-03T07:33:57.003Z</time></trkpt><trkpt lat="44.99072431052134" lon="9.560814987169671"><ele>92.0</ele><time>2026-05-03T07:33:59.003Z</time></trkpt><trkpt lat="44.990638131961916" lon="9.560885048630963"><ele>92.0</ele><time>2026-05-03T07:34:01.003Z</time></trkpt><trkpt lat="44.990548216654126" lon="9.560957969214606"><ele>92.0</ele><time>2026-05-03T07:34:03.003Z</time></trkpt><trkpt lat="44.99045965584957" lon="9.561026653090643"><ele>92.0</ele><time>2026-05-03T07:34:05.003Z</time></trkpt><trkpt lat="44.990367302083826" lon="9.561098365213386"><ele>92.0</ele><time>2026-05-03T07:34:07.003Z</time></trkpt><trkpt lat="44.9902834176299" lon="9.561177381069196"><ele>92.0</ele><time>2026-05-03T07:34:09.003Z</time></trkpt><trkpt lat="44.990200665280064" lon="9.56126965418519"><ele>92.0</ele><time>2026-05-03T07:34:11.003Z</time></trkpt><trkpt lat="44.99010358785292" lon="9.561337429144423"><ele>92.0</ele><time>2026-05-03T07:34:13.003Z</time></trkpt><trkpt lat="44.990009924338054" lon="9.561411643137658"><ele>91.5</ele><time>2026-05-03T07:34:15.003Z</time></trkpt><trkpt lat="44.989919644051035" lon="9.561499283041247"><ele>91.0</ele><time>2026-05-03T07:34:17.003Z</time></trkpt><trkpt lat="44.98982282395167" lon="9.56157258151611"><ele>90.5</ele><time>2026-05-03T07:34:19.003Z</time></trkpt><trkpt lat="44.98972503256676" lon="9.561670763436627"><ele>90.0</ele><time>2026-05-03T07:34:21.003Z</time></trkpt><trkpt lat="44.9896256066629" lon="9.561753874804632"><ele>90.0</ele><time>2026-05-03T07:34:23.003Z</time></trkpt><trkpt lat="44.98952762878657" lon="9.561838608062166"><ele>90.0</ele><time>2026-05-03T07:34:25.003Z</time></trkpt><trkpt lat="44.98943098788802" lon="9.56192557201784"><ele>90.0</ele><time>2026-05-03T07:34:27.003Z</time></trkpt><trkpt lat="44.98932785108763" lon="9.562013507965068"><ele>90.0</ele><time>2026-05-03T07:34:29.003Z</time></trkpt><trkpt lat="44.98922927302205" lon="9.562095319700207"><ele>90.0</ele><time>2026-05-03T07:34:31.003Z</time></trkpt><trkpt lat="44.98912774586575" lon="9.562160792444146"><ele>90.0</ele><time>2026-05-03T07:34:33.003Z</time></trkpt><trkpt lat="44.98901083850416" lon="9.562204821116268"><ele>90.0</ele><time>2026-05-03T07:34:35.003Z</time></trkpt><trkpt lat="44.9889044827641" lon="9.562244914895292"><ele>90.0</ele><time>2026-05-03T07:34:37.003Z</time></trkpt><trkpt lat="44.98879484557621" lon="9.562273481413317"><ele>90.0</ele><time>2026-05-03T07:34:39.003Z</time></trkpt><trkpt lat="44.988730081566544" lon="9.562281686423677"><ele>90.0</ele><time>2026-05-03T07:34:40.003Z</time></trkpt><trkpt lat="44.9886227889148" lon="9.562307183834394"><ele>90.0</ele><time>2026-05-03T07:34:42.003Z</time></trkpt><trkpt lat="44.988509788785834" lon="9.562319957510816"><ele>90.0</ele><time>2026-05-03T07:34:44.003Z</time></trkpt><trkpt lat="44.98839238030915" lon="9.562350420635523"><ele>90.0</ele><time>2026-05-03T07:34:46.003Z</time></trkpt><trkpt lat="44.98828579395207" lon="9.562363176619881"><ele>90.75</ele><time>2026-05-03T07:34:48.003Z</time></trkpt><trkpt lat="44.98817092407262" lon="9.562391458456512"><ele>91.5</ele><time>2026-05-03T07:34:50.003Z</time></trkpt><trkpt lat="44.988065191788095" lon="9.562409277439219"><ele>92.25</ele><time>2026-05-03T07:34:52.003Z</time></trkpt><trkpt lat="44.98794209701791" lon="9.562433551005304"><ele>93.0</ele><time>2026-05-03T07:34:54.003Z</time></trkpt><trkpt lat="44.9878371652733" lon="9.562456482014158"><ele>93.0</ele><time>2026-05-03T07:34:56.003Z</time></trkpt><trkpt lat="44.98772494948163" lon="9.562476648134293"><ele>93.0</ele><time>2026-05-03T07:34:58.003Z</time></trkpt><trkpt lat="44.987608787555736" lon="9.562496776192486"><ele>93.0</ele><time>2026-05-03T07:35:00.003Z</time></trkpt><trkpt lat="44.987499084987704" lon="9.56253520207266"><ele>93.0</ele><time>2026-05-03T07:35:02.003Z</time></trkpt><trkpt lat="44.987391279907996" lon="9.562597670103143"><ele>93.0</ele><time>2026-05-03T07:35:04.003Z</time></trkpt><trkpt lat="44.98730187541243" lon="9.562690695395643"><ele>93.0</ele><time>2026-05-03T07:35:06.003Z</time></trkpt><trkpt lat="44.98722063535866" lon="9.562794321581023"><ele>93.0</ele><time>2026-05-03T07:35:08.003Z</time></trkpt><trkpt lat="44.987145352987284" lon="9.562887557427159"><ele>93.0</ele><time>2026-05-03T07:35:10.003Z</time></trkpt><trkpt lat="44.987044218921476" lon="9.562951789099714"><ele>93.0</ele><time>2026-05-03T07:35:12.003Z</time></trkpt><trkpt lat="44.98693803866522" lon="9.563004897139866"><ele>93.0</ele><time>2026-05-03T07:35:14.003Z</time></trkpt><trkpt lat="44.9868314112162" lon="9.563054724280038"><ele>93.0</ele><time>2026-05-03T07:35:16.003Z</time></trkpt><trkpt lat="44.986725827925156" lon="9.563107626782154"><ele>93.0</ele><time>2026-05-03T07:35:18.003Z</time></trkpt><trkpt lat="44.98661740781503" lon="9.56314423522335"><ele>93.0</ele><time>2026-05-03T07:35:20.003Z</time></trkpt><trkpt lat="44.986522121628695" lon="9.563162788565856"><ele>93.0</ele><time>2026-05-03T07:35:22.003Z</time></trkpt><trkpt lat="44.98639923552025" lon="9.56319095240565"><ele>93.60000000000001</ele><time>2026-05-03T07:35:24.003Z</time></trkpt><trkpt lat="44.98629139149769" lon="9.563208317003795"><ele>94.2</ele><time>2026-05-03T07:35:26.003Z</time></trkpt><trkpt lat="44.98618017147842" lon="9.56320703797859"><ele>94.8</ele><time>2026-05-03T07:35:28.003Z</time></trkpt><trkpt lat="44.98606561375222" lon="9.563226484429212"><ele>95.4</ele><time>2026-05-03T07:35:30.003Z</time></trkpt><trkpt lat="44.985954613311016" lon="9.563238853834504"><ele>96.0</ele><time>2026-05-03T07:35:32.003Z</time></trkpt><trkpt lat="44.98584699329718" lon="9.563248990420401"><ele>95.8</ele><time>2026-05-03T07:35:34.003Z</time></trkpt><trkpt lat="44.98574092782896" lon="9.56326475808969"><ele>95.6</ele><time>2026-05-03T07:35:36.003Z</time></trkpt><trkpt lat="44.985635489675225" lon="9.563283514473707"><ele>95.4</ele><time>2026-05-03T07:35:38.003Z</time></trkpt><trkpt lat="44.98552634134584" lon="9.56329692843667"><ele>95.2</ele><time>2026-05-03T07:35:40.003Z</time></trkpt><trkpt lat="44.985422958436416" lon="9.563306071230919"><ele>95.0</ele><time>2026-05-03T07:35:42.003Z</time></trkpt><trkpt lat="44.98531200730369" lon="9.563322591545482"><ele>95.0</ele><time>2026-05-03T07:35:44.003Z</time></trkpt><trkpt lat="44.98520441518157" lon="9.563333358524122"><ele>95.0</ele><time>2026-05-03T07:35:46.003Z</time></trkpt><trkpt lat="44.985101470038906" lon="9.563349758416004"><ele>95.0</ele><time>2026-05-03T07:35:48.003Z</time></trkpt><trkpt lat="44.98500019948534" lon="9.563366078982062"><ele>95.0</ele><time>2026-05-03T07:35:50.003Z</time></trkpt><trkpt lat="44.984893561184975" lon="9.563378687877291"><ele>95.0</ele><time>2026-05-03T07:35:52.003Z</time></trkpt><trkpt lat="44.98478374522692" lon="9.56338931338883"><ele>95.0</ele><time>2026-05-03T07:35:54.004Z</time></trkpt><trkpt lat="44.98467850548938" lon="9.563414019257095"><ele>95.0</ele><time>2026-05-03T07:35:56.003Z</time></trkpt><trkpt lat="44.98457237437981" lon="9.563424583069764"><ele>95.0</ele><time>2026-05-03T07:35:58.004Z</time></trkpt><trkpt lat="44.98446056790233" lon="9.563422809840802"><ele>95.0</ele><time>2026-05-03T07:36:00.004Z</time></trkpt><trkpt lat="44.98434974132731" lon="9.56343458535721"><ele>95.0</ele><time>2026-05-03T07:36:02.004Z</time></trkpt><trkpt lat="44.98423602358741" lon="9.563436506320311"><ele>95.2</ele><time>2026-05-03T07:36:04.004Z</time></trkpt><trkpt lat="44.98411942404513" lon="9.563435438486392"><ele>95.4</ele><time>2026-05-03T07:36:06.004Z</time></trkpt><trkpt lat="44.98400999319235" lon="9.563423964962409"><ele>95.6</ele><time>2026-05-03T07:36:08.004Z</time></trkpt><trkpt lat="44.98390762605703" lon="9.563414402141282"><ele>95.8</ele><time>2026-05-03T07:36:10.004Z</time></trkpt><trkpt lat="44.983798796613975" lon="9.563430433120436"><ele>96.0</ele><time>2026-05-03T07:36:12.004Z</time></trkpt><trkpt lat="44.9836977693223" lon="9.563479725903"><ele>96.0</ele><time>2026-05-03T07:36:14.004Z</time></trkpt><trkpt lat="44.98360517612415" lon="9.563553738817758"><ele>96.0</ele><time>2026-05-03T07:36:16.004Z</time></trkpt><trkpt lat="44.98351241281973" lon="9.563636623775544"><ele>96.0</ele><time>2026-05-03T07:36:18.004Z</time></trkpt><trkpt lat="44.98343514191502" lon="9.563731273299036"><ele>96.0</ele><time>2026-05-03T07:36:20.004Z</time></trkpt><trkpt lat="44.9833704586537" lon="9.563845469992064"><ele>96.0</ele><time>2026-05-03T07:36:22.004Z</time></trkpt><trkpt lat="44.98332926712136" lon="9.563983882855846"><ele>96.19999999999999</ele><time>2026-05-03T07:36:24.004Z</time></trkpt><trkpt lat="44.9833149484544" lon="9.564123674566169"><ele>96.39999999999999</ele><time>2026-05-03T07:36:26.004Z</time></trkpt><trkpt lat="44.98330464764106" lon="9.564268829512777"><ele>96.6</ele><time>2026-05-03T07:36:28.004Z</time></trkpt><trkpt lat="44.983257110487465" lon="9.564399406936309"><ele>96.8</ele><time>2026-05-03T07:36:30.004Z</time></trkpt><trkpt lat="44.98317884429132" lon="9.564505691550782"><ele>97.0</ele><time>2026-05-03T07:36:32.004Z</time></trkpt><trkpt lat="44.98307701609975" lon="9.564567441994331"><ele>97.0</ele><time>2026-05-03T07:36:34.004Z</time></trkpt><trkpt lat="44.982975555361044" lon="9.564603426449866"><ele>97.0</ele><time>2026-05-03T07:36:36.004Z</time></trkpt><trkpt lat="44.982872551444096" lon="9.564650099109025"><ele>97.0</ele><time>2026-05-03T07:36:38.003Z</time></trkpt><trkpt lat="44.98276828882621" lon="9.564697912334614"><ele>97.0</ele><time>2026-05-03T07:36:40.003Z</time></trkpt><trkpt lat="44.98266544760984" lon="9.56475229607129"><ele>97.0</ele><time>2026-05-03T07:36:42.003Z</time></trkpt><trkpt lat="44.982571304126395" lon="9.56482526379692"><ele>97.19999999999999</ele><time>2026-05-03T07:36:44.003Z</time></trkpt><trkpt lat="44.982469557471894" lon="9.56487435893959"><ele>97.4</ele><time>2026-05-03T07:36:46.003Z</time></trkpt><trkpt lat="44.9823722670701" lon="9.564944337887567"><ele>97.6</ele><time>2026-05-03T07:36:48.003Z</time></trkpt><trkpt lat="44.98227017662074" lon="9.565003340807364"><ele>97.80000000000001</ele><time>2026-05-03T07:36:50.003Z</time></trkpt><trkpt lat="44.98216865294211" lon="9.56506661353758"><ele>98.0</ele><time>2026-05-03T07:36:52.003Z</time></trkpt><trkpt lat="44.98206858930962" lon="9.565130945267198"><ele>98.0</ele><time>2026-05-03T07:36:54.003Z</time></trkpt><trkpt lat="44.981964069158344" lon="9.565193536201587"><ele>98.0</ele><time>2026-05-03T07:36:56.003Z</time></trkpt><trkpt lat="44.981863488358556" lon="9.565250640385871"><ele>98.0</ele><time>2026-05-03T07:36:58.003Z</time></trkpt><trkpt lat="44.981765601011695" lon="9.565307148383878"><ele>98.0</ele><time>2026-05-03T07:37:00.003Z</time></trkpt><trkpt lat="44.98166170205062" lon="9.565353212360506"><ele>98.0</ele><time>2026-05-03T07:37:02.003Z</time></trkpt><trkpt lat="44.981562663877476" lon="9.565393254864242"><ele>97.60000000000001</ele><time>2026-05-03T07:37:04.003Z</time></trkpt><trkpt lat="44.98146486851423" lon="9.565434110160643"><ele>97.2</ele><time>2026-05-03T07:37:06.003Z</time></trkpt><trkpt lat="44.98136401426419" lon="9.565468587538621"><ele>96.8</ele><time>2026-05-03T07:37:08.003Z</time></trkpt><trkpt lat="44.981263099673036" lon="9.565497564693205"><ele>96.4</ele><time>2026-05-03T07:37:10.003Z</time></trkpt><trkpt lat="44.98116103390294" lon="9.56554416768947"><ele>96.0</ele><time>2026-05-03T07:37:12.003Z</time></trkpt><trkpt lat="44.9810615514522" lon="9.565577192538028"><ele>96.0</ele><time>2026-05-03T07:37:14.003Z</time></trkpt><trkpt lat="44.98096002845717" lon="9.5656078056653"><ele>96.0</ele><time>2026-05-03T07:37:16.003Z</time></trkpt><trkpt lat="44.98085732090776" lon="9.565641242925205"><ele>96.0</ele><time>2026-05-03T07:37:18.003Z</time></trkpt><trkpt lat="44.98075461029679" lon="9.565675865462511"><ele>96.0</ele><time>2026-05-03T07:37:20.003Z</time></trkpt><trkpt lat="44.980653182873326" lon="9.565711213000043"><ele>96.0</ele><time>2026-05-03T07:37:22.003Z</time></trkpt><trkpt lat="44.980555564224346" lon="9.565744967451254"><ele>96.6</ele><time>2026-05-03T07:37:24.003Z</time></trkpt><trkpt lat="44.98045211300229" lon="9.5657831658157"><ele>97.19999999999999</ele><time>2026-05-03T07:37:26.003Z</time></trkpt><trkpt lat="44.98035381594978" lon="9.565812479451703"><ele>97.80000000000001</ele><time>2026-05-03T07:37:28.003Z</time></trkpt><trkpt lat="44.980249622091556" lon="9.565844891133349"><ele>98.4</ele><time>2026-05-03T07:37:30.003Z</time></trkpt><trkpt lat="44.98014752070904" lon="9.565883525675751"><ele>99.0</ele><time>2026-05-03T07:37:32.003Z</time></trkpt><trkpt lat="44.98004108543039" lon="9.565920122580032"><ele>99.33333333333333</ele><time>2026-05-03T07:37:34.003Z</time></trkpt><trkpt lat="44.97994374945836" lon="9.565969325327165"><ele>99.66666666666666</ele><time>2026-05-03T07:37:36.003Z</time></trkpt><trkpt lat="44.979855823265126" lon="9.565996381554482"><ele>100.0</ele><time>2026-05-03T07:37:38.003Z</time></trkpt><trkpt lat="44.97977951879559" lon="9.566021454495012"><ele>100.33333333333333</ele><time>2026-05-03T07:37:40.003Z</time></trkpt><trkpt lat="44.97971149283904" lon="9.566057930929762"><ele>100.66666666666666</ele><time>2026-05-03T07:37:43.003Z</time></trkpt><trkpt lat="44.97963945097547" lon="9.566037298405826"><ele>101.0</ele><time>2026-05-03T07:37:49.003Z</time></trkpt><trkpt lat="44.979577755564506" lon="9.565947108869945"><ele>100.99999999999999</ele><time>2026-05-03T07:37:51.004Z</time></trkpt><trkpt lat="44.97951191233636" lon="9.565854892748053"><ele>101.0</ele><time>2026-05-03T07:37:53.004Z</time></trkpt><trkpt lat="44.97945630215847" lon="9.565769141477904"><ele>101.0</ele><time>2026-05-03T07:37:55.003Z</time></trkpt><trkpt lat="44.9793887895153" lon="9.565684606925139"><ele>101.0</ele><time>2026-05-03T07:37:58.003Z</time></trkpt><trkpt lat="44.97932631787022" lon="9.565618593912559"><ele>100.99999999999999</ele><time>2026-05-03T07:38:01.003Z</time></trkpt><trkpt lat="44.97925145658423" lon="9.565633965282526"><ele>101.0</ele><time>2026-05-03T07:38:03.003Z</time></trkpt><trkpt lat="44.97919449081507" lon="9.565721783383493"><ele>101.19999999999999</ele><time>2026-05-03T07:38:05.003Z</time></trkpt><trkpt lat="44.9791366505154" lon="9.565813042930852"><ele>101.39999999999999</ele><time>2026-05-03T07:38:07.003Z</time></trkpt><trkpt lat="44.97907163936831" lon="9.565863245411322"><ele>101.6</ele><time>2026-05-03T07:38:09.003Z</time></trkpt><trkpt lat="44.978994085090456" lon="9.565931435768004"><ele>101.8</ele><time>2026-05-03T07:38:11.003Z</time></trkpt><trkpt lat="44.978911790981925" lon="9.566015724979689"><ele>102.0</ele><time>2026-05-03T07:38:13.003Z</time></trkpt><trkpt lat="44.97883297713914" lon="9.566095936764746"><ele>102.0</ele><time>2026-05-03T07:38:15.003Z</time></trkpt><trkpt lat="44.97875123335818" lon="9.566179700463714"><ele>102.0</ele><time>2026-05-03T07:38:17.003Z</time></trkpt><trkpt lat="44.97866964362124" lon="9.566270174106851"><ele>102.0</ele><time>2026-05-03T07:38:19.003Z</time></trkpt><trkpt lat="44.97858773524946" lon="9.566346005322227"><ele>102.0</ele><time>2026-05-03T07:38:21.003Z</time></trkpt><trkpt lat="44.97851119337883" lon="9.566435169572616"><ele>102.0</ele><time>2026-05-03T07:38:23.003Z</time></trkpt><trkpt lat="44.978431942268976" lon="9.566512773470269"><ele>101.6</ele><time>2026-05-03T07:38:25.003Z</time></trkpt><trkpt lat="44.978352228922944" lon="9.566587032679847"><ele>101.19999999999999</ele><time>2026-05-03T07:38:27.003Z</time></trkpt><trkpt lat="44.97827252743831" lon="9.56665188086012"><ele>100.8</ele><time>2026-05-03T07:38:29.003Z</time></trkpt><trkpt lat="44.97818707816748" lon="9.566720761487073"><ele>100.4</ele><time>2026-05-03T07:38:31.003Z</time></trkpt><trkpt lat="44.978094840186515" lon="9.566775771349226"><ele>100.0</ele><time>2026-05-03T07:38:33.003Z</time></trkpt><trkpt lat="44.97800757480501" lon="9.566821992850695"><ele>100.0</ele><time>2026-05-03T07:38:35.003Z</time></trkpt><trkpt lat="44.977916062666075" lon="9.566859676937051"><ele>100.0</ele><time>2026-05-03T07:38:37.003Z</time></trkpt><trkpt lat="44.97782254863567" lon="9.566890906262971"><ele>100.0</ele><time>2026-05-03T07:38:39.003Z</time></trkpt><trkpt lat="44.97772549813384" lon="9.566916892249534"><ele>100.0</ele><time>2026-05-03T07:38:41.003Z</time></trkpt><trkpt lat="44.977639001104684" lon="9.566958450270713"><ele>100.0</ele><time>2026-05-03T07:38:43.003Z</time></trkpt><trkpt lat="44.977547509494826" lon="9.566980266220787"><ele>100.2</ele><time>2026-05-03T07:38:45.003Z</time></trkpt><trkpt lat="44.97744147391124" lon="9.56701305480726"><ele>100.4</ele><time>2026-05-03T07:38:47.003Z</time></trkpt><trkpt lat="44.97733308872036" lon="9.567051234476093"><ele>100.6</ele><time>2026-05-03T07:38:49.003Z</time></trkpt><trkpt lat="44.97722488871397" lon="9.567084602377829"><ele>100.8</ele><time>2026-05-03T07:38:51.003Z</time></trkpt><trkpt lat="44.977115934862255" lon="9.567118855140698"><ele>101.0</ele><time>2026-05-03T07:38:53.003Z</time></trkpt><trkpt lat="44.97701284108615" lon="9.567159104985363"><ele>101.4</ele><time>2026-05-03T07:38:55.003Z</time></trkpt><trkpt lat="44.9769082955305" lon="9.567192963532829"><ele>101.8</ele><time>2026-05-03T07:38:57.003Z</time></trkpt><trkpt lat="44.97679503565446" lon="9.567227197590041"><ele>102.2</ele><time>2026-05-03T07:38:59.003Z</time></trkpt><trkpt lat="44.976694593417584" lon="9.56725814904353"><ele>102.60000000000001</ele><time>2026-05-03T07:39:01.003Z</time></trkpt><trkpt lat="44.9765852075602" lon="9.5672934912795"><ele>103.0</ele><time>2026-05-03T07:39:03.003Z</time></trkpt><trkpt lat="44.97647862642098" lon="9.567325282409174"><ele>103.0</ele><time>2026-05-03T07:39:05.003Z</time></trkpt><trkpt lat="44.97636838307897" lon="9.567369066647297"><ele>103.0</ele><time>2026-05-03T07:39:07.003Z</time></trkpt><trkpt lat="44.976261159223725" lon="9.567397287665745"><ele>103.0</ele><time>2026-05-03T07:39:09.003Z</time></trkpt><trkpt lat="44.976158419662696" lon="9.56743111205087"><ele>103.0</ele><time>2026-05-03T07:39:11.003Z</time></trkpt><trkpt lat="44.976049471928285" lon="9.567467298650268"><ele>103.0</ele><time>2026-05-03T07:39:13.003Z</time></trkpt><trkpt lat="44.97593948478829" lon="9.567499113635693"><ele>103.2</ele><time>2026-05-03T07:39:15.003Z</time></trkpt><trkpt lat="44.97583345780886" lon="9.567539612851586"><ele>103.4</ele><time>2026-05-03T07:39:17.003Z</time></trkpt><trkpt lat="44.97576968775213" lon="9.56755422746478"><ele>103.60000000000001</ele><time>2026-05-03T07:39:18.003Z</time></trkpt><trkpt lat="44.97565944632364" lon="9.56760760368249"><ele>103.80000000000001</ele><time>2026-05-03T07:39:20.003Z</time></trkpt><trkpt lat="44.97554632289993" lon="9.567642244450134"><ele>104.0</ele><time>2026-05-03T07:39:22.003Z</time></trkpt><trkpt lat="44.97543127960657" lon="9.567673512455345"><ele>104.0</ele><time>2026-05-03T07:39:24.003Z</time></trkpt><trkpt lat="44.975313125959794" lon="9.567701507907518"><ele>104.0</ele><time>2026-05-03T07:39:26.003Z</time></trkpt><trkpt lat="44.9751964896062" lon="9.567730688736804"><ele>104.0</ele><time>2026-05-03T07:39:28.003Z</time></trkpt><trkpt lat="44.97508595993421" lon="9.567751492890826"><ele>104.0</ele><time>2026-05-03T07:39:30.003Z</time></trkpt><trkpt lat="44.974967513693684" lon="9.567735166903494"><ele>104.2</ele><time>2026-05-03T07:39:32.003Z</time></trkpt><trkpt lat="44.974903639970165" lon="9.56770875645577"><ele>104.4</ele><time>2026-05-03T07:39:33.003Z</time></trkpt><trkpt lat="44.974794906110844" lon="9.56763921943831"><ele>104.6</ele><time>2026-05-03T07:39:35.003Z</time></trkpt><trkpt lat="44.97468646364977" lon="9.567571055974222"><ele>104.8</ele><time>2026-05-03T07:39:37.003Z</time></trkpt><trkpt lat="44.97456885564185" lon="9.567520508527702"><ele>105.0</ele><time>2026-05-03T07:39:39.003Z</time></trkpt><trkpt lat="44.97450518115319" lon="9.567498131000827"><ele>105.0</ele><time>2026-05-03T07:39:40.003Z</time></trkpt><trkpt lat="44.97443961000077" lon="9.567486331318074"><ele>105.0</ele><time>2026-05-03T07:39:41.003Z</time></trkpt><trkpt lat="44.974322567267855" lon="9.567469365760342"><ele>105.0</ele><time>2026-05-03T07:39:43.003Z</time></trkpt><trkpt lat="44.97425763460012" lon="9.567454197209276"><ele>105.0</ele><time>2026-05-03T07:39:44.003Z</time></trkpt><trkpt lat="44.97413422033742" lon="9.567438314982814"><ele>105.0</ele><time>2026-05-03T07:39:46.003Z</time></trkpt><trkpt lat="44.974010609541466" lon="9.567422307020792"><ele>104.83333333333333</ele><time>2026-05-03T07:39:48.003Z</time></trkpt><trkpt lat="44.9738808697119" lon="9.56740716191478"><ele>104.66666666666666</ele><time>2026-05-03T07:39:50.003Z</time></trkpt><trkpt lat="44.973818067185825" lon="9.567400050909795"><ele>104.5</ele><time>2026-05-03T07:39:51.003Z</time></trkpt><trkpt lat="44.97375392873784" lon="9.56739043697632"><ele>104.33333333333333</ele><time>2026-05-03T07:39:52.003Z</time></trkpt><trkpt lat="44.97368973251246" lon="9.567383667250741"><ele>104.16666666666666</ele><time>2026-05-03T07:39:53.003Z</time></trkpt><trkpt lat="44.973623543252934" lon="9.56737878361774"><ele>104.0</ele><time>2026-05-03T07:39:54.003Z</time></trkpt><trkpt lat="44.9735601520496" lon="9.567372346405245"><ele>103.99999999999999</ele><time>2026-05-03T07:39:55.003Z</time></trkpt><trkpt lat="44.973495012893245" lon="9.567375491638035"><ele>104.0</ele><time>2026-05-03T07:39:56.003Z</time></trkpt><trkpt lat="44.973428439998145" lon="9.567397682274642"><ele>104.0</ele><time>2026-05-03T07:39:57.003Z</time></trkpt><trkpt lat="44.973369308004145" lon="9.56743016391794"><ele>104.0</ele><time>2026-05-03T07:39:58.004Z</time></trkpt><trkpt lat="44.97331106769347" lon="9.56747907525271"><ele>103.99999999999999</ele><time>2026-05-03T07:39:59.004Z</time></trkpt><trkpt lat="44.97320995248972" lon="9.567590398734627"><ele>104.0</ele><time>2026-05-03T07:40:01.004Z</time></trkpt><trkpt lat="44.97311695267631" lon="9.567697910667947"><ele>104.0</ele><time>2026-05-03T07:40:03.003Z</time></trkpt><trkpt lat="44.97302141667529" lon="9.567796121697985"><ele>104.0</ele><time>2026-05-03T07:40:05.004Z</time></trkpt><trkpt lat="44.97292960903329" lon="9.567889380624054"><ele>104.0</ele><time>2026-05-03T07:40:07.003Z</time></trkpt><trkpt lat="44.972841534179096" lon="9.567984903428103"><ele>104.0</ele><time>2026-05-03T07:40:09.003Z</time></trkpt><trkpt lat="44.97275719598262" lon="9.568067008711694"><ele>104.0</ele><time>2026-05-03T07:40:11.003Z</time></trkpt><trkpt lat="44.97266895694879" lon="9.568157032781789"><ele>103.80000000000001</ele><time>2026-05-03T07:40:13.003Z</time></trkpt><trkpt lat="44.97259033351054" lon="9.56824521336873"><ele>103.60000000000001</ele><time>2026-05-03T07:40:15.003Z</time></trkpt><trkpt lat="44.97250719494078" lon="9.568337452448924"><ele>103.4</ele><time>2026-05-03T07:40:17.003Z</time></trkpt><trkpt lat="44.97242970394092" lon="9.568423372870361"><ele>103.2</ele><time>2026-05-03T07:40:19.003Z</time></trkpt><trkpt lat="44.972344626172266" lon="9.568521302907198"><ele>103.0</ele><time>2026-05-03T07:40:21.003Z</time></trkpt><trkpt lat="44.97226112531821" lon="9.568606662179993"><ele>103.80000000000001</ele><time>2026-05-03T07:40:23.003Z</time></trkpt><trkpt lat="44.9721861040188" lon="9.568705172699334"><ele>104.6</ele><time>2026-05-03T07:40:25.003Z</time></trkpt><trkpt lat="44.972112674255655" lon="9.568805987786982"><ele>105.39999999999999</ele><time>2026-05-03T07:40:27.003Z</time></trkpt><trkpt lat="44.97203849904605" lon="9.568904926256218"><ele>106.19999999999999</ele><time>2026-05-03T07:40:29.003Z</time></trkpt><trkpt lat="44.97196160477684" lon="9.568994585741994"><ele>107.0</ele><time>2026-05-03T07:40:31.003Z</time></trkpt><trkpt lat="44.97188675380207" lon="9.569103554198062"><ele>107.0</ele><time>2026-05-03T07:40:33.003Z</time></trkpt><trkpt lat="44.971811468466285" lon="9.56921362355428"><ele>106.99999999999999</ele><time>2026-05-03T07:40:35.003Z</time></trkpt><trkpt lat="44.9717354221317" lon="9.569320475991884"><ele>106.99999999999999</ele><time>2026-05-03T07:40:37.003Z</time></trkpt><trkpt lat="44.971653260811706" lon="9.569433239330104"><ele>107.0</ele><time>2026-05-03T07:40:39.003Z</time></trkpt><trkpt lat="44.97157476119794" lon="9.569554607807238"><ele>107.0</ele><time>2026-05-03T07:40:41.003Z</time></trkpt><trkpt lat="44.97148552300434" lon="9.569662479500742"><ele>107.5</ele><time>2026-05-03T07:40:43.003Z</time></trkpt><trkpt lat="44.971401349766005" lon="9.569776899376594"><ele>108.0</ele><time>2026-05-03T07:40:45.003Z</time></trkpt><trkpt lat="44.97131811430228" lon="9.569893660650406"><ele>108.5</ele><time>2026-05-03T07:40:47.003Z</time></trkpt><trkpt lat="44.97122882944378" lon="9.570005796526017"><ele>109.0</ele><time>2026-05-03T07:40:49.003Z</time></trkpt><trkpt lat="44.97114041470243" lon="9.570121364972257"><ele>109.0</ele><time>2026-05-03T07:40:51.003Z</time></trkpt><trkpt lat="44.97104897657546" lon="9.570227757727412"><ele>109.0</ele><time>2026-05-03T07:40:53.003Z</time></trkpt><trkpt lat="44.97094341204801" lon="9.570297931937722"><ele>109.0</ele><time>2026-05-03T07:40:55.003Z</time></trkpt><trkpt lat="44.970827038242724" lon="9.570282039412637"><ele>109.0</ele><time>2026-05-03T07:40:57.003Z</time></trkpt><trkpt lat="44.97073274684457" lon="9.570160727815981"><ele>109.5</ele><time>2026-05-03T07:40:59.003Z</time></trkpt><trkpt lat="44.970613698077464" lon="9.570114518594941"><ele>110.0</ele><time>2026-05-03T07:41:01.002Z</time></trkpt><trkpt lat="44.970520861001305" lon="9.570037572373177"><ele>110.5</ele><time>2026-05-03T07:41:03.001Z</time></trkpt><trkpt lat="44.97042357923159" lon="9.569952208281412"><ele>111.0</ele><time>2026-05-03T07:41:05.001Z</time></trkpt><trkpt lat="44.97032240934975" lon="9.569886678869125"><ele>111.0</ele><time>2026-05-03T07:41:07Z</time></trkpt><trkpt lat="44.970226544946435" lon="9.569813067051301"><ele>111.0</ele><time>2026-05-03T07:41:09Z</time></trkpt><trkpt lat="44.97012864979491" lon="9.569735961853185"><ele>111.0</ele><time>2026-05-03T07:41:11Z</time></trkpt><trkpt lat="44.9700294530624" lon="9.569661075265849"><ele>111.0</ele><time>2026-05-03T07:41:12.999Z</time></trkpt><trkpt lat="44.96993054596959" lon="9.569583251634622"><ele>111.0</ele><time>2026-05-03T07:41:14.999Z</time></trkpt><trkpt lat="44.969829948381346" lon="9.569509146000332"><ele>111.0</ele><time>2026-05-03T07:41:16.999Z</time></trkpt><trkpt lat="44.96973155596751" lon="9.569440136022363"><ele>111.0</ele><time>2026-05-03T07:41:18.998Z</time></trkpt><trkpt lat="44.96963351931581" lon="9.569367408695108"><ele>111.0</ele><time>2026-05-03T07:41:20.998Z</time></trkpt><trkpt lat="44.969540508547944" lon="9.569295122041614"><ele>111.0</ele><time>2026-05-03T07:41:22.998Z</time></trkpt><trkpt lat="44.96944499844914" lon="9.569220550311833"><ele>111.0</ele><time>2026-05-03T07:41:24.998Z</time></trkpt><trkpt lat="44.969352324921296" lon="9.569149756486313"><ele>111.0</ele><time>2026-05-03T07:41:26.998Z</time></trkpt><trkpt lat="44.969257000658544" lon="9.569077135567213"><ele>111.0</ele><time>2026-05-03T07:41:28.998Z</time></trkpt><trkpt lat="44.96916154347229" lon="9.569002628095536"><ele>111.0</ele><time>2026-05-03T07:41:30.998Z</time></trkpt><trkpt lat="44.96907290808969" lon="9.568932137970226"><ele>111.0</ele><time>2026-05-03T07:41:32.997Z</time></trkpt><trkpt lat="44.968979379883045" lon="9.568861514787587"><ele>111.0</ele><time>2026-05-03T07:41:34.997Z</time></trkpt><trkpt lat="44.96888483589847" lon="9.568794118003947"><ele>111.0</ele><time>2026-05-03T07:41:36.997Z</time></trkpt><trkpt lat="44.968793965463036" lon="9.568723809847285"><ele>111.0</ele><time>2026-05-03T07:41:38.997Z</time></trkpt><trkpt lat="44.96870472884467" lon="9.568655960669897"><ele>111.0</ele><time>2026-05-03T07:41:40.997Z</time></trkpt><trkpt lat="44.9686140312376" lon="9.568592630613981"><ele>111.0</ele><time>2026-05-03T07:41:42.997Z</time></trkpt><trkpt lat="44.96852166323267" lon="9.568520671175827"><ele>111.0</ele><time>2026-05-03T07:41:44.997Z</time></trkpt><trkpt lat="44.968433233144175" lon="9.568457097480035"><ele>111.4</ele><time>2026-05-03T07:41:46.997Z</time></trkpt><trkpt lat="44.968341546293125" lon="9.568389779981603"><ele>111.8</ele><time>2026-05-03T07:41:48.997Z</time></trkpt><trkpt lat="44.96825131424719" lon="9.568317876082657"><ele>112.20000000000002</ele><time>2026-05-03T07:41:50.997Z</time></trkpt><trkpt lat="44.96816288588713" lon="9.568251826204179"><ele>112.60000000000001</ele><time>2026-05-03T07:41:52.997Z</time></trkpt><trkpt lat="44.96807222823213" lon="9.5681834745678"><ele>113.0</ele><time>2026-05-03T07:41:54.997Z</time></trkpt><trkpt lat="44.967992433621156" lon="9.568099676987112"><ele>113.0</ele><time>2026-05-03T07:41:56.997Z</time></trkpt><trkpt lat="44.96794632123582" lon="9.567982248754975"><ele>113.00000000000001</ele><time>2026-05-03T07:41:58.997Z</time></trkpt><trkpt lat="44.96795834205025" lon="9.567834900436504"><ele>113.00000000000001</ele><time>2026-05-03T07:42:00.997Z</time></trkpt><trkpt lat="44.967968977746615" lon="9.567697213245317"><ele>113.0</ele><time>2026-05-03T07:42:02.997Z</time></trkpt><trkpt lat="44.96791368270454" lon="9.56759713872449"><ele>113.0</ele><time>2026-05-03T07:42:04.997Z</time></trkpt><trkpt lat="44.96782159278236" lon="9.567547532149554"><ele>112.80000000000001</ele><time>2026-05-03T07:42:06.998Z</time></trkpt><trkpt lat="44.96772520018544" lon="9.567531459006696"><ele>112.60000000000001</ele><time>2026-05-03T07:42:08.997Z</time></trkpt><trkpt lat="44.96762522334453" lon="9.567518365957698"><ele>112.39999999999999</ele><time>2026-05-03T07:42:10.997Z</time></trkpt><trkpt lat="44.96752374230716" lon="9.56749965286664"><ele>112.19999999999999</ele><time>2026-05-03T07:42:12.997Z</time></trkpt><trkpt lat="44.96741779146794" lon="9.567481348308212"><ele>112.0</ele><time>2026-05-03T07:42:14.997Z</time></trkpt><trkpt lat="44.96731645128077" lon="9.567468049796881"><ele>112.39999999999999</ele><time>2026-05-03T07:42:16.997Z</time></trkpt><trkpt lat="44.96720839013009" lon="9.56745553842892"><ele>112.79999999999998</ele><time>2026-05-03T07:42:18.997Z</time></trkpt><trkpt lat="44.967106294455654" lon="9.567450655863519"><ele>113.2</ele><time>2026-05-03T07:42:20.997Z</time></trkpt><trkpt lat="44.96699968900422" lon="9.567452029932177"><ele>113.6</ele><time>2026-05-03T07:42:22.997Z</time></trkpt><trkpt lat="44.96690173733952" lon="9.567463132906106"><ele>114.0</ele><time>2026-05-03T07:42:24.997Z</time></trkpt><trkpt lat="44.966799258592566" lon="9.567471944010968"><ele>114.0</ele><time>2026-05-03T07:42:26.997Z</time></trkpt><trkpt lat="44.96669618749742" lon="9.567485899966744"><ele>114.0</ele><time>2026-05-03T07:42:28.997Z</time></trkpt><trkpt lat="44.96659366650642" lon="9.567506608625804"><ele>114.0</ele><time>2026-05-03T07:42:30.997Z</time></trkpt><trkpt lat="44.966487559725564" lon="9.567518073489673"><ele>114.0</ele><time>2026-05-03T07:42:32.997Z</time></trkpt><trkpt lat="44.96638430951587" lon="9.567537482086815"><ele>114.0</ele><time>2026-05-03T07:42:34.997Z</time></trkpt><trkpt lat="44.96628031794867" lon="9.567554977680276"><ele>114.2</ele><time>2026-05-03T07:42:36.997Z</time></trkpt><trkpt lat="44.96617668725437" lon="9.56756789201752"><ele>114.4</ele><time>2026-05-03T07:42:38.997Z</time></trkpt><trkpt lat="44.96607138704475" lon="9.567577736657269"><ele>114.6</ele><time>2026-05-03T07:42:40.997Z</time></trkpt><trkpt lat="44.965966731731456" lon="9.567518834825131"><ele>114.8</ele><time>2026-05-03T07:42:42.997Z</time></trkpt><trkpt lat="44.96589243797219" lon="9.567376950446251"><ele>115.0</ele><time>2026-05-03T07:42:44.997Z</time></trkpt><trkpt lat="44.96586097129108" lon="9.567261625523555"><ele>115.00000000000001</ele><time>2026-05-03T07:42:45.997Z</time></trkpt><trkpt lat="44.96584493049016" lon="9.567149526409375"><ele>115.0</ele><time>2026-05-03T07:42:46.997Z</time></trkpt><trkpt lat="44.96582662272737" lon="9.567046343738214"><ele>115.0</ele><time>2026-05-03T07:42:47.997Z</time></trkpt><trkpt lat="44.96579858739051" lon="9.566949201145519"><ele>115.0</ele><time>2026-05-03T07:42:48.997Z</time></trkpt><trkpt lat="44.965766607094345" lon="9.566851353264457"><ele>115.00000000000001</ele><time>2026-05-03T07:42:49.997Z</time></trkpt><trkpt lat="44.96574269523316" lon="9.56675306381921"><ele>115.0</ele><time>2026-05-03T07:42:50.997Z</time></trkpt><trkpt lat="44.96571023152952" lon="9.56666090523104"><ele>115.00000000000001</ele><time>2026-05-03T07:42:51.997Z</time></trkpt><trkpt lat="44.96568571920974" lon="9.566556289505781"><ele>115.0</ele><time>2026-05-03T07:42:52.997Z</time></trkpt><trkpt lat="44.96565734938217" lon="9.566471270528702"><ele>115.0</ele><time>2026-05-03T07:42:53.997Z</time></trkpt><trkpt lat="44.965634416453064" lon="9.566374154352127"><ele>115.0</ele><time>2026-05-03T07:42:54.997Z</time></trkpt><trkpt lat="44.96561287500997" lon="9.566281761856636"><ele>115.00000000000001</ele><time>2026-05-03T07:42:55.997Z</time></trkpt><trkpt lat="44.96558679174503" lon="9.566194978350932"><ele>115.0</ele><time>2026-05-03T07:42:56.997Z</time></trkpt><trkpt lat="44.96553741803662" lon="9.56602606914243"><ele>115.2</ele><time>2026-05-03T07:42:58.997Z</time></trkpt><trkpt lat="44.965511441273314" lon="9.565942964517054"><ele>115.4</ele><time>2026-05-03T07:42:59.997Z</time></trkpt><trkpt lat="44.96547666445941" lon="9.565792783903635"><ele>115.6</ele><time>2026-05-03T07:43:01.997Z</time></trkpt><trkpt lat="44.96543640661207" lon="9.565646837588634"><ele>115.8</ele><time>2026-05-03T07:43:03.997Z</time></trkpt><trkpt lat="44.965403268341085" lon="9.565514755482809"><ele>116.0</ele><time>2026-05-03T07:43:05.997Z</time></trkpt><trkpt lat="44.96537150800709" lon="9.565398273403632"><ele>116.19999999999999</ele><time>2026-05-03T07:43:07.997Z</time></trkpt><trkpt lat="44.96531399752197" lon="9.565305627906275"><ele>116.39999999999999</ele><time>2026-05-03T07:43:09.997Z</time></trkpt><trkpt lat="44.9652336905873" lon="9.565239518925297"><ele>116.6</ele><time>2026-05-03T07:43:11.997Z</time></trkpt><trkpt lat="44.96515045308968" lon="9.56516948207419"><ele>116.8</ele><time>2026-05-03T07:43:13.997Z</time></trkpt><trkpt lat="44.96505654119411" lon="9.565112712805526"><ele>117.0</ele><time>2026-05-03T07:43:15.997Z</time></trkpt><trkpt lat="44.96496507831257" lon="9.565070319633579"><ele>117.0</ele><time>2026-05-03T07:43:17.997Z</time></trkpt><trkpt lat="44.964886720465145" lon="9.565026740282798"><ele>116.99999999999999</ele><time>2026-05-03T07:43:19.997Z</time></trkpt><trkpt lat="44.964807559865335" lon="9.564978577285066"><ele>116.99999999999999</ele><time>2026-05-03T07:43:21.997Z</time></trkpt><trkpt lat="44.96472612643446" lon="9.564918032893901"><ele>117.0</ele><time>2026-05-03T07:43:23.997Z</time></trkpt><trkpt lat="44.96463899418221" lon="9.564864424011885"><ele>117.0</ele><time>2026-05-03T07:43:25.997Z</time></trkpt><trkpt lat="44.96455248351865" lon="9.564805260079625"><ele>117.0</ele><time>2026-05-03T07:43:27.997Z</time></trkpt><trkpt lat="44.96447097488715" lon="9.564750828590523"><ele>116.99999999999999</ele><time>2026-05-03T07:43:29.997Z</time></trkpt><trkpt lat="44.9643887968917" lon="9.56469538951746"><ele>116.99999999999999</ele><time>2026-05-03T07:43:31.997Z</time></trkpt><trkpt lat="44.96430095255868" lon="9.56463573253578"><ele>117.0</ele><time>2026-05-03T07:43:33.997Z</time></trkpt><trkpt lat="44.96421440055034" lon="9.564582083882156"><ele>117.0</ele><time>2026-05-03T07:43:35.997Z</time></trkpt><trkpt lat="44.96413047841228" lon="9.564518201267482"><ele>117.39999999999999</ele><time>2026-05-03T07:43:37.997Z</time></trkpt><trkpt lat="44.964045829907846" lon="9.564457426718116"><ele>117.79999999999998</ele><time>2026-05-03T07:43:39.997Z</time></trkpt><trkpt lat="44.963957038258904" lon="9.564400513372613"><ele>118.2</ele><time>2026-05-03T07:43:41.997Z</time></trkpt><trkpt lat="44.963872801099804" lon="9.564340795283114"><ele>118.6</ele><time>2026-05-03T07:43:43.997Z</time></trkpt><trkpt lat="44.96378302968013" lon="9.564284107623997"><ele>119.0</ele><time>2026-05-03T07:43:45.997Z</time></trkpt><trkpt lat="44.96369128344545" lon="9.564227481394168"><ele>119.0</ele><time>2026-05-03T07:43:47.997Z</time></trkpt><trkpt lat="44.963603848535" lon="9.564171312513903"><ele>119.0</ele><time>2026-05-03T07:43:49.997Z</time></trkpt><trkpt lat="44.9635121352074" lon="9.56411081599319"><ele>119.0</ele><time>2026-05-03T07:43:51.997Z</time></trkpt><trkpt lat="44.96342163165407" lon="9.564053108634308"><ele>119.0</ele><time>2026-05-03T07:43:53.997Z</time></trkpt><trkpt lat="44.96332954455151" lon="9.563990194408786"><ele>119.0</ele><time>2026-05-03T07:43:55.997Z</time></trkpt><trkpt lat="44.96324000398036" lon="9.563935499086552"><ele>119.0</ele><time>2026-05-03T07:43:57.997Z</time></trkpt><trkpt lat="44.96314842585064" lon="9.56387688845432"><ele>119.0</ele><time>2026-05-03T07:43:59.997Z</time></trkpt><trkpt lat="44.963057449201315" lon="9.563814732513082"><ele>119.0</ele><time>2026-05-03T07:44:01.997Z</time></trkpt><trkpt lat="44.96296628346983" lon="9.563747925368755"><ele>119.0</ele><time>2026-05-03T07:44:03.997Z</time></trkpt><trkpt lat="44.96285887790713" lon="9.563671976631696"><ele>119.0</ele><time>2026-05-03T07:44:05.997Z</time></trkpt><trkpt lat="44.96275740411795" lon="9.563606291630093"><ele>119.2</ele><time>2026-05-03T07:44:07.997Z</time></trkpt><trkpt lat="44.96266384677968" lon="9.563547590493638"><ele>119.4</ele><time>2026-05-03T07:44:09.997Z</time></trkpt><trkpt lat="44.962577819812054" lon="9.563509444723582"><ele>119.6</ele><time>2026-05-03T07:44:11.997Z</time></trkpt><trkpt lat="44.962487162967804" lon="9.563469155446441"><ele>119.8</ele><time>2026-05-03T07:44:13.997Z</time></trkpt><trkpt lat="44.962391330579" lon="9.563444665893456"><ele>120.0</ele><time>2026-05-03T07:44:15.997Z</time></trkpt><trkpt lat="44.9622963048098" lon="9.563413582414787"><ele>120.2</ele><time>2026-05-03T07:44:17.997Z</time></trkpt><trkpt lat="44.962198464086235" lon="9.56339281075029"><ele>120.4</ele><time>2026-05-03T07:44:19.996Z</time></trkpt><trkpt lat="44.962096967061576" lon="9.56336520960299"><ele>120.6</ele><time>2026-05-03T07:44:21.996Z</time></trkpt><trkpt lat="44.96199708584121" lon="9.563334210710366"><ele>120.8</ele><time>2026-05-03T07:44:23.996Z</time></trkpt><trkpt lat="44.961894296292954" lon="9.563304707395993"><ele>121.0</ele><time>2026-05-03T07:44:25.996Z</time></trkpt><trkpt lat="44.96179059760368" lon="9.563280152690316"><ele>121.19999999999999</ele><time>2026-05-03T07:44:27.996Z</time></trkpt><trkpt lat="44.961689241019094" lon="9.563250513051733"><ele>121.39999999999999</ele><time>2026-05-03T07:44:29.996Z</time></trkpt><trkpt lat="44.96158431054255" lon="9.563237518229718"><ele>121.6</ele><time>2026-05-03T07:44:31.996Z</time></trkpt><trkpt lat="44.96148229321369" lon="9.563224472020325"><ele>121.8</ele><time>2026-05-03T07:44:33.996Z</time></trkpt><trkpt lat="44.96138090542086" lon="9.563216265068428"><ele>122.0</ele><time>2026-05-03T07:44:35.996Z</time></trkpt><trkpt lat="44.961284698985416" lon="9.56320610220284"><ele>122.0</ele><time>2026-05-03T07:44:37.996Z</time></trkpt><trkpt lat="44.961187061461715" lon="9.56318886815273"><ele>121.99999999999999</ele><time>2026-05-03T07:44:39.996Z</time></trkpt><trkpt lat="44.961090107614595" lon="9.563163813813675"><ele>121.99999999999999</ele><time>2026-05-03T07:44:41.996Z</time></trkpt><trkpt lat="44.96099653091533" lon="9.56314206513563"><ele>122.0</ele><time>2026-05-03T07:44:43.996Z</time></trkpt><trkpt lat="44.96089946068916" lon="9.563122314747503"><ele>122.0</ele><time>2026-05-03T07:44:45.996Z</time></trkpt><trkpt lat="44.960803453102464" lon="9.563096274469068"><ele>122.19999999999999</ele><time>2026-05-03T07:44:47.996Z</time></trkpt><trkpt lat="44.96070851356065" lon="9.563081419833376"><ele>122.39999999999999</ele><time>2026-05-03T07:44:49.996Z</time></trkpt><trkpt lat="44.96060460475705" lon="9.563054865536756"><ele>122.60000000000001</ele><time>2026-05-03T07:44:51.996Z</time></trkpt><trkpt lat="44.960504601380336" lon="9.563041842233975"><ele>122.80000000000001</ele><time>2026-05-03T07:44:53.996Z</time></trkpt><trkpt lat="44.960410897758294" lon="9.563024321668701"><ele>123.0</ele><time>2026-05-03T07:44:55.996Z</time></trkpt><trkpt lat="44.96030852822405" lon="9.563012409385488"><ele>123.0</ele><time>2026-05-03T07:44:57.996Z</time></trkpt><trkpt lat="44.96020925687792" lon="9.56299884526232"><ele>123.00000000000001</ele><time>2026-05-03T07:44:59.996Z</time></trkpt><trkpt lat="44.96010783645062" lon="9.562983187359416"><ele>123.00000000000001</ele><time>2026-05-03T07:45:01.996Z</time></trkpt><trkpt lat="44.9600084728835" lon="9.562968038713997"><ele>123.0</ele><time>2026-05-03T07:45:03.996Z</time></trkpt><trkpt lat="44.95990696247161" lon="9.562952805811458"><ele>123.0</ele><time>2026-05-03T07:45:05.996Z</time></trkpt><trkpt lat="44.95980594395547" lon="9.562937052098885"><ele>123.0</ele><time>2026-05-03T07:45:07.996Z</time></trkpt><trkpt lat="44.95971269469047" lon="9.562921394560032"><ele>123.00000000000001</ele><time>2026-05-03T07:45:09.996Z</time></trkpt><trkpt lat="44.95962024175646" lon="9.562910126816446"><ele>123.00000000000001</ele><time>2026-05-03T07:45:11.996Z</time></trkpt><trkpt lat="44.95952291789104" lon="9.562890430989311"><ele>123.0</ele><time>2026-05-03T07:45:13.996Z</time></trkpt><trkpt lat="44.95943013534366" lon="9.562860617753596"><ele>123.0</ele><time>2026-05-03T07:45:15.996Z</time></trkpt><trkpt lat="44.95933198423205" lon="9.56284368490466"><ele>123.16666666666667</ele><time>2026-05-03T07:45:17.996Z</time></trkpt><trkpt lat="44.95923735826868" lon="9.562825174618093"><ele>123.33333333333334</ele><time>2026-05-03T07:45:19.996Z</time></trkpt><trkpt lat="44.959147171355966" lon="9.562810812781192"><ele>123.5</ele><time>2026-05-03T07:45:21.996Z</time></trkpt><trkpt lat="44.959063656714896" lon="9.56279369561412"><ele>123.66666666666667</ele><time>2026-05-03T07:45:23.996Z</time></trkpt><trkpt lat="44.958999611741454" lon="9.562763645741267"><ele>123.83333333333334</ele><time>2026-05-03T07:45:25.996Z</time></trkpt><trkpt lat="44.95898045390775" lon="9.562660134154987"><ele>124.0</ele><time>2026-05-03T07:45:28.996Z</time></trkpt><trkpt lat="44.95898152304544" lon="9.562538418468776"><ele>124.4</ele><time>2026-05-03T07:45:30.996Z</time></trkpt><trkpt lat="44.95897838476625" lon="9.562417067348962"><ele>124.80000000000001</ele><time>2026-05-03T07:45:32.996Z</time></trkpt><trkpt lat="44.95897767191243" lon="9.562290116927644"><ele>125.19999999999999</ele><time>2026-05-03T07:45:34.996Z</time></trkpt><trkpt lat="44.95897496045705" lon="9.562147478552191"><ele>125.6</ele><time>2026-05-03T07:45:36.996Z</time></trkpt><trkpt lat="44.95897551400334" lon="9.56199637559559"><ele>126.0</ele><time>2026-05-03T07:45:38.996Z</time></trkpt><trkpt lat="44.95897501192691" lon="9.561835108314066"><ele>126.0</ele><time>2026-05-03T07:45:40.996Z</time></trkpt><trkpt lat="44.95897325216314" lon="9.561744863443868"><ele>126.0</ele><time>2026-05-03T07:45:41.996Z</time></trkpt><trkpt lat="44.958975404189246" lon="9.561574154603317"><ele>126.0</ele><time>2026-05-03T07:45:43.996Z</time></trkpt><trkpt lat="44.958975948853876" lon="9.561480772744549"><ele>126.0</ele><time>2026-05-03T07:45:44.996Z</time></trkpt><trkpt lat="44.95897404102647" lon="9.56138889252202"><ele>126.0</ele><time>2026-05-03T07:45:45.996Z</time></trkpt><trkpt lat="44.958975493103544" lon="9.561293718000544"><ele>126.0</ele><time>2026-05-03T07:45:46.996Z</time></trkpt><trkpt lat="44.95897618147356" lon="9.56120073458961"><ele>126.0</ele><time>2026-05-03T07:45:47.996Z</time></trkpt><trkpt lat="44.958975691582594" lon="9.561105447385959"><ele>125.42857142857143</ele><time>2026-05-03T07:45:48.996Z</time></trkpt><trkpt lat="44.958971483530696" lon="9.561007235825523"><ele>124.85714285714286</ele><time>2026-05-03T07:45:49.996Z</time></trkpt><trkpt lat="44.95897046486941" lon="9.560908449648942"><ele>124.28571428571428</ele><time>2026-05-03T07:45:50.996Z</time></trkpt><trkpt lat="44.95897049788283" lon="9.560806911112737"><ele>123.71428571428571</ele><time>2026-05-03T07:45:51.996Z</time></trkpt><trkpt lat="44.95897059024495" lon="9.560706141356532"><ele>123.14285714285714</ele><time>2026-05-03T07:45:52.996Z</time></trkpt><trkpt lat="44.95896771969843" lon="9.56059759282612"><ele>122.57142857142856</ele><time>2026-05-03T07:45:53.996Z</time></trkpt><trkpt lat="44.958967129906014" lon="9.560491770089083"><ele>121.99999999999999</ele><time>2026-05-03T07:45:54.996Z</time></trkpt><trkpt lat="44.9589680545633" lon="9.560380427461993"><ele>121.49999999999999</ele><time>2026-05-03T07:45:55.996Z</time></trkpt><trkpt lat="44.95896679336553" lon="9.560274731944485"><ele>121.0</ele><time>2026-05-03T07:45:56.996Z</time></trkpt><trkpt lat="44.95896641146384" lon="9.560168175334313"><ele>120.5</ele><time>2026-05-03T07:45:57.996Z</time></trkpt><trkpt lat="44.95896553689657" lon="9.560055455138668"><ele>120.0</ele><time>2026-05-03T07:45:58.996Z</time></trkpt><trkpt lat="44.95896570716495" lon="9.559939429028217"><ele>119.49999999999999</ele><time>2026-05-03T07:45:59.996Z</time></trkpt><trkpt lat="44.95896178962908" lon="9.5598356130504"><ele>119.0</ele><time>2026-05-03T07:46:00.996Z</time></trkpt><trkpt lat="44.95896554263407" lon="9.55972382025275"><ele>119.0</ele><time>2026-05-03T07:46:01.996Z</time></trkpt><trkpt lat="44.95896736777884" lon="9.559616789512049"><ele>119.0</ele><time>2026-05-03T07:46:02.996Z</time></trkpt><trkpt lat="44.95896645218183" lon="9.559518581446017"><ele>119.0</ele><time>2026-05-03T07:46:03.996Z</time></trkpt><trkpt lat="44.95896128457937" lon="9.559418850577117"><ele>119.0</ele><time>2026-05-03T07:46:04.996Z</time></trkpt><trkpt lat="44.95895580918678" lon="9.559315733042892"><ele>119.0</ele><time>2026-05-03T07:46:05.996Z</time></trkpt><trkpt lat="44.95895453959028" lon="9.559212585824755"><ele>119.0</ele><time>2026-05-03T07:46:06.996Z</time></trkpt><trkpt lat="44.958951948692246" lon="9.559110168012069"><ele>119.0</ele><time>2026-05-03T07:46:07.996Z</time></trkpt><trkpt lat="44.95894238685016" lon="9.559013255393866"><ele>118.85714285714286</ele><time>2026-05-03T07:46:08.996Z</time></trkpt><trkpt lat="44.95892818786394" lon="9.558914268623534"><ele>118.71428571428572</ele><time>2026-05-03T07:46:09.996Z</time></trkpt><trkpt lat="44.958911651013" lon="9.558816576783975"><ele>118.57142857142857</ele><time>2026-05-03T07:46:10.996Z</time></trkpt><trkpt lat="44.958896949245585" lon="9.55871576959063"><ele>118.42857142857143</ele><time>2026-05-03T07:46:11.996Z</time></trkpt><trkpt lat="44.95887255628858" lon="9.55862996870502"><ele>118.28571428571429</ele><time>2026-05-03T07:46:12.996Z</time></trkpt><trkpt lat="44.95884615907875" lon="9.558541434929545"><ele>118.14285714285714</ele><time>2026-05-03T07:46:13.996Z</time></trkpt><trkpt lat="44.95881146506571" lon="9.558456479382452"><ele>118.0</ele><time>2026-05-03T07:46:14.996Z</time></trkpt><trkpt lat="44.95877248131809" lon="9.558371219515875"><ele>118.42857142857142</ele><time>2026-05-03T07:46:15.996Z</time></trkpt><trkpt lat="44.958733170827855" lon="9.558291595472664"><ele>118.85714285714286</ele><time>2026-05-03T07:46:16.996Z</time></trkpt><trkpt lat="44.958689354685795" lon="9.558214315023083"><ele>119.28571428571428</ele><time>2026-05-03T07:46:17.996Z</time></trkpt><trkpt lat="44.958647929100394" lon="9.55814247764309"><ele>119.71428571428571</ele><time>2026-05-03T07:46:18.996Z</time></trkpt><trkpt lat="44.958603138117596" lon="9.558069957386198"><ele>120.14285714285714</ele><time>2026-05-03T07:46:19.996Z</time></trkpt><trkpt lat="44.95855804169634" lon="9.557996224158597"><ele>120.57142857142857</ele><time>2026-05-03T07:46:20.996Z</time></trkpt><trkpt lat="44.95851400305283" lon="9.557924680660648"><ele>121.0</ele><time>2026-05-03T07:46:21.996Z</time></trkpt><trkpt lat="44.958469804274635" lon="9.55785652735312"><ele>121.33333333333334</ele><time>2026-05-03T07:46:22.996Z</time></trkpt><trkpt lat="44.958425719120164" lon="9.557788150287536"><ele>121.66666666666667</ele><time>2026-05-03T07:46:23.997Z</time></trkpt><trkpt lat="44.958383058731094" lon="9.557719299215494"><ele>122.0</ele><time>2026-05-03T07:46:24.996Z</time></trkpt><trkpt lat="44.95834360722558" lon="9.557649754289946"><ele>122.33333333333334</ele><time>2026-05-03T07:46:25.996Z</time></trkpt><trkpt lat="44.95826969841874" lon="9.557518256359863"><ele>122.66666666666667</ele><time>2026-05-03T07:46:27.997Z</time></trkpt><trkpt lat="44.95820585836286" lon="9.557382212886106"><ele>123.0</ele><time>2026-05-03T07:46:29.997Z</time></trkpt><trkpt lat="44.95815474991953" lon="9.557242780039694"><ele>123.0</ele><time>2026-05-03T07:46:31.997Z</time></trkpt><trkpt lat="44.95810619029667" lon="9.557107993960583"><ele>123.00000000000001</ele><time>2026-05-03T07:46:33.996Z</time></trkpt><trkpt lat="44.95806060829782" lon="9.55696818941336"><ele>123.00000000000001</ele><time>2026-05-03T07:46:35.996Z</time></trkpt><trkpt lat="44.95801104600605" lon="9.55682319689364"><ele>123.0</ele><time>2026-05-03T07:46:37.996Z</time></trkpt><trkpt lat="44.957963853894974" lon="9.556678957260777"><ele>123.0</ele><time>2026-05-03T07:46:39.996Z</time></trkpt><trkpt lat="44.95791980120505" lon="9.556552260624883"><ele>123.60000000000001</ele><time>2026-05-03T07:46:41.996Z</time></trkpt><trkpt lat="44.95787968981268" lon="9.556412492646572"><ele>124.20000000000002</ele><time>2026-05-03T07:46:43.996Z</time></trkpt><trkpt lat="44.95783426196688" lon="9.55627965351519"><ele>124.8</ele><time>2026-05-03T07:46:45.996Z</time></trkpt><trkpt lat="44.957793006717154" lon="9.556151575057493"><ele>125.4</ele><time>2026-05-03T07:46:47.996Z</time></trkpt><trkpt lat="44.957748877661" lon="9.556013851636381"><ele>126.0</ele><time>2026-05-03T07:46:49.996Z</time></trkpt><trkpt lat="44.9577083341367" lon="9.555884717520243"><ele>126.6</ele><time>2026-05-03T07:46:51.996Z</time></trkpt><trkpt lat="44.95766667888534" lon="9.555749168479023"><ele>127.19999999999999</ele><time>2026-05-03T07:46:53.996Z</time></trkpt><trkpt lat="44.95763462503472" lon="9.555618708612865"><ele>127.80000000000001</ele><time>2026-05-03T07:46:55.996Z</time></trkpt><trkpt lat="44.95760387840155" lon="9.555476331658191"><ele>128.4</ele><time>2026-05-03T07:46:57.996Z</time></trkpt><trkpt lat="44.95757253712994" lon="9.55533916915045"><ele>129.0</ele><time>2026-05-03T07:46:59.996Z</time></trkpt><trkpt lat="44.957546124035275" lon="9.555196916990633"><ele>129.2</ele><time>2026-05-03T07:47:01.996Z</time></trkpt><trkpt lat="44.9575217431133" lon="9.555054113369854"><ele>129.4</ele><time>2026-05-03T07:47:03.996Z</time></trkpt><trkpt lat="44.95749631948761" lon="9.554910975380297"><ele>129.6</ele><time>2026-05-03T07:47:05.996Z</time></trkpt><trkpt lat="44.95746981035246" lon="9.554772367632806"><ele>129.8</ele><time>2026-05-03T07:47:07.996Z</time></trkpt><trkpt lat="44.95744517383495" lon="9.55462894130282"><ele>130.0</ele><time>2026-05-03T07:47:09.996Z</time></trkpt><trkpt lat="44.95742337456796" lon="9.554482774293659"><ele>130.2</ele><time>2026-05-03T07:47:11.996Z</time></trkpt><trkpt lat="44.9574004974259" lon="9.55434136147075"><ele>130.4</ele><time>2026-05-03T07:47:13.996Z</time></trkpt><trkpt lat="44.957377505561674" lon="9.554195271815857"><ele>130.6</ele><time>2026-05-03T07:47:15.996Z</time></trkpt><trkpt lat="44.9573527343795" lon="9.554054697690908"><ele>130.8</ele><time>2026-05-03T07:47:17.996Z</time></trkpt><trkpt lat="44.9573233887745" lon="9.553909844571743"><ele>131.0</ele><time>2026-05-03T07:47:19.996Z</time></trkpt><trkpt lat="44.957301041873734" lon="9.553768419171258"><ele>131.2</ele><time>2026-05-03T07:47:21.996Z</time></trkpt><trkpt lat="44.957279897193715" lon="9.553626121673345"><ele>131.39999999999998</ele><time>2026-05-03T07:47:23.996Z</time></trkpt><trkpt lat="44.95725791217986" lon="9.5534856476329"><ele>131.6</ele><time>2026-05-03T07:47:25.996Z</time></trkpt><trkpt lat="44.957241070064065" lon="9.553341899184362"><ele>131.79999999999998</ele><time>2026-05-03T07:47:27.996Z</time></trkpt><trkpt lat="44.95722780376631" lon="9.553202300376128"><ele>132.0</ele><time>2026-05-03T07:47:29.996Z</time></trkpt><trkpt lat="44.95722703989878" lon="9.55305679131178"><ele>132.0</ele><time>2026-05-03T07:47:31.996Z</time></trkpt><trkpt lat="44.95724726696541" lon="9.552921968894557"><ele>132.0</ele><time>2026-05-03T07:47:33.996Z</time></trkpt><trkpt lat="44.95727447627394" lon="9.552790170478547"><ele>132.0</ele><time>2026-05-03T07:47:35.996Z</time></trkpt><trkpt lat="44.95730950377839" lon="9.552675683432458"><ele>132.0</ele><time>2026-05-03T07:47:37.996Z</time></trkpt><trkpt lat="44.957340853376905" lon="9.55255584187743"><ele>132.0</ele><time>2026-05-03T07:47:39.996Z</time></trkpt><trkpt lat="44.95737870788222" lon="9.552432674691737"><ele>132.16666666666666</ele><time>2026-05-03T07:47:41.996Z</time></trkpt><trkpt lat="44.957414776534975" lon="9.552308881604398"><ele>132.33333333333334</ele><time>2026-05-03T07:47:43.996Z</time></trkpt><trkpt lat="44.957450780873216" lon="9.552191069004646"><ele>132.5</ele><time>2026-05-03T07:47:45.996Z</time></trkpt><trkpt lat="44.95748447191781" lon="9.552076716485084"><ele>132.66666666666669</ele><time>2026-05-03T07:47:47.996Z</time></trkpt><trkpt lat="44.95751912142341" lon="9.551963643447044"><ele>132.83333333333334</ele><time>2026-05-03T07:47:49.996Z</time></trkpt><trkpt lat="44.95755204748845" lon="9.551849495701505"><ele>133.0</ele><time>2026-05-03T07:47:51.996Z</time></trkpt><trkpt lat="44.95758505444698" lon="9.551731464880387"><ele>133.0</ele><time>2026-05-03T07:47:53.996Z</time></trkpt><trkpt lat="44.9576207411061" lon="9.55161247232068"><ele>133.0</ele><time>2026-05-03T07:47:55.996Z</time></trkpt><trkpt lat="44.95765897752675" lon="9.55148961856611"><ele>133.0</ele><time>2026-05-03T07:47:57.996Z</time></trkpt><trkpt lat="44.95770345151101" lon="9.551355319166213"><ele>133.0</ele><time>2026-05-03T07:47:59.996Z</time></trkpt><trkpt lat="44.95774201156013" lon="9.551211049417873"><ele>133.0</ele><time>2026-05-03T07:48:01.996Z</time></trkpt><trkpt lat="44.957778959262036" lon="9.55108233995591"><ele>133.0</ele><time>2026-05-03T07:48:03.996Z</time></trkpt><trkpt lat="44.95781701635136" lon="9.550942413876365"><ele>133.0</ele><time>2026-05-03T07:48:05.996Z</time></trkpt><trkpt lat="44.957857106802436" lon="9.55080462399106"><ele>133.0</ele><time>2026-05-03T07:48:07.996Z</time></trkpt><trkpt lat="44.957895978244615" lon="9.55066601823875"><ele>133.0</ele><time>2026-05-03T07:48:09.996Z</time></trkpt><trkpt lat="44.957937203793975" lon="9.550534120746184"><ele>133.0</ele><time>2026-05-03T07:48:11.996Z</time></trkpt><trkpt lat="44.957979663356014" lon="9.550389522420085"><ele>133.4</ele><time>2026-05-03T07:48:13.996Z</time></trkpt><trkpt lat="44.958019375393526" lon="9.550246173918024"><ele>133.8</ele><time>2026-05-03T07:48:15.996Z</time></trkpt><trkpt lat="44.958054977327635" lon="9.550110083568521"><ele>134.2</ele><time>2026-05-03T07:48:17.996Z</time></trkpt><trkpt lat="44.95809841225609" lon="9.549965327643838"><ele>134.6</ele><time>2026-05-03T07:48:19.996Z</time></trkpt><trkpt lat="44.958133724665316" lon="9.549827652523746"><ele>135.0</ele><time>2026-05-03T07:48:21.996Z</time></trkpt><trkpt lat="44.95817539755423" lon="9.549687182857745"><ele>135.0</ele><time>2026-05-03T07:48:23.996Z</time></trkpt><trkpt lat="44.95821376402796" lon="9.549546593845538"><ele>135.0</ele><time>2026-05-03T07:48:25.995Z</time></trkpt><trkpt lat="44.95824945265367" lon="9.549411541487292"><ele>135.0</ele><time>2026-05-03T07:48:27.996Z</time></trkpt><trkpt lat="44.95828891705718" lon="9.549282594974676"><ele>135.0</ele><time>2026-05-03T07:48:29.996Z</time></trkpt><trkpt lat="44.958330435569906" lon="9.549149061864378"><ele>135.0</ele><time>2026-05-03T07:48:31.996Z</time></trkpt><trkpt lat="44.95836322052591" lon="9.54901418353582"><ele>135.2</ele><time>2026-05-03T07:48:33.996Z</time></trkpt><trkpt lat="44.95841220890119" lon="9.548885374843856"><ele>135.4</ele><time>2026-05-03T07:48:35.996Z</time></trkpt><trkpt lat="44.95844574052104" lon="9.548750038192624"><ele>135.6</ele><time>2026-05-03T07:48:37.996Z</time></trkpt><trkpt lat="44.9584808252176" lon="9.548616449276018"><ele>135.8</ele><time>2026-05-03T07:48:39.996Z</time></trkpt><trkpt lat="44.9585149831324" lon="9.548495633754435"><ele>136.0</ele><time>2026-05-03T07:48:41.996Z</time></trkpt><trkpt lat="44.95855441238324" lon="9.548367080560121"><ele>136.0</ele><time>2026-05-03T07:48:43.996Z</time></trkpt><trkpt lat="44.95859095091606" lon="9.548249623089848"><ele>136.0</ele><time>2026-05-03T07:48:45.996Z</time></trkpt><trkpt lat="44.95861886587525" lon="9.54813025297587"><ele>136.0</ele><time>2026-05-03T07:48:47.996Z</time></trkpt><trkpt lat="44.95864972276938" lon="9.547995816198531"><ele>136.0</ele><time>2026-05-03T07:48:49.996Z</time></trkpt><trkpt lat="44.95868684418722" lon="9.547886395032334"><ele>136.0</ele><time>2026-05-03T07:48:51.996Z</time></trkpt><trkpt lat="44.9587125279784" lon="9.547782041598754"><ele>136.0</ele><time>2026-05-03T07:48:54.996Z</time></trkpt><trkpt lat="44.958695266484646" lon="9.547644969747422"><ele>136.6</ele><time>2026-05-03T07:48:57.996Z</time></trkpt><trkpt lat="44.95862164929005" lon="9.547571568526353"><ele>137.2</ele><time>2026-05-03T07:48:59.996Z</time></trkpt><trkpt lat="44.95854504234427" lon="9.547504525691856"><ele>137.8</ele><time>2026-05-03T07:49:01.996Z</time></trkpt><trkpt lat="44.958482393623434" lon="9.547428256814634"><ele>138.4</ele><time>2026-05-03T07:49:03.996Z</time></trkpt><trkpt lat="44.95840371179709" lon="9.547344558815235"><ele>139.0</ele><time>2026-05-03T07:49:05.996Z</time></trkpt><trkpt lat="44.95832582118227" lon="9.547267077690115"><ele>139.0</ele><time>2026-05-03T07:49:07.996Z</time></trkpt><trkpt lat="44.95826959590351" lon="9.547192800413557"><ele>139.0</ele><time>2026-05-03T07:49:09.996Z</time></trkpt><trkpt lat="44.95818466850911" lon="9.547119698877786"><ele>139.0</ele><time>2026-05-03T07:49:11.996Z</time></trkpt><trkpt lat="44.958096592541864" lon="9.547046465942062"><ele>139.0</ele><time>2026-05-03T07:49:13.996Z</time></trkpt><trkpt lat="44.95801092875823" lon="9.546951139265348"><ele>139.0</ele><time>2026-05-03T07:49:15.996Z</time></trkpt><trkpt lat="44.95792298840767" lon="9.546860288181453"><ele>139.0</ele><time>2026-05-03T07:49:17.996Z</time></trkpt><trkpt lat="44.957847578568824" lon="9.546770803714484"><ele>139.0</ele><time>2026-05-03T07:49:19.996Z</time></trkpt><trkpt lat="44.95776104378776" lon="9.546678254293175"><ele>139.0</ele><time>2026-05-03T07:49:21.996Z</time></trkpt><trkpt lat="44.957671685288055" lon="9.546592570238976"><ele>139.0</ele><time>2026-05-03T07:49:23.996Z</time></trkpt><trkpt lat="44.95758837203812" lon="9.546502449626452"><ele>139.0</ele><time>2026-05-03T07:49:25.996Z</time></trkpt><trkpt lat="44.957505235994255" lon="9.546414363860773"><ele>139.0</ele><time>2026-05-03T07:49:27.996Z</time></trkpt><trkpt lat="44.95741735081342" lon="9.54632196932122"><ele>139.0</ele><time>2026-05-03T07:49:29.996Z</time></trkpt><trkpt lat="44.95732778597802" lon="9.546235609516714"><ele>139.0</ele><time>2026-05-03T07:49:31.996Z</time></trkpt><trkpt lat="44.95725329967241" lon="9.54615677347542"><ele>139.0</ele><time>2026-05-03T07:49:33.996Z</time></trkpt><trkpt lat="44.957201350644226" lon="9.54610546649543"><ele>139.0</ele><time>2026-05-03T07:49:34.996Z</time></trkpt><trkpt lat="44.957124165299376" lon="9.546013542572117"><ele>139.0</ele><time>2026-05-03T07:49:36.996Z</time></trkpt><trkpt lat="44.95703754414433" lon="9.54591887171982"><ele>139.0</ele><time>2026-05-03T07:49:38.996Z</time></trkpt><trkpt lat="44.956952993575726" lon="9.545830782664593"><ele>139.0</ele><time>2026-05-03T07:49:40.996Z</time></trkpt><trkpt lat="44.956869220526464" lon="9.545745931879406"><ele>139.0</ele><time>2026-05-03T07:49:42.996Z</time></trkpt><trkpt lat="44.95678083167105" lon="9.545664154975922"><ele>139.0</ele><time>2026-05-03T07:49:44.996Z</time></trkpt><trkpt lat="44.956699170628696" lon="9.545571578063429"><ele>139.0</ele><time>2026-05-03T07:49:46.996Z</time></trkpt><trkpt lat="44.956603966335045" lon="9.545494292738013"><ele>139.0</ele><time>2026-05-03T07:49:48.996Z</time></trkpt><trkpt lat="44.956523566937165" lon="9.545403281110802"><ele>139.0</ele><time>2026-05-03T07:49:50.996Z</time></trkpt><trkpt lat="44.95643698189698" lon="9.545315850767823"><ele>139.0</ele><time>2026-05-03T07:49:52.996Z</time></trkpt><trkpt lat="44.956354006831965" lon="9.545230131817778"><ele>139.0</ele><time>2026-05-03T07:49:54.996Z</time></trkpt><trkpt lat="44.956266110905965" lon="9.545132308990064"><ele>138.6</ele><time>2026-05-03T07:49:56.996Z</time></trkpt><trkpt lat="44.956178613759214" lon="9.5450440482755"><ele>138.2</ele><time>2026-05-03T07:49:58.996Z</time></trkpt><trkpt lat="44.956091292218794" lon="9.544950944195278"><ele>137.79999999999998</ele><time>2026-05-03T07:50:00.996Z</time></trkpt><trkpt lat="44.95600661810126" lon="9.544863212708082"><ele>137.4</ele><time>2026-05-03T07:50:02.996Z</time></trkpt><trkpt lat="44.95591247671497" lon="9.544777242176867"><ele>137.0</ele><time>2026-05-03T07:50:04.996Z</time></trkpt><trkpt lat="44.95582019576358" lon="9.544682657594251"><ele>137.2</ele><time>2026-05-03T07:50:06.996Z</time></trkpt><trkpt lat="44.955723896526784" lon="9.54458966135472"><ele>137.39999999999998</ele><time>2026-05-03T07:50:08.996Z</time></trkpt><trkpt lat="44.95563752053449" lon="9.54449668972691"><ele>137.60000000000002</ele><time>2026-05-03T07:50:10.996Z</time></trkpt><trkpt lat="44.95554709514001" lon="9.544407822719439"><ele>137.8</ele><time>2026-05-03T07:50:12.996Z</time></trkpt><trkpt lat="44.95546085328585" lon="9.54431089614023"><ele>138.0</ele><time>2026-05-03T07:50:14.996Z</time></trkpt><trkpt lat="44.95536863843753" lon="9.54421605768279"><ele>138.0</ele><time>2026-05-03T07:50:16.996Z</time></trkpt><trkpt lat="44.95528351437224" lon="9.544136762634498"><ele>138.0</ele><time>2026-05-03T07:50:18.996Z</time></trkpt><trkpt lat="44.95518883402551" lon="9.544057932522579"><ele>138.0</ele><time>2026-05-03T07:50:20.996Z</time></trkpt><trkpt lat="44.955094318926015" lon="9.543985533117727"><ele>138.0</ele><time>2026-05-03T07:50:22.996Z</time></trkpt><trkpt lat="44.954996227700995" lon="9.54392354344194"><ele>138.0</ele><time>2026-05-03T07:50:24.996Z</time></trkpt><trkpt lat="44.95489614261444" lon="9.54386021230627"><ele>138.20000000000002</ele><time>2026-05-03T07:50:26.996Z</time></trkpt><trkpt lat="44.95479468386551" lon="9.54380625854725"><ele>138.4</ele><time>2026-05-03T07:50:28.996Z</time></trkpt><trkpt lat="44.95468970998484" lon="9.543754252553384"><ele>138.60000000000002</ele><time>2026-05-03T07:50:30.996Z</time></trkpt><trkpt lat="44.954585884878504" lon="9.543711284383944"><ele>138.8</ele><time>2026-05-03T07:50:32.996Z</time></trkpt><trkpt lat="44.954483205659585" lon="9.543657648012212"><ele>139.0</ele><time>2026-05-03T07:50:34.995Z</time></trkpt><trkpt lat="44.95438010908018" lon="9.543604081250226"><ele>139.0</ele><time>2026-05-03T07:50:36.995Z</time></trkpt><trkpt lat="44.95428102969656" lon="9.543548852356667"><ele>139.0</ele><time>2026-05-03T07:50:38.996Z</time></trkpt><trkpt lat="44.95418438551181" lon="9.543484158277513"><ele>139.0</ele><time>2026-05-03T07:50:40.996Z</time></trkpt><trkpt lat="44.954089272506245" lon="9.543420549248342"><ele>139.0</ele><time>2026-05-03T07:50:42.996Z</time></trkpt><trkpt lat="44.953998870143344" lon="9.543347151295652"><ele>139.0</ele><time>2026-05-03T07:50:44.996Z</time></trkpt><trkpt lat="44.953905174028066" lon="9.543274893228336"><ele>139.6</ele><time>2026-05-03T07:50:46.996Z</time></trkpt><trkpt lat="44.953813018901265" lon="9.543207805391722"><ele>140.2</ele><time>2026-05-03T07:50:48.996Z</time></trkpt><trkpt lat="44.95373053123794" lon="9.543142336286321"><ele>140.79999999999998</ele><time>2026-05-03T07:50:50.996Z</time></trkpt><trkpt lat="44.953635097111196" lon="9.54308381863951"><ele>141.4</ele><time>2026-05-03T07:50:52.996Z</time></trkpt><trkpt lat="44.953542568988496" lon="9.543009611054055"><ele>142.0</ele><time>2026-05-03T07:50:54.996Z</time></trkpt><trkpt lat="44.95344891847404" lon="9.542929218048469"><ele>142.0</ele><time>2026-05-03T07:50:56.996Z</time></trkpt><trkpt lat="44.95335033275971" lon="9.542855785515627"><ele>142.0</ele><time>2026-05-03T07:50:58.996Z</time></trkpt><trkpt lat="44.95325754446405" lon="9.542780348557883"><ele>142.0</ele><time>2026-05-03T07:51:00.996Z</time></trkpt><trkpt lat="44.953162791058524" lon="9.542711273645907"><ele>142.0</ele><time>2026-05-03T07:51:02.996Z</time></trkpt><trkpt lat="44.953069605220605" lon="9.54265173275114"><ele>142.0</ele><time>2026-05-03T07:51:04.996Z</time></trkpt><trkpt lat="44.95297295537023" lon="9.542586639050786"><ele>142.0</ele><time>2026-05-03T07:51:06.996Z</time></trkpt><trkpt lat="44.952873811586095" lon="9.542530757017538"><ele>142.0</ele><time>2026-05-03T07:51:08.996Z</time></trkpt><trkpt lat="44.95277406966568" lon="9.542470078665472"><ele>142.0</ele><time>2026-05-03T07:51:10.996Z</time></trkpt><trkpt lat="44.95267318232425" lon="9.542419996049928"><ele>142.0</ele><time>2026-05-03T07:51:12.996Z</time></trkpt><trkpt lat="44.95257203772683" lon="9.542366686615138"><ele>142.0</ele><time>2026-05-03T07:51:14.996Z</time></trkpt><trkpt lat="44.95247117064522" lon="9.542304707476285"><ele>142.2</ele><time>2026-05-03T07:51:16.996Z</time></trkpt><trkpt lat="44.95236744839494" lon="9.542235973806319"><ele>142.39999999999998</ele><time>2026-05-03T07:51:18.996Z</time></trkpt><trkpt lat="44.95226976135526" lon="9.542172031005435"><ele>142.60000000000002</ele><time>2026-05-03T07:51:20.996Z</time></trkpt><trkpt lat="44.952178248405104" lon="9.542088455764786"><ele>142.8</ele><time>2026-05-03T07:51:22.996Z</time></trkpt><trkpt lat="44.952084416839995" lon="9.542012183950963"><ele>143.0</ele><time>2026-05-03T07:51:24.996Z</time></trkpt><trkpt lat="44.95199608169721" lon="9.5419166231753"><ele>143.0</ele><time>2026-05-03T07:51:26.996Z</time></trkpt><trkpt lat="44.951917422704085" lon="9.541837082525927"><ele>143.0</ele><time>2026-05-03T07:51:28.996Z</time></trkpt><trkpt lat="44.951833473499406" lon="9.541737427109167"><ele>143.0</ele><time>2026-05-03T07:51:30.996Z</time></trkpt><trkpt lat="44.95175619221098" lon="9.541637822745784"><ele>143.0</ele><time>2026-05-03T07:51:32.996Z</time></trkpt><trkpt lat="44.95168103865756" lon="9.5415344876471"><ele>143.0</ele><time>2026-05-03T07:51:34.996Z</time></trkpt><trkpt lat="44.951603507291765" lon="9.54143245780627"><ele>143.0</ele><time>2026-05-03T07:51:36.996Z</time></trkpt><trkpt lat="44.95152703452259" lon="9.541330013827434"><ele>143.0</ele><time>2026-05-03T07:51:38.996Z</time></trkpt><trkpt lat="44.95145197592547" lon="9.541232789475298"><ele>143.0</ele><time>2026-05-03T07:51:40.996Z</time></trkpt><trkpt lat="44.951374654773794" lon="9.54112983383768"><ele>143.0</ele><time>2026-05-03T07:51:42.996Z</time></trkpt><trkpt lat="44.95130212991477" lon="9.541033847791942"><ele>143.0</ele><time>2026-05-03T07:51:44.996Z</time></trkpt><trkpt lat="44.951224244568955" lon="9.540937664749872"><ele>143.0</ele><time>2026-05-03T07:51:46.996Z</time></trkpt><trkpt lat="44.95114861301345" lon="9.540848439486231"><ele>143.0</ele><time>2026-05-03T07:51:48.996Z</time></trkpt><trkpt lat="44.95107235133592" lon="9.540745232068947"><ele>143.0</ele><time>2026-05-03T07:51:50.996Z</time></trkpt><trkpt lat="44.950991162483014" lon="9.540646665683918"><ele>143.0</ele><time>2026-05-03T07:51:52.996Z</time></trkpt><trkpt lat="44.95091690519716" lon="9.540546274084411"><ele>143.0</ele><time>2026-05-03T07:51:54.996Z</time></trkpt><trkpt lat="44.95083715480301" lon="9.540450098606751"><ele>143.8</ele><time>2026-05-03T07:51:56.996Z</time></trkpt><trkpt lat="44.95076099489149" lon="9.540349675376072"><ele>144.60000000000002</ele><time>2026-05-03T07:51:58.996Z</time></trkpt><trkpt lat="44.95068590661126" lon="9.540249845782917"><ele>145.39999999999998</ele><time>2026-05-03T07:52:00.996Z</time></trkpt><trkpt lat="44.95061033106206" lon="9.540146105114342"><ele>146.2</ele><time>2026-05-03T07:52:02.995Z</time></trkpt><trkpt lat="44.950539613233474" lon="9.540044376585183"><ele>147.0</ele><time>2026-05-03T07:52:04.995Z</time></trkpt><trkpt lat="44.95046945308457" lon="9.539937955894903"><ele>147.0</ele><time>2026-05-03T07:52:06.995Z</time></trkpt><trkpt lat="44.95040394361765" lon="9.539825077898355"><ele>147.0</ele><time>2026-05-03T07:52:08.995Z</time></trkpt><trkpt lat="44.95033785890754" lon="9.539715588587397"><ele>147.0</ele><time>2026-05-03T07:52:10.995Z</time></trkpt><trkpt lat="44.950272434366035" lon="9.539597921980167"><ele>147.0</ele><time>2026-05-03T07:52:12.995Z</time></trkpt><trkpt lat="44.95020801292555" lon="9.539477826990318"><ele>147.0</ele><time>2026-05-03T07:52:14.995Z</time></trkpt><trkpt lat="44.95013990481896" lon="9.539364820880147"><ele>147.2</ele><time>2026-05-03T07:52:16.995Z</time></trkpt><trkpt lat="44.95007024419808" lon="9.539244321709178"><ele>147.39999999999998</ele><time>2026-05-03T07:52:18.995Z</time></trkpt><trkpt lat="44.950001308775114" lon="9.539125446848496"><ele>147.60000000000002</ele><time>2026-05-03T07:52:20.995Z</time></trkpt><trkpt lat="44.94993197802074" lon="9.538999955399873"><ele>147.8</ele><time>2026-05-03T07:52:22.995Z</time></trkpt><trkpt lat="44.94985892514488" lon="9.538884438220407"><ele>148.0</ele><time>2026-05-03T07:52:24.995Z</time></trkpt><trkpt lat="44.9497914239128" lon="9.53876097412146"><ele>148.6</ele><time>2026-05-03T07:52:26.995Z</time></trkpt><trkpt lat="44.949721735872586" lon="9.538639935063006"><ele>149.20000000000002</ele><time>2026-05-03T07:52:28.995Z</time></trkpt><trkpt lat="44.94964778766927" lon="9.53851807388473"><ele>149.8</ele><time>2026-05-03T07:52:30.995Z</time></trkpt><trkpt lat="44.94958362258763" lon="9.538406103295387"><ele>150.4</ele><time>2026-05-03T07:52:32.995Z</time></trkpt><trkpt lat="44.94952067753422" lon="9.538290028483642"><ele>151.0</ele><time>2026-05-03T07:52:34.995Z</time></trkpt><trkpt lat="44.949457035851054" lon="9.538173244378095"><ele>151.0</ele><time>2026-05-03T07:52:36.995Z</time></trkpt><trkpt lat="44.94939381149408" lon="9.538054508384018"><ele>151.0</ele><time>2026-05-03T07:52:38.996Z</time></trkpt><trkpt lat="44.949323924139335" lon="9.537941471368953"><ele>151.0</ele><time>2026-05-03T07:52:40.995Z</time></trkpt><trkpt lat="44.949259701428865" lon="9.53783448938989"><ele>151.0</ele><time>2026-05-03T07:52:42.995Z</time></trkpt><trkpt lat="44.949192366701325" lon="9.537717785882315"><ele>151.0</ele><time>2026-05-03T07:52:44.995Z</time></trkpt><trkpt lat="44.949126183230604" lon="9.537608708911353"><ele>151.2</ele><time>2026-05-03T07:52:46.995Z</time></trkpt><trkpt lat="44.94905803892806" lon="9.537494243498427"><ele>151.39999999999998</ele><time>2026-05-03T07:52:48.995Z</time></trkpt><trkpt lat="44.948983683440005" lon="9.537391842373442"><ele>151.6</ele><time>2026-05-03T07:52:50.995Z</time></trkpt><trkpt lat="44.948914880540705" lon="9.53728242196993"><ele>151.79999999999998</ele><time>2026-05-03T07:52:52.995Z</time></trkpt><trkpt lat="44.94884148320761" lon="9.537175134391102"><ele>152.0</ele><time>2026-05-03T07:52:54.995Z</time></trkpt><trkpt lat="44.94877429391392" lon="9.537084610526774"><ele>151.79999999999998</ele><time>2026-05-03T07:52:56.995Z</time></trkpt><trkpt lat="44.94869600367096" lon="9.536977749416502"><ele>151.6</ele><time>2026-05-03T07:52:58.995Z</time></trkpt><trkpt lat="44.94862449595421" lon="9.536880615273136"><ele>151.39999999999998</ele><time>2026-05-03T07:53:00.995Z</time></trkpt><trkpt lat="44.94855269598771" lon="9.536777075311532"><ele>151.2</ele><time>2026-05-03T07:53:02.995Z</time></trkpt><trkpt lat="44.94847636992995" lon="9.536667004010948"><ele>151.0</ele><time>2026-05-03T07:53:04.995Z</time></trkpt><trkpt lat="44.9483919541814" lon="9.536556160504981"><ele>151.6</ele><time>2026-05-03T07:53:06.995Z</time></trkpt><trkpt lat="44.94832167309532" lon="9.536455945420347"><ele>152.2</ele><time>2026-05-03T07:53:08.995Z</time></trkpt><trkpt lat="44.94824952959066" lon="9.53634587047571"><ele>152.8</ele><time>2026-05-03T07:53:10.995Z</time></trkpt><trkpt lat="44.94817252971978" lon="9.536238658431284"><ele>153.4</ele><time>2026-05-03T07:53:12.995Z</time></trkpt><trkpt lat="44.948099492509144" lon="9.536136621247172"><ele>154.0</ele><time>2026-05-03T07:53:14.995Z</time></trkpt><trkpt lat="44.9480215943825" lon="9.53603231437584"><ele>154.0</ele><time>2026-05-03T07:53:16.995Z</time></trkpt><trkpt lat="44.947948495620764" lon="9.535928512502368"><ele>154.0</ele><time>2026-05-03T07:53:18.995Z</time></trkpt><trkpt lat="44.947877782784424" lon="9.535824995998263"><ele>154.0</ele><time>2026-05-03T07:53:20.995Z</time></trkpt><trkpt lat="44.9478036261701" lon="9.535713722803639"><ele>154.0</ele><time>2026-05-03T07:53:22.995Z</time></trkpt><trkpt lat="44.947728337545534" lon="9.535611804814238"><ele>154.0</ele><time>2026-05-03T07:53:24.995Z</time></trkpt><trkpt lat="44.94765951117875" lon="9.535505643005253"><ele>154.0</ele><time>2026-05-03T07:53:26.995Z</time></trkpt><trkpt lat="44.947590206063886" lon="9.535394883919231"><ele>154.0</ele><time>2026-05-03T07:53:28.995Z</time></trkpt><trkpt lat="44.9475182012078" lon="9.535283954404365"><ele>154.0</ele><time>2026-05-03T07:53:30.995Z</time></trkpt><trkpt lat="44.94744598624796" lon="9.535166695552022"><ele>154.0</ele><time>2026-05-03T07:53:32.995Z</time></trkpt><trkpt lat="44.94738925432406" lon="9.53503611213082"><ele>154.0</ele><time>2026-05-03T07:53:34.995Z</time></trkpt><trkpt lat="44.94738010285336" lon="9.534947500212022"><ele>154.4</ele><time>2026-05-03T07:53:35.995Z</time></trkpt><trkpt lat="44.94736028441255" lon="9.534782654497548"><ele>154.8</ele><time>2026-05-03T07:53:37.995Z</time></trkpt><trkpt lat="44.94730863861618" lon="9.534622492774398"><ele>155.2</ele><time>2026-05-03T07:53:39.995Z</time></trkpt><trkpt lat="44.947256109196886" lon="9.534463842124643"><ele>155.6</ele><time>2026-05-03T07:53:41.995Z</time></trkpt><trkpt lat="44.94724744781333" lon="9.534366882318988"><ele>156.0</ele><time>2026-05-03T07:53:42.995Z</time></trkpt><trkpt lat="44.94724486402744" lon="9.534261669095956"><ele>156.0</ele><time>2026-05-03T07:53:43.995Z</time></trkpt><trkpt lat="44.94725563053783" lon="9.534150243328037"><ele>156.0</ele><time>2026-05-03T07:53:44.995Z</time></trkpt><trkpt lat="44.947257018445434" lon="9.534042334516071"><ele>156.0</ele><time>2026-05-03T07:53:45.995Z</time></trkpt><trkpt lat="44.94726190817356" lon="9.533928061314686"><ele>156.0</ele><time>2026-05-03T07:53:46.995Z</time></trkpt><trkpt lat="44.94726767781154" lon="9.533805003494894"><ele>156.0</ele><time>2026-05-03T07:53:47.995Z</time></trkpt><trkpt lat="44.947275356368806" lon="9.533676058593231"><ele>156.0</ele><time>2026-05-03T07:53:48.995Z</time></trkpt><trkpt lat="44.94728456413735" lon="9.533559408078588"><ele>155.66666666666666</ele><time>2026-05-03T07:53:49.995Z</time></trkpt><trkpt lat="44.9472984176746" lon="9.533433436347687"><ele>155.33333333333334</ele><time>2026-05-03T07:53:50.995Z</time></trkpt><trkpt lat="44.947317701622154" lon="9.533307210121913"><ele>155.0</ele><time>2026-05-03T07:53:51.995Z</time></trkpt><trkpt lat="44.94734181175671" lon="9.533186359289996"><ele>154.66666666666669</ele><time>2026-05-03T07:53:52.995Z</time></trkpt><trkpt lat="44.94737278224218" lon="9.533066785370991"><ele>154.33333333333334</ele><time>2026-05-03T07:53:53.995Z</time></trkpt><trkpt lat="44.94740266660222" lon="9.532950093973124"><ele>154.0</ele><time>2026-05-03T07:53:54.995Z</time></trkpt><trkpt lat="44.947437765653895" lon="9.532836426841216"><ele>153.83333333333334</ele><time>2026-05-03T07:53:55.995Z</time></trkpt><trkpt lat="44.94747316276598" lon="9.532726904524536"><ele>153.66666666666669</ele><time>2026-05-03T07:53:56.995Z</time></trkpt><trkpt lat="44.947507066032124" lon="9.532621629421072"><ele>153.5</ele><time>2026-05-03T07:53:57.995Z</time></trkpt><trkpt lat="44.94753940858505" lon="9.532517220239802"><ele>153.33333333333334</ele><time>2026-05-03T07:53:58.995Z</time></trkpt><trkpt lat="44.947574372173946" lon="9.532406756539123"><ele>153.16666666666666</ele><time>2026-05-03T07:53:59.995Z</time></trkpt><trkpt lat="44.94760793732096" lon="9.532304803987222"><ele>153.0</ele><time>2026-05-03T07:54:00.995Z</time></trkpt><trkpt lat="44.94763665368547" lon="9.532198530946443"><ele>152.66666666666666</ele><time>2026-05-03T07:54:01.995Z</time></trkpt><trkpt lat="44.94766599478697" lon="9.532089126221356"><ele>152.33333333333334</ele><time>2026-05-03T07:54:02.995Z</time></trkpt><trkpt lat="44.94770497558355" lon="9.531977577969593"><ele>152.0</ele><time>2026-05-03T07:54:03.995Z</time></trkpt><trkpt lat="44.94774063270472" lon="9.531870401365936"><ele>151.66666666666669</ele><time>2026-05-03T07:54:04.995Z</time></trkpt><trkpt lat="44.9477774752508" lon="9.531758769320106"><ele>151.33333333333334</ele><time>2026-05-03T07:54:05.995Z</time></trkpt><trkpt lat="44.94780847833212" lon="9.531644214616845"><ele>151.0</ele><time>2026-05-03T07:54:06.995Z</time></trkpt><trkpt lat="44.947843984777535" lon="9.531533272833146"><ele>150.83333333333334</ele><time>2026-05-03T07:54:07.995Z</time></trkpt><trkpt lat="44.94788336982482" lon="9.531415134149634"><ele>150.66666666666669</ele><time>2026-05-03T07:54:08.995Z</time></trkpt><trkpt lat="44.947918374266635" lon="9.531304223088842"><ele>150.5</ele><time>2026-05-03T07:54:09.995Z</time></trkpt><trkpt lat="44.947954762396165" lon="9.53119012139185"><ele>150.33333333333334</ele><time>2026-05-03T07:54:10.995Z</time></trkpt><trkpt lat="44.947992884689114" lon="9.53107063690338"><ele>150.16666666666666</ele><time>2026-05-03T07:54:11.995Z</time></trkpt><trkpt lat="44.948029223839555" lon="9.530956378133713"><ele>150.0</ele><time>2026-05-03T07:54:12.995Z</time></trkpt><trkpt lat="44.94806575288243" lon="9.530838259031132"><ele>150.0</ele><time>2026-05-03T07:54:13.995Z</time></trkpt><trkpt lat="44.94810232879757" lon="9.530732230588841"><ele>150.0</ele><time>2026-05-03T07:54:14.995Z</time></trkpt><trkpt lat="44.94814120761689" lon="9.530615654260576"><ele>150.0</ele><time>2026-05-03T07:54:15.995Z</time></trkpt><trkpt lat="44.948168650066684" lon="9.530504596146907"><ele>150.0</ele><time>2026-05-03T07:54:16.995Z</time></trkpt><trkpt lat="44.94820468477723" lon="9.53038839374536"><ele>150.0</ele><time>2026-05-03T07:54:17.995Z</time></trkpt><trkpt lat="44.94824237896" lon="9.530269551894198"><ele>150.0</ele><time>2026-05-03T07:54:18.995Z</time></trkpt><trkpt lat="44.94828571652712" lon="9.530161443620234"><ele>150.0</ele><time>2026-05-03T07:54:19.995Z</time></trkpt><trkpt lat="44.9483177068503" lon="9.530040020780845"><ele>150.0</ele><time>2026-05-03T07:54:20.995Z</time></trkpt><trkpt lat="44.948357169642726" lon="9.529920545506828"><ele>150.0</ele><time>2026-05-03T07:54:21.995Z</time></trkpt><trkpt lat="44.948398051705894" lon="9.529807080640381"><ele>150.0</ele><time>2026-05-03T07:54:22.995Z</time></trkpt><trkpt lat="44.948431997042995" lon="9.529692433765042"><ele>150.0</ele><time>2026-05-03T07:54:23.995Z</time></trkpt><trkpt lat="44.94847226098179" lon="9.529571618995123"><ele>149.66666666666666</ele><time>2026-05-03T07:54:24.995Z</time></trkpt><trkpt lat="44.948509378592206" lon="9.529453351127758"><ele>149.33333333333334</ele><time>2026-05-03T07:54:25.995Z</time></trkpt><trkpt lat="44.9485508461335" lon="9.529334220608243"><ele>149.0</ele><time>2026-05-03T07:54:26.995Z</time></trkpt><trkpt lat="44.94859088922361" lon="9.529219907118035"><ele>148.66666666666669</ele><time>2026-05-03T07:54:27.995Z</time></trkpt><trkpt lat="44.948624546577626" lon="9.529104614486387"><ele>148.33333333333334</ele><time>2026-05-03T07:54:28.995Z</time></trkpt><trkpt lat="44.94865927089728" lon="9.528997505325586"><ele>148.0</ele><time>2026-05-03T07:54:29.995Z</time></trkpt><trkpt lat="44.948700176243655" lon="9.52889102422511"><ele>148.0</ele><time>2026-05-03T07:54:30.995Z</time></trkpt><trkpt lat="44.948739457368184" lon="9.528775753998097"><ele>148.0</ele><time>2026-05-03T07:54:31.995Z</time></trkpt><trkpt lat="44.94877716154493" lon="9.528667821129465"><ele>148.0</ele><time>2026-05-03T07:54:32.995Z</time></trkpt><trkpt lat="44.94881152969291" lon="9.52855254909957"><ele>148.0</ele><time>2026-05-03T07:54:33.995Z</time></trkpt><trkpt lat="44.94884771781902" lon="9.5284459167733"><ele>148.0</ele><time>2026-05-03T07:54:34.995Z</time></trkpt><trkpt lat="44.948882499744094" lon="9.528346531962894"><ele>148.0</ele><time>2026-05-03T07:54:35.995Z</time></trkpt><trkpt lat="44.94891289925739" lon="9.528253378443567"><ele>148.0</ele><time>2026-05-03T07:54:36.995Z</time></trkpt><trkpt lat="44.948943231465464" lon="9.52815719223457"><ele>148.0</ele><time>2026-05-03T07:54:37.995Z</time></trkpt><trkpt lat="44.948967545741446" lon="9.528073614775167"><ele>148.0</ele><time>2026-05-03T07:54:38.994Z</time></trkpt><trkpt lat="44.94901535010382" lon="9.527919287640865"><ele>148.0</ele><time>2026-05-03T07:54:40.994Z</time></trkpt><trkpt lat="44.949062486079264" lon="9.527775617541314"><ele>148.0</ele><time>2026-05-03T07:54:42.995Z</time></trkpt><trkpt lat="44.94910186863868" lon="9.527638205833373"><ele>148.4</ele><time>2026-05-03T07:54:44.995Z</time></trkpt><trkpt lat="44.94914242686998" lon="9.527502940724794"><ele>148.8</ele><time>2026-05-03T07:54:46.995Z</time></trkpt><trkpt lat="44.949186495951956" lon="9.527379150921089"><ele>149.2</ele><time>2026-05-03T07:54:48.994Z</time></trkpt><trkpt lat="44.949216365009185" lon="9.527263521900487"><ele>149.6</ele><time>2026-05-03T07:54:50.995Z</time></trkpt><trkpt lat="44.94925791850668" lon="9.527151682094464"><ele>150.0</ele><time>2026-05-03T07:54:52.995Z</time></trkpt><trkpt lat="44.94929477047439" lon="9.527041942024958"><ele>150.83333333333334</ele><time>2026-05-03T07:54:54.995Z</time></trkpt><trkpt lat="44.94933009648798" lon="9.526936085344714"><ele>151.66666666666666</ele><time>2026-05-03T07:54:56.995Z</time></trkpt><trkpt lat="44.94936573169846" lon="9.5268241652622"><ele>152.5</ele><time>2026-05-03T07:54:58.995Z</time></trkpt><trkpt lat="44.94939825240316" lon="9.526728195554817"><ele>153.33333333333331</ele><time>2026-05-03T07:55:00.995Z</time></trkpt><trkpt lat="44.94942273808806" lon="9.526626305481749"><ele>154.16666666666666</ele><time>2026-05-03T07:55:02.995Z</time></trkpt><trkpt lat="44.94945369545431" lon="9.526528692903552"><ele>155.0</ele><time>2026-05-03T07:55:04.995Z</time></trkpt><trkpt lat="44.94949237999324" lon="9.526427120583174"><ele>155.0</ele><time>2026-05-03T07:55:06.995Z</time></trkpt><trkpt lat="44.94951891274551" lon="9.526329603110678"><ele>155.0</ele><time>2026-05-03T07:55:08.995Z</time></trkpt><trkpt lat="44.949546256427034" lon="9.52623674636435"><ele>155.0</ele><time>2026-05-03T07:55:10.995Z</time></trkpt><trkpt lat="44.94958025996823" lon="9.526144563122838"><ele>155.0</ele><time>2026-05-03T07:55:12.995Z</time></trkpt><trkpt lat="44.94960887740322" lon="9.526055399315055"><ele>155.0</ele><time>2026-05-03T07:55:14.995Z</time></trkpt><trkpt lat="44.949637663159514" lon="9.525943589990503"><ele>155.0</ele><time>2026-05-03T07:55:16.995Z</time></trkpt><trkpt lat="44.94967684759472" lon="9.525838225366693"><ele>155.71428571428572</ele><time>2026-05-03T07:55:19.995Z</time></trkpt><trkpt lat="44.94970442568367" lon="9.525724265177319"><ele>156.42857142857142</ele><time>2026-05-03T07:55:21.995Z</time></trkpt><trkpt lat="44.949734803799764" lon="9.525644626889303"><ele>157.14285714285714</ele><time>2026-05-03T07:55:23.995Z</time></trkpt><trkpt lat="44.94976357360697" lon="9.525555075494788"><ele>157.85714285714286</ele><time>2026-05-03T07:55:25.995Z</time></trkpt><trkpt lat="44.949794047577186" lon="9.525469559901325"><ele>158.57142857142858</ele><time>2026-05-03T07:55:27.995Z</time></trkpt><trkpt lat="44.94983139453784" lon="9.525373723779696"><ele>159.28571428571428</ele><time>2026-05-03T07:55:29.995Z</time></trkpt><trkpt lat="44.94985233299047" lon="9.525287098425766"><ele>160.0</ele><time>2026-05-03T07:55:31.995Z</time></trkpt><trkpt lat="44.94987985002826" lon="9.525193617955244"><ele>160.71428571428572</ele><time>2026-05-03T07:55:33.995Z</time></trkpt><trkpt lat="44.949918548792425" lon="9.525111665852902"><ele>161.42857142857144</ele><time>2026-05-03T07:55:35.995Z</time></trkpt><trkpt lat="44.949944303157466" lon="9.525011353613888"><ele>162.14285714285717</ele><time>2026-05-03T07:55:37.995Z</time></trkpt><trkpt lat="44.94997439546886" lon="9.524921086996837"><ele>162.85714285714286</ele><time>2026-05-03T07:55:39.995Z</time></trkpt><trkpt lat="44.950005772996775" lon="9.524821343063834"><ele>163.57142857142858</ele><time>2026-05-03T07:55:41.995Z</time></trkpt><trkpt lat="44.95003670587078" lon="9.524733786132947"><ele>164.2857142857143</ele><time>2026-05-03T07:55:43.995Z</time></trkpt><trkpt lat="44.95006717307129" lon="9.524644597512886"><ele>165.0</ele><time>2026-05-03T07:55:45.995Z</time></trkpt><trkpt lat="44.95009714317035" lon="9.524557015445605"><ele>166.0</ele><time>2026-05-03T07:55:47.995Z</time></trkpt><trkpt lat="44.95012215624621" lon="9.524472293114618"><ele>167.0</ele><time>2026-05-03T07:55:49.995Z</time></trkpt><trkpt lat="44.95016096516108" lon="9.524343362517664"><ele>168.0</ele><time>2026-05-03T07:55:52.995Z</time></trkpt><trkpt lat="44.95019164385553" lon="9.524230518368787"><ele>169.0</ele><time>2026-05-03T07:55:55.995Z</time></trkpt><trkpt lat="44.950212368290636" lon="9.524138615088102"><ele>170.0</ele><time>2026-05-03T07:55:57.995Z</time></trkpt><trkpt lat="44.950221857906584" lon="9.524009460136638"><ele>171.0</ele><time>2026-05-03T07:56:00.995Z</time></trkpt><trkpt lat="44.950236352604755" lon="9.523883159244043"><ele>171.0</ele><time>2026-05-03T07:56:03.995Z</time></trkpt><trkpt lat="44.95022724669742" lon="9.523757050958396"><ele>171.0</ele><time>2026-05-03T07:56:06.995Z</time></trkpt><trkpt lat="44.95021851746081" lon="9.52364130861948"><ele>171.0</ele><time>2026-05-03T07:56:09.995Z</time></trkpt><trkpt lat="44.950210267184175" lon="9.523523661258318"><ele>171.0</ele><time>2026-05-03T07:56:12.995Z</time></trkpt><trkpt lat="44.950173073358165" lon="9.523422252948599"><ele>171.0</ele><time>2026-05-03T07:56:15.995Z</time></trkpt><trkpt lat="44.950131492312" lon="9.523320178116572"><ele>171.0</ele><time>2026-05-03T07:56:18.995Z</time></trkpt><trkpt lat="44.950092200926534" lon="9.523227005447154"><ele>171.5</ele><time>2026-05-03T07:56:21.995Z</time></trkpt><trkpt lat="44.95004114715752" lon="9.523132958960435"><ele>172.0</ele><time>2026-05-03T07:56:24.994Z</time></trkpt><trkpt lat="44.94998980111547" lon="9.523027721656845"><ele>172.5</ele><time>2026-05-03T07:56:27.994Z</time></trkpt><trkpt lat="44.94993821390692" lon="9.522933423940453"><ele>173.0</ele><time>2026-05-03T07:56:30.994Z</time></trkpt><trkpt lat="44.94988713966128" lon="9.522837883643495"><ele>173.5</ele><time>2026-05-03T07:56:33.994Z</time></trkpt><trkpt lat="44.949845267803965" lon="9.522768958066452"><ele>174.0</ele><time>2026-05-03T07:56:35.994Z</time></trkpt><trkpt lat="44.94979087742486" lon="9.522671681194783"><ele>174.83333333333334</ele><time>2026-05-03T07:56:38.994Z</time></trkpt><trkpt lat="44.94973422584718" lon="9.522571475838813"><ele>175.66666666666666</ele><time>2026-05-03T07:56:41.994Z</time></trkpt><trkpt lat="44.949683096730546" lon="9.522467398927091"><ele>176.5</ele><time>2026-05-03T07:56:44.994Z</time></trkpt><trkpt lat="44.94963104544671" lon="9.52238123499848"><ele>177.33333333333331</ele><time>2026-05-03T07:56:47.994Z</time></trkpt><trkpt lat="44.94958670282731" lon="9.522297601854017"><ele>178.16666666666666</ele><time>2026-05-03T07:56:50.995Z</time></trkpt><trkpt lat="44.949528228791074" lon="9.522206962495096"><ele>179.0</ele><time>2026-05-03T07:56:53.994Z</time></trkpt><trkpt lat="44.94946988006353" lon="9.5221236599099"><ele>179.16666666666666</ele><time>2026-05-03T07:56:56.994Z</time></trkpt><trkpt lat="44.94942447462856" lon="9.522021476818265"><ele>179.33333333333331</ele><time>2026-05-03T07:56:59.994Z</time></trkpt><trkpt lat="44.94936840449486" lon="9.521923555020313"><ele>179.5</ele><time>2026-05-03T07:57:02.994Z</time></trkpt><trkpt lat="44.94933658429917" lon="9.521840899216881"><ele>179.66666666666666</ele><time>2026-05-03T07:57:04.994Z</time></trkpt><trkpt lat="44.949325810752576" lon="9.521738700664052"><ele>179.83333333333334</ele><time>2026-05-03T07:57:06.994Z</time></trkpt><trkpt lat="44.949322148273396" lon="9.521649489941915"><ele>180.0</ele><time>2026-05-03T07:57:08.994Z</time></trkpt><trkpt lat="44.94929536713204" lon="9.521522875157924"><ele>180.0</ele><time>2026-05-03T07:57:11.994Z</time></trkpt><trkpt lat="44.94924650262369" lon="9.521453391336646"><ele>180.0</ele><time>2026-05-03T07:57:13.994Z</time></trkpt><trkpt lat="44.949187374577356" lon="9.521405624107155"><ele>180.0</ele><time>2026-05-03T07:57:15.994Z</time></trkpt><trkpt lat="44.94911694929395" lon="9.52140096295994"><ele>180.0</ele><time>2026-05-03T07:57:17.994Z</time></trkpt><trkpt lat="44.94905331635858" lon="9.521413019060398"><ele>180.0</ele><time>2026-05-03T07:57:19.994Z</time></trkpt><trkpt lat="44.94898835059836" lon="9.521420337424955"><ele>180.0</ele><time>2026-05-03T07:57:21.994Z</time></trkpt><trkpt lat="44.94891462885094" lon="9.521415047824448"><ele>180.0</ele><time>2026-05-03T07:57:23.994Z</time></trkpt><trkpt lat="44.94883640420159" lon="9.521360605536351"><ele>180.16666666666666</ele><time>2026-05-03T07:57:26.994Z</time></trkpt><trkpt lat="44.948761316620505" lon="9.521305639448666"><ele>180.33333333333334</ele><time>2026-05-03T07:57:29.994Z</time></trkpt><trkpt lat="44.948684608317265" lon="9.521246216504734"><ele>180.5</ele><time>2026-05-03T07:57:32.994Z</time></trkpt><trkpt lat="44.948610605979496" lon="9.521196652941406"><ele>180.66666666666669</ele><time>2026-05-03T07:57:35.994Z</time></trkpt><trkpt lat="44.94853587529852" lon="9.521143078337133"><ele>180.83333333333334</ele><time>2026-05-03T07:57:38.994Z</time></trkpt><trkpt lat="44.94845714302564" lon="9.521090799742034"><ele>181.0</ele><time>2026-05-03T07:57:41.994Z</time></trkpt><trkpt lat="44.94837557821553" lon="9.521045229540045"><ele>181.5</ele><time>2026-05-03T07:57:44.994Z</time></trkpt><trkpt lat="44.94830313109435" lon="9.521003973115786"><ele>182.0</ele><time>2026-05-03T07:57:47.994Z</time></trkpt><trkpt lat="44.94823009466856" lon="9.520955300435997"><ele>182.5</ele><time>2026-05-03T07:57:50.994Z</time></trkpt><trkpt lat="44.94817574064008" lon="9.520907292897299"><ele>183.0</ele><time>2026-05-03T07:57:52.994Z</time></trkpt><trkpt lat="44.94808345608768" lon="9.520885417164939"><ele>183.5</ele><time>2026-05-03T07:57:55.994Z</time></trkpt><trkpt lat="44.947997388594864" lon="9.520846441988756"><ele>184.0</ele><time>2026-05-03T07:57:58.994Z</time></trkpt><trkpt lat="44.947931619979926" lon="9.520815358849429"><ele>184.0</ele><time>2026-05-03T07:58:00.994Z</time></trkpt><trkpt lat="44.9478559921901" lon="9.520744280005777"><ele>184.0</ele><time>2026-05-03T07:58:03.994Z</time></trkpt><trkpt lat="44.947773749766675" lon="9.520692224184817"><ele>184.0</ele><time>2026-05-03T07:58:06.994Z</time></trkpt><trkpt lat="44.94771373110939" lon="9.520649045188632"><ele>184.0</ele><time>2026-05-03T07:58:09.994Z</time></trkpt><trkpt lat="44.947632978919216" lon="9.520624034426287"><ele>184.0</ele><time>2026-05-03T07:58:12.994Z</time></trkpt><trkpt lat="44.94755683543645" lon="9.520603795024563"><ele>184.0</ele><time>2026-05-03T07:58:15.994Z</time></trkpt><trkpt lat="44.94748209929471" lon="9.52064259051653"><ele>184.33333333333334</ele><time>2026-05-03T07:58:18.994Z</time></trkpt><trkpt lat="44.947424272084234" lon="9.520741600635889"><ele>184.66666666666669</ele><time>2026-05-03T07:58:21.994Z</time></trkpt><trkpt lat="44.94738936942821" lon="9.520825545039816"><ele>185.0</ele><time>2026-05-03T07:58:23.994Z</time></trkpt><trkpt lat="44.94735045255043" lon="9.520906399572128"><ele>185.33333333333334</ele><time>2026-05-03T07:58:25.994Z</time></trkpt><trkpt lat="44.94728277841097" lon="9.520989117849467"><ele>185.66666666666666</ele><time>2026-05-03T07:58:27.994Z</time></trkpt><trkpt lat="44.947190891306285" lon="9.521032270575176"><ele>186.0</ele><time>2026-05-03T07:58:29.994Z</time></trkpt><trkpt lat="44.94707600802767" lon="9.521025552739266"><ele>186.0</ele><time>2026-05-03T07:58:31.994Z</time></trkpt><trkpt lat="44.947010467692486" lon="9.521024902740654"><ele>186.0</ele><time>2026-05-03T07:58:32.994Z</time></trkpt><trkpt lat="44.94690209472141" lon="9.52102381471014"><ele>186.0</ele><time>2026-05-03T07:58:34.994Z</time></trkpt><trkpt lat="44.94679661315797" lon="9.52098219296141"><ele>186.0</ele><time>2026-05-03T07:58:36.994Z</time></trkpt><trkpt lat="44.94671248266502" lon="9.520936412851226"><ele>186.0</ele><time>2026-05-03T07:58:38.994Z</time></trkpt><trkpt lat="44.9466364769883" lon="9.520895990214086"><ele>186.2857142857143</ele><time>2026-05-03T07:58:40.994Z</time></trkpt><trkpt lat="44.94656259152778" lon="9.520866799664592"><ele>186.57142857142858</ele><time>2026-05-03T07:58:42.994Z</time></trkpt><trkpt lat="44.94649269494861" lon="9.520833689287294"><ele>186.85714285714286</ele><time>2026-05-03T07:58:44.994Z</time></trkpt><trkpt lat="44.946423881797195" lon="9.520806358097863"><ele>187.14285714285717</ele><time>2026-05-03T07:58:46.994Z</time></trkpt><trkpt lat="44.9463611063027" lon="9.52078200519575"><ele>187.42857142857142</ele><time>2026-05-03T07:58:48.993Z</time></trkpt><trkpt lat="44.94629553736835" lon="9.52076745362689"><ele>187.71428571428572</ele><time>2026-05-03T07:58:50.994Z</time></trkpt><trkpt lat="44.94622141665249" lon="9.5207586068247"><ele>188.0</ele><time>2026-05-03T07:58:52.994Z</time></trkpt><trkpt lat="44.94616003349963" lon="9.520730926301699"><ele>188.0</ele><time>2026-05-03T07:58:54.994Z</time></trkpt><trkpt lat="44.94610634833757" lon="9.520682472670508"><ele>188.0</ele><time>2026-05-03T07:58:56.994Z</time></trkpt><trkpt lat="44.94605541570977" lon="9.5206053024207"><ele>188.0</ele><time>2026-05-03T07:58:59.994Z</time></trkpt><trkpt lat="44.94607490841249" lon="9.520491424119335"><ele>188.0</ele><time>2026-05-03T07:59:02.994Z</time></trkpt><trkpt lat="44.94606588583369" lon="9.520400354307935"><ele>188.0</ele><time>2026-05-03T07:59:05.994Z</time></trkpt><trkpt lat="44.94612489516907" lon="9.520338422543299"><ele>188.0</ele><time>2026-05-03T07:59:08.994Z</time></trkpt><trkpt lat="44.946183912298416" lon="9.520261816888734"><ele>188.0</ele><time>2026-05-03T07:59:12.994Z</time></trkpt><trkpt lat="44.94622929371243" lon="9.520166332422729"><ele>188.0</ele><time>2026-05-03T07:59:16.994Z</time></trkpt><trkpt lat="44.946251721520774" lon="9.52006519546775"><ele>188.0</ele><time>2026-05-03T07:59:20.994Z</time></trkpt><trkpt lat="44.94630981010054" lon="9.520108879482411"><ele>188.0</ele><time>2026-05-03T08:08:58.403Z</time></trkpt><trkpt lat="44.94630267394382" lon="9.52039443663859"><ele>188.0</ele><time>2026-05-03T08:09:08.001Z</time></trkpt><trkpt lat="44.94630984914681" lon="9.520523029877168"><ele>188.0</ele><time>2026-05-03T08:09:11Z</time></trkpt><trkpt lat="44.94632269478279" lon="9.520650598204321"><ele>188.0</ele><time>2026-05-03T08:09:13.002Z</time></trkpt><trkpt lat="44.94638743051438" lon="9.520731593173524"><ele>188.0</ele><time>2026-05-03T08:09:15.001Z</time></trkpt><trkpt lat="44.94645932840025" lon="9.520776638251641"><ele>188.0</ele><time>2026-05-03T08:09:17.001Z</time></trkpt><trkpt lat="44.94653967597412" lon="9.520838666913262"><ele>188.0</ele><time>2026-05-03T08:09:19.001Z</time></trkpt><trkpt lat="44.946625661665045" lon="9.5208683399178"><ele>188.0</ele><time>2026-05-03T08:09:21.001Z</time></trkpt><trkpt lat="44.946703890355465" lon="9.520936587042893"><ele>188.0</ele><time>2026-05-03T08:09:23.001Z</time></trkpt><trkpt lat="44.94678536377799" lon="9.520961289657382"><ele>187.66666666666666</ele><time>2026-05-03T08:09:25.001Z</time></trkpt><trkpt lat="44.94686884931357" lon="9.520990036508648"><ele>187.33333333333331</ele><time>2026-05-03T08:09:27.001Z</time></trkpt><trkpt lat="44.946947609345145" lon="9.521028486089497"><ele>187.0</ele><time>2026-05-03T08:09:29Z</time></trkpt><trkpt lat="44.94703401067253" lon="9.52103534152833"><ele>186.66666666666666</ele><time>2026-05-03T08:09:31Z</time></trkpt><trkpt lat="44.947103044651264" lon="9.52104186588193"><ele>186.33333333333334</ele><time>2026-05-03T08:09:33Z</time></trkpt><trkpt lat="44.94719239027323" lon="9.521036055971264"><ele>186.0</ele><time>2026-05-03T08:09:35Z</time></trkpt><trkpt lat="44.947271993061015" lon="9.521014327308809"><ele>186.0</ele><time>2026-05-03T08:09:37Z</time></trkpt><trkpt lat="44.94734678437648" lon="9.5209833484315"><ele>186.0</ele><time>2026-05-03T08:09:39Z</time></trkpt><trkpt lat="44.94740289526535" lon="9.520919975674248"><ele>186.0</ele><time>2026-05-03T08:09:41Z</time></trkpt><trkpt lat="44.94742711617812" lon="9.52082484510491"><ele>186.0</ele><time>2026-05-03T08:09:43Z</time></trkpt><trkpt lat="44.94746257940915" lon="9.520703062360262"><ele>186.0</ele><time>2026-05-03T08:09:46Z</time></trkpt><trkpt lat="44.947502519861665" lon="9.520587094484377"><ele>186.0</ele><time>2026-05-03T08:09:49Z</time></trkpt><trkpt lat="44.94756531488914" lon="9.520561277858127"><ele>185.71428571428572</ele><time>2026-05-03T08:09:51Z</time></trkpt><trkpt lat="44.94761808855097" lon="9.520622725099217"><ele>185.42857142857144</ele><time>2026-05-03T08:09:53Z</time></trkpt><trkpt lat="44.947692195206905" lon="9.520658482777726"><ele>185.14285714285717</ele><time>2026-05-03T08:09:55Z</time></trkpt><trkpt lat="44.947762324360525" lon="9.520686248445056"><ele>184.85714285714286</ele><time>2026-05-03T08:09:57Z</time></trkpt><trkpt lat="44.947828050896874" lon="9.520733548661475"><ele>184.57142857142856</ele><time>2026-05-03T08:09:59Z</time></trkpt><trkpt lat="44.94789220983251" lon="9.520769808806579"><ele>184.2857142857143</ele><time>2026-05-03T08:10:01Z</time></trkpt><trkpt lat="44.94797045674411" lon="9.520803073639714"><ele>184.0</ele><time>2026-05-03T08:10:03Z</time></trkpt><trkpt lat="44.948042687446495" lon="9.520856016885975"><ele>184.0</ele><time>2026-05-03T08:10:05Z</time></trkpt><trkpt lat="44.948115003525224" lon="9.520894114038203"><ele>184.0</ele><time>2026-05-03T08:10:07Z</time></trkpt><trkpt lat="44.94819931774953" lon="9.520950839771734"><ele>184.0</ele><time>2026-05-03T08:10:09Z</time></trkpt><trkpt lat="44.948284368252445" lon="9.521007839342921"><ele>184.0</ele><time>2026-05-03T08:10:11Z</time></trkpt><trkpt lat="44.94837641737605" lon="9.521069223988501"><ele>184.0</ele><time>2026-05-03T08:10:13Z</time></trkpt><trkpt lat="44.948432097504046" lon="9.521125460363416"><ele>184.0</ele><time>2026-05-03T08:10:15Z</time></trkpt><trkpt lat="44.94849591866934" lon="9.521132682463081"><ele>183.79999999999998</ele><time>2026-05-03T08:10:17Z</time></trkpt><trkpt lat="44.94867292111262" lon="9.521223398320801"><ele>183.6</ele><time>2026-05-03T08:11:38.999Z</time></trkpt><trkpt lat="44.94874492310231" lon="9.521289268508301"><ele>183.4</ele><time>2026-05-03T08:11:41.999Z</time></trkpt><trkpt lat="44.94880878827718" lon="9.521337558911936"><ele>183.2</ele><time>2026-05-03T08:11:43.999Z</time></trkpt><trkpt lat="44.94886873755625" lon="9.521382176584005"><ele>183.0</ele><time>2026-05-03T08:11:45.999Z</time></trkpt><trkpt lat="44.94893271305486" lon="9.52141901101868"><ele>182.60000000000002</ele><time>2026-05-03T08:11:47.999Z</time></trkpt><trkpt lat="44.949008919779985" lon="9.521471668585098"><ele>182.20000000000002</ele><time>2026-05-03T08:11:49.999Z</time></trkpt><trkpt lat="44.94908737689392" lon="9.52155782438467"><ele>181.8</ele><time>2026-05-03T08:11:51.999Z</time></trkpt><trkpt lat="44.949171583912694" lon="9.521648346882628"><ele>181.4</ele><time>2026-05-03T08:11:53.999Z</time></trkpt><trkpt lat="44.949257125278926" lon="9.521762142739687"><ele>181.0</ele><time>2026-05-03T08:11:55.999Z</time></trkpt><trkpt lat="44.94932964635781" lon="9.521899975184878"><ele>180.85714285714286</ele><time>2026-05-03T08:11:57.999Z</time></trkpt><trkpt lat="44.949372269627844" lon="9.521971132210329"><ele>180.71428571428572</ele><time>2026-05-03T08:11:58.999Z</time></trkpt><trkpt lat="44.94941309620084" lon="9.522044019961884"><ele>180.57142857142856</ele><time>2026-05-03T08:11:59.999Z</time></trkpt><trkpt lat="44.949454068054486" lon="9.5221183446346"><ele>180.42857142857144</ele><time>2026-05-03T08:12:00.999Z</time></trkpt><trkpt lat="44.949495868866656" lon="9.522195387598526"><ele>180.2857142857143</ele><time>2026-05-03T08:12:01.999Z</time></trkpt><trkpt lat="44.949537501940576" lon="9.522275904396073"><ele>180.14285714285714</ele><time>2026-05-03T08:12:02.999Z</time></trkpt><trkpt lat="44.94958444406228" lon="9.522356160018907"><ele>180.0</ele><time>2026-05-03T08:12:03.999Z</time></trkpt><trkpt lat="44.94963130114488" lon="9.52243701981893"><ele>179.83333333333334</ele><time>2026-05-03T08:12:04.999Z</time></trkpt><trkpt lat="44.94968138070634" lon="9.52251390449941"><ele>179.66666666666666</ele><time>2026-05-03T08:12:05.999Z</time></trkpt><trkpt lat="44.94973390956647" lon="9.522588263013883"><ele>179.5</ele><time>2026-05-03T08:12:06.999Z</time></trkpt><trkpt lat="44.94978085314826" lon="9.522674827534475"><ele>179.33333333333331</ele><time>2026-05-03T08:12:07.999Z</time></trkpt><trkpt lat="44.94983325779805" lon="9.522756874176295"><ele>179.16666666666666</ele><time>2026-05-03T08:12:08.999Z</time></trkpt><trkpt lat="44.94988401564609" lon="9.522838091615913"><ele>179.0</ele><time>2026-05-03T08:12:09.999Z</time></trkpt><trkpt lat="44.949942784455054" lon="9.522933932546149"><ele>178.16666666666666</ele><time>2026-05-03T08:12:10.999Z</time></trkpt><trkpt lat="44.949990715850745" lon="9.523014185490151"><ele>177.33333333333331</ele><time>2026-05-03T08:12:11.999Z</time></trkpt><trkpt lat="44.950039995890855" lon="9.523103187484129"><ele>176.5</ele><time>2026-05-03T08:12:12.999Z</time></trkpt><trkpt lat="44.95008938928008" lon="9.52319457591889"><ele>175.66666666666666</ele><time>2026-05-03T08:12:13.999Z</time></trkpt><trkpt lat="44.95012534228666" lon="9.523270442574816"><ele>174.83333333333334</ele><time>2026-05-03T08:12:14.999Z</time></trkpt><trkpt lat="44.950157758635285" lon="9.523350863410204"><ele>174.0</ele><time>2026-05-03T08:12:15.999Z</time></trkpt><trkpt lat="44.950213339381264" lon="9.523503570351929"><ele>173.5</ele><time>2026-05-03T08:12:17.999Z</time></trkpt><trkpt lat="44.95026248541691" lon="9.523565479603528"><ele>173.0</ele><time>2026-05-03T08:12:18.999Z</time></trkpt><trkpt lat="44.95031288117802" lon="9.523622579924503"><ele>172.5</ele><time>2026-05-03T08:12:19.999Z</time></trkpt><trkpt lat="44.95036019861667" lon="9.523684040152945"><ele>172.0</ele><time>2026-05-03T08:12:20.999Z</time></trkpt><trkpt lat="44.95040343344701" lon="9.52375943236704"><ele>171.5</ele><time>2026-05-03T08:12:21.999Z</time></trkpt><trkpt lat="44.950475663223614" lon="9.523895479667262"><ele>171.0</ele><time>2026-05-03T08:12:23.999Z</time></trkpt><trkpt lat="44.95054354728174" lon="9.524035756140167"><ele>171.0</ele><time>2026-05-03T08:12:25.999Z</time></trkpt><trkpt lat="44.95058089709868" lon="9.524109832293748"><ele>171.0</ele><time>2026-05-03T08:12:26.999Z</time></trkpt><trkpt lat="44.95066346393991" lon="9.524244692677273"><ele>171.0</ele><time>2026-05-03T08:12:28.999Z</time></trkpt><trkpt lat="44.950704954541955" lon="9.524319195646706"><ele>171.0</ele><time>2026-05-03T08:12:29.999Z</time></trkpt><trkpt lat="44.95074540307888" lon="9.524389608480815"><ele>171.0</ele><time>2026-05-03T08:12:30.999Z</time></trkpt><trkpt lat="44.95078639457998" lon="9.52446086555918"><ele>171.0</ele><time>2026-05-03T08:12:31.999Z</time></trkpt><trkpt lat="44.95082666346419" lon="9.52453384487745"><ele>170.7142857142857</ele><time>2026-05-03T08:12:32.999Z</time></trkpt><trkpt lat="44.95086665514425" lon="9.524611580242853"><ele>170.42857142857142</ele><time>2026-05-03T08:12:33.999Z</time></trkpt><trkpt lat="44.950912666815185" lon="9.52468408329962"><ele>170.14285714285714</ele><time>2026-05-03T08:12:34.999Z</time></trkpt><trkpt lat="44.950952972186236" lon="9.524754274816681"><ele>169.85714285714283</ele><time>2026-05-03T08:12:35.999Z</time></trkpt><trkpt lat="44.950994256227574" lon="9.524833586398021"><ele>169.57142857142856</ele><time>2026-05-03T08:12:36.999Z</time></trkpt><trkpt lat="44.95103568948757" lon="9.52490904502078"><ele>169.28571428571428</ele><time>2026-05-03T08:12:37.999Z</time></trkpt><trkpt lat="44.951079256312006" lon="9.524987206725797"><ele>169.0</ele><time>2026-05-03T08:12:38.999Z</time></trkpt><trkpt lat="44.95112222408024" lon="9.525061529949669"><ele>169.0</ele><time>2026-05-03T08:12:39.999Z</time></trkpt><trkpt lat="44.951166987839834" lon="9.525133449366669"><ele>169.0</ele><time>2026-05-03T08:12:40.999Z</time></trkpt><trkpt lat="44.95120501563604" lon="9.525211256284738"><ele>169.0</ele><time>2026-05-03T08:12:41.999Z</time></trkpt><trkpt lat="44.95124357229666" lon="9.525299874491289"><ele>169.0</ele><time>2026-05-03T08:12:42.999Z</time></trkpt><trkpt lat="44.9513146028329" lon="9.525444063299819"><ele>169.0</ele><time>2026-05-03T08:12:44.999Z</time></trkpt><trkpt lat="44.95134952437609" lon="9.525527591098184"><ele>169.0</ele><time>2026-05-03T08:12:45.999Z</time></trkpt><trkpt lat="44.951389888633706" lon="9.525612246231185"><ele>168.71428571428572</ele><time>2026-05-03T08:12:46.999Z</time></trkpt><trkpt lat="44.95142858178751" lon="9.525696420252764"><ele>168.42857142857142</ele><time>2026-05-03T08:12:47.999Z</time></trkpt><trkpt lat="44.95146640742195" lon="9.525780973963522"><ele>168.14285714285714</ele><time>2026-05-03T08:12:48.999Z</time></trkpt><trkpt lat="44.9515026594081" lon="9.525864664171355"><ele>167.85714285714286</ele><time>2026-05-03T08:12:49.999Z</time></trkpt><trkpt lat="44.951539435632114" lon="9.525957544513068"><ele>167.57142857142858</ele><time>2026-05-03T08:12:50.999Z</time></trkpt><trkpt lat="44.951577505476756" lon="9.52604638387815"><ele>167.28571428571428</ele><time>2026-05-03T08:12:51.999Z</time></trkpt><trkpt lat="44.95161746454831" lon="9.526135839205942"><ele>167.0</ele><time>2026-05-03T08:12:52.999Z</time></trkpt><trkpt lat="44.951652926859325" lon="9.526221845882631"><ele>166.57142857142856</ele><time>2026-05-03T08:12:53.999Z</time></trkpt><trkpt lat="44.95169634835271" lon="9.526305781441218"><ele>166.14285714285714</ele><time>2026-05-03T08:12:54.999Z</time></trkpt><trkpt lat="44.95173752161977" lon="9.526396898047093"><ele>165.71428571428572</ele><time>2026-05-03T08:12:55.999Z</time></trkpt><trkpt lat="44.95177576717545" lon="9.52648037037954"><ele>165.28571428571428</ele><time>2026-05-03T08:12:56.999Z</time></trkpt><trkpt lat="44.95181715340148" lon="9.52656861531356"><ele>164.85714285714286</ele><time>2026-05-03T08:12:57.999Z</time></trkpt><trkpt lat="44.951851277739415" lon="9.526657551785366"><ele>164.42857142857142</ele><time>2026-05-03T08:12:58.999Z</time></trkpt><trkpt lat="44.95188620855772" lon="9.526759087164779"><ele>164.0</ele><time>2026-05-03T08:12:59.999Z</time></trkpt><trkpt lat="44.95192453841774" lon="9.5268436610906"><ele>164.0</ele><time>2026-05-03T08:13:00.999Z</time></trkpt><trkpt lat="44.95196567923551" lon="9.5269310340784"><ele>164.0</ele><time>2026-05-03T08:13:01.999Z</time></trkpt><trkpt lat="44.952005893030226" lon="9.527015989891138"><ele>164.0</ele><time>2026-05-03T08:13:02.999Z</time></trkpt><trkpt lat="44.952046681704516" lon="9.527101300663062"><ele>164.0</ele><time>2026-05-03T08:13:03.999Z</time></trkpt><trkpt lat="44.95209180042776" lon="9.5271878099038"><ele>164.0</ele><time>2026-05-03T08:13:04.999Z</time></trkpt><trkpt lat="44.952133271692354" lon="9.527281050020473"><ele>164.0</ele><time>2026-05-03T08:13:05.999Z</time></trkpt><trkpt lat="44.952180166578785" lon="9.527366199030281"><ele>163.57142857142856</ele><time>2026-05-03T08:13:06.999Z</time></trkpt><trkpt lat="44.95222530158227" lon="9.527448694910627"><ele>163.14285714285714</ele><time>2026-05-03T08:13:07.999Z</time></trkpt><trkpt lat="44.95226840896127" lon="9.52752967508386"><ele>162.71428571428572</ele><time>2026-05-03T08:13:08.999Z</time></trkpt><trkpt lat="44.95232100705136" lon="9.527602080989757"><ele>162.28571428571428</ele><time>2026-05-03T08:13:09.999Z</time></trkpt><trkpt lat="44.952376386094784" lon="9.527672174653171"><ele>161.85714285714286</ele><time>2026-05-03T08:13:10.999Z</time></trkpt><trkpt lat="44.95243871403174" lon="9.52773739714883"><ele>161.42857142857142</ele><time>2026-05-03T08:13:11.999Z</time></trkpt><trkpt lat="44.95249847502604" lon="9.527798800652286"><ele>161.0</ele><time>2026-05-03T08:13:12.999Z</time></trkpt><trkpt lat="44.952562454832574" lon="9.527852122435988"><ele>160.71428571428572</ele><time>2026-05-03T08:13:13.999Z</time></trkpt><trkpt lat="44.95262607623157" lon="9.527907604403687"><ele>160.42857142857144</ele><time>2026-05-03T08:13:14.999Z</time></trkpt><trkpt lat="44.95269153266224" lon="9.527959922735548"><ele>160.14285714285714</ele><time>2026-05-03T08:13:15.999Z</time></trkpt><trkpt lat="44.952756044363085" lon="9.528012744409528"><ele>159.85714285714286</ele><time>2026-05-03T08:13:16.999Z</time></trkpt><trkpt lat="44.9528185022988" lon="9.528062426528074"><ele>159.57142857142858</ele><time>2026-05-03T08:13:17.998Z</time></trkpt><trkpt lat="44.952882797456446" lon="9.528116666761933"><ele>159.28571428571428</ele><time>2026-05-03T08:13:18.998Z</time></trkpt><trkpt lat="44.95294589561842" lon="9.528168934654117"><ele>159.0</ele><time>2026-05-03T08:13:19.999Z</time></trkpt><trkpt lat="44.95300809085704" lon="9.52822097119173"><ele>159.0</ele><time>2026-05-03T08:13:20.999Z</time></trkpt><trkpt lat="44.95307017575146" lon="9.528272906766727"><ele>159.0</ele><time>2026-05-03T08:13:21.999Z</time></trkpt><trkpt lat="44.953137525028716" lon="9.528322252293286"><ele>159.0</ele><time>2026-05-03T08:13:22.999Z</time></trkpt><trkpt lat="44.953203932510064" lon="9.528374610983713"><ele>159.0</ele><time>2026-05-03T08:13:23.998Z</time></trkpt><trkpt lat="44.95326517960243" lon="9.528432335996"><ele>159.0</ele><time>2026-05-03T08:13:24.998Z</time></trkpt><trkpt lat="44.95333373290496" lon="9.528486015708335"><ele>159.0</ele><time>2026-05-03T08:13:25.999Z</time></trkpt><trkpt lat="44.95339488815538" lon="9.528539973762957"><ele>159.0</ele><time>2026-05-03T08:13:26.999Z</time></trkpt><trkpt lat="44.953456510442734" lon="9.528587599160506"><ele>159.0</ele><time>2026-05-03T08:13:27.999Z</time></trkpt><trkpt lat="44.95352084137012" lon="9.528642018403298"><ele>159.0</ele><time>2026-05-03T08:13:28.999Z</time></trkpt><trkpt lat="44.95358344471399" lon="9.528696008178441"><ele>159.0</ele><time>2026-05-03T08:13:29.999Z</time></trkpt><trkpt lat="44.95364649186191" lon="9.528746752097668"><ele>159.0</ele><time>2026-05-03T08:13:30.999Z</time></trkpt><trkpt lat="44.95371252212732" lon="9.528798361682696"><ele>159.0</ele><time>2026-05-03T08:13:31.999Z</time></trkpt><trkpt lat="44.95377783232499" lon="9.528849894220903"><ele>159.0</ele><time>2026-05-03T08:13:32.999Z</time></trkpt><trkpt lat="44.95384273759025" lon="9.528904105879619"><ele>159.0</ele><time>2026-05-03T08:13:33.999Z</time></trkpt><trkpt lat="44.95390663126924" lon="9.528954944638805"><ele>158.85714285714286</ele><time>2026-05-03T08:13:34.999Z</time></trkpt><trkpt lat="44.95396933762223" lon="9.529004980242599"><ele>158.71428571428572</ele><time>2026-05-03T08:13:35.999Z</time></trkpt><trkpt lat="44.95402998638576" lon="9.529052975830599"><ele>158.57142857142858</ele><time>2026-05-03T08:13:36.999Z</time></trkpt><trkpt lat="44.95409599384572" lon="9.529116666727319"><ele>158.42857142857144</ele><time>2026-05-03T08:13:37.999Z</time></trkpt><trkpt lat="44.95415472218738" lon="9.52916301188159"><ele>158.28571428571428</ele><time>2026-05-03T08:13:38.999Z</time></trkpt><trkpt lat="44.954218242179145" lon="9.529218007389224"><ele>158.14285714285717</ele><time>2026-05-03T08:13:39.999Z</time></trkpt><trkpt lat="44.95427986677811" lon="9.529269990228268"><ele>158.0</ele><time>2026-05-03T08:13:40.999Z</time></trkpt><trkpt lat="44.9543500209142" lon="9.529315027140768"><ele>158.00000000000003</ele><time>2026-05-03T08:13:41.999Z</time></trkpt><trkpt lat="44.95440590416425" lon="9.529367947027467"><ele>158.0</ele><time>2026-05-03T08:13:42.999Z</time></trkpt><trkpt lat="44.95447004662295" lon="9.52941763015352"><ele>158.0</ele><time>2026-05-03T08:13:43.999Z</time></trkpt><trkpt lat="44.954529856550636" lon="9.529468990903899"><ele>158.0</ele><time>2026-05-03T08:13:44.999Z</time></trkpt><trkpt lat="44.954593751459925" lon="9.529513201661233"><ele>158.0</ele><time>2026-05-03T08:13:45.999Z</time></trkpt><trkpt lat="44.954652934305464" lon="9.529568176593903"><ele>158.00000000000003</ele><time>2026-05-03T08:13:46.999Z</time></trkpt><trkpt lat="44.95471798852804" lon="9.529622143042557"><ele>158.0</ele><time>2026-05-03T08:13:47.999Z</time></trkpt><trkpt lat="44.954774817355776" lon="9.529675864233532"><ele>157.66666666666666</ele><time>2026-05-03T08:13:48.999Z</time></trkpt><trkpt lat="44.954830927141884" lon="9.529727556233754"><ele>157.33333333333331</ele><time>2026-05-03T08:13:49.999Z</time></trkpt><trkpt lat="44.954918902216804" lon="9.529802547915512"><ele>157.0</ele><time>2026-05-03T08:13:51.999Z</time></trkpt><trkpt lat="44.955021986643736" lon="9.529858387082715"><ele>156.66666666666666</ele><time>2026-05-03T08:13:53.999Z</time></trkpt><trkpt lat="44.95508729422616" lon="9.529874757122743"><ele>156.33333333333334</ele><time>2026-05-03T08:13:54.999Z</time></trkpt><trkpt lat="44.95515712094673" lon="9.529898579666495"><ele>156.0</ele><time>2026-05-03T08:13:55.999Z</time></trkpt><trkpt lat="44.95524049185986" lon="9.529918619826663"><ele>155.33333333333334</ele><time>2026-05-03T08:13:56.999Z</time></trkpt><trkpt lat="44.95532206366668" lon="9.529915711705055"><ele>154.66666666666666</ele><time>2026-05-03T08:13:57.999Z</time></trkpt><trkpt lat="44.95540408688087" lon="9.529911149482858"><ele>154.0</ele><time>2026-05-03T08:13:58.999Z</time></trkpt><trkpt lat="44.955481601562205" lon="9.529904002504596"><ele>153.33333333333331</ele><time>2026-05-03T08:13:59.999Z</time></trkpt><trkpt lat="44.955557315699174" lon="9.529887753379898"><ele>152.66666666666666</ele><time>2026-05-03T08:14:00.999Z</time></trkpt><trkpt lat="44.95563527433383" lon="9.529880799705136"><ele>152.0</ele><time>2026-05-03T08:14:01.999Z</time></trkpt><trkpt lat="44.95570522371501" lon="9.529877119023775"><ele>152.0</ele><time>2026-05-03T08:14:02.999Z</time></trkpt><trkpt lat="44.955787397400734" lon="9.529856589504472"><ele>152.0</ele><time>2026-05-03T08:14:03.999Z</time></trkpt><trkpt lat="44.95587400750106" lon="9.529848594369112"><ele>152.0</ele><time>2026-05-03T08:14:04.999Z</time></trkpt><trkpt lat="44.95595115775624" lon="9.529845682370368"><ele>152.0</ele><time>2026-05-03T08:14:05.999Z</time></trkpt><trkpt lat="44.95602935345734" lon="9.529855870705386"><ele>152.0</ele><time>2026-05-03T08:14:06.999Z</time></trkpt><trkpt lat="44.95611502164964" lon="9.52988836927185"><ele>152.0</ele><time>2026-05-03T08:14:07.999Z</time></trkpt><trkpt lat="44.95619541854638" lon="9.529928183743856"><ele>151.83333333333331</ele><time>2026-05-03T08:14:08.999Z</time></trkpt><trkpt lat="44.956270632808184" lon="9.529975594002298"><ele>151.66666666666666</ele><time>2026-05-03T08:14:09.999Z</time></trkpt><trkpt lat="44.95634179279644" lon="9.53002662364636"><ele>151.5</ele><time>2026-05-03T08:14:10.999Z</time></trkpt><trkpt lat="44.956415914215206" lon="9.530076801386075"><ele>151.33333333333334</ele><time>2026-05-03T08:14:11.999Z</time></trkpt><trkpt lat="44.956487976907425" lon="9.530121622121484"><ele>151.16666666666669</ele><time>2026-05-03T08:14:12.999Z</time></trkpt><trkpt lat="44.956555277337834" lon="9.530164085789687"><ele>151.0</ele><time>2026-05-03T08:14:13.999Z</time></trkpt><trkpt lat="44.956626748713994" lon="9.530208265572242"><ele>151.0</ele><time>2026-05-03T08:14:14.999Z</time></trkpt><trkpt lat="44.956695580916694" lon="9.530253824722253"><ele>151.0</ele><time>2026-05-03T08:14:15.999Z</time></trkpt><trkpt lat="44.956763711159006" lon="9.530298727043494"><ele>151.0</ele><time>2026-05-03T08:14:16.999Z</time></trkpt><trkpt lat="44.95683568633484" lon="9.530345949017631"><ele>151.0</ele><time>2026-05-03T08:14:17.999Z</time></trkpt><trkpt lat="44.956904063719236" lon="9.530390933385062"><ele>151.0</ele><time>2026-05-03T08:14:18.999Z</time></trkpt><trkpt lat="44.956972719569656" lon="9.530432920757304"><ele>151.0</ele><time>2026-05-03T08:14:19.999Z</time></trkpt><trkpt lat="44.95704158151925" lon="9.530472328176096"><ele>150.57142857142858</ele><time>2026-05-03T08:14:20.999Z</time></trkpt><trkpt lat="44.957103104726144" lon="9.5305169426799"><ele>150.14285714285714</ele><time>2026-05-03T08:14:21.999Z</time></trkpt><trkpt lat="44.957166426894396" lon="9.530560326789264"><ele>149.71428571428572</ele><time>2026-05-03T08:14:22.999Z</time></trkpt><trkpt lat="44.95722988518226" lon="9.530602960916976"><ele>149.28571428571428</ele><time>2026-05-03T08:14:23.999Z</time></trkpt><trkpt lat="44.95729354360848" lon="9.530642596338387"><ele>148.85714285714286</ele><time>2026-05-03T08:14:24.999Z</time></trkpt><trkpt lat="44.95735469876864" lon="9.530682928227066"><ele>148.42857142857144</ele><time>2026-05-03T08:14:25.999Z</time></trkpt><trkpt lat="44.957416556994424" lon="9.530720355673088"><ele>148.0</ele><time>2026-05-03T08:14:26.999Z</time></trkpt><trkpt lat="44.95747743280319" lon="9.530755906782613"><ele>148.42857142857144</ele><time>2026-05-03T08:14:27.999Z</time></trkpt><trkpt lat="44.9575378130222" lon="9.530798022528876"><ele>148.85714285714286</ele><time>2026-05-03T08:14:28.999Z</time></trkpt><trkpt lat="44.957601147387436" lon="9.530840838337408"><ele>149.28571428571428</ele><time>2026-05-03T08:14:29.999Z</time></trkpt><trkpt lat="44.95766351387107" lon="9.530884986718148"><ele>149.71428571428572</ele><time>2026-05-03T08:14:30.999Z</time></trkpt><trkpt lat="44.957725610062724" lon="9.530921147242639"><ele>150.14285714285714</ele><time>2026-05-03T08:14:31.999Z</time></trkpt><trkpt lat="44.95778922749432" lon="9.53096379957435"><ele>150.57142857142858</ele><time>2026-05-03T08:14:32.999Z</time></trkpt><trkpt lat="44.95785485283138" lon="9.531006810387376"><ele>151.0</ele><time>2026-05-03T08:14:33.999Z</time></trkpt><trkpt lat="44.95792125657521" lon="9.53104744077841"><ele>151.00000000000003</ele><time>2026-05-03T08:14:34.999Z</time></trkpt><trkpt lat="44.95798723403976" lon="9.531080294015263"><ele>151.0</ele><time>2026-05-03T08:14:35.999Z</time></trkpt><trkpt lat="44.958052220019326" lon="9.53111485903478"><ele>151.0</ele><time>2026-05-03T08:14:36.999Z</time></trkpt><trkpt lat="44.958121873979735" lon="9.53114565894623"><ele>151.0</ele><time>2026-05-03T08:14:37.999Z</time></trkpt><trkpt lat="44.95819436188403" lon="9.531161989073231"><ele>151.0</ele><time>2026-05-03T08:14:38.999Z</time></trkpt><trkpt lat="44.95826357063271" lon="9.531169437486172"><ele>151.00000000000003</ele><time>2026-05-03T08:14:39.999Z</time></trkpt><trkpt lat="44.9583352543367" lon="9.531191316136061"><ele>151.0</ele><time>2026-05-03T08:14:40.999Z</time></trkpt><trkpt lat="44.958408469884084" lon="9.531203002274111"><ele>150.42857142857144</ele><time>2026-05-03T08:14:41.999Z</time></trkpt><trkpt lat="44.958481767100345" lon="9.53120540814558"><ele>149.85714285714286</ele><time>2026-05-03T08:14:42.999Z</time></trkpt><trkpt lat="44.95854779107305" lon="9.531215952941107"><ele>149.28571428571428</ele><time>2026-05-03T08:14:43.999Z</time></trkpt><trkpt lat="44.958619731035476" lon="9.53123596731504"><ele>148.71428571428572</ele><time>2026-05-03T08:14:44.999Z</time></trkpt><trkpt lat="44.95869165851587" lon="9.531256134365199"><ele>148.14285714285714</ele><time>2026-05-03T08:14:45.999Z</time></trkpt><trkpt lat="44.95876751713431" lon="9.531264753464344"><ele>147.57142857142858</ele><time>2026-05-03T08:14:46.999Z</time></trkpt><trkpt lat="44.95883416761043" lon="9.531279460258668"><ele>147.0</ele><time>2026-05-03T08:14:47.999Z</time></trkpt><trkpt lat="44.95890298797146" lon="9.53129311097526"><ele>147.0</ele><time>2026-05-03T08:14:48.999Z</time></trkpt><trkpt lat="44.958972333277735" lon="9.531307945031472"><ele>147.0</ele><time>2026-05-03T08:14:49.999Z</time></trkpt><trkpt lat="44.959040775990125" lon="9.531321520421908"><ele>147.0</ele><time>2026-05-03T08:14:50.999Z</time></trkpt><trkpt lat="44.959112014678134" lon="9.531330646010167"><ele>147.0</ele><time>2026-05-03T08:14:51.999Z</time></trkpt><trkpt lat="44.9591847432313" lon="9.531343767468222"><ele>147.0</ele><time>2026-05-03T08:14:52.999Z</time></trkpt><trkpt lat="44.95925471125966" lon="9.531365945189235"><ele>147.0</ele><time>2026-05-03T08:14:53.999Z</time></trkpt><trkpt lat="44.959331345256025" lon="9.531371835413148"><ele>147.0</ele><time>2026-05-03T08:14:54.999Z</time></trkpt><trkpt lat="44.959405655025975" lon="9.531389955513898"><ele>146.83333333333334</ele><time>2026-05-03T08:14:55.999Z</time></trkpt><trkpt lat="44.95947606427081" lon="9.531401025010261"><ele>146.66666666666666</ele><time>2026-05-03T08:14:56.999Z</time></trkpt><trkpt lat="44.95955108188178" lon="9.531405817577937"><ele>146.5</ele><time>2026-05-03T08:14:57.999Z</time></trkpt><trkpt lat="44.95962795809349" lon="9.53142562089989"><ele>146.33333333333331</ele><time>2026-05-03T08:14:58.999Z</time></trkpt><trkpt lat="44.95970489109058" lon="9.53143819736519"><ele>146.16666666666666</ele><time>2026-05-03T08:14:59.999Z</time></trkpt><trkpt lat="44.95979033185355" lon="9.531448399536592"><ele>146.0</ele><time>2026-05-03T08:15:00.999Z</time></trkpt><trkpt lat="44.95985874154272" lon="9.531458566915644"><ele>146.0</ele><time>2026-05-03T08:15:01.999Z</time></trkpt><trkpt lat="44.95993322804672" lon="9.531469761733673"><ele>146.0</ele><time>2026-05-03T08:15:02.999Z</time></trkpt><trkpt lat="44.96001242631491" lon="9.531492702323451"><ele>146.0</ele><time>2026-05-03T08:15:03.999Z</time></trkpt><trkpt lat="44.96008792014469" lon="9.531511197651543"><ele>146.0</ele><time>2026-05-03T08:15:04.999Z</time></trkpt><trkpt lat="44.96016719173534" lon="9.531515806448773"><ele>146.0</ele><time>2026-05-03T08:15:05.999Z</time></trkpt><trkpt lat="44.96024293968412" lon="9.531530633550618"><ele>146.0</ele><time>2026-05-03T08:15:06.999Z</time></trkpt><trkpt lat="44.96031663215357" lon="9.531546591544304"><ele>145.71428571428572</ele><time>2026-05-03T08:15:07.999Z</time></trkpt><trkpt lat="44.9603906243995" lon="9.531565926322628"><ele>145.42857142857144</ele><time>2026-05-03T08:15:08.999Z</time></trkpt><trkpt lat="44.96046840207687" lon="9.531573772931333"><ele>145.14285714285717</ele><time>2026-05-03T08:15:09.999Z</time></trkpt><trkpt lat="44.960541431546" lon="9.531588900142689"><ele>144.85714285714286</ele><time>2026-05-03T08:15:10.999Z</time></trkpt><trkpt lat="44.960612980081216" lon="9.531603149419237"><ele>144.57142857142858</ele><time>2026-05-03T08:15:11.999Z</time></trkpt><trkpt lat="44.960686468520706" lon="9.531616750103538"><ele>144.2857142857143</ele><time>2026-05-03T08:15:12.999Z</time></trkpt><trkpt lat="44.96076161116325" lon="9.531628297021719"><ele>144.0</ele><time>2026-05-03T08:15:13.999Z</time></trkpt><trkpt lat="44.960836301722" lon="9.53164321540345"><ele>143.85714285714286</ele><time>2026-05-03T08:15:14.999Z</time></trkpt><trkpt lat="44.96090346319242" lon="9.53164647260716"><ele>143.71428571428572</ele><time>2026-05-03T08:15:15.999Z</time></trkpt><trkpt lat="44.96097684269366" lon="9.531664268243338"><ele>143.57142857142856</ele><time>2026-05-03T08:15:16.999Z</time></trkpt><trkpt lat="44.96105433346613" lon="9.531686763533312"><ele>143.42857142857144</ele><time>2026-05-03T08:15:17.999Z</time></trkpt><trkpt lat="44.9611240770008" lon="9.531692888746864"><ele>143.28571428571428</ele><time>2026-05-03T08:15:18.999Z</time></trkpt><trkpt lat="44.96119678225293" lon="9.531704915694093"><ele>143.14285714285714</ele><time>2026-05-03T08:15:19.999Z</time></trkpt><trkpt lat="44.96127108562495" lon="9.531716737164261"><ele>143.0</ele><time>2026-05-03T08:15:20.999Z</time></trkpt><trkpt lat="44.9613441197146" lon="9.53173356610735"><ele>143.0</ele><time>2026-05-03T08:15:21.999Z</time></trkpt><trkpt lat="44.96142281490829" lon="9.531745829353353"><ele>143.0</ele><time>2026-05-03T08:15:22.999Z</time></trkpt><trkpt lat="44.96149774176351" lon="9.531760666552396"><ele>143.0</ele><time>2026-05-03T08:15:23.999Z</time></trkpt><trkpt lat="44.9615766439344" lon="9.531773453840367"><ele>143.0</ele><time>2026-05-03T08:15:24.999Z</time></trkpt><trkpt lat="44.96165631978035" lon="9.531790960765976"><ele>143.0</ele><time>2026-05-03T08:15:25.999Z</time></trkpt><trkpt lat="44.96173801361459" lon="9.531805306474212"><ele>143.0</ele><time>2026-05-03T08:15:26.999Z</time></trkpt><trkpt lat="44.961814724246075" lon="9.531818058487994"><ele>142.5</ele><time>2026-05-03T08:15:27.999Z</time></trkpt><trkpt lat="44.96189723476685" lon="9.53183211299869"><ele>142.0</ele><time>2026-05-03T08:15:28.999Z</time></trkpt><trkpt lat="44.96197520533507" lon="9.531845993746304"><ele>141.5</ele><time>2026-05-03T08:15:29.999Z</time></trkpt><trkpt lat="44.96205218433977" lon="9.531860793415188"><ele>141.0</ele><time>2026-05-03T08:15:30.999Z</time></trkpt><trkpt lat="44.96212776224887" lon="9.531872708701199"><ele>140.5</ele><time>2026-05-03T08:15:31.999Z</time></trkpt><trkpt lat="44.96220120665808" lon="9.531885813079002"><ele>140.0</ele><time>2026-05-03T08:15:32.998Z</time></trkpt><trkpt lat="44.962275832283396" lon="9.53189583591531"><ele>140.0</ele><time>2026-05-03T08:15:33.998Z</time></trkpt><trkpt lat="44.96235083187611" lon="9.53190954929807"><ele>140.0</ele><time>2026-05-03T08:15:34.998Z</time></trkpt><trkpt lat="44.96242695210055" lon="9.531922043617158"><ele>140.0</ele><time>2026-05-03T08:15:35.998Z</time></trkpt><trkpt lat="44.96250198330456" lon="9.53193287780968"><ele>140.0</ele><time>2026-05-03T08:15:36.998Z</time></trkpt><trkpt lat="44.96257733269277" lon="9.531944271880578"><ele>140.0</ele><time>2026-05-03T08:15:37.998Z</time></trkpt><trkpt lat="44.96265530683922" lon="9.53195876603361"><ele>140.0</ele><time>2026-05-03T08:15:38.998Z</time></trkpt><trkpt lat="44.96273420469766" lon="9.531968456022314"><ele>139.66666666666666</ele><time>2026-05-03T08:15:39.998Z</time></trkpt><trkpt lat="44.96280987776246" lon="9.53198450068904"><ele>139.33333333333331</ele><time>2026-05-03T08:15:40.998Z</time></trkpt><trkpt lat="44.96288674643723" lon="9.531996795942959"><ele>139.0</ele><time>2026-05-03T08:15:41.998Z</time></trkpt><trkpt lat="44.9629650662922" lon="9.532011565349132"><ele>138.66666666666666</ele><time>2026-05-03T08:15:42.998Z</time></trkpt><trkpt lat="44.9630461908012" lon="9.53202156112667"><ele>138.33333333333334</ele><time>2026-05-03T08:15:43.998Z</time></trkpt><trkpt lat="44.96312656604685" lon="9.532041231063918"><ele>138.0</ele><time>2026-05-03T08:15:44.998Z</time></trkpt><trkpt lat="44.96320437996545" lon="9.532057265326376"><ele>138.0</ele><time>2026-05-03T08:15:45.998Z</time></trkpt><trkpt lat="44.9632813142402" lon="9.5320645628066"><ele>138.0</ele><time>2026-05-03T08:15:46.998Z</time></trkpt><trkpt lat="44.96335854578166" lon="9.532077033393184"><ele>138.0</ele><time>2026-05-03T08:15:47.998Z</time></trkpt><trkpt lat="44.96343527378608" lon="9.53208902032255"><ele>138.0</ele><time>2026-05-03T08:15:48.998Z</time></trkpt><trkpt lat="44.96351542091267" lon="9.532109079131304"><ele>138.0</ele><time>2026-05-03T08:15:49.998Z</time></trkpt><trkpt lat="44.96359408699808" lon="9.532121262538574"><ele>138.0</ele><time>2026-05-03T08:15:50.998Z</time></trkpt><trkpt lat="44.96366793670385" lon="9.532136647886011"><ele>137.85714285714286</ele><time>2026-05-03T08:15:51.998Z</time></trkpt><trkpt lat="44.96374601290445" lon="9.532151153453203"><ele>137.71428571428572</ele><time>2026-05-03T08:15:52.998Z</time></trkpt><trkpt lat="44.96382046530158" lon="9.532166499898672"><ele>137.57142857142858</ele><time>2026-05-03T08:15:53.998Z</time></trkpt><trkpt lat="44.96389283080124" lon="9.53217735169137"><ele>137.42857142857144</ele><time>2026-05-03T08:15:54.998Z</time></trkpt><trkpt lat="44.96396654536769" lon="9.532190045902816"><ele>137.28571428571428</ele><time>2026-05-03T08:15:55.998Z</time></trkpt><trkpt lat="44.96403626162773" lon="9.532200809252027"><ele>137.14285714285717</ele><time>2026-05-03T08:15:56.998Z</time></trkpt><trkpt lat="44.964107943843224" lon="9.532218577793271"><ele>137.0</ele><time>2026-05-03T08:15:57.998Z</time></trkpt><trkpt lat="44.96417606931191" lon="9.53222962686789"><ele>136.71428571428572</ele><time>2026-05-03T08:15:58.998Z</time></trkpt><trkpt lat="44.964245302280524" lon="9.532241914916415"><ele>136.42857142857144</ele><time>2026-05-03T08:15:59.998Z</time></trkpt><trkpt lat="44.96431113645812" lon="9.53225333186473"><ele>136.14285714285714</ele><time>2026-05-03T08:16:00.998Z</time></trkpt><trkpt lat="44.9643794790261" lon="9.532260301984065"><ele>135.85714285714286</ele><time>2026-05-03T08:16:01.998Z</time></trkpt><trkpt lat="44.96444737996872" lon="9.532274065787368"><ele>135.57142857142856</ele><time>2026-05-03T08:16:02.998Z</time></trkpt><trkpt lat="44.964518605726965" lon="9.532286471334974"><ele>135.28571428571428</ele><time>2026-05-03T08:16:03.998Z</time></trkpt><trkpt lat="44.9645858652719" lon="9.532297261575938"><ele>135.0</ele><time>2026-05-03T08:16:04.998Z</time></trkpt><trkpt lat="44.96465786553123" lon="9.532310209126122"><ele>135.0</ele><time>2026-05-03T08:16:05.998Z</time></trkpt><trkpt lat="44.96473221426192" lon="9.532326708173247"><ele>135.0</ele><time>2026-05-03T08:16:06.998Z</time></trkpt><trkpt lat="44.96480641480157" lon="9.532340573550766"><ele>135.0</ele><time>2026-05-03T08:16:07.998Z</time></trkpt><trkpt lat="44.96488333130064" lon="9.53235614930204"><ele>135.0</ele><time>2026-05-03T08:16:08.998Z</time></trkpt><trkpt lat="44.964957945548846" lon="9.532368847422052"><ele>135.0</ele><time>2026-05-03T08:16:09.998Z</time></trkpt><trkpt lat="44.96503876213469" lon="9.532377267730626"><ele>135.0</ele><time>2026-05-03T08:16:10.998Z</time></trkpt><trkpt lat="44.965115425362974" lon="9.532372771110113"><ele>133.83333333333334</ele><time>2026-05-03T08:16:11.998Z</time></trkpt><trkpt lat="44.9651988274104" lon="9.532381045910203"><ele>132.66666666666666</ele><time>2026-05-03T08:16:12.998Z</time></trkpt><trkpt lat="44.96528235727557" lon="9.532364923890091"><ele>131.5</ele><time>2026-05-03T08:16:13.998Z</time></trkpt><trkpt lat="44.96536665277276" lon="9.532343866168118"><ele>130.33333333333331</ele><time>2026-05-03T08:16:14.998Z</time></trkpt><trkpt lat="44.96544908092809" lon="9.53231613658425"><ele>129.16666666666666</ele><time>2026-05-03T08:16:15.998Z</time></trkpt><trkpt lat="44.96552207144357" lon="9.532284636902464"><ele>128.0</ele><time>2026-05-03T08:16:16.998Z</time></trkpt><trkpt lat="44.96560923029709" lon="9.532258685604972"><ele>127.99999999999999</ele><time>2026-05-03T08:16:17.998Z</time></trkpt><trkpt lat="44.96568731338882" lon="9.532230963167718"><ele>128.0</ele><time>2026-05-03T08:16:18.998Z</time></trkpt><trkpt lat="44.96578248395544" lon="9.532216448823663"><ele>128.0</ele><time>2026-05-03T08:16:19.998Z</time></trkpt><trkpt lat="44.96586399251439" lon="9.532205856356121"><ele>128.0</ele><time>2026-05-03T08:16:20.998Z</time></trkpt><trkpt lat="44.96595395551664" lon="9.532221353987058"><ele>127.99999999999999</ele><time>2026-05-03T08:16:21.998Z</time></trkpt><trkpt lat="44.96604249070719" lon="9.53225470962232"><ele>128.0</ele><time>2026-05-03T08:16:22.998Z</time></trkpt><trkpt lat="44.96612717080696" lon="9.532298909931637"><ele>127.0</ele><time>2026-05-03T08:16:23.998Z</time></trkpt><trkpt lat="44.96621692531688" lon="9.53234644799136"><ele>126.00000000000001</ele><time>2026-05-03T08:16:24.998Z</time></trkpt><trkpt lat="44.96630654606505" lon="9.532382021086551"><ele>125.00000000000001</ele><time>2026-05-03T08:16:25.998Z</time></trkpt><trkpt lat="44.96640237606959" lon="9.532398314755826"><ele>124.0</ele><time>2026-05-03T08:16:26.998Z</time></trkpt><trkpt lat="44.966499705798626" lon="9.532392823561699"><ele>123.0</ele><time>2026-05-03T08:16:27.998Z</time></trkpt><trkpt lat="44.96659220623972" lon="9.532375783604099"><ele>123.0</ele><time>2026-05-03T08:16:28.998Z</time></trkpt><trkpt lat="44.966688597286186" lon="9.532354182322962"><ele>123.00000000000001</ele><time>2026-05-03T08:16:29.998Z</time></trkpt><trkpt lat="44.96678875625973" lon="9.532326940788964"><ele>123.00000000000001</ele><time>2026-05-03T08:16:30.998Z</time></trkpt><trkpt lat="44.966883327819794" lon="9.532306889184044"><ele>123.0</ele><time>2026-05-03T08:16:31.998Z</time></trkpt><trkpt lat="44.96698027953018" lon="9.532301882016977"><ele>123.0</ele><time>2026-05-03T08:16:32.998Z</time></trkpt><trkpt lat="44.96707497520523" lon="9.532328041490537"><ele>123.4</ele><time>2026-05-03T08:16:33.998Z</time></trkpt><trkpt lat="44.967161782340966" lon="9.532378258791084"><ele>123.80000000000001</ele><time>2026-05-03T08:16:34.998Z</time></trkpt><trkpt lat="44.96724114339485" lon="9.532449028503615"><ele>124.2</ele><time>2026-05-03T08:16:35.998Z</time></trkpt><trkpt lat="44.967311730404305" lon="9.532529655151205"><ele>124.6</ele><time>2026-05-03T08:16:36.998Z</time></trkpt><trkpt lat="44.96737772765197" lon="9.532603909889906"><ele>125.0</ele><time>2026-05-03T08:16:37.998Z</time></trkpt><trkpt lat="44.96744503844867" lon="9.532685569094497"><ele>124.99999999999999</ele><time>2026-05-03T08:16:38.998Z</time></trkpt><trkpt lat="44.96751450310994" lon="9.532751506521723"><ele>125.0</ele><time>2026-05-03T08:16:39.998Z</time></trkpt><trkpt lat="44.967588039271355" lon="9.53281430868532"><ele>125.0</ele><time>2026-05-03T08:16:40.998Z</time></trkpt><trkpt lat="44.96766012078241" lon="9.532870284193118"><ele>125.0</ele><time>2026-05-03T08:16:41.998Z</time></trkpt><trkpt lat="44.96772800666594" lon="9.532924300411047"><ele>124.99999999999999</ele><time>2026-05-03T08:16:42.998Z</time></trkpt><trkpt lat="44.96780073606167" lon="9.532971751332825"><ele>125.0</ele><time>2026-05-03T08:16:43.998Z</time></trkpt><trkpt lat="44.967870032992096" lon="9.533026536672923"><ele>124.57142857142857</ele><time>2026-05-03T08:16:44.998Z</time></trkpt><trkpt lat="44.967937381291755" lon="9.53308033391385"><ele>124.14285714285714</ele><time>2026-05-03T08:16:45.998Z</time></trkpt><trkpt lat="44.96800499234042" lon="9.533133466326365"><ele>123.71428571428571</ele><time>2026-05-03T08:16:46.998Z</time></trkpt><trkpt lat="44.96806844388701" lon="9.533178376028447"><ele>123.28571428571428</ele><time>2026-05-03T08:16:47.998Z</time></trkpt><trkpt lat="44.96813423102704" lon="9.533211163099129"><ele>122.85714285714286</ele><time>2026-05-03T08:16:48.998Z</time></trkpt><trkpt lat="44.968196788857355" lon="9.533258972747078"><ele>122.42857142857142</ele><time>2026-05-03T08:16:49.998Z</time></trkpt><trkpt lat="44.96825842153325" lon="9.533299438468136"><ele>121.99999999999999</ele><time>2026-05-03T08:16:50.998Z</time></trkpt><trkpt lat="44.96831235477264" lon="9.533358429713667"><ele>122.14285714285712</ele><time>2026-05-03T08:16:51.998Z</time></trkpt><trkpt lat="44.968379887718065" lon="9.53340569560995"><ele>122.28571428571428</ele><time>2026-05-03T08:16:52.998Z</time></trkpt><trkpt lat="44.96844464386443" lon="9.533446792690786"><ele>122.42857142857143</ele><time>2026-05-03T08:16:53.998Z</time></trkpt><trkpt lat="44.96851041682703" lon="9.533478175275915"><ele>122.57142857142857</ele><time>2026-05-03T08:16:54.998Z</time></trkpt><trkpt lat="44.96858578501752" lon="9.533478969875036"><ele>122.71428571428572</ele><time>2026-05-03T08:16:55.998Z</time></trkpt><trkpt lat="44.968654551345516" lon="9.533502317446395"><ele>122.85714285714288</ele><time>2026-05-03T08:16:56.998Z</time></trkpt><trkpt lat="44.96871956723701" lon="9.533528557061748"><ele>123.00000000000001</ele><time>2026-05-03T08:16:57.998Z</time></trkpt><trkpt lat="44.96882597846008" lon="9.533599493638627"><ele>123.0</ele><time>2026-05-03T08:16:59.998Z</time></trkpt><trkpt lat="44.96887324116778" lon="9.53366147805654"><ele>123.00000000000001</ele><time>2026-05-03T08:17:00.998Z</time></trkpt><trkpt lat="44.96894552457954" lon="9.533794086367271"><ele>123.00000000000001</ele><time>2026-05-03T08:17:02.998Z</time></trkpt><trkpt lat="44.96899080369481" lon="9.533936684000318"><ele>123.0</ele><time>2026-05-03T08:17:04.998Z</time></trkpt><trkpt lat="44.969005231168104" lon="9.534057241866845"><ele>123.0</ele><time>2026-05-03T08:17:06.998Z</time></trkpt><trkpt lat="44.96901451474829" lon="9.53419111782376"><ele>122.5</ele><time>2026-05-03T08:17:09.998Z</time></trkpt><trkpt lat="44.969026689638156" lon="9.53430753237713"><ele>122.0</ele><time>2026-05-03T08:17:12.998Z</time></trkpt><trkpt lat="44.96905037944867" lon="9.53439906117522"><ele>121.5</ele><time>2026-05-03T08:17:15.998Z</time></trkpt><trkpt lat="44.96907507783176" lon="9.53449082614792"><ele>121.0</ele><time>2026-05-03T08:17:19.998Z</time></trkpt><trkpt lat="44.96911168884925" lon="9.534601178586811"><ele>120.5</ele><time>2026-05-03T08:17:22.998Z</time></trkpt><trkpt lat="44.96912931403885" lon="9.534694090183924"><ele>120.0</ele><time>2026-05-03T08:17:24.998Z</time></trkpt><trkpt lat="44.969144589865444" lon="9.534842908783917"><ele>120.0</ele><time>2026-05-03T08:17:26.998Z</time></trkpt><trkpt lat="44.969166608299396" lon="9.53497741652323"><ele>120.0</ele><time>2026-05-03T08:17:28.999Z</time></trkpt><trkpt lat="44.96918858612398" lon="9.535130548294418"><ele>120.0</ele><time>2026-05-03T08:17:30.999Z</time></trkpt><trkpt lat="44.969213812702755" lon="9.535289179228677"><ele>120.0</ele><time>2026-05-03T08:17:32.999Z</time></trkpt><trkpt lat="44.96925326076828" lon="9.535463915749782"><ele>119.6</ele><time>2026-05-03T08:17:34.999Z</time></trkpt><trkpt lat="44.96928632950966" lon="9.535541381345784"><ele>119.2</ele><time>2026-05-03T08:17:35.999Z</time></trkpt><trkpt lat="44.96936885088769" lon="9.535660107642324"><ele>118.80000000000001</ele><time>2026-05-03T08:17:37.998Z</time></trkpt><trkpt lat="44.969429967636856" lon="9.535761562667068"><ele>118.4</ele><time>2026-05-03T08:17:39.998Z</time></trkpt><trkpt lat="44.96950328196925" lon="9.53584510666889"><ele>118.0</ele><time>2026-05-03T08:17:41.998Z</time></trkpt><trkpt lat="44.96957682236094" lon="9.535926703035008"><ele>118.0</ele><time>2026-05-03T08:17:43.998Z</time></trkpt><trkpt lat="44.96965984767207" lon="9.53599525326672"><ele>118.00000000000001</ele><time>2026-05-03T08:17:45.998Z</time></trkpt><trkpt lat="44.96974454783353" lon="9.536071116023523"><ele>118.00000000000001</ele><time>2026-05-03T08:17:47.998Z</time></trkpt><trkpt lat="44.96984116942138" lon="9.536147306946638"><ele>118.0</ele><time>2026-05-03T08:17:49.998Z</time></trkpt><trkpt lat="44.969940789343276" lon="9.536222052133489"><ele>118.0</ele><time>2026-05-03T08:17:51.998Z</time></trkpt><trkpt lat="44.97003853814992" lon="9.536301442333466"><ele>117.80000000000001</ele><time>2026-05-03T08:17:53.998Z</time></trkpt><trkpt lat="44.970132674690404" lon="9.536382579867265"><ele>117.60000000000001</ele><time>2026-05-03T08:17:55.998Z</time></trkpt><trkpt lat="44.97023620469621" lon="9.536470772859733"><ele>117.39999999999999</ele><time>2026-05-03T08:17:57.998Z</time></trkpt><trkpt lat="44.970290689394325" lon="9.536516243628016"><ele>117.19999999999999</ele><time>2026-05-03T08:17:58.998Z</time></trkpt><trkpt lat="44.97040216358281" lon="9.536597055855845"><ele>117.0</ele><time>2026-05-03T08:18:00.998Z</time></trkpt><trkpt lat="44.97050157220218" lon="9.536678443934763"><ele>117.0</ele><time>2026-05-03T08:18:02.998Z</time></trkpt><trkpt lat="44.970606539318695" lon="9.536766036987046"><ele>117.0</ele><time>2026-05-03T08:18:04.998Z</time></trkpt><trkpt lat="44.97071106772182" lon="9.53684693751735"><ele>117.0</ele><time>2026-05-03T08:18:06.998Z</time></trkpt><trkpt lat="44.97081589468885" lon="9.536934027347675"><ele>117.0</ele><time>2026-05-03T08:18:08.998Z</time></trkpt><trkpt lat="44.97091752960419" lon="9.537015093392913"><ele>116.83333333333333</ele><time>2026-05-03T08:18:10.998Z</time></trkpt><trkpt lat="44.97097239351848" lon="9.537059404248609"><ele>116.66666666666666</ele><time>2026-05-03T08:18:11.998Z</time></trkpt><trkpt lat="44.971082379741645" lon="9.537139975017707"><ele>116.5</ele><time>2026-05-03T08:18:13.998Z</time></trkpt><trkpt lat="44.971137142953566" lon="9.53718487401287"><ele>116.33333333333333</ele><time>2026-05-03T08:18:14.998Z</time></trkpt><trkpt lat="44.9711936086472" lon="9.537225262082979"><ele>116.16666666666666</ele><time>2026-05-03T08:18:15.998Z</time></trkpt><trkpt lat="44.971288862397856" lon="9.537307414435952"><ele>116.0</ele><time>2026-05-03T08:18:17.998Z</time></trkpt><trkpt lat="44.9713475122254" lon="9.537343553591148"><ele>115.99999999999999</ele><time>2026-05-03T08:18:18.998Z</time></trkpt><trkpt lat="44.9714005046928" lon="9.537396772444545"><ele>116.0</ele><time>2026-05-03T08:18:19.998Z</time></trkpt><trkpt lat="44.97150588525575" lon="9.537480904315048"><ele>116.0</ele><time>2026-05-03T08:18:21.998Z</time></trkpt><trkpt lat="44.97156148296242" lon="9.53752513923516"><ele>116.0</ele><time>2026-05-03T08:18:22.998Z</time></trkpt><trkpt lat="44.9716170056538" lon="9.537571798308699"><ele>115.99999999999999</ele><time>2026-05-03T08:18:23.998Z</time></trkpt><trkpt lat="44.97173003798204" lon="9.537652425137999"><ele>116.0</ele><time>2026-05-03T08:18:25.998Z</time></trkpt><trkpt lat="44.97183533958128" lon="9.53774271276842"><ele>115.75</ele><time>2026-05-03T08:18:27.998Z</time></trkpt><trkpt lat="44.971942495641855" lon="9.537821741367514"><ele>115.5</ele><time>2026-05-03T08:18:29.998Z</time></trkpt><trkpt lat="44.97205072344652" lon="9.537911202430456"><ele>115.25</ele><time>2026-05-03T08:18:31.998Z</time></trkpt><trkpt lat="44.97216103153525" lon="9.537997260122383"><ele>115.0</ele><time>2026-05-03T08:18:33.998Z</time></trkpt><trkpt lat="44.97226567679347" lon="9.538084498142293"><ele>115.0</ele><time>2026-05-03T08:18:35.998Z</time></trkpt><trkpt lat="44.97232000517859" lon="9.538131615670615"><ele>115.0</ele><time>2026-05-03T08:18:36.998Z</time></trkpt><trkpt lat="44.97242764869659" lon="9.538211142418355"><ele>115.0</ele><time>2026-05-03T08:18:38.998Z</time></trkpt><trkpt lat="44.97253413113586" lon="9.538299113669558"><ele>115.0</ele><time>2026-05-03T08:18:40.998Z</time></trkpt><trkpt lat="44.97263993149466" lon="9.538380991469943"><ele>115.0</ele><time>2026-05-03T08:18:42.998Z</time></trkpt><trkpt lat="44.97274762882846" lon="9.538466564098513"><ele>115.0</ele><time>2026-05-03T08:18:44.998Z</time></trkpt><trkpt lat="44.97285435154628" lon="9.538551216905436"><ele>115.0</ele><time>2026-05-03T08:18:46.998Z</time></trkpt><trkpt lat="44.972957579485275" lon="9.538630673047336"><ele>115.0</ele><time>2026-05-03T08:18:48.998Z</time></trkpt><trkpt lat="44.973061201547004" lon="9.538709580821987"><ele>115.0</ele><time>2026-05-03T08:18:50.998Z</time></trkpt><trkpt lat="44.97316359448625" lon="9.538792924850759"><ele>115.0</ele><time>2026-05-03T08:18:52.998Z</time></trkpt><trkpt lat="44.973265883362096" lon="9.538878562080432"><ele>115.0</ele><time>2026-05-03T08:18:54.998Z</time></trkpt><trkpt lat="44.97332195483648" lon="9.53892838397686"><ele>115.0</ele><time>2026-05-03T08:18:55.998Z</time></trkpt><trkpt lat="44.973378694937175" lon="9.538970056747194"><ele>115.0</ele><time>2026-05-03T08:18:56.998Z</time></trkpt><trkpt lat="44.97348401712406" lon="9.539052833500659"><ele>115.0</ele><time>2026-05-03T08:18:58.998Z</time></trkpt><trkpt lat="44.97359121629196" lon="9.539138201716511"><ele>114.83333333333334</ele><time>2026-05-03T08:19:00.998Z</time></trkpt><trkpt lat="44.97370133328749" lon="9.53922376807545"><ele>114.66666666666667</ele><time>2026-05-03T08:19:02.998Z</time></trkpt><trkpt lat="44.973757578950625" lon="9.539266866630326"><ele>114.5</ele><time>2026-05-03T08:19:03.998Z</time></trkpt><trkpt lat="44.97381528971629" lon="9.539312414155056"><ele>114.33333333333334</ele><time>2026-05-03T08:19:04.998Z</time></trkpt><trkpt lat="44.973873775199586" lon="9.53935384802925"><ele>114.16666666666667</ele><time>2026-05-03T08:19:05.998Z</time></trkpt><trkpt lat="44.97393050747697" lon="9.539402800086874"><ele>114.0</ele><time>2026-05-03T08:19:06.998Z</time></trkpt><trkpt lat="44.9739863494153" lon="9.539449470914796"><ele>114.0</ele><time>2026-05-03T08:19:07.998Z</time></trkpt><trkpt lat="44.974041680765076" lon="9.539494382749062"><ele>113.99999999999999</ele><time>2026-05-03T08:19:08.998Z</time></trkpt><trkpt lat="44.974097501303596" lon="9.53953830111626"><ele>114.0</ele><time>2026-05-03T08:19:09.998Z</time></trkpt><trkpt lat="44.97415860158231" lon="9.539581272665348"><ele>114.0</ele><time>2026-05-03T08:19:10.998Z</time></trkpt><trkpt lat="44.97421377714412" lon="9.539625965123921"><ele>113.99999999999999</ele><time>2026-05-03T08:19:11.998Z</time></trkpt><trkpt lat="44.97427015356233" lon="9.53967189041635"><ele>114.0</ele><time>2026-05-03T08:19:12.998Z</time></trkpt><trkpt lat="44.97432805222467" lon="9.539717727588194"><ele>114.0</ele><time>2026-05-03T08:19:13.998Z</time></trkpt><trkpt lat="44.97438822429336" lon="9.53977102498165"><ele>113.71428571428571</ele><time>2026-05-03T08:19:14.998Z</time></trkpt><trkpt lat="44.97444461757103" lon="9.539815707511874"><ele>113.42857142857142</ele><time>2026-05-03T08:19:15.998Z</time></trkpt><trkpt lat="44.97450229027922" lon="9.53985995709834"><ele>113.14285714285714</ele><time>2026-05-03T08:19:16.998Z</time></trkpt><trkpt lat="44.97456207980487" lon="9.539906124133534"><ele>112.85714285714286</ele><time>2026-05-03T08:19:17.998Z</time></trkpt><trkpt lat="44.97461952001428" lon="9.53995601337606"><ele>112.57142857142857</ele><time>2026-05-03T08:19:18.998Z</time></trkpt><trkpt lat="44.97467568847268" lon="9.540001665300103"><ele>112.28571428571428</ele><time>2026-05-03T08:19:19.998Z</time></trkpt><trkpt lat="44.974734520255524" lon="9.540045657872618"><ele>112.0</ele><time>2026-05-03T08:19:20.998Z</time></trkpt><trkpt lat="44.97479542256019" lon="9.540092181752499"><ele>112.0</ele><time>2026-05-03T08:19:21.998Z</time></trkpt><trkpt lat="44.97485317416622" lon="9.540131359397472"><ele>112.0</ele><time>2026-05-03T08:19:22.998Z</time></trkpt><trkpt lat="44.97491086583377" lon="9.540178481956973"><ele>112.0</ele><time>2026-05-03T08:19:23.998Z</time></trkpt><trkpt lat="44.97496721766748" lon="9.540224662631559"><ele>112.0</ele><time>2026-05-03T08:19:24.998Z</time></trkpt><trkpt lat="44.97502666260631" lon="9.540275918262408"><ele>112.0</ele><time>2026-05-03T08:19:25.998Z</time></trkpt><trkpt lat="44.97508442823144" lon="9.540312223467403"><ele>112.0</ele><time>2026-05-03T08:19:26.998Z</time></trkpt><trkpt lat="44.975144414103475" lon="9.540364410298976"><ele>112.0</ele><time>2026-05-03T08:19:27.998Z</time></trkpt><trkpt lat="44.97525697056275" lon="9.540460021872654"><ele>111.57142857142857</ele><time>2026-05-03T08:19:29.998Z</time></trkpt><trkpt lat="44.97531715847158" lon="9.540507631963811"><ele>111.14285714285714</ele><time>2026-05-03T08:19:30.999Z</time></trkpt><trkpt lat="44.97537698875458" lon="9.540556316182087"><ele>110.71428571428572</ele><time>2026-05-03T08:19:31.998Z</time></trkpt><trkpt lat="44.9754321087927" lon="9.540604388107786"><ele>110.28571428571428</ele><time>2026-05-03T08:19:32.998Z</time></trkpt><trkpt lat="44.975494504145885" lon="9.54065535865102"><ele>109.85714285714286</ele><time>2026-05-03T08:19:33.998Z</time></trkpt><trkpt lat="44.97555319580953" lon="9.540703967928673"><ele>109.42857142857143</ele><time>2026-05-03T08:19:34.999Z</time></trkpt><trkpt lat="44.9756139984872" lon="9.540749574860584"><ele>109.0</ele><time>2026-05-03T08:19:35.999Z</time></trkpt><trkpt lat="44.97567054061626" lon="9.540799023599371"><ele>109.0</ele><time>2026-05-03T08:19:36.999Z</time></trkpt><trkpt lat="44.97573014638845" lon="9.540845179141957"><ele>109.0</ele><time>2026-05-03T08:19:37.998Z</time></trkpt><trkpt lat="44.97579095421085" lon="9.540886150033957"><ele>109.0</ele><time>2026-05-03T08:19:38.998Z</time></trkpt><trkpt lat="44.97585204636499" lon="9.540930767752167"><ele>109.0</ele><time>2026-05-03T08:19:39.999Z</time></trkpt><trkpt lat="44.97590913039451" lon="9.540979723519639"><ele>109.0</ele><time>2026-05-03T08:19:40.998Z</time></trkpt><trkpt lat="44.97596935000739" lon="9.541028343690176"><ele>109.0</ele><time>2026-05-03T08:19:41.998Z</time></trkpt><trkpt lat="44.97603190673501" lon="9.5410771562974"><ele>109.0</ele><time>2026-05-03T08:19:42.999Z</time></trkpt><trkpt lat="44.976094466718145" lon="9.541122364636196"><ele>108.85714285714286</ele><time>2026-05-03T08:19:43.998Z</time></trkpt><trkpt lat="44.97615539439987" lon="9.541170800224542"><ele>108.71428571428572</ele><time>2026-05-03T08:19:44.998Z</time></trkpt><trkpt lat="44.97621489227603" lon="9.54121379293967"><ele>108.57142857142857</ele><time>2026-05-03T08:19:45.998Z</time></trkpt><trkpt lat="44.97627600184992" lon="9.541262153827098"><ele>108.42857142857143</ele><time>2026-05-03T08:19:46.998Z</time></trkpt><trkpt lat="44.97633153309038" lon="9.54130524574094"><ele>108.28571428571428</ele><time>2026-05-03T08:19:47.998Z</time></trkpt><trkpt lat="44.976384310092975" lon="9.541355875369476"><ele>108.14285714285714</ele><time>2026-05-03T08:19:48.998Z</time></trkpt><trkpt lat="44.976438708156316" lon="9.541403392435733"><ele>108.0</ele><time>2026-05-03T08:19:49.998Z</time></trkpt><trkpt lat="44.97649900682029" lon="9.541450132049949"><ele>108.0</ele><time>2026-05-03T08:19:50.998Z</time></trkpt><trkpt lat="44.97655828244615" lon="9.541495517034669"><ele>108.00000000000001</ele><time>2026-05-03T08:19:51.998Z</time></trkpt><trkpt lat="44.97661760353192" lon="9.541541288438555"><ele>108.00000000000001</ele><time>2026-05-03T08:19:52.998Z</time></trkpt><trkpt lat="44.97673173254431" lon="9.541633178416587"><ele>108.0</ele><time>2026-05-03T08:19:54.998Z</time></trkpt><trkpt lat="44.97678992847933" lon="9.541679684469537"><ele>108.0</ele><time>2026-05-03T08:19:55.998Z</time></trkpt><trkpt lat="44.97690581428217" lon="9.541772721362259"><ele>108.0</ele><time>2026-05-03T08:19:57.998Z</time></trkpt><trkpt lat="44.976961866818876" lon="9.541821345937484"><ele>108.0</ele><time>2026-05-03T08:19:58.998Z</time></trkpt><trkpt lat="44.9770172346547" lon="9.541864901127518"><ele>108.0</ele><time>2026-05-03T08:19:59.998Z</time></trkpt><trkpt lat="44.977076109920965" lon="9.54191166207804"><ele>108.0</ele><time>2026-05-03T08:20:00.998Z</time></trkpt><trkpt lat="44.97713535846798" lon="9.541952923290326"><ele>108.0</ele><time>2026-05-03T08:20:01.998Z</time></trkpt><trkpt lat="44.977192761988604" lon="9.541997325890955"><ele>108.0</ele><time>2026-05-03T08:20:02.998Z</time></trkpt><trkpt lat="44.97724823758524" lon="9.542043823315069"><ele>108.0</ele><time>2026-05-03T08:20:03.998Z</time></trkpt><trkpt lat="44.977305029203286" lon="9.542089167471262"><ele>108.0</ele><time>2026-05-03T08:20:04.998Z</time></trkpt><trkpt lat="44.977364120425506" lon="9.542131822380723"><ele>108.0</ele><time>2026-05-03T08:20:05.998Z</time></trkpt><trkpt lat="44.97759786109885" lon="9.542324702884022"><ele>108.0</ele><time>2026-05-03T08:20:09.998Z</time></trkpt><trkpt lat="44.97765439764426" lon="9.542367657716824"><ele>108.0</ele><time>2026-05-03T08:20:10.998Z</time></trkpt><trkpt lat="44.97771044196205" lon="9.542408816314934"><ele>107.80000000000001</ele><time>2026-05-03T08:20:11.998Z</time></trkpt><trkpt lat="44.97776682411455" lon="9.542455367227939"><ele>107.60000000000001</ele><time>2026-05-03T08:20:12.998Z</time></trkpt><trkpt lat="44.97782601878632" lon="9.54250268761595"><ele>107.39999999999999</ele><time>2026-05-03T08:20:13.998Z</time></trkpt><trkpt lat="44.97794247431964" lon="9.54258421885832"><ele>107.19999999999999</ele><time>2026-05-03T08:20:15.998Z</time></trkpt><trkpt lat="44.97800065263766" lon="9.542620590540523"><ele>107.0</ele><time>2026-05-03T08:20:16.998Z</time></trkpt><trkpt lat="44.97811947300763" lon="9.542689579719628"><ele>106.99999999999999</ele><time>2026-05-03T08:20:18.998Z</time></trkpt><trkpt lat="44.9781802355537" lon="9.54272920754688"><ele>107.0</ele><time>2026-05-03T08:20:19.998Z</time></trkpt><trkpt lat="44.978243313643915" lon="9.54275237643359"><ele>107.0</ele><time>2026-05-03T08:20:20.998Z</time></trkpt><trkpt lat="44.97830507469169" lon="9.542779870325392"><ele>107.0</ele><time>2026-05-03T08:20:21.998Z</time></trkpt><trkpt lat="44.97836607163112" lon="9.542805620426964"><ele>106.99999999999999</ele><time>2026-05-03T08:20:22.998Z</time></trkpt><trkpt lat="44.97843020292589" lon="9.542824985990384"><ele>107.0</ele><time>2026-05-03T08:20:23.998Z</time></trkpt><trkpt lat="44.97855366978497" lon="9.542862536067355"><ele>106.99999999999999</ele><time>2026-05-03T08:20:25.998Z</time></trkpt><trkpt lat="44.97861897325751" lon="9.542881366430912"><ele>107.0</ele><time>2026-05-03T08:20:26.998Z</time></trkpt><trkpt lat="44.97869007490485" lon="9.542902204269803"><ele>107.0</ele><time>2026-05-03T08:20:27.998Z</time></trkpt><trkpt lat="44.97876077503964" lon="9.542898854455093"><ele>107.0</ele><time>2026-05-03T08:20:28.998Z</time></trkpt><trkpt lat="44.978878209716825" lon="9.542923095992055"><ele>106.99999999999999</ele><time>2026-05-03T08:20:30.998Z</time></trkpt><trkpt lat="44.97894366427018" lon="9.54293900240257"><ele>107.0</ele><time>2026-05-03T08:20:31.998Z</time></trkpt><trkpt lat="44.97906683326673" lon="9.542961175346994"><ele>106.8</ele><time>2026-05-03T08:20:33.998Z</time></trkpt><trkpt lat="44.97918849570351" lon="9.542986256120706"><ele>106.6</ele><time>2026-05-03T08:20:35.998Z</time></trkpt><trkpt lat="44.97925145504226" lon="9.542996892264183"><ele>106.39999999999999</ele><time>2026-05-03T08:20:36.998Z</time></trkpt><trkpt lat="44.97937172191684" lon="9.543028230501596"><ele>106.19999999999999</ele><time>2026-05-03T08:20:38.998Z</time></trkpt><trkpt lat="44.9794942249605" lon="9.543049555247215"><ele>106.0</ele><time>2026-05-03T08:20:40.998Z</time></trkpt><trkpt lat="44.97962225829691" lon="9.54306683929932"><ele>106.0</ele><time>2026-05-03T08:20:42.998Z</time></trkpt><trkpt lat="44.97973855696575" lon="9.54309334596361"><ele>106.0</ele><time>2026-05-03T08:20:44.998Z</time></trkpt><trkpt lat="44.97980410640009" lon="9.543105101491356"><ele>106.0</ele><time>2026-05-03T08:20:45.998Z</time></trkpt><trkpt lat="44.97986858943421" lon="9.543116302867203"><ele>106.0</ele><time>2026-05-03T08:20:46.998Z</time></trkpt><trkpt lat="44.97999439852178" lon="9.54314011278246"><ele>106.0</ele><time>2026-05-03T08:20:48.998Z</time></trkpt><trkpt lat="44.98011719276531" lon="9.543173045861218"><ele>105.83333333333334</ele><time>2026-05-03T08:20:50.998Z</time></trkpt><trkpt lat="44.98018095876287" lon="9.543184074063753"><ele>105.66666666666667</ele><time>2026-05-03T08:20:51.998Z</time></trkpt><trkpt lat="44.98024434881034" lon="9.543195044996121"><ele>105.5</ele><time>2026-05-03T08:20:52.998Z</time></trkpt><trkpt lat="44.9803078716451" lon="9.543207526577623"><ele>105.33333333333334</ele><time>2026-05-03T08:20:53.998Z</time></trkpt><trkpt lat="44.98037131894277" lon="9.543222305686493"><ele>105.16666666666667</ele><time>2026-05-03T08:20:54.998Z</time></trkpt><trkpt lat="44.98049662751909" lon="9.543249746626746"><ele>105.0</ele><time>2026-05-03T08:20:56.998Z</time></trkpt><trkpt lat="44.9806174364701" lon="9.543279705169978"><ele>105.0</ele><time>2026-05-03T08:20:58.998Z</time></trkpt><trkpt lat="44.98068279665825" lon="9.543300577951367"><ele>105.0</ele><time>2026-05-03T08:20:59.998Z</time></trkpt><trkpt lat="44.980748165269546" lon="9.543317542662995"><ele>105.0</ele><time>2026-05-03T08:21:00.998Z</time></trkpt><trkpt lat="44.980875857987506" lon="9.54334619786286"><ele>105.0</ele><time>2026-05-03T08:21:02.998Z</time></trkpt><trkpt lat="44.98100463847353" lon="9.543398053715546"><ele>105.0</ele><time>2026-05-03T08:21:04.998Z</time></trkpt><trkpt lat="44.98106899479072" lon="9.543415015189657"><ele>105.0</ele><time>2026-05-03T08:21:05.998Z</time></trkpt><trkpt lat="44.98119293003551" lon="9.543454411372363"><ele>105.0</ele><time>2026-05-03T08:21:07.998Z</time></trkpt><trkpt lat="44.98131976237529" lon="9.543507097777276"><ele>105.0</ele><time>2026-05-03T08:21:09.998Z</time></trkpt><trkpt lat="44.98138578042674" lon="9.543535315270187"><ele>105.0</ele><time>2026-05-03T08:21:10.998Z</time></trkpt><trkpt lat="44.981446922638845" lon="9.543560276505568"><ele>105.0</ele><time>2026-05-03T08:21:11.998Z</time></trkpt><trkpt lat="44.98151274496738" lon="9.543583563299656"><ele>105.0</ele><time>2026-05-03T08:21:12.998Z</time></trkpt><trkpt lat="44.9815755177568" lon="9.543607033757612"><ele>105.0</ele><time>2026-05-03T08:21:13.998Z</time></trkpt><trkpt lat="44.98163998513943" lon="9.543625536332549"><ele>105.0</ele><time>2026-05-03T08:21:14.998Z</time></trkpt><trkpt lat="44.98176436101417" lon="9.543681564731259"><ele>105.0</ele><time>2026-05-03T08:21:16.998Z</time></trkpt><trkpt lat="44.98183014325306" lon="9.543714743015617"><ele>105.0</ele><time>2026-05-03T08:21:17.998Z</time></trkpt><trkpt lat="44.98189648093372" lon="9.543735833048093"><ele>105.0</ele><time>2026-05-03T08:21:18.998Z</time></trkpt><trkpt lat="44.981965819635114" lon="9.543760529502329"><ele>104.71428571428571</ele><time>2026-05-03T08:21:19.998Z</time></trkpt><trkpt lat="44.982027159055576" lon="9.54379481006554"><ele>104.42857142857143</ele><time>2026-05-03T08:21:20.998Z</time></trkpt><trkpt lat="44.98208990300533" lon="9.543820050212744"><ele>104.14285714285714</ele><time>2026-05-03T08:21:21.998Z</time></trkpt><trkpt lat="44.98215475128298" lon="9.543846063188699"><ele>103.85714285714286</ele><time>2026-05-03T08:21:22.998Z</time></trkpt><trkpt lat="44.98222358250385" lon="9.543868821612813"><ele>103.57142857142857</ele><time>2026-05-03T08:21:23.998Z</time></trkpt><trkpt lat="44.9822876315652" lon="9.543891347292911"><ele>103.28571428571428</ele><time>2026-05-03T08:21:24.998Z</time></trkpt><trkpt lat="44.98235174025375" lon="9.543917177058862"><ele>103.0</ele><time>2026-05-03T08:21:25.998Z</time></trkpt><trkpt lat="44.98241503005016" lon="9.54394977792309"><ele>102.99999999999999</ele><time>2026-05-03T08:21:26.998Z</time></trkpt><trkpt lat="44.98247727046734" lon="9.543971989294274"><ele>103.0</ele><time>2026-05-03T08:21:27.998Z</time></trkpt><trkpt lat="44.982547419245655" lon="9.543995486039348"><ele>103.0</ele><time>2026-05-03T08:21:28.998Z</time></trkpt><trkpt lat="44.98261370334548" lon="9.544021376263181"><ele>103.0</ele><time>2026-05-03T08:21:29.998Z</time></trkpt><trkpt lat="44.982681328544736" lon="9.544048290230755"><ele>103.0</ele><time>2026-05-03T08:21:30.998Z</time></trkpt><trkpt lat="44.982748088632256" lon="9.544077513189233"><ele>102.99999999999999</ele><time>2026-05-03T08:21:31.998Z</time></trkpt><trkpt lat="44.982813695682644" lon="9.544101399687635"><ele>103.0</ele><time>2026-05-03T08:21:32.998Z</time></trkpt><trkpt lat="44.98287838089173" lon="9.544127319068034"><ele>102.83333333333334</ele><time>2026-05-03T08:21:33.998Z</time></trkpt><trkpt lat="44.98294052932009" lon="9.54415627962203"><ele>102.66666666666667</ele><time>2026-05-03T08:21:34.998Z</time></trkpt><trkpt lat="44.98305873341052" lon="9.544205665926143"><ele>102.5</ele><time>2026-05-03T08:21:36.999Z</time></trkpt><trkpt lat="44.9831241095754" lon="9.544235837410394"><ele>102.33333333333334</ele><time>2026-05-03T08:21:37.998Z</time></trkpt><trkpt lat="44.98318966365986" lon="9.544264343165313"><ele>102.16666666666667</ele><time>2026-05-03T08:21:38.998Z</time></trkpt><trkpt lat="44.98325395059169" lon="9.5442907643075"><ele>102.0</ele><time>2026-05-03T08:21:39.998Z</time></trkpt><trkpt lat="44.983316547803426" lon="9.544315140710879"><ele>101.83333333333333</ele><time>2026-05-03T08:21:40.998Z</time></trkpt><trkpt lat="44.9834387090219" lon="9.544364741860528"><ele>101.66666666666666</ele><time>2026-05-03T08:21:42.998Z</time></trkpt><trkpt lat="44.9834989220036" lon="9.544392930365746"><ele>101.5</ele><time>2026-05-03T08:21:43.998Z</time></trkpt><trkpt lat="44.98356018979329" lon="9.544414733909097"><ele>101.33333333333333</ele><time>2026-05-03T08:21:44.998Z</time></trkpt><trkpt lat="44.983623369788276" lon="9.544436250011273"><ele>101.16666666666666</ele><time>2026-05-03T08:21:45.998Z</time></trkpt><trkpt lat="44.98374219779267" lon="9.544467293622453"><ele>101.0</ele><time>2026-05-03T08:21:47.998Z</time></trkpt><trkpt lat="44.983807553193415" lon="9.544489718942158"><ele>100.99999999999999</ele><time>2026-05-03T08:21:48.998Z</time></trkpt><trkpt lat="44.9839265093785" lon="9.544509700214745"><ele>101.0</ele><time>2026-05-03T08:21:50.998Z</time></trkpt><trkpt lat="44.983991340235875" lon="9.544503003537505"><ele>101.0</ele><time>2026-05-03T08:21:51.998Z</time></trkpt><trkpt lat="44.98405421399448" lon="9.544493907711322"><ele>101.0</ele><time>2026-05-03T08:21:52.998Z</time></trkpt><trkpt lat="44.98411738427973" lon="9.544466652604129"><ele>100.99999999999999</ele><time>2026-05-03T08:21:53.998Z</time></trkpt><trkpt lat="44.9841808121312" lon="9.544445880313567"><ele>101.0</ele><time>2026-05-03T08:21:54.998Z</time></trkpt><trkpt lat="44.98424977788702" lon="9.544425459288957"><ele>100.6</ele><time>2026-05-03T08:21:55.998Z</time></trkpt><trkpt lat="44.984315492609596" lon="9.544402884034456"><ele>100.19999999999999</ele><time>2026-05-03T08:21:56.998Z</time></trkpt><trkpt lat="44.98437896793543" lon="9.544370392904261"><ele>99.80000000000001</ele><time>2026-05-03T08:21:57.998Z</time></trkpt><trkpt lat="44.98450440663357" lon="9.54432409329261"><ele>99.4</ele><time>2026-05-03T08:21:59.998Z</time></trkpt><trkpt lat="44.98456949181078" lon="9.54430879503962"><ele>99.0</ele><time>2026-05-03T08:22:00.998Z</time></trkpt><trkpt lat="44.984691025791165" lon="9.544262579877046"><ele>99.0</ele><time>2026-05-03T08:22:02.998Z</time></trkpt><trkpt lat="44.98475599213479" lon="9.544248749721438"><ele>99.0</ele><time>2026-05-03T08:22:03.998Z</time></trkpt><trkpt lat="44.98482239433312" lon="9.544228807154605"><ele>99.0</ele><time>2026-05-03T08:22:04.998Z</time></trkpt><trkpt lat="44.98488534093476" lon="9.544206851890138"><ele>99.0</ele><time>2026-05-03T08:22:05.998Z</time></trkpt><trkpt lat="44.98494792730902" lon="9.544180068299651"><ele>99.0</ele><time>2026-05-03T08:22:06.998Z</time></trkpt><trkpt lat="44.985071977582194" lon="9.544143781708641"><ele>99.0</ele><time>2026-05-03T08:22:08.998Z</time></trkpt><trkpt lat="44.98513544674213" lon="9.544125038508646"><ele>99.2</ele><time>2026-05-03T08:22:09.998Z</time></trkpt><trkpt lat="44.985198607536766" lon="9.544108387525938"><ele>99.4</ele><time>2026-05-03T08:22:10.998Z</time></trkpt><trkpt lat="44.985319730466415" lon="9.544068731553697"><ele>99.6</ele><time>2026-05-03T08:22:12.998Z</time></trkpt><trkpt lat="44.98538210414588" lon="9.544050623492124"><ele>99.8</ele><time>2026-05-03T08:22:13.998Z</time></trkpt><trkpt lat="44.985502813760675" lon="9.544013736188228"><ele>100.0</ele><time>2026-05-03T08:22:15.998Z</time></trkpt><trkpt lat="44.985617846259736" lon="9.543973424717622"><ele>100.0</ele><time>2026-05-03T08:22:17.998Z</time></trkpt><trkpt lat="44.98573293370322" lon="9.54393901453751"><ele>100.0</ele><time>2026-05-03T08:22:19.998Z</time></trkpt><trkpt lat="44.98579544263138" lon="9.543926469621535"><ele>100.0</ele><time>2026-05-03T08:22:20.998Z</time></trkpt><trkpt lat="44.98591255665449" lon="9.543889609139347"><ele>100.0</ele><time>2026-05-03T08:22:22.998Z</time></trkpt><trkpt lat="44.98602864787341" lon="9.54384867497864"><ele>100.0</ele><time>2026-05-03T08:22:24.998Z</time></trkpt><trkpt lat="44.98614370196359" lon="9.543811571640623"><ele>100.0</ele><time>2026-05-03T08:22:26.998Z</time></trkpt><trkpt lat="44.986262534066185" lon="9.543780335152656"><ele>100.0</ele><time>2026-05-03T08:22:28.998Z</time></trkpt><trkpt lat="44.986380723656445" lon="9.54374526461062"><ele>100.0</ele><time>2026-05-03T08:22:30.998Z</time></trkpt><trkpt lat="44.9864970650573" lon="9.543707842409304"><ele>100.0</ele><time>2026-05-03T08:22:32.997Z</time></trkpt><trkpt lat="44.98661345536026" lon="9.543672774791961"><ele>99.75</ele><time>2026-05-03T08:22:34.997Z</time></trkpt><trkpt lat="44.98673284164832" lon="9.543633261045692"><ele>99.5</ele><time>2026-05-03T08:22:36.997Z</time></trkpt><trkpt lat="44.98684830718951" lon="9.543604418276352"><ele>99.25</ele><time>2026-05-03T08:22:38.997Z</time></trkpt><trkpt lat="44.986965162774936" lon="9.543567039044545"><ele>99.0</ele><time>2026-05-03T08:22:40.997Z</time></trkpt><trkpt lat="44.98708666540278" lon="9.543537845056486"><ele>99.0</ele><time>2026-05-03T08:22:42.997Z</time></trkpt><trkpt lat="44.98719670060287" lon="9.54350496067473"><ele>99.0</ele><time>2026-05-03T08:22:44.997Z</time></trkpt><trkpt lat="44.98731312886226" lon="9.54346950322802"><ele>99.0</ele><time>2026-05-03T08:22:46.997Z</time></trkpt><trkpt lat="44.98743231946909" lon="9.543442599010795"><ele>99.0</ele><time>2026-05-03T08:22:48.997Z</time></trkpt><trkpt lat="44.98754492454881" lon="9.54340196927254"><ele>98.6</ele><time>2026-05-03T08:22:50.997Z</time></trkpt><trkpt lat="44.98765918441086" lon="9.543376403537675"><ele>98.2</ele><time>2026-05-03T08:22:52.997Z</time></trkpt><trkpt lat="44.9877707783374" lon="9.54334499341712"><ele>97.8</ele><time>2026-05-03T08:22:54.997Z</time></trkpt><trkpt lat="44.98786678619742" lon="9.543329553597424"><ele>97.39999999999999</ele><time>2026-05-03T08:22:56.997Z</time></trkpt><trkpt lat="44.9879304276009" lon="9.543300443570354"><ele>97.0</ele><time>2026-05-03T08:22:57.997Z</time></trkpt><trkpt lat="44.98803520674753" lon="9.54326715569701"><ele>97.0</ele><time>2026-05-03T08:22:59.997Z</time></trkpt><trkpt lat="44.98814541572307" lon="9.543235866255102"><ele>97.0</ele><time>2026-05-03T08:23:01.997Z</time></trkpt><trkpt lat="44.98826137995115" lon="9.543198211628617"><ele>97.0</ele><time>2026-05-03T08:23:03.997Z</time></trkpt><trkpt lat="44.988384270541616" lon="9.54315927000948"><ele>97.0</ele><time>2026-05-03T08:23:05.997Z</time></trkpt><trkpt lat="44.988498935133606" lon="9.543125571843408"><ele>97.19999999999999</ele><time>2026-05-03T08:23:07.997Z</time></trkpt><trkpt lat="44.988610072398366" lon="9.543074829987859"><ele>97.4</ele><time>2026-05-03T08:23:09.997Z</time></trkpt><trkpt lat="44.988738312163946" lon="9.543044178154412"><ele>97.6</ele><time>2026-05-03T08:23:11.997Z</time></trkpt><trkpt lat="44.98885796749796" lon="9.543014620809236"><ele>97.80000000000001</ele><time>2026-05-03T08:23:13.997Z</time></trkpt><trkpt lat="44.9889216008299" lon="9.542991912352745"><ele>98.0</ele><time>2026-05-03T08:23:14.997Z</time></trkpt><trkpt lat="44.98903472042791" lon="9.542954888947236"><ele>98.0</ele><time>2026-05-03T08:23:16.997Z</time></trkpt><trkpt lat="44.989148024777045" lon="9.542918852768882"><ele>98.0</ele><time>2026-05-03T08:23:18.997Z</time></trkpt><trkpt lat="44.98927121064877" lon="9.542902275246638"><ele>98.0</ele><time>2026-05-03T08:23:20.997Z</time></trkpt><trkpt lat="44.98933460144737" lon="9.542881339470053"><ele>98.0</ele><time>2026-05-03T08:23:21.997Z</time></trkpt><trkpt lat="44.98944224841341" lon="9.542866859487495"><ele>98.0</ele><time>2026-05-03T08:23:23.997Z</time></trkpt><trkpt lat="44.98956235678238" lon="9.542872592727381"><ele>98.0</ele><time>2026-05-03T08:23:25.997Z</time></trkpt><trkpt lat="44.989683375324866" lon="9.542909634666348"><ele>98.0</ele><time>2026-05-03T08:23:27.997Z</time></trkpt><trkpt lat="44.98979660443324" lon="9.542950839166094"><ele>98.0</ele><time>2026-05-03T08:23:29.997Z</time></trkpt><trkpt lat="44.989915982869675" lon="9.543006700386956"><ele>98.0</ele><time>2026-05-03T08:23:31.997Z</time></trkpt><trkpt lat="44.98997202381041" lon="9.54304746181499"><ele>98.0</ele><time>2026-05-03T08:23:32.997Z</time></trkpt><trkpt lat="44.99008141186186" lon="9.543111618754569"><ele>98.0</ele><time>2026-05-03T08:23:34.997Z</time></trkpt><trkpt lat="44.990142586469275" lon="9.543133869600137"><ele>98.0</ele><time>2026-05-03T08:23:35.997Z</time></trkpt><trkpt lat="44.99026528992559" lon="9.543203178984983"><ele>98.0</ele><time>2026-05-03T08:23:37.997Z</time></trkpt><trkpt lat="44.990326772685535" lon="9.543237837889126"><ele>98.0</ele><time>2026-05-03T08:23:38.997Z</time></trkpt><trkpt lat="44.990435447501376" lon="9.543302570740012"><ele>98.0</ele><time>2026-05-03T08:23:40.997Z</time></trkpt><trkpt lat="44.990537896063444" lon="9.543353086926587"><ele>98.0</ele><time>2026-05-03T08:23:42.998Z</time></trkpt><trkpt lat="44.99064923547128" lon="9.543407374413503"><ele>98.0</ele><time>2026-05-03T08:23:44.998Z</time></trkpt><trkpt lat="44.990757834976904" lon="9.543467686904794"><ele>98.0</ele><time>2026-05-03T08:23:46.998Z</time></trkpt><trkpt lat="44.99086737533364" lon="9.543527775702957"><ele>98.0</ele><time>2026-05-03T08:23:48.998Z</time></trkpt><trkpt lat="44.990978299164226" lon="9.543594477896548"><ele>97.0</ele><time>2026-05-03T08:23:50.998Z</time></trkpt><trkpt lat="44.991091608341435" lon="9.543656177996537"><ele>96.0</ele><time>2026-05-03T08:23:52.997Z</time></trkpt><trkpt lat="44.991201895300385" lon="9.54372140619582"><ele>95.0</ele><time>2026-05-03T08:23:54.998Z</time></trkpt><trkpt lat="44.99131355133904" lon="9.543783719950357"><ele>94.0</ele><time>2026-05-03T08:23:56.998Z</time></trkpt><trkpt lat="44.991427137183955" lon="9.543844437653481"><ele>94.0</ele><time>2026-05-03T08:23:58.998Z</time></trkpt><trkpt lat="44.99154664212252" lon="9.54390459714963"><ele>94.0</ele><time>2026-05-03T08:24:00.998Z</time></trkpt><trkpt lat="44.991667391312745" lon="9.543969577555902"><ele>94.0</ele><time>2026-05-03T08:24:02.998Z</time></trkpt><trkpt lat="44.991778931144445" lon="9.544036285229788"><ele>94.0</ele><time>2026-05-03T08:24:04.998Z</time></trkpt><trkpt lat="44.99189283426424" lon="9.544107198886891"><ele>94.4</ele><time>2026-05-03T08:24:06.998Z</time></trkpt><trkpt lat="44.99195153258856" lon="9.5441421761237"><ele>94.80000000000001</ele><time>2026-05-03T08:24:07.998Z</time></trkpt><trkpt lat="44.99206216937398" lon="9.544201572691124"><ele>95.19999999999999</ele><time>2026-05-03T08:24:09.998Z</time></trkpt><trkpt lat="44.992176743511145" lon="9.544274601373994"><ele>95.6</ele><time>2026-05-03T08:24:11.998Z</time></trkpt><trkpt lat="44.9922876155788" lon="9.544340160558095"><ele>96.0</ele><time>2026-05-03T08:24:13.998Z</time></trkpt><trkpt lat="44.99240119826443" lon="9.544402235946167"><ele>95.8</ele><time>2026-05-03T08:24:15.998Z</time></trkpt><trkpt lat="44.99251517753585" lon="9.544466470527663"><ele>95.6</ele><time>2026-05-03T08:24:17.998Z</time></trkpt><trkpt lat="44.99257306657095" lon="9.54450157853999"><ele>95.4</ele><time>2026-05-03T08:24:18.998Z</time></trkpt><trkpt lat="44.99268553226841" lon="9.544566472066608"><ele>95.2</ele><time>2026-05-03T08:24:20.998Z</time></trkpt><trkpt lat="44.99279647077732" lon="9.54463398034351"><ele>95.0</ele><time>2026-05-03T08:24:22.998Z</time></trkpt><trkpt lat="44.99290816309053" lon="9.544695997116024"><ele>94.8</ele><time>2026-05-03T08:24:24.998Z</time></trkpt><trkpt lat="44.99301571775409" lon="9.544763671148043"><ele>94.6</ele><time>2026-05-03T08:24:26.998Z</time></trkpt><trkpt lat="44.99307205813581" lon="9.5448044135547"><ele>94.4</ele><time>2026-05-03T08:24:27.998Z</time></trkpt><trkpt lat="44.99316995708374" lon="9.544882330371838"><ele>94.2</ele><time>2026-05-03T08:24:29.998Z</time></trkpt><trkpt lat="44.99327309075655" lon="9.544970759090319"><ele>94.0</ele><time>2026-05-03T08:24:31.998Z</time></trkpt><trkpt lat="44.9933714683591" lon="9.545071462467341"><ele>94.0</ele><time>2026-05-03T08:24:33.998Z</time></trkpt><trkpt lat="44.99347188569885" lon="9.545170589118127"><ele>94.0</ele><time>2026-05-03T08:24:35.998Z</time></trkpt><trkpt lat="44.99357991161474" lon="9.54525931777351"><ele>94.0</ele><time>2026-05-03T08:24:37.998Z</time></trkpt><trkpt lat="44.99363184830215" lon="9.545309887689754"><ele>94.0</ele><time>2026-05-03T08:24:38.998Z</time></trkpt><trkpt lat="44.993727238650656" lon="9.545407642735361"><ele>94.0</ele><time>2026-05-03T08:24:40.998Z</time></trkpt><trkpt lat="44.99382892299028" lon="9.545511449407819"><ele>93.80000000000001</ele><time>2026-05-03T08:24:42.998Z</time></trkpt><trkpt lat="44.993885289291015" lon="9.545559356966773"><ele>93.60000000000001</ele><time>2026-05-03T08:24:43.998Z</time></trkpt><trkpt lat="44.993937783962814" lon="9.545609691248991"><ele>93.4</ele><time>2026-05-03T08:24:44.998Z</time></trkpt><trkpt lat="44.99404741579107" lon="9.545710200058164"><ele>93.2</ele><time>2026-05-03T08:24:46.998Z</time></trkpt><trkpt lat="44.99415669811999" lon="9.545813875713877"><ele>93.0</ele><time>2026-05-03T08:24:48.998Z</time></trkpt><trkpt lat="44.994209500386496" lon="9.545865363918402"><ele>93.0</ele><time>2026-05-03T08:24:49.998Z</time></trkpt><trkpt lat="44.99426691076679" lon="9.54590994164805"><ele>93.0</ele><time>2026-05-03T08:24:50.998Z</time></trkpt><trkpt lat="44.994326356625734" lon="9.545956167982562"><ele>93.0</ele><time>2026-05-03T08:24:51.998Z</time></trkpt><trkpt lat="44.994432739756355" lon="9.546048683221516"><ele>93.0</ele><time>2026-05-03T08:24:53.998Z</time></trkpt><trkpt lat="44.994544114334964" lon="9.546121863480062"><ele>93.0</ele><time>2026-05-03T08:24:55.998Z</time></trkpt><trkpt lat="44.99460463118857" lon="9.546154718271673"><ele>93.0</ele><time>2026-05-03T08:24:56.998Z</time></trkpt><trkpt lat="44.99472189695629" lon="9.546195418046885"><ele>93.4</ele><time>2026-05-03T08:24:58.998Z</time></trkpt><trkpt lat="44.99484455639883" lon="9.546231299697123"><ele>93.80000000000001</ele><time>2026-05-03T08:25:00.998Z</time></trkpt><trkpt lat="44.99491120820804" lon="9.546253568943623"><ele>94.2</ele><time>2026-05-03T08:25:01.998Z</time></trkpt><trkpt lat="44.995034791866374" lon="9.546289730889185"><ele>94.6</ele><time>2026-05-03T08:25:03.998Z</time></trkpt><trkpt lat="44.995098880014496" lon="9.546316787862626"><ele>95.0</ele><time>2026-05-03T08:25:04.998Z</time></trkpt><trkpt lat="44.99522536983957" lon="9.546347684619297"><ele>94.2</ele><time>2026-05-03T08:25:06.998Z</time></trkpt><trkpt lat="44.99529059376887" lon="9.546368027711104"><ele>93.4</ele><time>2026-05-03T08:25:07.998Z</time></trkpt><trkpt lat="44.995352312006375" lon="9.546391420809412"><ele>92.6</ele><time>2026-05-03T08:25:08.998Z</time></trkpt><trkpt lat="44.99547253801322" lon="9.546427705387911"><ele>91.8</ele><time>2026-05-03T08:25:10.998Z</time></trkpt><trkpt lat="44.995603134938406" lon="9.546462067120503"><ele>91.0</ele><time>2026-05-03T08:25:12.998Z</time></trkpt><trkpt lat="44.9957156534403" lon="9.546498061619996"><ele>91.0</ele><time>2026-05-03T08:25:14.998Z</time></trkpt><trkpt lat="44.99577661582258" lon="9.546524348588115"><ele>91.0</ele><time>2026-05-03T08:25:15.998Z</time></trkpt><trkpt lat="44.99588908427901" lon="9.54655881092334"><ele>91.0</ele><time>2026-05-03T08:25:17.998Z</time></trkpt><trkpt lat="44.99600615715494" lon="9.546589267351584"><ele>91.0</ele><time>2026-05-03T08:25:19.998Z</time></trkpt><trkpt lat="44.996114886739285" lon="9.546625389866158"><ele>91.0</ele><time>2026-05-03T08:25:21.998Z</time></trkpt><trkpt lat="44.99621926787555" lon="9.546652489809542"><ele>91.25</ele><time>2026-05-03T08:25:23.998Z</time></trkpt><trkpt lat="44.996330038171" lon="9.546688088376841"><ele>91.5</ele><time>2026-05-03T08:25:25.998Z</time></trkpt><trkpt lat="44.99643813700698" lon="9.546726611606951"><ele>91.75</ele><time>2026-05-03T08:25:27.998Z</time></trkpt><trkpt lat="44.99655245948702" lon="9.54675895162143"><ele>92.0</ele><time>2026-05-03T08:25:29.998Z</time></trkpt><trkpt lat="44.99667092575122" lon="9.546808019685999"><ele>92.6</ele><time>2026-05-03T08:25:31.998Z</time></trkpt><trkpt lat="44.99678650388815" lon="9.546845759854742"><ele>93.19999999999999</ele><time>2026-05-03T08:25:33.998Z</time></trkpt><trkpt lat="44.9968478345704" lon="9.546867072810103"><ele>93.8</ele><time>2026-05-03T08:25:34.998Z</time></trkpt><trkpt lat="44.99696680931345" lon="9.546907653593449"><ele>94.4</ele><time>2026-05-03T08:25:36.998Z</time></trkpt><trkpt lat="44.997086315143974" lon="9.546939490199192"><ele>95.0</ele><time>2026-05-03T08:25:38.998Z</time></trkpt><trkpt lat="44.99720500921406" lon="9.546958784871189"><ele>95.0</ele><time>2026-05-03T08:25:40.998Z</time></trkpt><trkpt lat="44.997271706047265" lon="9.546964891443299"><ele>95.0</ele><time>2026-05-03T08:25:41.998Z</time></trkpt><trkpt lat="44.997326928165194" lon="9.547008237665365"><ele>95.0</ele><time>2026-05-03T08:25:42.998Z</time></trkpt><trkpt lat="44.997438015548774" lon="9.54705583257444"><ele>95.0</ele><time>2026-05-03T08:25:44.998Z</time></trkpt><trkpt lat="44.99754802388825" lon="9.547092790030232"><ele>95.0</ele><time>2026-05-03T08:25:46.998Z</time></trkpt><trkpt lat="44.99765123026864" lon="9.547103229885526"><ele>94.25</ele><time>2026-05-03T08:25:48.997Z</time></trkpt><trkpt lat="44.99775607305441" lon="9.547110800115817"><ele>93.5</ele><time>2026-05-03T08:25:50.998Z</time></trkpt><trkpt lat="44.99787800458504" lon="9.547113147368654"><ele>92.75</ele><time>2026-05-03T08:25:52.997Z</time></trkpt><trkpt lat="44.998008162662195" lon="9.547084313461392"><ele>92.0</ele><time>2026-05-03T08:25:54.998Z</time></trkpt><trkpt lat="44.99813076353341" lon="9.547038937815437"><ele>92.0</ele><time>2026-05-03T08:25:56.997Z</time></trkpt><trkpt lat="44.998192788581406" lon="9.547013396674986"><ele>92.0</ele><time>2026-05-03T08:25:57.998Z</time></trkpt><trkpt lat="44.9983003994628" lon="9.546986811164706"><ele>92.0</ele><time>2026-05-03T08:25:59.998Z</time></trkpt><trkpt lat="44.99836606682408" lon="9.54697855975322"><ele>92.0</ele><time>2026-05-03T08:26:00.997Z</time></trkpt><trkpt lat="44.998433030083596" lon="9.546975227227996"><ele>92.0</ele><time>2026-05-03T08:26:01.998Z</time></trkpt><trkpt lat="44.99850854867931" lon="9.546967872445379"><ele>92.0</ele><time>2026-05-03T08:26:02.998Z</time></trkpt><trkpt lat="44.998629910669635" lon="9.54694302229053"><ele>91.66666666666667</ele><time>2026-05-03T08:26:04.998Z</time></trkpt><trkpt lat="44.99875361650127" lon="9.546935788950607"><ele>91.33333333333334</ele><time>2026-05-03T08:26:06.998Z</time></trkpt><trkpt lat="44.998817202779406" lon="9.546930611128408"><ele>91.0</ele><time>2026-05-03T08:26:07.998Z</time></trkpt><trkpt lat="44.9988820214555" lon="9.54691622502111"><ele>90.66666666666667</ele><time>2026-05-03T08:26:08.998Z</time></trkpt><trkpt lat="44.9990073772712" lon="9.546888520658719"><ele>90.33333333333333</ele><time>2026-05-03T08:26:10.998Z</time></trkpt><trkpt lat="44.99907231212974" lon="9.546876086009481"><ele>90.0</ele><time>2026-05-03T08:26:11.998Z</time></trkpt><trkpt lat="44.99919707416852" lon="9.546852239964842"><ele>90.0</ele><time>2026-05-03T08:26:13.998Z</time></trkpt><trkpt lat="44.99932841662351" lon="9.546828185570737"><ele>90.0</ele><time>2026-05-03T08:26:15.998Z</time></trkpt><trkpt lat="44.99939192673369" lon="9.546816256219335"><ele>90.0</ele><time>2026-05-03T08:26:16.998Z</time></trkpt><trkpt lat="44.99945634448886" lon="9.546799986367102"><ele>90.0</ele><time>2026-05-03T08:26:17.998Z</time></trkpt><trkpt lat="44.99957241693695" lon="9.54678598700756"><ele>90.0</ele><time>2026-05-03T08:26:19.998Z</time></trkpt><trkpt lat="44.99963976730795" lon="9.546778782007326"><ele>90.0</ele><time>2026-05-03T08:26:20.998Z</time></trkpt><trkpt lat="44.99970335335078" lon="9.546765125351234"><ele>90.0</ele><time>2026-05-03T08:26:21.998Z</time></trkpt><trkpt lat="44.999766532400436" lon="9.546749587467925"><ele>90.0</ele><time>2026-05-03T08:26:22.998Z</time></trkpt><trkpt lat="44.999893841774" lon="9.54673056820518"><ele>90.0</ele><time>2026-05-03T08:26:24.998Z</time></trkpt><trkpt lat="44.99995668499944" lon="9.546713779206835"><ele>90.0</ele><time>2026-05-03T08:26:25.998Z</time></trkpt><trkpt lat="45.00008198179724" lon="9.54669577671763"><ele>90.0</ele><time>2026-05-03T08:26:27.998Z</time></trkpt><trkpt lat="45.000205407826506" lon="9.54667245234717"><ele>90.0</ele><time>2026-05-03T08:26:29.998Z</time></trkpt><trkpt lat="45.000329976880145" lon="9.546652171227331"><ele>90.0</ele><time>2026-05-03T08:26:31.998Z</time></trkpt><trkpt lat="45.000395507864596" lon="9.54663342741843"><ele>90.0</ele><time>2026-05-03T08:26:32.998Z</time></trkpt><trkpt lat="45.00052011478293" lon="9.54661053383157"><ele>90.0</ele><time>2026-05-03T08:26:34.998Z</time></trkpt><trkpt lat="45.00058695675752" lon="9.546596563032448"><ele>90.0</ele><time>2026-05-03T08:26:35.998Z</time></trkpt><trkpt lat="45.00071192814102" lon="9.546582759364645"><ele>90.0</ele><time>2026-05-03T08:26:37.998Z</time></trkpt><trkpt lat="45.00077923792244" lon="9.546563857886701"><ele>90.0</ele><time>2026-05-03T08:26:38.998Z</time></trkpt><trkpt lat="45.0008483363238" lon="9.546556455271574"><ele>90.0</ele><time>2026-05-03T08:26:39.998Z</time></trkpt><trkpt lat="45.00091393589327" lon="9.54654338459952"><ele>90.0</ele><time>2026-05-03T08:26:40.998Z</time></trkpt><trkpt lat="45.00098012736369" lon="9.546535472345166"><ele>90.0</ele><time>2026-05-03T08:26:41.998Z</time></trkpt><trkpt lat="45.001044350320726" lon="9.546537028570583"><ele>90.0</ele><time>2026-05-03T08:26:42.998Z</time></trkpt><trkpt lat="45.001166848906074" lon="9.546521653735676"><ele>89.75</ele><time>2026-05-03T08:26:44.998Z</time></trkpt><trkpt lat="45.00129175885167" lon="9.546500019261646"><ele>89.5</ele><time>2026-05-03T08:26:46.998Z</time></trkpt><trkpt lat="45.001413472356134" lon="9.54649281148061"><ele>89.25</ele><time>2026-05-03T08:26:48.998Z</time></trkpt><trkpt lat="45.00154285542362" lon="9.546470796054402"><ele>89.0</ele><time>2026-05-03T08:26:50.998Z</time></trkpt><trkpt lat="45.00166375091435" lon="9.546435680811555"><ele>89.0</ele><time>2026-05-03T08:26:52.998Z</time></trkpt><trkpt lat="45.00177749361636" lon="9.546410837076706"><ele>89.0</ele><time>2026-05-03T08:26:54.998Z</time></trkpt><trkpt lat="45.00189093495591" lon="9.546384082147942"><ele>89.0</ele><time>2026-05-03T08:26:56.998Z</time></trkpt><trkpt lat="45.00200991892553" lon="9.54636129418081"><ele>89.0</ele><time>2026-05-03T08:26:58.998Z</time></trkpt><trkpt lat="45.002124075081326" lon="9.546338000845878"><ele>89.0</ele><time>2026-05-03T08:27:00.998Z</time></trkpt><trkpt lat="45.00223483120028" lon="9.546324484774763"><ele>89.0</ele><time>2026-05-03T08:27:02.998Z</time></trkpt><trkpt lat="45.002342429024765" lon="9.546302569193601"><ele>89.0</ele><time>2026-05-03T08:27:04.998Z</time></trkpt><trkpt lat="45.00245661292098" lon="9.546288346967179"><ele>89.0</ele><time>2026-05-03T08:27:06.998Z</time></trkpt><trkpt lat="45.002573738089986" lon="9.546264209642706"><ele>88.4</ele><time>2026-05-03T08:27:08.998Z</time></trkpt><trkpt lat="45.00267953379479" lon="9.546232207778921"><ele>87.80000000000001</ele><time>2026-05-03T08:27:10.998Z</time></trkpt><trkpt lat="45.00277469507413" lon="9.54622613271121"><ele>87.19999999999999</ele><time>2026-05-03T08:27:12.998Z</time></trkpt><trkpt lat="45.002871523839254" lon="9.546210970679677"><ele>86.6</ele><time>2026-05-03T08:27:14.998Z</time></trkpt><trkpt lat="45.002966800605726" lon="9.546200790520608"><ele>86.0</ele><time>2026-05-03T08:27:16.998Z</time></trkpt><trkpt lat="45.00304827158097" lon="9.54620303576802"><ele>86.0</ele><time>2026-05-03T08:27:19.998Z</time></trkpt><trkpt lat="45.00312971680284" lon="9.546200593876295"><ele>86.0</ele><time>2026-05-03T08:27:21.998Z</time></trkpt><trkpt lat="45.0032394680491" lon="9.54618651316911"><ele>86.0</ele><time>2026-05-03T08:27:23.998Z</time></trkpt><trkpt lat="45.00335819465452" lon="9.546179091486346"><ele>86.0</ele><time>2026-05-03T08:27:25.998Z</time></trkpt><trkpt lat="45.003475100834" lon="9.546181048635725"><ele>86.0</ele><time>2026-05-03T08:27:27.998Z</time></trkpt><trkpt lat="45.003594922627" lon="9.54617949801463"><ele>85.8</ele><time>2026-05-03T08:27:29.998Z</time></trkpt><trkpt lat="45.00372097961612" lon="9.546179502987176"><ele>85.6</ele><time>2026-05-03T08:27:31.998Z</time></trkpt><trkpt lat="45.003787459875554" lon="9.546179403549814"><ele>85.4</ele><time>2026-05-03T08:27:32.998Z</time></trkpt><trkpt lat="45.00391194498721" lon="9.546184388853435"><ele>85.2</ele><time>2026-05-03T08:27:34.998Z</time></trkpt><trkpt lat="45.003979566502885" lon="9.546180022536607"><ele>85.0</ele><time>2026-05-03T08:27:35.997Z</time></trkpt><trkpt lat="45.00410324963304" lon="9.546183598402061"><ele>84.66666666666666</ele><time>2026-05-03T08:27:37.997Z</time></trkpt><trkpt lat="45.00417076858863" lon="9.546180988981025"><ele>84.33333333333333</ele><time>2026-05-03T08:27:38.997Z</time></trkpt><trkpt lat="45.004296461968956" lon="9.546175253788531"><ele>84.0</ele><time>2026-05-03T08:27:40.997Z</time></trkpt><trkpt lat="45.00436036859099" lon="9.546171578830563"><ele>83.66666666666667</ele><time>2026-05-03T08:27:41.997Z</time></trkpt><trkpt lat="45.00442489166047" lon="9.546175676449423"><ele>83.33333333333334</ele><time>2026-05-03T08:27:42.997Z</time></trkpt><trkpt lat="45.00448784992121" lon="9.546174873197211"><ele>83.0</ele><time>2026-05-03T08:27:43.997Z</time></trkpt><trkpt lat="45.004613154808695" lon="9.546170754680098"><ele>83.0</ele><time>2026-05-03T08:27:45.997Z</time></trkpt><trkpt lat="45.004736249273165" lon="9.546170392690453"><ele>83.0</ele><time>2026-05-03T08:27:47.997Z</time></trkpt><trkpt lat="45.00479991390741" lon="9.546174031154623"><ele>83.0</ele><time>2026-05-03T08:27:48.997Z</time></trkpt><trkpt lat="45.00486317068436" lon="9.546172275829285"><ele>83.0</ele><time>2026-05-03T08:27:49.997Z</time></trkpt><trkpt lat="45.00492636248956" lon="9.546168777070116"><ele>83.0</ele><time>2026-05-03T08:27:50.997Z</time></trkpt><trkpt lat="45.00504854884489" lon="9.546169065315773"><ele>83.0</ele><time>2026-05-03T08:27:52.997Z</time></trkpt><trkpt lat="45.00517373753305" lon="9.546167087162672"><ele>82.80000000000001</ele><time>2026-05-03T08:27:54.998Z</time></trkpt><trkpt lat="45.005296166542124" lon="9.546163284246793"><ele>82.6</ele><time>2026-05-03T08:27:56.997Z</time></trkpt><trkpt lat="45.00535988482976" lon="9.546158385784905"><ele>82.4</ele><time>2026-05-03T08:27:57.998Z</time></trkpt><trkpt lat="45.00549016695576" lon="9.546160333268503"><ele>82.19999999999999</ele><time>2026-05-03T08:27:59.998Z</time></trkpt><trkpt lat="45.00556288046966" lon="9.546159413515543"><ele>82.0</ele><time>2026-05-03T08:28:00.997Z</time></trkpt><trkpt lat="45.005634654038026" lon="9.546160145150637"><ele>81.99999999999999</ele><time>2026-05-03T08:28:01.997Z</time></trkpt><trkpt lat="45.00570436121978" lon="9.546167804624092"><ele>82.0</ele><time>2026-05-03T08:28:02.997Z</time></trkpt><trkpt lat="45.00577415114796" lon="9.546168479210758"><ele>82.0</ele><time>2026-05-03T08:28:03.997Z</time></trkpt><trkpt lat="45.00584626097715" lon="9.546171032668356"><ele>82.0</ele><time>2026-05-03T08:28:04.998Z</time></trkpt><trkpt lat="45.00590993568929" lon="9.546167719211583"><ele>82.0</ele><time>2026-05-03T08:28:05.998Z</time></trkpt><trkpt lat="45.005979190575204" lon="9.546170298724192"><ele>81.99999999999999</ele><time>2026-05-03T08:28:06.998Z</time></trkpt><trkpt lat="45.00604497190089" lon="9.546166691280625"><ele>82.0</ele><time>2026-05-03T08:28:07.998Z</time></trkpt><trkpt lat="45.00611481912755" lon="9.54616886212816"><ele>82.33333333333333</ele><time>2026-05-03T08:28:08.998Z</time></trkpt><trkpt lat="45.006184641372826" lon="9.546167008292176"><ele>82.66666666666666</ele><time>2026-05-03T08:28:09.998Z</time></trkpt><trkpt lat="45.00625252698971" lon="9.546165667804019"><ele>83.0</ele><time>2026-05-03T08:28:10.998Z</time></trkpt><trkpt lat="45.006322088712636" lon="9.546166981075125"><ele>83.33333333333333</ele><time>2026-05-03T08:28:11.998Z</time></trkpt><trkpt lat="45.00645130269796" lon="9.54616196424455"><ele>83.66666666666667</ele><time>2026-05-03T08:28:13.998Z</time></trkpt><trkpt lat="45.006518124284" lon="9.546161080606051"><ele>84.0</ele><time>2026-05-03T08:28:14.998Z</time></trkpt><trkpt lat="45.006587655094634" lon="9.546161983196052"><ele>84.0</ele><time>2026-05-03T08:28:15.998Z</time></trkpt><trkpt lat="45.006652328976" lon="9.546167065641978"><ele>84.0</ele><time>2026-05-03T08:28:16.998Z</time></trkpt><trkpt lat="45.00677580138373" lon="9.546164902153183"><ele>84.0</ele><time>2026-05-03T08:28:18.998Z</time></trkpt><trkpt lat="45.00683916613682" lon="9.546166855350402"><ele>84.0</ele><time>2026-05-03T08:28:19.998Z</time></trkpt><trkpt lat="45.006902584825674" lon="9.546167589956644"><ele>84.0</ele><time>2026-05-03T08:28:20.998Z</time></trkpt><trkpt lat="45.00702756486577" lon="9.546160919899936"><ele>84.0</ele><time>2026-05-03T08:28:22.998Z</time></trkpt><trkpt lat="45.007092128948635" lon="9.546158980894283"><ele>83.5</ele><time>2026-05-03T08:28:23.998Z</time></trkpt><trkpt lat="45.00715685557374" lon="9.546156463572538"><ele>83.0</ele><time>2026-05-03T08:28:24.998Z</time></trkpt><trkpt lat="45.00728512929426" lon="9.546157474256768"><ele>82.5</ele><time>2026-05-03T08:28:26.998Z</time></trkpt><trkpt lat="45.0073539479498" lon="9.546163437818281"><ele>82.0</ele><time>2026-05-03T08:28:27.998Z</time></trkpt><trkpt lat="45.007417859586354" lon="9.5461635721933"><ele>81.5</ele><time>2026-05-03T08:28:28.998Z</time></trkpt><trkpt lat="45.00748256710505" lon="9.54615971761762"><ele>81.0</ele><time>2026-05-03T08:28:29.998Z</time></trkpt><trkpt lat="45.007548022441796" lon="9.546161377274176"><ele>81.0</ele><time>2026-05-03T08:28:30.998Z</time></trkpt><trkpt lat="45.007616202901694" lon="9.54615778382871"><ele>81.0</ele><time>2026-05-03T08:28:31.998Z</time></trkpt><trkpt lat="45.00768108821396" lon="9.546160280952964"><ele>81.0</ele><time>2026-05-03T08:28:32.998Z</time></trkpt><trkpt lat="45.007744705382684" lon="9.546160465649175"><ele>81.0</ele><time>2026-05-03T08:28:33.998Z</time></trkpt><trkpt lat="45.007811846242674" lon="9.546170367785045"><ele>81.0</ele><time>2026-05-03T08:28:34.998Z</time></trkpt><trkpt lat="45.00794236049724" lon="9.546169389345359"><ele>81.0</ele><time>2026-05-03T08:28:36.998Z</time></trkpt><trkpt lat="45.008010661341395" lon="9.546171665100731"><ele>81.0</ele><time>2026-05-03T08:28:37.998Z</time></trkpt><trkpt lat="45.00813893597658" lon="9.546186215317041"><ele>81.0</ele><time>2026-05-03T08:28:39.998Z</time></trkpt><trkpt lat="45.00820823294185" lon="9.546197204818718"><ele>81.0</ele><time>2026-05-03T08:28:40.998Z</time></trkpt><trkpt lat="45.0082716172467" lon="9.546196763521332"><ele>81.0</ele><time>2026-05-03T08:28:41.998Z</time></trkpt><trkpt lat="45.00833721470548" lon="9.546197548486845"><ele>81.0</ele><time>2026-05-03T08:28:42.998Z</time></trkpt><trkpt lat="45.00840357244034" lon="9.546207230716588"><ele>81.0</ele><time>2026-05-03T08:28:43.998Z</time></trkpt><trkpt lat="45.008469603222515" lon="9.546212450598366"><ele>81.0</ele><time>2026-05-03T08:28:44.998Z</time></trkpt><trkpt lat="45.00853363356356" lon="9.546211472889487"><ele>81.0</ele><time>2026-05-03T08:28:45.998Z</time></trkpt><trkpt lat="45.00859814149657" lon="9.546218433594198"><ele>81.0</ele><time>2026-05-03T08:28:46.998Z</time></trkpt><trkpt lat="45.00872217697738" lon="9.546227566339963"><ele>81.0</ele><time>2026-05-03T08:28:48.998Z</time></trkpt><trkpt lat="45.00878763574805" lon="9.546230420928094"><ele>81.0</ele><time>2026-05-03T08:28:49.998Z</time></trkpt><trkpt lat="45.00891332902291" lon="9.546242539053855"><ele>81.0</ele><time>2026-05-03T08:28:51.998Z</time></trkpt><trkpt lat="45.00904107340986" lon="9.546251191089855"><ele>80.8</ele><time>2026-05-03T08:28:53.998Z</time></trkpt><trkpt lat="45.009164784177344" lon="9.546254451463058"><ele>80.6</ele><time>2026-05-03T08:28:55.998Z</time></trkpt><trkpt lat="45.00929130398341" lon="9.546265221385926"><ele>80.4</ele><time>2026-05-03T08:28:57.998Z</time></trkpt><trkpt lat="45.009415699108246" lon="9.546267375855304"><ele>80.2</ele><time>2026-05-03T08:28:59.998Z</time></trkpt><trkpt lat="45.00948387765933" lon="9.546276446161457"><ele>80.0</ele><time>2026-05-03T08:29:00.998Z</time></trkpt><trkpt lat="45.00960926607008" lon="9.54628059353937"><ele>80.0</ele><time>2026-05-03T08:29:02.998Z</time></trkpt><trkpt lat="45.00974009598718" lon="9.54629047294196"><ele>80.0</ele><time>2026-05-03T08:29:04.998Z</time></trkpt><trkpt lat="45.00986473748486" lon="9.546300684213453"><ele>80.0</ele><time>2026-05-03T08:29:06.998Z</time></trkpt><trkpt lat="45.00993125319499" lon="9.546303252321955"><ele>80.0</ele><time>2026-05-03T08:29:07.998Z</time></trkpt><trkpt lat="45.0099955828362" lon="9.546303878371122"><ele>80.0</ele><time>2026-05-03T08:29:08.998Z</time></trkpt><trkpt lat="45.01012558987495" lon="9.54631626571712"><ele>79.66666666666667</ele><time>2026-05-03T08:29:10.998Z</time></trkpt><trkpt lat="45.0101885620289" lon="9.546320372202576"><ele>79.33333333333334</ele><time>2026-05-03T08:29:11.998Z</time></trkpt><trkpt lat="45.010255704889545" lon="9.546324786706707"><ele>79.0</ele><time>2026-05-03T08:29:12.998Z</time></trkpt><trkpt lat="45.010321104146016" lon="9.546329362766743"><ele>78.66666666666667</ele><time>2026-05-03T08:29:13.998Z</time></trkpt><trkpt lat="45.01038482470183" lon="9.546332035269675"><ele>78.33333333333333</ele><time>2026-05-03T08:29:14.998Z</time></trkpt><trkpt lat="45.01051147021008" lon="9.546336627784667"><ele>78.0</ele><time>2026-05-03T08:29:16.998Z</time></trkpt><trkpt lat="45.01057507110336" lon="9.546345796766355"><ele>78.0</ele><time>2026-05-03T08:29:17.998Z</time></trkpt><trkpt lat="45.01064448128804" lon="9.54635626258382"><ele>78.0</ele><time>2026-05-03T08:29:18.998Z</time></trkpt><trkpt lat="45.01076486443098" lon="9.546361096942219"><ele>78.0</ele><time>2026-05-03T08:29:20.998Z</time></trkpt><trkpt lat="45.01083166169481" lon="9.546360183043976"><ele>78.0</ele><time>2026-05-03T08:29:21.998Z</time></trkpt><trkpt lat="45.0108956706165" lon="9.546365098276244"><ele>78.0</ele><time>2026-05-03T08:29:22.998Z</time></trkpt><trkpt lat="45.01102340383572" lon="9.54637493812597"><ele>78.0</ele><time>2026-05-03T08:29:24.998Z</time></trkpt><trkpt lat="45.011149642450405" lon="9.546382816014088"><ele>78.2</ele><time>2026-05-03T08:29:26.998Z</time></trkpt><trkpt lat="45.011274619878385" lon="9.546390982253538"><ele>78.4</ele><time>2026-05-03T08:29:28.998Z</time></trkpt><trkpt lat="45.01140295837107" lon="9.546400197569954"><ele>78.60000000000001</ele><time>2026-05-03T08:29:30.998Z</time></trkpt><trkpt lat="45.011521178432844" lon="9.546400410799974"><ele>78.8</ele><time>2026-05-03T08:29:32.998Z</time></trkpt><trkpt lat="45.01158585098161" lon="9.546405924680638"><ele>79.0</ele><time>2026-05-03T08:29:33.998Z</time></trkpt><trkpt lat="45.011651027376026" lon="9.546409874041604"><ele>78.60000000000001</ele><time>2026-05-03T08:29:34.997Z</time></trkpt><trkpt lat="45.011775038925606" lon="9.546416405433275"><ele>78.2</ele><time>2026-05-03T08:29:36.997Z</time></trkpt><trkpt lat="45.011901345267525" lon="9.546427288771795"><ele>77.80000000000001</ele><time>2026-05-03T08:29:38.997Z</time></trkpt><trkpt lat="45.012022995800635" lon="9.546435726805242"><ele>77.4</ele><time>2026-05-03T08:29:40.997Z</time></trkpt><trkpt lat="45.0120862152637" lon="9.546437955634747"><ele>77.0</ele><time>2026-05-03T08:29:41.997Z</time></trkpt><trkpt lat="45.01214920691979" lon="9.546441043065494"><ele>77.0</ele><time>2026-05-03T08:29:42.997Z</time></trkpt><trkpt lat="45.0122727284523" lon="9.546446943689721"><ele>77.0</ele><time>2026-05-03T08:29:44.997Z</time></trkpt><trkpt lat="45.012336706359875" lon="9.546454587338385"><ele>77.0</ele><time>2026-05-03T08:29:45.997Z</time></trkpt><trkpt lat="45.01240172103161" lon="9.54645915055333"><ele>77.0</ele><time>2026-05-03T08:29:46.997Z</time></trkpt><trkpt lat="45.012467249029136" lon="9.546462640703918"><ele>77.0</ele><time>2026-05-03T08:29:47.997Z</time></trkpt><trkpt lat="45.012592618984364" lon="9.546459243873002"><ele>77.0</ele><time>2026-05-03T08:29:49.997Z</time></trkpt><trkpt lat="45.01265784938206" lon="9.546453673307129"><ele>77.2</ele><time>2026-05-03T08:29:50.997Z</time></trkpt><trkpt lat="45.012783372580174" lon="9.546449097675113"><ele>77.4</ele><time>2026-05-03T08:29:52.997Z</time></trkpt><trkpt lat="45.0128507718476" lon="9.546452282091211"><ele>77.6</ele><time>2026-05-03T08:29:53.997Z</time></trkpt><trkpt lat="45.01297545223176" lon="9.546444278169819"><ele>77.8</ele><time>2026-05-03T08:29:55.997Z</time></trkpt><trkpt lat="45.01303841871289" lon="9.546444286781586"><ele>78.0</ele><time>2026-05-03T08:29:56.997Z</time></trkpt><trkpt lat="45.013162750776665" lon="9.546444053109932"><ele>78.0</ele><time>2026-05-03T08:29:58.997Z</time></trkpt><trkpt lat="45.013225842675716" lon="9.546442429414784"><ele>78.0</ele><time>2026-05-03T08:29:59.997Z</time></trkpt><trkpt lat="45.01328888359806" lon="9.54644093082251"><ele>78.0</ele><time>2026-05-03T08:30:00.997Z</time></trkpt><trkpt lat="45.01335198526484" lon="9.546434691676165"><ele>78.0</ele><time>2026-05-03T08:30:01.997Z</time></trkpt><trkpt lat="45.01347625181073" lon="9.546437497998955"><ele>78.0</ele><time>2026-05-03T08:30:03.997Z</time></trkpt><trkpt lat="45.01360521124319" lon="9.546435641425449"><ele>78.0</ele><time>2026-05-03T08:30:05.997Z</time></trkpt><trkpt lat="45.01373093102917" lon="9.546433491473794"><ele>78.16666666666667</ele><time>2026-05-03T08:30:07.997Z</time></trkpt><trkpt lat="45.01385859971207" lon="9.54642512062145"><ele>78.33333333333333</ele><time>2026-05-03T08:30:09.997Z</time></trkpt><trkpt lat="45.01398329014595" lon="9.546419495168253"><ele>78.5</ele><time>2026-05-03T08:30:11.997Z</time></trkpt><trkpt lat="45.01404912630339" lon="9.546420099020077"><ele>78.66666666666666</ele><time>2026-05-03T08:30:12.997Z</time></trkpt><trkpt lat="45.01411450106024" lon="9.546419725361988"><ele>78.83333333333333</ele><time>2026-05-03T08:30:13.997Z</time></trkpt><trkpt lat="45.014177501632865" lon="9.546416458326885"><ele>79.0</ele><time>2026-05-03T08:30:14.997Z</time></trkpt><trkpt lat="45.014241383306604" lon="9.546412669148049"><ele>78.66666666666666</ele><time>2026-05-03T08:30:15.997Z</time></trkpt><trkpt lat="45.01430617583374" lon="9.546411727892941"><ele>78.33333333333333</ele><time>2026-05-03T08:30:16.997Z</time></trkpt><trkpt lat="45.014373558985426" lon="9.546411603621111"><ele>78.0</ele><time>2026-05-03T08:30:17.997Z</time></trkpt><trkpt lat="45.01450425749255" lon="9.546408256959015"><ele>77.66666666666667</ele><time>2026-05-03T08:30:19.997Z</time></trkpt><trkpt lat="45.014572609979275" lon="9.546407222419584"><ele>77.33333333333334</ele><time>2026-05-03T08:30:20.997Z</time></trkpt><trkpt lat="45.014637093735274" lon="9.546403919431366"><ele>77.0</ele><time>2026-05-03T08:30:21.997Z</time></trkpt><trkpt lat="45.01470263525038" lon="9.546396412053996"><ele>77.0</ele><time>2026-05-03T08:30:22.997Z</time></trkpt><trkpt lat="45.014771204564795" lon="9.54639465095604"><ele>77.0</ele><time>2026-05-03T08:30:23.997Z</time></trkpt><trkpt lat="45.01483622651096" lon="9.546390669458738"><ele>77.0</ele><time>2026-05-03T08:30:24.997Z</time></trkpt><trkpt lat="45.014901568144204" lon="9.546385801864366"><ele>77.0</ele><time>2026-05-03T08:30:25.997Z</time></trkpt><trkpt lat="45.01496576407218" lon="9.54638759624515"><ele>77.0</ele><time>2026-05-03T08:30:26.997Z</time></trkpt><trkpt lat="45.015031617189706" lon="9.54638393052204"><ele>77.0</ele><time>2026-05-03T08:30:27.997Z</time></trkpt><trkpt lat="45.015097593275414" lon="9.546380281276013"><ele>77.0</ele><time>2026-05-03T08:30:28.997Z</time></trkpt><trkpt lat="45.01516137455949" lon="9.5463775655888"><ele>76.8</ele><time>2026-05-03T08:30:29.997Z</time></trkpt><trkpt lat="45.01522667547495" lon="9.546373438909086"><ele>76.6</ele><time>2026-05-03T08:30:30.997Z</time></trkpt><trkpt lat="45.01528983278888" lon="9.546370947346373"><ele>76.39999999999999</ele><time>2026-05-03T08:30:31.997Z</time></trkpt><trkpt lat="45.015419108962156" lon="9.54636846952414"><ele>76.2</ele><time>2026-05-03T08:30:33.997Z</time></trkpt><trkpt lat="45.015535511902065" lon="9.546360774233916"><ele>76.0</ele><time>2026-05-03T08:30:35.997Z</time></trkpt><trkpt lat="45.01564594951423" lon="9.546355554361167"><ele>76.0</ele><time>2026-05-03T08:30:37.997Z</time></trkpt><trkpt lat="45.0157479869053" lon="9.546352310385226"><ele>76.0</ele><time>2026-05-03T08:30:39.997Z</time></trkpt><trkpt lat="45.0158332997469" lon="9.546346841049848"><ele>76.0</ele><time>2026-05-03T08:30:41.997Z</time></trkpt><trkpt lat="45.015912459924" lon="9.546344486560406"><ele>76.0</ele><time>2026-05-03T08:30:43.997Z</time></trkpt><trkpt lat="45.015975977801396" lon="9.546347904677493"><ele>76.0</ele><time>2026-05-03T08:30:45.997Z</time></trkpt><trkpt lat="45.01606468827322" lon="9.546348652680201"><ele>76.0</ele><time>2026-05-03T08:30:48.997Z</time></trkpt><trkpt lat="45.01615568960693" lon="9.546347506856485"><ele>76.25</ele><time>2026-05-03T08:30:50.997Z</time></trkpt><trkpt lat="45.01626968386338" lon="9.546338865837557"><ele>76.5</ele><time>2026-05-03T08:30:52.997Z</time></trkpt><trkpt lat="45.016382568099864" lon="9.546338602524155"><ele>76.75</ele><time>2026-05-03T08:30:54.997Z</time></trkpt><trkpt lat="45.01649209998379" lon="9.546333565940623"><ele>77.0</ele><time>2026-05-03T08:30:56.997Z</time></trkpt><trkpt lat="45.016606186196206" lon="9.54633233166295"><ele>77.0</ele><time>2026-05-03T08:30:58.997Z</time></trkpt><trkpt lat="45.0167225800229" lon="9.546330032861917"><ele>77.0</ele><time>2026-05-03T08:31:00.997Z</time></trkpt><trkpt lat="45.01682679620711" lon="9.54633418379904"><ele>77.0</ele><time>2026-05-03T08:31:02.997Z</time></trkpt><trkpt lat="45.01689660116846" lon="9.54632997261233"><ele>77.0</ele><time>2026-05-03T08:31:03.997Z</time></trkpt><trkpt lat="45.017014354865736" lon="9.546320509510457"><ele>77.0</ele><time>2026-05-03T08:31:05.997Z</time></trkpt><trkpt lat="45.01707975845041" lon="9.546323080987682"><ele>77.0</ele><time>2026-05-03T08:31:06.997Z</time></trkpt><trkpt lat="45.01714370279446" lon="9.546320337245565"><ele>77.0</ele><time>2026-05-03T08:31:07.997Z</time></trkpt><trkpt lat="45.01720961445993" lon="9.546316258223646"><ele>77.0</ele><time>2026-05-03T08:31:08.997Z</time></trkpt><trkpt lat="45.01727469307889" lon="9.546316628097658"><ele>77.0</ele><time>2026-05-03T08:31:09.997Z</time></trkpt><trkpt lat="45.017339806865316" lon="9.546315350897729"><ele>77.0</ele><time>2026-05-03T08:31:10.997Z</time></trkpt><trkpt lat="45.01740436404708" lon="9.546314216232464"><ele>77.0</ele><time>2026-05-03T08:31:11.997Z</time></trkpt><trkpt lat="45.01753059835709" lon="9.546346126790416"><ele>77.0</ele><time>2026-05-03T08:31:13.997Z</time></trkpt><trkpt lat="45.0175829224598" lon="9.546399315444877"><ele>77.0</ele><time>2026-05-03T08:31:14.997Z</time></trkpt><trkpt lat="45.01764777815762" lon="9.546442275516569"><ele>77.0</ele><time>2026-05-03T08:31:15.997Z</time></trkpt><trkpt lat="45.01771298872428" lon="9.546467689250138"><ele>77.0</ele><time>2026-05-03T08:31:16.997Z</time></trkpt><trkpt lat="45.01778630781656" lon="9.546465281271834"><ele>77.0</ele><time>2026-05-03T08:31:17.997Z</time></trkpt><trkpt lat="45.01785316616551" lon="9.54643903102049"><ele>77.0</ele><time>2026-05-03T08:31:18.997Z</time></trkpt><trkpt lat="45.017912791775" lon="9.546386269625996"><ele>77.0</ele><time>2026-05-03T08:31:19.997Z</time></trkpt><trkpt lat="45.01796061966446" lon="9.546319808703457"><ele>77.0</ele><time>2026-05-03T08:31:20.997Z</time></trkpt><trkpt lat="45.01800489516967" lon="9.54625061029047"><ele>77.0</ele><time>2026-05-03T08:31:21.997Z</time></trkpt><trkpt lat="45.018090754129624" lon="9.54615153776375"><ele>77.0</ele><time>2026-05-03T08:31:23.997Z</time></trkpt><trkpt lat="45.018212381785" lon="9.546098453450673"><ele>77.0</ele><time>2026-05-03T08:31:25.997Z</time></trkpt><trkpt lat="45.018332737667556" lon="9.546099291065035"><ele>77.0</ele><time>2026-05-03T08:31:27.997Z</time></trkpt><trkpt lat="45.01844824914429" lon="9.546151409289624"><ele>76.83333333333334</ele><time>2026-05-03T08:31:29.997Z</time></trkpt><trkpt lat="45.01850885546306" lon="9.546186791792111"><ele>76.66666666666667</ele><time>2026-05-03T08:31:30.997Z</time></trkpt><trkpt lat="45.01857165397448" lon="9.546217208277378"><ele>76.5</ele><time>2026-05-03T08:31:31.997Z</time></trkpt><trkpt lat="45.0186372298458" lon="9.546245003614322"><ele>76.33333333333333</ele><time>2026-05-03T08:31:32.997Z</time></trkpt><trkpt lat="45.01870269722136" lon="9.546264475051302"><ele>76.16666666666666</ele><time>2026-05-03T08:31:33.997Z</time></trkpt><trkpt lat="45.018827329428504" lon="9.546263545213753"><ele>76.0</ele><time>2026-05-03T08:31:35.997Z</time></trkpt><trkpt lat="45.01888993310332" lon="9.546235275832561"><ele>75.8</ele><time>2026-05-03T08:31:36.997Z</time></trkpt><trkpt lat="45.01894839265497" lon="9.546201300922668"><ele>75.6</ele><time>2026-05-03T08:31:37.997Z</time></trkpt><trkpt lat="45.019067017485355" lon="9.546135899942843"><ele>75.4</ele><time>2026-05-03T08:31:39.997Z</time></trkpt><trkpt lat="45.01917909084932" lon="9.546068684018282"><ele>75.2</ele><time>2026-05-03T08:31:41.997Z</time></trkpt><trkpt lat="45.019297401805744" lon="9.546013454915188"><ele>75.0</ele><time>2026-05-03T08:31:43.997Z</time></trkpt><trkpt lat="45.01941611797729" lon="9.545951686921192"><ele>75.0</ele><time>2026-05-03T08:31:45.997Z</time></trkpt><trkpt lat="45.0195329813874" lon="9.545890287367621"><ele>75.0</ele><time>2026-05-03T08:31:47.997Z</time></trkpt><trkpt lat="45.01964641681976" lon="9.545830035319804"><ele>75.0</ele><time>2026-05-03T08:31:49.997Z</time></trkpt><trkpt lat="45.01970894308124" lon="9.545802763196498"><ele>75.0</ele><time>2026-05-03T08:31:50.997Z</time></trkpt><trkpt lat="45.01982534312668" lon="9.545743481402432"><ele>75.0</ele><time>2026-05-03T08:31:52.997Z</time></trkpt><trkpt lat="45.01993634103646" lon="9.545678996391395"><ele>74.8</ele><time>2026-05-03T08:31:54.997Z</time></trkpt><trkpt lat="45.020054013056225" lon="9.545623186391174"><ele>74.6</ele><time>2026-05-03T08:31:56.997Z</time></trkpt><trkpt lat="45.020115119817824" lon="9.545593049559965"><ele>74.4</ele><time>2026-05-03T08:31:57.997Z</time></trkpt><trkpt lat="45.02022266321131" lon="9.545531454406278"><ele>74.2</ele><time>2026-05-03T08:31:59.997Z</time></trkpt><trkpt lat="45.02034298899489" lon="9.545469695170311"><ele>74.0</ele><time>2026-05-03T08:32:01.997Z</time></trkpt><trkpt lat="45.02045820358022" lon="9.545410586660509"><ele>74.0</ele><time>2026-05-03T08:32:03.997Z</time></trkpt><trkpt lat="45.02057271168848" lon="9.545345031437872"><ele>74.0</ele><time>2026-05-03T08:32:05.997Z</time></trkpt><trkpt lat="45.020682996325775" lon="9.545284964105823"><ele>74.0</ele><time>2026-05-03T08:32:07.997Z</time></trkpt><trkpt lat="45.020742225734814" lon="9.5452530308967"><ele>74.0</ele><time>2026-05-03T08:32:08.997Z</time></trkpt><trkpt lat="45.02085766822338" lon="9.54518957656354"><ele>74.0</ele><time>2026-05-03T08:32:10.997Z</time></trkpt><trkpt lat="45.02091678258437" lon="9.545158123832316"><ele>74.2</ele><time>2026-05-03T08:32:11.997Z</time></trkpt><trkpt lat="45.02103095677427" lon="9.545097221568135"><ele>74.4</ele><time>2026-05-03T08:32:13.997Z</time></trkpt><trkpt lat="45.021148314484265" lon="9.545039438602853"><ele>74.6</ele><time>2026-05-03T08:32:15.997Z</time></trkpt><trkpt lat="45.02120813932144" lon="9.54501126945608"><ele>74.8</ele><time>2026-05-03T08:32:16.996Z</time></trkpt><trkpt lat="45.021267045858956" lon="9.544979231474255"><ele>75.0</ele><time>2026-05-03T08:32:17.996Z</time></trkpt><trkpt lat="45.02138098739427" lon="9.54491889336793"><ele>75.0</ele><time>2026-05-03T08:32:19.997Z</time></trkpt><trkpt lat="45.021492267653116" lon="9.54485732798525"><ele>75.0</ele><time>2026-05-03T08:32:21.997Z</time></trkpt><trkpt lat="45.02160496616849" lon="9.544803569538473"><ele>75.0</ele><time>2026-05-03T08:32:23.997Z</time></trkpt><trkpt lat="45.02171552245369" lon="9.54474505425706"><ele>75.0</ele><time>2026-05-03T08:32:25.997Z</time></trkpt><trkpt lat="45.02183033903621" lon="9.5446856418082"><ele>75.0</ele><time>2026-05-03T08:32:27.997Z</time></trkpt><trkpt lat="45.021943757630886" lon="9.54462144874054"><ele>75.0</ele><time>2026-05-03T08:32:29.997Z</time></trkpt><trkpt lat="45.02206096802216" lon="9.544563443604305"><ele>75.0</ele><time>2026-05-03T08:32:31.997Z</time></trkpt><trkpt lat="45.022171734971" lon="9.544505683188083"><ele>75.0</ele><time>2026-05-03T08:32:33.997Z</time></trkpt><trkpt lat="45.0222785761727" lon="9.544437916221822"><ele>75.0</ele><time>2026-05-03T08:32:35.997Z</time></trkpt><trkpt lat="45.02239324156894" lon="9.544382235788293"><ele>75.0</ele><time>2026-05-03T08:32:37.997Z</time></trkpt><trkpt lat="45.022503836444045" lon="9.544322628057772"><ele>75.0</ele><time>2026-05-03T08:32:39.997Z</time></trkpt><trkpt lat="45.02261343795242" lon="9.544260053388353"><ele>75.0</ele><time>2026-05-03T08:32:41.997Z</time></trkpt><trkpt lat="45.02272316327309" lon="9.54420222547161"><ele>75.2</ele><time>2026-05-03T08:32:43.997Z</time></trkpt><trkpt lat="45.022837703285084" lon="9.544161647372185"><ele>75.4</ele><time>2026-05-03T08:32:45.997Z</time></trkpt><trkpt lat="45.02294884686574" lon="9.544231945185304"><ele>75.6</ele><time>2026-05-03T08:32:47.997Z</time></trkpt><trkpt lat="45.02302438678124" lon="9.5443750718669"><ele>75.8</ele><time>2026-05-03T08:32:49.997Z</time></trkpt><trkpt lat="45.02306848271218" lon="9.544444874377282"><ele>76.0</ele><time>2026-05-03T08:32:50.997Z</time></trkpt><trkpt lat="45.0231526195985" lon="9.544567258554354"><ele>76.0</ele><time>2026-05-03T08:32:52.997Z</time></trkpt><trkpt lat="45.02319873548042" lon="9.54463007399229"><ele>76.0</ele><time>2026-05-03T08:32:53.997Z</time></trkpt><trkpt lat="45.02327981275567" lon="9.544753488384313"><ele>76.0</ele><time>2026-05-03T08:32:55.997Z</time></trkpt><trkpt lat="45.02332398968627" lon="9.544817013863266"><ele>76.0</ele><time>2026-05-03T08:32:56.997Z</time></trkpt><trkpt lat="45.023366058579825" lon="9.54488495058486"><ele>76.0</ele><time>2026-05-03T08:32:57.997Z</time></trkpt><trkpt lat="45.02341201317487" lon="9.544949305759747"><ele>76.0</ele><time>2026-05-03T08:32:58.997Z</time></trkpt><trkpt lat="45.02349655803184" lon="9.545075184161469"><ele>76.0</ele><time>2026-05-03T08:33:00.997Z</time></trkpt><trkpt lat="45.023540523186526" lon="9.545139448455947"><ele>76.0</ele><time>2026-05-03T08:33:01.997Z</time></trkpt><trkpt lat="45.02362144986523" lon="9.545264541757058"><ele>76.0</ele><time>2026-05-03T08:33:03.997Z</time></trkpt><trkpt lat="45.023708189997436" lon="9.54538544288816"><ele>76.0</ele><time>2026-05-03T08:33:05.997Z</time></trkpt><trkpt lat="45.02378676701692" lon="9.545513809723358"><ele>76.0</ele><time>2026-05-03T08:33:07.997Z</time></trkpt><trkpt lat="45.02386807929996" lon="9.545627916041358"><ele>76.0</ele><time>2026-05-03T08:33:09.997Z</time></trkpt><trkpt lat="45.023959776722464" lon="9.54575653384544"><ele>76.0</ele><time>2026-05-03T08:33:11.997Z</time></trkpt><trkpt lat="45.024043288958275" lon="9.545883347945479"><ele>76.0</ele><time>2026-05-03T08:33:13.997Z</time></trkpt><trkpt lat="45.024127502419695" lon="9.546001115774747"><ele>76.0</ele><time>2026-05-03T08:33:15.997Z</time></trkpt><trkpt lat="45.024173577613304" lon="9.54606662657298"><ele>76.0</ele><time>2026-05-03T08:33:16.997Z</time></trkpt><trkpt lat="45.024217221476796" lon="9.546137897256298"><ele>76.0</ele><time>2026-05-03T08:33:17.997Z</time></trkpt><trkpt lat="45.0242666320413" lon="9.546203433679182"><ele>76.0</ele><time>2026-05-03T08:33:18.997Z</time></trkpt><trkpt lat="45.0243040508858" lon="9.546276544993827"><ele>76.0</ele><time>2026-05-03T08:33:19.996Z</time></trkpt><trkpt lat="45.024390843547735" lon="9.546406299975596"><ele>76.0</ele><time>2026-05-03T08:33:21.996Z</time></trkpt><trkpt lat="45.02443472715356" lon="9.546475619672412"><ele>76.0</ele><time>2026-05-03T08:33:22.996Z</time></trkpt><trkpt lat="45.024513566430315" lon="9.546618798538674"><ele>76.0</ele><time>2026-05-03T08:33:24.996Z</time></trkpt><trkpt lat="45.02455030013247" lon="9.546692123877481"><ele>76.0</ele><time>2026-05-03T08:33:25.996Z</time></trkpt><trkpt lat="45.024623361118806" lon="9.546833775095203"><ele>76.0</ele><time>2026-05-03T08:33:27.996Z</time></trkpt><trkpt lat="45.024693982705934" lon="9.546977539168216"><ele>76.0</ele><time>2026-05-03T08:33:29.996Z</time></trkpt><trkpt lat="45.024730461914714" lon="9.547052663256677"><ele>76.0</ele><time>2026-05-03T08:33:30.996Z</time></trkpt><trkpt lat="45.02480190471927" lon="9.54719869723453"><ele>76.0</ele><time>2026-05-03T08:33:32.996Z</time></trkpt><trkpt lat="45.02487661486887" lon="9.547332138171654"><ele>76.0</ele><time>2026-05-03T08:33:34.996Z</time></trkpt><trkpt lat="45.02491087465016" lon="9.547407965381144"><ele>76.0</ele><time>2026-05-03T08:33:35.996Z</time></trkpt><trkpt lat="45.024978168431815" lon="9.547543265264233"><ele>76.0</ele><time>2026-05-03T08:33:37.996Z</time></trkpt><trkpt lat="45.02504290316354" lon="9.547685224906132"><ele>76.0</ele><time>2026-05-03T08:33:39.996Z</time></trkpt><trkpt lat="45.025108771050164" lon="9.54783078980389"><ele>75.75</ele><time>2026-05-03T08:33:41.996Z</time></trkpt><trkpt lat="45.02517167756737" lon="9.547979497401652"><ele>75.5</ele><time>2026-05-03T08:33:43.996Z</time></trkpt><trkpt lat="45.02522952476369" lon="9.548123682885102"><ele>75.25</ele><time>2026-05-03T08:33:45.996Z</time></trkpt><trkpt lat="45.025287831022986" lon="9.548271704385444"><ele>75.0</ele><time>2026-05-03T08:33:47.996Z</time></trkpt><trkpt lat="45.025337640763844" lon="9.548426413659618"><ele>75.0</ele><time>2026-05-03T08:33:49.996Z</time></trkpt><trkpt lat="45.02537953402778" lon="9.548581543197706"><ele>75.0</ele><time>2026-05-03T08:33:51.996Z</time></trkpt><trkpt lat="45.02541560698461" lon="9.54874364224399"><ele>75.0</ele><time>2026-05-03T08:33:53.996Z</time></trkpt><trkpt lat="45.025453786944546" lon="9.548906436476127"><ele>75.0</ele><time>2026-05-03T08:33:55.996Z</time></trkpt><trkpt lat="45.0254879190433" lon="9.549072722890886"><ele>75.0</ele><time>2026-05-03T08:33:57.996Z</time></trkpt><trkpt lat="45.02552499476829" lon="9.54923726970197"><ele>75.0</ele><time>2026-05-03T08:33:59.996Z</time></trkpt><trkpt lat="45.02556777405877" lon="9.54939230879014"><ele>75.0</ele><time>2026-05-03T08:34:01.996Z</time></trkpt><trkpt lat="45.02558656505549" lon="9.549479895649638"><ele>75.0</ele><time>2026-05-03T08:34:02.996Z</time></trkpt><trkpt lat="45.02560371945444" lon="9.549566171214414"><ele>75.0</ele><time>2026-05-03T08:34:03.996Z</time></trkpt><trkpt lat="45.02562699774381" lon="9.549652363430697"><ele>75.0</ele><time>2026-05-03T08:34:04.996Z</time></trkpt><trkpt lat="45.0256496186525" lon="9.549736917108444"><ele>75.0</ele><time>2026-05-03T08:34:05.996Z</time></trkpt><trkpt lat="45.02570533284017" lon="9.549888445547422"><ele>75.0</ele><time>2026-05-03T08:34:07.996Z</time></trkpt><trkpt lat="45.025788000399096" lon="9.550018031104136"><ele>75.0</ele><time>2026-05-03T08:34:09.996Z</time></trkpt><trkpt lat="45.02583516012799" lon="9.550080416967281"><ele>75.0</ele><time>2026-05-03T08:34:10.996Z</time></trkpt><trkpt lat="45.02593804212138" lon="9.550180257077118"><ele>75.0</ele><time>2026-05-03T08:34:12.997Z</time></trkpt><trkpt lat="45.0260603410981" lon="9.550188206436399"><ele>75.0</ele><time>2026-05-03T08:34:14.996Z</time></trkpt><trkpt lat="45.0261184747687" lon="9.550153786662687"><ele>75.0</ele><time>2026-05-03T08:34:15.997Z</time></trkpt><trkpt lat="45.02623138728925" lon="9.550093942067864"><ele>75.0</ele><time>2026-05-03T08:34:17.997Z</time></trkpt><trkpt lat="45.0263452375264" lon="9.55005746503165"><ele>75.0</ele><time>2026-05-03T08:34:19.996Z</time></trkpt><trkpt lat="45.02645444043414" lon="9.550000731895203"><ele>75.0</ele><time>2026-05-03T08:34:21.997Z</time></trkpt><trkpt lat="45.026563796354985" lon="9.549968704972"><ele>75.25</ele><time>2026-05-03T08:34:23.996Z</time></trkpt><trkpt lat="45.026684323289594" lon="9.549933934986607"><ele>75.5</ele><time>2026-05-03T08:34:25.997Z</time></trkpt><trkpt lat="45.026797382064736" lon="9.549913948826593"><ele>75.75</ele><time>2026-05-03T08:34:27.997Z</time></trkpt><trkpt lat="45.026918214093286" lon="9.549885815156784"><ele>76.0</ele><time>2026-05-03T08:34:29.997Z</time></trkpt><trkpt lat="45.02703589403671" lon="9.549859769848362"><ele>76.0</ele><time>2026-05-03T08:34:31.997Z</time></trkpt><trkpt lat="45.02715815424271" lon="9.549828607127266"><ele>76.0</ele><time>2026-05-03T08:34:33.997Z</time></trkpt><trkpt lat="45.02727972166425" lon="9.549807842967088"><ele>76.0</ele><time>2026-05-03T08:34:35.997Z</time></trkpt><trkpt lat="45.0273996167413" lon="9.54978402307631"><ele>76.0</ele><time>2026-05-03T08:34:37.997Z</time></trkpt><trkpt lat="45.02751744325193" lon="9.549756187443391"><ele>75.2</ele><time>2026-05-03T08:34:39.997Z</time></trkpt><trkpt lat="45.027636813329025" lon="9.549733581584077"><ele>74.39999999999999</ele><time>2026-05-03T08:34:41.997Z</time></trkpt><trkpt lat="45.027702677116416" lon="9.549719353992026"><ele>73.6</ele><time>2026-05-03T08:34:42.997Z</time></trkpt><trkpt lat="45.02782139544428" lon="9.549696032176888"><ele>72.8</ele><time>2026-05-03T08:34:44.997Z</time></trkpt><trkpt lat="45.027884290468464" lon="9.549676660668462"><ele>72.0</ele><time>2026-05-03T08:34:45.997Z</time></trkpt><trkpt lat="45.028004609659575" lon="9.54965281670953"><ele>72.0</ele><time>2026-05-03T08:34:47.997Z</time></trkpt><trkpt lat="45.02812268199531" lon="9.549625547304542"><ele>72.0</ele><time>2026-05-03T08:34:49.997Z</time></trkpt><trkpt lat="45.02824274001275" lon="9.549594040558143"><ele>72.0</ele><time>2026-05-03T08:34:51.997Z</time></trkpt><trkpt lat="45.02830794329965" lon="9.549581781925323"><ele>72.0</ele><time>2026-05-03T08:34:52.997Z</time></trkpt><trkpt lat="45.0284283945004" lon="9.54955083934851"><ele>72.0</ele><time>2026-05-03T08:34:54.997Z</time></trkpt><trkpt lat="45.0284913750426" lon="9.549539541117998"><ele>71.8</ele><time>2026-05-03T08:34:55.997Z</time></trkpt><trkpt lat="45.028610993798075" lon="9.5495107037756"><ele>71.6</ele><time>2026-05-03T08:34:57.997Z</time></trkpt><trkpt lat="45.02867550037947" lon="9.549498636334347"><ele>71.39999999999999</ele><time>2026-05-03T08:34:58.997Z</time></trkpt><trkpt lat="45.028797176383165" lon="9.549469498178516"><ele>71.2</ele><time>2026-05-03T08:35:00.997Z</time></trkpt><trkpt lat="45.028919109596195" lon="9.549439929176891"><ele>71.0</ele><time>2026-05-03T08:35:02.997Z</time></trkpt><trkpt lat="45.02903998408088" lon="9.549412714704662"><ele>71.25</ele><time>2026-05-03T08:35:04.997Z</time></trkpt><trkpt lat="45.02916147117207" lon="9.549384266560816"><ele>71.5</ele><time>2026-05-03T08:35:06.997Z</time></trkpt><trkpt lat="45.02927998032212" lon="9.549354739912754"><ele>71.75</ele><time>2026-05-03T08:35:08.997Z</time></trkpt><trkpt lat="45.02939963812325" lon="9.549325856594868"><ele>72.0</ele><time>2026-05-03T08:35:10.997Z</time></trkpt><trkpt lat="45.029518724127314" lon="9.549298347551241"><ele>72.0</ele><time>2026-05-03T08:35:12.997Z</time></trkpt><trkpt lat="45.0296350693248" lon="9.549269423876877"><ele>72.0</ele><time>2026-05-03T08:35:14.997Z</time></trkpt><trkpt lat="45.029697611943824" lon="9.549251838222828"><ele>72.0</ele><time>2026-05-03T08:35:15.997Z</time></trkpt><trkpt lat="45.02981648482311" lon="9.54922636039535"><ele>72.0</ele><time>2026-05-03T08:35:17.997Z</time></trkpt><trkpt lat="45.029933840498046" lon="9.54919472439581"><ele>72.0</ele><time>2026-05-03T08:35:19.997Z</time></trkpt><trkpt lat="45.02999685220811" lon="9.549182572090652"><ele>71.8</ele><time>2026-05-03T08:35:20.997Z</time></trkpt><trkpt lat="45.030117704235295" lon="9.549154590056151"><ele>71.6</ele><time>2026-05-03T08:35:22.997Z</time></trkpt><trkpt lat="45.03018125718247" lon="9.54914372682993"><ele>71.39999999999999</ele><time>2026-05-03T08:35:23.997Z</time></trkpt><trkpt lat="45.030243797211384" lon="9.549126751357841"><ele>71.2</ele><time>2026-05-03T08:35:24.997Z</time></trkpt><trkpt lat="45.030365635298146" lon="9.54909573098689"><ele>71.0</ele><time>2026-05-03T08:35:26.997Z</time></trkpt><trkpt lat="45.03048838028922" lon="9.549060139997874"><ele>71.0</ele><time>2026-05-03T08:35:28.997Z</time></trkpt><trkpt lat="45.03061048893818" lon="9.549030398526277"><ele>71.0</ele><time>2026-05-03T08:35:30.997Z</time></trkpt><trkpt lat="45.0306731759437" lon="9.54901837239414"><ele>71.0</ele><time>2026-05-03T08:35:31.997Z</time></trkpt><trkpt lat="45.030736540525" lon="9.549000409010526"><ele>71.0</ele><time>2026-05-03T08:35:32.997Z</time></trkpt><trkpt lat="45.03085728106935" lon="9.548973066311923"><ele>71.0</ele><time>2026-05-03T08:35:34.997Z</time></trkpt><trkpt lat="45.030922410123154" lon="9.548960022151665"><ele>71.0</ele><time>2026-05-03T08:35:35.997Z</time></trkpt><trkpt lat="45.03104428361119" lon="9.548929820501641"><ele>71.0</ele><time>2026-05-03T08:35:37.997Z</time></trkpt><trkpt lat="45.03110715784757" lon="9.548913360578108"><ele>71.0</ele><time>2026-05-03T08:35:38.997Z</time></trkpt><trkpt lat="45.031229900229896" lon="9.548881853687648"><ele>71.0</ele><time>2026-05-03T08:35:40.997Z</time></trkpt><trkpt lat="45.03135245381306" lon="9.54885139906886"><ele>71.0</ele><time>2026-05-03T08:35:42.997Z</time></trkpt><trkpt lat="45.03141523948605" lon="9.548839026778733"><ele>71.0</ele><time>2026-05-03T08:35:43.997Z</time></trkpt><trkpt lat="45.03147766994742" lon="9.548823931963843"><ele>71.0</ele><time>2026-05-03T08:35:44.997Z</time></trkpt><trkpt lat="45.031542881712845" lon="9.548803556087108"><ele>71.0</ele><time>2026-05-03T08:35:45.997Z</time></trkpt><trkpt lat="45.0316640873296" lon="9.548777523674794"><ele>71.0</ele><time>2026-05-03T08:35:47.997Z</time></trkpt><trkpt lat="45.031789908526484" lon="9.548749062466594"><ele>71.0</ele><time>2026-05-03T08:35:49.997Z</time></trkpt><trkpt lat="45.03185236146026" lon="9.54873117260013"><ele>71.0</ele><time>2026-05-03T08:35:50.997Z</time></trkpt><trkpt lat="45.031916050397406" lon="9.548716902742052"><ele>71.0</ele><time>2026-05-03T08:35:51.997Z</time></trkpt><trkpt lat="45.03198000209934" lon="9.548701989363241"><ele>71.0</ele><time>2026-05-03T08:35:52.997Z</time></trkpt><trkpt lat="45.03204548347514" lon="9.548685323717798"><ele>71.0</ele><time>2026-05-03T08:35:53.997Z</time></trkpt><trkpt lat="45.03210909212059" lon="9.54867686813137"><ele>71.0</ele><time>2026-05-03T08:35:54.997Z</time></trkpt><trkpt lat="45.03217220140039" lon="9.54865716031401"><ele>71.0</ele><time>2026-05-03T08:35:55.997Z</time></trkpt><trkpt lat="45.03223712910028" lon="9.548642637405647"><ele>71.0</ele><time>2026-05-03T08:35:56.997Z</time></trkpt><trkpt lat="45.03230301367041" lon="9.548627554110315"><ele>71.0</ele><time>2026-05-03T08:35:57.997Z</time></trkpt><trkpt lat="45.03237091607701" lon="9.548611305737301"><ele>71.0</ele><time>2026-05-03T08:35:58.997Z</time></trkpt><trkpt lat="45.03243411583351" lon="9.548597955327278"><ele>71.0</ele><time>2026-05-03T08:35:59.997Z</time></trkpt><trkpt lat="45.03249727977907" lon="9.54857998061684"><ele>70.85714285714286</ele><time>2026-05-03T08:36:00.997Z</time></trkpt><trkpt lat="45.032563877464845" lon="9.54856338991795"><ele>70.71428571428571</ele><time>2026-05-03T08:36:01.997Z</time></trkpt><trkpt lat="45.03262694965488" lon="9.548546902720632"><ele>70.57142857142857</ele><time>2026-05-03T08:36:02.997Z</time></trkpt><trkpt lat="45.032690078245004" lon="9.54853110345193"><ele>70.42857142857143</ele><time>2026-05-03T08:36:03.997Z</time></trkpt><trkpt lat="45.03275426043832" lon="9.54851688714085"><ele>70.28571428571428</ele><time>2026-05-03T08:36:04.997Z</time></trkpt><trkpt lat="45.032818980268004" lon="9.54849897378718"><ele>70.14285714285714</ele><time>2026-05-03T08:36:05.997Z</time></trkpt><trkpt lat="45.03288195825326" lon="9.548483763787791"><ele>70.0</ele><time>2026-05-03T08:36:06.997Z</time></trkpt><trkpt lat="45.032946962715265" lon="9.548469898890179"><ele>70.0</ele><time>2026-05-03T08:36:07.997Z</time></trkpt><trkpt lat="45.03300893956746" lon="9.548453158994244"><ele>70.0</ele><time>2026-05-03T08:36:08.997Z</time></trkpt><trkpt lat="45.03307331307136" lon="9.548435694380224"><ele>70.0</ele><time>2026-05-03T08:36:09.997Z</time></trkpt><trkpt lat="45.03313762774532" lon="9.548421611677613"><ele>70.0</ele><time>2026-05-03T08:36:10.997Z</time></trkpt><trkpt lat="45.03320195339113" lon="9.548407276187088"><ele>70.0</ele><time>2026-05-03T08:36:11.997Z</time></trkpt><trkpt lat="45.03332184184029" lon="9.548378469336441"><ele>70.0</ele><time>2026-05-03T08:36:13.997Z</time></trkpt><trkpt lat="45.03344155933708" lon="9.548346287373287"><ele>70.0</ele><time>2026-05-03T08:36:15.997Z</time></trkpt><trkpt lat="45.03356198177786" lon="9.548317717455026"><ele>70.0</ele><time>2026-05-03T08:36:17.997Z</time></trkpt><trkpt lat="45.03368594992995" lon="9.548289450922036"><ele>70.0</ele><time>2026-05-03T08:36:19.996Z</time></trkpt><trkpt lat="45.03380614444131" lon="9.548267273943079"><ele>70.0</ele><time>2026-05-03T08:36:21.997Z</time></trkpt><trkpt lat="45.033930292678995" lon="9.548247309731632"><ele>70.0</ele><time>2026-05-03T08:36:23.997Z</time></trkpt><trkpt lat="45.034052753481454" lon="9.548235290999864"><ele>70.0</ele><time>2026-05-03T08:36:25.996Z</time></trkpt><trkpt lat="45.034173622569945" lon="9.548235789548086"><ele>70.0</ele><time>2026-05-03T08:36:27.996Z</time></trkpt><trkpt lat="45.03429478185791" lon="9.548237261138885"><ele>70.0</ele><time>2026-05-03T08:36:29.996Z</time></trkpt><trkpt lat="45.034415713043124" lon="9.548241551284413"><ele>70.0</ele><time>2026-05-03T08:36:31.996Z</time></trkpt><trkpt lat="45.03453523141423" lon="9.548241626870656"><ele>70.0</ele><time>2026-05-03T08:36:33.996Z</time></trkpt><trkpt lat="45.03465857885367" lon="9.548241541270382"><ele>70.0</ele><time>2026-05-03T08:36:35.996Z</time></trkpt><trkpt lat="45.03477540497931" lon="9.548246556256702"><ele>70.0</ele><time>2026-05-03T08:36:37.996Z</time></trkpt><trkpt lat="45.0348949807663" lon="9.548248618002317"><ele>70.25</ele><time>2026-05-03T08:36:39.996Z</time></trkpt><trkpt lat="45.035016754011615" lon="9.548252155881277"><ele>70.5</ele><time>2026-05-03T08:36:41.996Z</time></trkpt><trkpt lat="45.03513349871447" lon="9.548254141910189"><ele>70.75</ele><time>2026-05-03T08:36:43.996Z</time></trkpt><trkpt lat="45.03525354569247" lon="9.548249893722781"><ele>71.0</ele><time>2026-05-03T08:36:45.996Z</time></trkpt><trkpt lat="45.03537455291512" lon="9.54825617078435"><ele>71.0</ele><time>2026-05-03T08:36:47.996Z</time></trkpt><trkpt lat="45.03549517260585" lon="9.5482569509652"><ele>71.0</ele><time>2026-05-03T08:36:49.996Z</time></trkpt><trkpt lat="45.035614536531604" lon="9.5482561809947"><ele>71.0</ele><time>2026-05-03T08:36:51.996Z</time></trkpt><trkpt lat="45.03573300426966" lon="9.548256633932322"><ele>71.0</ele><time>2026-05-03T08:36:53.996Z</time></trkpt><trkpt lat="45.035856319409014" lon="9.548256692485332"><ele>70.8</ele><time>2026-05-03T08:36:55.996Z</time></trkpt><trkpt lat="45.03597559028274" lon="9.548255670280147"><ele>70.6</ele><time>2026-05-03T08:36:57.996Z</time></trkpt><trkpt lat="45.0360962673101" lon="9.54825811043846"><ele>70.4</ele><time>2026-05-03T08:36:59.996Z</time></trkpt><trkpt lat="45.03615897703441" lon="9.548249673261058"><ele>70.2</ele><time>2026-05-03T08:37:00.996Z</time></trkpt><trkpt lat="45.03627505823879" lon="9.548253102686893"><ele>70.0</ele><time>2026-05-03T08:37:02.996Z</time></trkpt><trkpt lat="45.036394573885545" lon="9.548244597829926"><ele>70.0</ele><time>2026-05-03T08:37:04.996Z</time></trkpt><trkpt lat="45.036521979374605" lon="9.548246307412928"><ele>70.0</ele><time>2026-05-03T08:37:06.996Z</time></trkpt><trkpt lat="45.036640634443906" lon="9.548238911955778"><ele>70.0</ele><time>2026-05-03T08:37:08.996Z</time></trkpt><trkpt lat="45.03670689531784" lon="9.548241047678069"><ele>70.0</ele><time>2026-05-03T08:37:09.996Z</time></trkpt><trkpt lat="45.036773010777935" lon="9.548238501906647"><ele>70.0</ele><time>2026-05-03T08:37:10.996Z</time></trkpt><trkpt lat="45.03683908989104" lon="9.5482431955097"><ele>70.0</ele><time>2026-05-03T08:37:11.996Z</time></trkpt><trkpt lat="45.03696694126156" lon="9.548248600500068"><ele>70.0</ele><time>2026-05-03T08:37:13.996Z</time></trkpt><trkpt lat="45.037093122783915" lon="9.548248897041471"><ele>70.0</ele><time>2026-05-03T08:37:15.996Z</time></trkpt><trkpt lat="45.037217952717334" lon="9.54825321380795"><ele>70.0</ele><time>2026-05-03T08:37:17.996Z</time></trkpt><trkpt lat="45.03728294999765" lon="9.548256787465139"><ele>70.0</ele><time>2026-05-03T08:37:18.996Z</time></trkpt><trkpt lat="45.03734690486281" lon="9.54826153215094"><ele>70.0</ele><time>2026-05-03T08:37:19.996Z</time></trkpt><trkpt lat="45.03746822208685" lon="9.548258807715863"><ele>70.2</ele><time>2026-05-03T08:37:21.996Z</time></trkpt><trkpt lat="45.03759283976035" lon="9.548258626379127"><ele>70.4</ele><time>2026-05-03T08:37:23.996Z</time></trkpt><trkpt lat="45.03772019583014" lon="9.548261945532799"><ele>70.6</ele><time>2026-05-03T08:37:25.996Z</time></trkpt><trkpt lat="45.03778477063792" lon="9.548257744306014"><ele>70.8</ele><time>2026-05-03T08:37:26.996Z</time></trkpt><trkpt lat="45.03790905757965" lon="9.548263560850552"><ele>71.0</ele><time>2026-05-03T08:37:28.996Z</time></trkpt><trkpt lat="45.03797624624113" lon="9.548265263466876"><ele>71.0</ele><time>2026-05-03T08:37:29.996Z</time></trkpt><trkpt lat="45.038101790461965" lon="9.548269647085096"><ele>71.0</ele><time>2026-05-03T08:37:31.996Z</time></trkpt><trkpt lat="45.03822659098833" lon="9.548272787102546"><ele>71.0</ele><time>2026-05-03T08:37:33.996Z</time></trkpt><trkpt lat="45.03835016263525" lon="9.548271230950837"><ele>71.0</ele><time>2026-05-03T08:37:35.996Z</time></trkpt><trkpt lat="45.03847265201934" lon="9.548274616654012"><ele>70.66666666666667</ele><time>2026-05-03T08:37:37.996Z</time></trkpt><trkpt lat="45.03859688661226" lon="9.548276682141708"><ele>70.33333333333334</ele><time>2026-05-03T08:37:39.996Z</time></trkpt><trkpt lat="45.03866041306677" lon="9.548273463119157"><ele>70.0</ele><time>2026-05-03T08:37:40.996Z</time></trkpt><trkpt lat="45.03872461309373" lon="9.548266457432344"><ele>69.66666666666667</ele><time>2026-05-03T08:37:41.996Z</time></trkpt><trkpt lat="45.03879052829119" lon="9.548270172261983"><ele>69.33333333333333</ele><time>2026-05-03T08:37:42.996Z</time></trkpt><trkpt lat="45.03891956156375" lon="9.548273756768483"><ele>69.0</ele><time>2026-05-03T08:37:44.996Z</time></trkpt><trkpt lat="45.03898250918588" lon="9.548267271632922"><ele>69.0</ele><time>2026-05-03T08:37:45.996Z</time></trkpt><trkpt lat="45.0390458838385" lon="9.548271898307451"><ele>69.0</ele><time>2026-05-03T08:37:46.996Z</time></trkpt><trkpt lat="45.039111634496734" lon="9.548262740852433"><ele>69.0</ele><time>2026-05-03T08:37:47.996Z</time></trkpt><trkpt lat="45.039231443150626" lon="9.54826853240087"><ele>69.0</ele><time>2026-05-03T08:37:49.996Z</time></trkpt><trkpt lat="45.03929534303375" lon="9.548268232995394"><ele>69.0</ele><time>2026-05-03T08:37:50.996Z</time></trkpt><trkpt lat="45.039414375864226" lon="9.548286120257728"><ele>69.0</ele><time>2026-05-03T08:37:52.996Z</time></trkpt><trkpt lat="45.03947135546531" lon="9.548327006008229"><ele>69.25</ele><time>2026-05-03T08:37:53.996Z</time></trkpt><trkpt lat="45.03956231546844" lon="9.54844286056887"><ele>69.5</ele><time>2026-05-03T08:37:55.996Z</time></trkpt><trkpt lat="45.03963546532092" lon="9.548583153205444"><ele>69.75</ele><time>2026-05-03T08:37:57.996Z</time></trkpt><trkpt lat="45.03971259267485" lon="9.548721836068893"><ele>70.0</ele><time>2026-05-03T08:37:59.996Z</time></trkpt><trkpt lat="45.03978619187658" lon="9.548854080752792"><ele>70.0</ele><time>2026-05-03T08:38:01.996Z</time></trkpt><trkpt lat="45.039862260586816" lon="9.548995663628627"><ele>70.0</ele><time>2026-05-03T08:38:03.996Z</time></trkpt><trkpt lat="45.03993376775268" lon="9.54913783078479"><ele>70.0</ele><time>2026-05-03T08:38:05.996Z</time></trkpt><trkpt lat="45.03999713862787" lon="9.549275881088171"><ele>70.0</ele><time>2026-05-03T08:38:07.996Z</time></trkpt><trkpt lat="45.04006307360936" lon="9.549416392602817"><ele>70.2</ele><time>2026-05-03T08:38:09.996Z</time></trkpt><trkpt lat="45.04011192410366" lon="9.549563309463052"><ele>70.4</ele><time>2026-05-03T08:38:11.996Z</time></trkpt><trkpt lat="45.04013341512437" lon="9.549715671170576"><ele>70.6</ele><time>2026-05-03T08:38:13.996Z</time></trkpt><trkpt lat="45.040139536285906" lon="9.549808005741411"><ele>70.8</ele><time>2026-05-03T08:38:14.996Z</time></trkpt><trkpt lat="45.040168690992374" lon="9.5499708540193"><ele>71.0</ele><time>2026-05-03T08:38:16.996Z</time></trkpt><trkpt lat="45.04018335975259" lon="9.550063705820204"><ele>71.0</ele><time>2026-05-03T08:38:17.996Z</time></trkpt><trkpt lat="45.04020791465274" lon="9.550232680895055"><ele>71.0</ele><time>2026-05-03T08:38:19.996Z</time></trkpt><trkpt lat="45.04022423919963" lon="9.550319602091795"><ele>71.0</ele><time>2026-05-03T08:38:20.996Z</time></trkpt><trkpt lat="45.040238850470104" lon="9.55047324869199"><ele>71.0</ele><time>2026-05-03T08:38:22.996Z</time></trkpt><trkpt lat="45.04026483612082" lon="9.550633369822313"><ele>71.0</ele><time>2026-05-03T08:38:24.996Z</time></trkpt><trkpt lat="45.04029231820004" lon="9.550781152324543"><ele>70.75</ele><time>2026-05-03T08:38:26.996Z</time></trkpt><trkpt lat="45.040333301287916" lon="9.550931890369311"><ele>70.5</ele><time>2026-05-03T08:38:28.995Z</time></trkpt><trkpt lat="45.04035274373446" lon="9.55110637177221"><ele>70.25</ele><time>2026-05-03T08:38:30.996Z</time></trkpt><trkpt lat="45.0403801986846" lon="9.551269022966695"><ele>70.0</ele><time>2026-05-03T08:38:32.996Z</time></trkpt><trkpt lat="45.04040670388938" lon="9.5514433343795"><ele>70.0</ele><time>2026-05-03T08:38:34.996Z</time></trkpt><trkpt lat="45.04042746408592" lon="9.551608035084142"><ele>70.0</ele><time>2026-05-03T08:38:36.995Z</time></trkpt><trkpt lat="45.04046262570862" lon="9.551770759732827"><ele>70.0</ele><time>2026-05-03T08:38:38.996Z</time></trkpt><trkpt lat="45.04049679269684" lon="9.551933447541733"><ele>70.0</ele><time>2026-05-03T08:38:40.996Z</time></trkpt><trkpt lat="45.040515561631395" lon="9.552088997428264"><ele>70.0</ele><time>2026-05-03T08:38:42.996Z</time></trkpt><trkpt lat="45.04054389626229" lon="9.552248551895739"><ele>70.0</ele><time>2026-05-03T08:38:44.996Z</time></trkpt><trkpt lat="45.04057149003606" lon="9.552415482355281"><ele>70.0</ele><time>2026-05-03T08:38:46.996Z</time></trkpt><trkpt lat="45.04059566122255" lon="9.55258494271029"><ele>70.0</ele><time>2026-05-03T08:38:48.996Z</time></trkpt><trkpt lat="45.040612713068306" lon="9.552670743842036"><ele>70.0</ele><time>2026-05-03T08:38:49.996Z</time></trkpt><trkpt lat="45.040642747824194" lon="9.552831309850774"><ele>69.8</ele><time>2026-05-03T08:38:51.996Z</time></trkpt><trkpt lat="45.040673598782696" lon="9.552975272745977"><ele>69.6</ele><time>2026-05-03T08:38:53.996Z</time></trkpt><trkpt lat="45.04071352865261" lon="9.55313445026584"><ele>69.4</ele><time>2026-05-03T08:38:55.996Z</time></trkpt><trkpt lat="45.04073809953002" lon="9.553313013301164"><ele>69.2</ele><time>2026-05-03T08:38:57.996Z</time></trkpt><trkpt lat="45.04076340910587" lon="9.553401179942572"><ele>69.0</ele><time>2026-05-03T08:38:58.996Z</time></trkpt><trkpt lat="45.04081787406768" lon="9.55355689534598"><ele>69.16666666666667</ele><time>2026-05-03T08:39:00.996Z</time></trkpt><trkpt lat="45.04085210790666" lon="9.553732565280248"><ele>69.33333333333333</ele><time>2026-05-03T08:39:02.996Z</time></trkpt><trkpt lat="45.04086846105454" lon="9.553832614034162"><ele>69.5</ele><time>2026-05-03T08:39:03.996Z</time></trkpt><trkpt lat="45.04088629365596" lon="9.553928439783848"><ele>69.66666666666666</ele><time>2026-05-03T08:39:04.996Z</time></trkpt><trkpt lat="45.04089422262579" lon="9.554027768501303"><ele>69.83333333333333</ele><time>2026-05-03T08:39:05.996Z</time></trkpt><trkpt lat="45.040915094400596" lon="9.55411853074001"><ele>70.0</ele><time>2026-05-03T08:39:06.996Z</time></trkpt><trkpt lat="45.040926813723544" lon="9.554218964512911"><ele>70.0</ele><time>2026-05-03T08:39:07.996Z</time></trkpt><trkpt lat="45.040937960204744" lon="9.554316440737287"><ele>70.0</ele><time>2026-05-03T08:39:08.996Z</time></trkpt><trkpt lat="45.04095101151644" lon="9.554405168470142"><ele>70.0</ele><time>2026-05-03T08:39:09.996Z</time></trkpt><trkpt lat="45.04096173422925" lon="9.55449955081578"><ele>70.0</ele><time>2026-05-03T08:39:10.996Z</time></trkpt><trkpt lat="45.04097191461007" lon="9.554589194376526"><ele>70.0</ele><time>2026-05-03T08:39:11.996Z</time></trkpt><trkpt lat="45.04097456360622" lon="9.554684663703881"><ele>70.0</ele><time>2026-05-03T08:39:12.996Z</time></trkpt><trkpt lat="45.040977152862915" lon="9.554774141271906"><ele>70.0</ele><time>2026-05-03T08:39:13.996Z</time></trkpt><trkpt lat="45.04096773418094" lon="9.554944089532514"><ele>69.75</ele><time>2026-05-03T08:39:15.996Z</time></trkpt><trkpt lat="45.04096763937892" lon="9.555106626202534"><ele>69.5</ele><time>2026-05-03T08:39:17.996Z</time></trkpt><trkpt lat="45.04095574857056" lon="9.555280759210756"><ele>69.25</ele><time>2026-05-03T08:39:19.996Z</time></trkpt><trkpt lat="45.040948559737295" lon="9.555449354289712"><ele>69.0</ele><time>2026-05-03T08:39:21.996Z</time></trkpt><trkpt lat="45.04093818538664" lon="9.555620653698183"><ele>68.8</ele><time>2026-05-03T08:39:23.996Z</time></trkpt><trkpt lat="45.04092611815939" lon="9.555792917132335"><ele>68.60000000000001</ele><time>2026-05-03T08:39:25.996Z</time></trkpt><trkpt lat="45.04091746268939" lon="9.555883318618076"><ele>68.4</ele><time>2026-05-03T08:39:26.996Z</time></trkpt><trkpt lat="45.04090262625269" lon="9.556051364789461"><ele>68.2</ele><time>2026-05-03T08:39:28.996Z</time></trkpt><trkpt lat="45.04089189129045" lon="9.55622401894595"><ele>68.0</ele><time>2026-05-03T08:39:30.996Z</time></trkpt><trkpt lat="45.040877045098874" lon="9.556391660397955"><ele>67.6</ele><time>2026-05-03T08:39:32.996Z</time></trkpt><trkpt lat="45.04086087038053" lon="9.556559406267494"><ele>67.19999999999999</ele><time>2026-05-03T08:39:34.996Z</time></trkpt><trkpt lat="45.04084002683291" lon="9.556730755545665"><ele>66.8</ele><time>2026-05-03T08:39:36.995Z</time></trkpt><trkpt lat="45.040818348013424" lon="9.556900480268913"><ele>66.39999999999999</ele><time>2026-05-03T08:39:38.995Z</time></trkpt><trkpt lat="45.040803977914685" lon="9.556988163318714"><ele>66.0</ele><time>2026-05-03T08:39:39.995Z</time></trkpt><trkpt lat="45.04078083580307" lon="9.557166310421948"><ele>66.0</ele><time>2026-05-03T08:39:41.995Z</time></trkpt><trkpt lat="45.04075774607096" lon="9.557341520135312"><ele>66.0</ele><time>2026-05-03T08:39:43.995Z</time></trkpt><trkpt lat="45.04074373431856" lon="9.557428479940894"><ele>66.0</ele><time>2026-05-03T08:39:44.995Z</time></trkpt><trkpt lat="45.04072193729222" lon="9.557598535295774"><ele>66.0</ele><time>2026-05-03T08:39:46.995Z</time></trkpt><trkpt lat="45.04070471781017" lon="9.557773427010217"><ele>66.0</ele><time>2026-05-03T08:39:48.995Z</time></trkpt><trkpt lat="45.04068681468366" lon="9.557940217938018"><ele>65.8</ele><time>2026-05-03T08:39:50.995Z</time></trkpt><trkpt lat="45.04067215033787" lon="9.558026915627206"><ele>65.6</ele><time>2026-05-03T08:39:51.995Z</time></trkpt><trkpt lat="45.04065360572828" lon="9.558202809769565"><ele>65.4</ele><time>2026-05-03T08:39:53.995Z</time></trkpt><trkpt lat="45.040641538382104" lon="9.558298025341838"><ele>65.2</ele><time>2026-05-03T08:39:54.995Z</time></trkpt><trkpt lat="45.040621021629086" lon="9.558471697568889"><ele>65.0</ele><time>2026-05-03T08:39:56.995Z</time></trkpt><trkpt lat="45.04059881548549" lon="9.558649631651365"><ele>65.6</ele><time>2026-05-03T08:39:58.995Z</time></trkpt><trkpt lat="45.04057559494113" lon="9.558824159653335"><ele>66.2</ele><time>2026-05-03T08:40:00.995Z</time></trkpt><trkpt lat="45.0405464520905" lon="9.558995615343012"><ele>66.8</ele><time>2026-05-03T08:40:02.995Z</time></trkpt><trkpt lat="45.040533398952434" lon="9.559082770628097"><ele>67.4</ele><time>2026-05-03T08:40:03.995Z</time></trkpt><trkpt lat="45.04051842580569" lon="9.559258924648866"><ele>68.0</ele><time>2026-05-03T08:40:05.995Z</time></trkpt><trkpt lat="45.040530462617944" lon="9.559427404560068"><ele>67.8</ele><time>2026-05-03T08:40:07.995Z</time></trkpt><trkpt lat="45.04057035769578" lon="9.559595902463034"><ele>67.6</ele><time>2026-05-03T08:40:09.995Z</time></trkpt><trkpt lat="45.0405953838325" lon="9.559679010772683"><ele>67.4</ele><time>2026-05-03T08:40:10.995Z</time></trkpt><trkpt lat="45.04063748522053" lon="9.559837418473775"><ele>67.2</ele><time>2026-05-03T08:40:12.995Z</time></trkpt><trkpt lat="45.040680102067476" lon="9.560000245133146"><ele>67.0</ele><time>2026-05-03T08:40:14.995Z</time></trkpt><trkpt lat="45.04072135671551" lon="9.560156961876766"><ele>67.0</ele><time>2026-05-03T08:40:16.995Z</time></trkpt><trkpt lat="45.040766247823775" lon="9.56031543071871"><ele>67.0</ele><time>2026-05-03T08:40:18.995Z</time></trkpt><trkpt lat="45.04080684477581" lon="9.560478478333586"><ele>67.0</ele><time>2026-05-03T08:40:20.995Z</time></trkpt><trkpt lat="45.04084905979775" lon="9.560644047335831"><ele>67.0</ele><time>2026-05-03T08:40:22.995Z</time></trkpt><trkpt lat="45.04089320130099" lon="9.560802471592684"><ele>66.66666666666666</ele><time>2026-05-03T08:40:24.995Z</time></trkpt><trkpt lat="45.04093746334283" lon="9.56096632931048"><ele>66.33333333333333</ele><time>2026-05-03T08:40:26.995Z</time></trkpt><trkpt lat="45.04095610966873" lon="9.561052909130726"><ele>66.0</ele><time>2026-05-03T08:40:27.995Z</time></trkpt><trkpt lat="45.040999985894715" lon="9.561208365750277"><ele>65.66666666666667</ele><time>2026-05-03T08:40:29.995Z</time></trkpt><trkpt lat="45.041019409057604" lon="9.561293482716792"><ele>65.33333333333334</ele><time>2026-05-03T08:40:30.996Z</time></trkpt><trkpt lat="45.04104037115711" lon="9.56137771383318"><ele>65.0</ele><time>2026-05-03T08:40:31.995Z</time></trkpt><trkpt lat="45.041063376881326" lon="9.561462098596115"><ele>65.0</ele><time>2026-05-03T08:40:32.995Z</time></trkpt><trkpt lat="45.04109970272116" lon="9.561622927415117"><ele>65.0</ele><time>2026-05-03T08:40:34.995Z</time></trkpt><trkpt lat="45.04114429890415" lon="9.561786496110864"><ele>65.0</ele><time>2026-05-03T08:40:36.995Z</time></trkpt><trkpt lat="45.041164911469835" lon="9.56187319135206"><ele>65.0</ele><time>2026-05-03T08:40:37.995Z</time></trkpt><trkpt lat="45.0411855286528" lon="9.561960397977968"><ele>65.0</ele><time>2026-05-03T08:40:38.995Z</time></trkpt><trkpt lat="45.04120448480308" lon="9.562052360769915"><ele>65.0</ele><time>2026-05-03T08:40:39.995Z</time></trkpt><trkpt lat="45.041224970166255" lon="9.562140182264555"><ele>64.83333333333334</ele><time>2026-05-03T08:40:40.995Z</time></trkpt><trkpt lat="45.04124306187164" lon="9.562233826104642"><ele>64.66666666666667</ele><time>2026-05-03T08:40:41.995Z</time></trkpt><trkpt lat="45.04126329378129" lon="9.562325166689336"><ele>64.5</ele><time>2026-05-03T08:40:42.996Z</time></trkpt><trkpt lat="45.041301876371946" lon="9.562491307021887"><ele>64.33333333333333</ele><time>2026-05-03T08:40:44.995Z</time></trkpt><trkpt lat="45.04133772919909" lon="9.562657518834328"><ele>64.16666666666666</ele><time>2026-05-03T08:40:46.995Z</time></trkpt><trkpt lat="45.041359277767654" lon="9.562743288645496"><ele>64.0</ele><time>2026-05-03T08:40:47.995Z</time></trkpt><trkpt lat="45.04137708923632" lon="9.562829516700976"><ele>64.0</ele><time>2026-05-03T08:40:48.995Z</time></trkpt><trkpt lat="45.04141347030869" lon="9.562992645798959"><ele>64.0</ele><time>2026-05-03T08:40:50.995Z</time></trkpt><trkpt lat="45.04145723787343" lon="9.563148806592991"><ele>64.0</ele><time>2026-05-03T08:40:52.995Z</time></trkpt><trkpt lat="45.041490983148954" lon="9.56331478396671"><ele>64.0</ele><time>2026-05-03T08:40:54.995Z</time></trkpt><trkpt lat="45.04152912628015" lon="9.56347949130801"><ele>63.99999999999999</ele><time>2026-05-03T08:40:56.995Z</time></trkpt><trkpt lat="45.04154275643105" lon="9.563568755968843"><ele>64.0</ele><time>2026-05-03T08:40:57.995Z</time></trkpt><trkpt lat="45.041560985681905" lon="9.563655240742595"><ele>64.0</ele><time>2026-05-03T08:40:58.995Z</time></trkpt><trkpt lat="45.041599769103186" lon="9.563814273592886"><ele>64.0</ele><time>2026-05-03T08:41:00.995Z</time></trkpt><trkpt lat="45.04161727125045" lon="9.563900513083349"><ele>63.99999999999999</ele><time>2026-05-03T08:41:01.995Z</time></trkpt><trkpt lat="45.04163415433906" lon="9.563987657737039"><ele>64.0</ele><time>2026-05-03T08:41:02.995Z</time></trkpt><trkpt lat="45.04166840228443" lon="9.564153313635991"><ele>64.2</ele><time>2026-05-03T08:41:04.995Z</time></trkpt><trkpt lat="45.041703069299814" lon="9.564320622665685"><ele>64.4</ele><time>2026-05-03T08:41:06.995Z</time></trkpt><trkpt lat="45.04172385483201" lon="9.564405752322926"><ele>64.6</ele><time>2026-05-03T08:41:07.995Z</time></trkpt><trkpt lat="45.04175930398238" lon="9.564565889136219"><ele>64.8</ele><time>2026-05-03T08:41:09.995Z</time></trkpt><trkpt lat="45.04178864932277" lon="9.564728789399979"><ele>65.0</ele><time>2026-05-03T08:41:11.995Z</time></trkpt><trkpt lat="45.04183349106932" lon="9.564890945478378"><ele>65.25</ele><time>2026-05-03T08:41:13.995Z</time></trkpt><trkpt lat="45.04188225887317" lon="9.565042295977728"><ele>65.5</ele><time>2026-05-03T08:41:15.995Z</time></trkpt><trkpt lat="45.04193479247635" lon="9.565188907060968"><ele>65.75</ele><time>2026-05-03T08:41:17.995Z</time></trkpt><trkpt lat="45.041996192074784" lon="9.56533622679998"><ele>66.0</ele><time>2026-05-03T08:41:19.995Z</time></trkpt><trkpt lat="45.04205943040647" lon="9.565493905034861"><ele>66.0</ele><time>2026-05-03T08:41:21.995Z</time></trkpt><trkpt lat="45.04209208541714" lon="9.565577188184491"><ele>66.0</ele><time>2026-05-03T08:41:22.995Z</time></trkpt><trkpt lat="45.04212548751858" lon="9.565662194481115"><ele>66.0</ele><time>2026-05-03T08:41:23.995Z</time></trkpt><trkpt lat="45.04219017553509" lon="9.56581819377755"><ele>66.0</ele><time>2026-05-03T08:41:25.995Z</time></trkpt><trkpt lat="45.042250235561596" lon="9.56597922737955"><ele>66.0</ele><time>2026-05-03T08:41:27.995Z</time></trkpt><trkpt lat="45.0423182581348" lon="9.566131749156327"><ele>65.66666666666667</ele><time>2026-05-03T08:41:29.995Z</time></trkpt><trkpt lat="45.04234915379282" lon="9.566210760674418"><ele>65.33333333333333</ele><time>2026-05-03T08:41:30.995Z</time></trkpt><trkpt lat="45.04238528425615" lon="9.566288290277535"><ele>65.0</ele><time>2026-05-03T08:41:31.995Z</time></trkpt><trkpt lat="45.042415211345414" lon="9.566369788232914"><ele>64.66666666666666</ele><time>2026-05-03T08:41:32.995Z</time></trkpt><trkpt lat="45.04247287827513" lon="9.566527745577854"><ele>64.33333333333333</ele><time>2026-05-03T08:41:34.995Z</time></trkpt><trkpt lat="45.0425040268939" lon="9.566606309193192"><ele>64.0</ele><time>2026-05-03T08:41:35.995Z</time></trkpt><trkpt lat="45.04256585618596" lon="9.566765026458762"><ele>64.0</ele><time>2026-05-03T08:41:37.995Z</time></trkpt><trkpt lat="45.04263186336344" lon="9.56691501359608"><ele>64.0</ele><time>2026-05-03T08:41:39.995Z</time></trkpt><trkpt lat="45.04269772561562" lon="9.567064798696148"><ele>64.0</ele><time>2026-05-03T08:41:41.995Z</time></trkpt><trkpt lat="45.04276947819506" lon="9.567212906853134"><ele>64.0</ele><time>2026-05-03T08:41:43.995Z</time></trkpt><trkpt lat="45.042804960248056" lon="9.56728940298948"><ele>64.0</ele><time>2026-05-03T08:41:44.995Z</time></trkpt><trkpt lat="45.042844199711425" lon="9.567359769456537"><ele>64.0</ele><time>2026-05-03T08:41:45.995Z</time></trkpt><trkpt lat="45.042876999936595" lon="9.567441537952819"><ele>64.0</ele><time>2026-05-03T08:41:46.995Z</time></trkpt><trkpt lat="45.04294707708371" lon="9.5675819447137"><ele>64.0</ele><time>2026-05-03T08:41:48.995Z</time></trkpt><trkpt lat="45.04298253378822" lon="9.567658331671128"><ele>64.0</ele><time>2026-05-03T08:41:49.995Z</time></trkpt><trkpt lat="45.04305389619165" lon="9.56779155138729"><ele>64.0</ele><time>2026-05-03T08:41:51.995Z</time></trkpt><trkpt lat="45.04312843417259" lon="9.5679279309741"><ele>64.0</ele><time>2026-05-03T08:41:53.995Z</time></trkpt><trkpt lat="45.043169882838036" lon="9.567998254890453"><ele>64.0</ele><time>2026-05-03T08:41:54.995Z</time></trkpt><trkpt lat="45.04323853357981" lon="9.568133154805748"><ele>64.0</ele><time>2026-05-03T08:41:56.995Z</time></trkpt><trkpt lat="45.043308281722524" lon="9.56827871481211"><ele>64.0</ele><time>2026-05-03T08:41:58.995Z</time></trkpt><trkpt lat="45.0433740135577" lon="9.568416854087095"><ele>64.0</ele><time>2026-05-03T08:42:00.995Z</time></trkpt><trkpt lat="45.04344662333021" lon="9.56855349368377"><ele>64.2</ele><time>2026-05-03T08:42:02.995Z</time></trkpt><trkpt lat="45.04351493362476" lon="9.568692738645662"><ele>64.4</ele><time>2026-05-03T08:42:04.995Z</time></trkpt><trkpt lat="45.043572876681566" lon="9.568837707852529"><ele>64.6</ele><time>2026-05-03T08:42:06.995Z</time></trkpt><trkpt lat="45.043607688293136" lon="9.568929216154329"><ele>64.8</ele><time>2026-05-03T08:42:07.995Z</time></trkpt><trkpt lat="45.04367863682037" lon="9.569060072034315"><ele>65.0</ele><time>2026-05-03T08:42:09.995Z</time></trkpt><trkpt lat="45.0437455189404" lon="9.56920840485941"><ele>64.6</ele><time>2026-05-03T08:42:11.995Z</time></trkpt><trkpt lat="45.043812322438356" lon="9.569351322537692"><ele>64.2</ele><time>2026-05-03T08:42:13.995Z</time></trkpt><trkpt lat="45.04387959656114" lon="9.569496734286583"><ele>63.8</ele><time>2026-05-03T08:42:15.995Z</time></trkpt><trkpt lat="45.04394733736191" lon="9.569641284909714"><ele>63.4</ele><time>2026-05-03T08:42:17.995Z</time></trkpt><trkpt lat="45.04398712146526" lon="9.569712211407971"><ele>63.0</ele><time>2026-05-03T08:42:18.995Z</time></trkpt><trkpt lat="45.044049887172484" lon="9.569853100351098"><ele>63.25</ele><time>2026-05-03T08:42:20.995Z</time></trkpt><trkpt lat="45.044118844861266" lon="9.56997635886813"><ele>63.5</ele><time>2026-05-03T08:42:22.995Z</time></trkpt><trkpt lat="45.044188693471646" lon="9.570113457323128"><ele>63.75</ele><time>2026-05-03T08:42:24.995Z</time></trkpt><trkpt lat="45.04426011526585" lon="9.570253118222196"><ele>64.0</ele><time>2026-05-03T08:42:26.995Z</time></trkpt><trkpt lat="45.044329229727126" lon="9.570381032593872"><ele>64.0</ele><time>2026-05-03T08:42:28.995Z</time></trkpt><trkpt lat="45.044396904119324" lon="9.57050646291766"><ele>64.0</ele><time>2026-05-03T08:42:30.995Z</time></trkpt><trkpt lat="45.04446023565651" lon="9.57063844209318"><ele>64.0</ele><time>2026-05-03T08:42:32.995Z</time></trkpt><trkpt lat="45.04453104050267" lon="9.570755148751307"><ele>64.0</ele><time>2026-05-03T08:42:34.995Z</time></trkpt><trkpt lat="45.04459182399954" lon="9.570880332945281"><ele>64.0</ele><time>2026-05-03T08:42:36.995Z</time></trkpt><trkpt lat="45.044662031065705" lon="9.571014621248096"><ele>64.0</ele><time>2026-05-03T08:42:38.994Z</time></trkpt><trkpt lat="45.04471665152932" lon="9.57114131702827"><ele>64.0</ele><time>2026-05-03T08:42:40.995Z</time></trkpt><trkpt lat="45.044770598158976" lon="9.571283361268701"><ele>64.0</ele><time>2026-05-03T08:42:42.995Z</time></trkpt><trkpt lat="45.04478543628092" lon="9.57144763611369"><ele>64.0</ele><time>2026-05-03T08:42:44.995Z</time></trkpt><trkpt lat="45.044788080451475" lon="9.571607431228028"><ele>64.0</ele><time>2026-05-03T08:42:46.995Z</time></trkpt><trkpt lat="45.04477391632719" lon="9.57177862188646"><ele>63.83333333333333</ele><time>2026-05-03T08:42:48.996Z</time></trkpt><trkpt lat="45.04476129087165" lon="9.571949364635415"><ele>63.666666666666664</ele><time>2026-05-03T08:42:50.995Z</time></trkpt><trkpt lat="45.04475241206201" lon="9.57205089507564"><ele>63.5</ele><time>2026-05-03T08:42:51.995Z</time></trkpt><trkpt lat="45.04474373840568" lon="9.572140515429783"><ele>63.33333333333333</ele><time>2026-05-03T08:42:52.995Z</time></trkpt><trkpt lat="45.044731594571516" lon="9.572240732378855"><ele>63.166666666666664</ele><time>2026-05-03T08:42:53.995Z</time></trkpt><trkpt lat="45.04471816459756" lon="9.572330146948962"><ele>63.0</ele><time>2026-05-03T08:42:54.995Z</time></trkpt><trkpt lat="45.04470181532665" lon="9.572429811130123"><ele>63.0</ele><time>2026-05-03T08:42:55.995Z</time></trkpt><trkpt lat="45.044676703946024" lon="9.57260845104138"><ele>63.0</ele><time>2026-05-03T08:42:57.995Z</time></trkpt><trkpt lat="45.04468290342703" lon="9.572785312699933"><ele>63.0</ele><time>2026-05-03T08:42:59.995Z</time></trkpt><trkpt lat="45.04469589955379" lon="9.572876830901688"><ele>63.0</ele><time>2026-05-03T08:43:00.995Z</time></trkpt><trkpt lat="45.04474623555671" lon="9.573036061686015"><ele>63.0</ele><time>2026-05-03T08:43:02.995Z</time></trkpt><trkpt lat="45.04479355470872" lon="9.5731922515054"><ele>63.0</ele><time>2026-05-03T08:43:04.995Z</time></trkpt><trkpt lat="45.044819676718134" lon="9.573274820477584"><ele>63.0</ele><time>2026-05-03T08:43:05.995Z</time></trkpt><trkpt lat="45.04487209968956" lon="9.573438742508674"><ele>63.0</ele><time>2026-05-03T08:43:07.995Z</time></trkpt><trkpt lat="45.04490112732336" lon="9.573519728611783"><ele>63.0</ele><time>2026-05-03T08:43:08.995Z</time></trkpt><trkpt lat="45.04493271475058" lon="9.573599455458641"><ele>63.0</ele><time>2026-05-03T08:43:09.995Z</time></trkpt><trkpt lat="45.044957912324584" lon="9.573681302931982"><ele>63.0</ele><time>2026-05-03T08:43:10.995Z</time></trkpt><trkpt lat="45.044988307423615" lon="9.573760548738731"><ele>63.0</ele><time>2026-05-03T08:43:11.995Z</time></trkpt><trkpt lat="45.04501529204055" lon="9.573842123791188"><ele>63.599999999999994</ele><time>2026-05-03T08:43:12.995Z</time></trkpt><trkpt lat="45.045043640748744" lon="9.573926060240709"><ele>64.19999999999999</ele><time>2026-05-03T08:43:13.995Z</time></trkpt><trkpt lat="45.04510005868554" lon="9.574090090925713"><ele>64.8</ele><time>2026-05-03T08:43:15.995Z</time></trkpt><trkpt lat="45.045155418555794" lon="9.574251706371879"><ele>65.39999999999999</ele><time>2026-05-03T08:43:17.995Z</time></trkpt><trkpt lat="45.045202039076386" lon="9.574414891137472"><ele>66.0</ele><time>2026-05-03T08:43:19.995Z</time></trkpt><trkpt lat="45.04522611627137" lon="9.574504080335101"><ele>65.66666666666667</ele><time>2026-05-03T08:43:20.995Z</time></trkpt><trkpt lat="45.045275946096005" lon="9.574674041309722"><ele>65.33333333333333</ele><time>2026-05-03T08:43:22.995Z</time></trkpt><trkpt lat="45.04530440680489" lon="9.574753796687421"><ele>65.0</ele><time>2026-05-03T08:43:23.995Z</time></trkpt><trkpt lat="45.045327873624224" lon="9.574838639654754"><ele>64.66666666666666</ele><time>2026-05-03T08:43:24.995Z</time></trkpt><trkpt lat="45.045350917505395" lon="9.574924951524938"><ele>64.33333333333333</ele><time>2026-05-03T08:43:25.995Z</time></trkpt><trkpt lat="45.04540488431447" lon="9.575083333738645"><ele>64.0</ele><time>2026-05-03T08:43:27.995Z</time></trkpt><trkpt lat="45.045435181925995" lon="9.575164258011275"><ele>64.0</ele><time>2026-05-03T08:43:28.995Z</time></trkpt><trkpt lat="45.04546075042454" lon="9.575248311206588"><ele>64.0</ele><time>2026-05-03T08:43:29.995Z</time></trkpt><trkpt lat="45.04549010615268" lon="9.575328297907994"><ele>64.0</ele><time>2026-05-03T08:43:30.995Z</time></trkpt><trkpt lat="45.04554493601541" lon="9.575482825842357"><ele>64.0</ele><time>2026-05-03T08:43:32.995Z</time></trkpt><trkpt lat="45.045595370047984" lon="9.575647383845375"><ele>64.0</ele><time>2026-05-03T08:43:34.995Z</time></trkpt><trkpt lat="45.04565267783251" lon="9.57580179442809"><ele>63.800000000000004</ele><time>2026-05-03T08:43:36.995Z</time></trkpt><trkpt lat="45.045698572646124" lon="9.5759629784062"><ele>63.60000000000001</ele><time>2026-05-03T08:43:38.995Z</time></trkpt><trkpt lat="45.045752394741626" lon="9.576123532936055"><ele>63.4</ele><time>2026-05-03T08:43:40.995Z</time></trkpt><trkpt lat="45.04578239209046" lon="9.576213478179222"><ele>63.2</ele><time>2026-05-03T08:43:41.995Z</time></trkpt><trkpt lat="45.045835242608526" lon="9.576368829010821"><ele>63.0</ele><time>2026-05-03T08:43:43.995Z</time></trkpt><trkpt lat="45.045863343356736" lon="9.576453149254665"><ele>62.833333333333336</ele><time>2026-05-03T08:43:44.995Z</time></trkpt><trkpt lat="45.04588990897423" lon="9.576534090554906"><ele>62.66666666666667</ele><time>2026-05-03T08:43:45.995Z</time></trkpt><trkpt lat="45.04591661553068" lon="9.576615203308746"><ele>62.5</ele><time>2026-05-03T08:43:46.995Z</time></trkpt><trkpt lat="45.04594145084719" lon="9.576702487422512"><ele>62.333333333333336</ele><time>2026-05-03T08:43:47.995Z</time></trkpt><trkpt lat="45.04599806064362" lon="9.576861498026624"><ele>62.16666666666667</ele><time>2026-05-03T08:43:49.995Z</time></trkpt><trkpt lat="45.04605053654209" lon="9.577020322960704"><ele>62.0</ele><time>2026-05-03T08:43:51.995Z</time></trkpt><trkpt lat="45.046102478916275" lon="9.577178589699162"><ele>61.8</ele><time>2026-05-03T08:43:53.995Z</time></trkpt><trkpt lat="45.04615693798915" lon="9.577341222425684"><ele>61.6</ele><time>2026-05-03T08:43:55.995Z</time></trkpt><trkpt lat="45.046186041244084" lon="9.577426535605452"><ele>61.39999999999999</ele><time>2026-05-03T08:43:56.995Z</time></trkpt><trkpt lat="45.04623930025289" lon="9.577585249126031"><ele>61.199999999999996</ele><time>2026-05-03T08:43:58.995Z</time></trkpt><trkpt lat="45.046264939967124" lon="9.577668268913849"><ele>61.0</ele><time>2026-05-03T08:43:59.995Z</time></trkpt><trkpt lat="45.046317235349996" lon="9.577831326270799"><ele>61.166666666666664</ele><time>2026-05-03T08:44:01.995Z</time></trkpt><trkpt lat="45.046346941322085" lon="9.577913498863065"><ele>61.33333333333333</ele><time>2026-05-03T08:44:02.995Z</time></trkpt><trkpt lat="45.04639487636186" lon="9.578086732192691"><ele>61.5</ele><time>2026-05-03T08:44:04.995Z</time></trkpt><trkpt lat="45.046417949747514" lon="9.57816995717947"><ele>61.66666666666667</ele><time>2026-05-03T08:44:05.995Z</time></trkpt><trkpt lat="45.046448344077966" lon="9.578260695243895"><ele>61.833333333333336</ele><time>2026-05-03T08:44:06.995Z</time></trkpt><trkpt lat="45.04647535668551" lon="9.578353848603875"><ele>62.0</ele><time>2026-05-03T08:44:07.995Z</time></trkpt><trkpt lat="45.04649766150336" lon="9.578439962153354"><ele>62.00000000000001</ele><time>2026-05-03T08:44:08.995Z</time></trkpt><trkpt lat="45.04655279074738" lon="9.578593558538847"><ele>62.0</ele><time>2026-05-03T08:44:10.995Z</time></trkpt><trkpt lat="45.046579000919515" lon="9.578684416751258"><ele>62.0</ele><time>2026-05-03T08:44:11.995Z</time></trkpt><trkpt lat="45.0466066379564" lon="9.578766211782737"><ele>62.0</ele><time>2026-05-03T08:44:12.995Z</time></trkpt><trkpt lat="45.04663457603202" lon="9.578848899118348"><ele>62.00000000000001</ele><time>2026-05-03T08:44:13.995Z</time></trkpt><trkpt lat="45.046662631912284" lon="9.578933089505007"><ele>62.0</ele><time>2026-05-03T08:44:14.995Z</time></trkpt><trkpt lat="45.04672046631501" lon="9.579085679703491"><ele>62.00000000000001</ele><time>2026-05-03T08:44:16.995Z</time></trkpt><trkpt lat="45.046750012927866" lon="9.57916738220781"><ele>62.0</ele><time>2026-05-03T08:44:17.995Z</time></trkpt><trkpt lat="45.04680377330107" lon="9.57931526806636"><ele>62.0</ele><time>2026-05-03T08:44:19.995Z</time></trkpt><trkpt lat="45.0468411556517" lon="9.579400888313788"><ele>62.0</ele><time>2026-05-03T08:44:20.995Z</time></trkpt><trkpt lat="45.04687254167225" lon="9.579483209194338"><ele>62.00000000000001</ele><time>2026-05-03T08:44:21.995Z</time></trkpt><trkpt lat="45.04690476285392" lon="9.579562623458212"><ele>62.0</ele><time>2026-05-03T08:44:22.995Z</time></trkpt><trkpt lat="45.04696500268165" lon="9.57971249481789"><ele>62.0</ele><time>2026-05-03T08:44:24.995Z</time></trkpt><trkpt lat="45.04700120211297" lon="9.579790492320956"><ele>62.0</ele><time>2026-05-03T08:44:25.995Z</time></trkpt><trkpt lat="45.04706972613714" lon="9.579937395702332"><ele>62.0</ele><time>2026-05-03T08:44:27.995Z</time></trkpt><trkpt lat="45.04713016281743" lon="9.580086229304"><ele>62.0</ele><time>2026-05-03T08:44:29.995Z</time></trkpt><trkpt lat="45.04720185641841" lon="9.580223522741324"><ele>62.0</ele><time>2026-05-03T08:44:31.995Z</time></trkpt><trkpt lat="45.04723980540154" lon="9.580305771629122"><ele>62.0</ele><time>2026-05-03T08:44:32.995Z</time></trkpt><trkpt lat="45.047270702505465" lon="9.58039165211267"><ele>62.00000000000001</ele><time>2026-05-03T08:44:33.995Z</time></trkpt><trkpt lat="45.047298532539465" lon="9.58047925278862"><ele>62.0</ele><time>2026-05-03T08:44:34.995Z</time></trkpt><trkpt lat="45.04733214090041" lon="9.580572875259064"><ele>62.0</ele><time>2026-05-03T08:44:35.995Z</time></trkpt><trkpt lat="45.04736846357121" lon="9.58065976419823"><ele>62.00000000000001</ele><time>2026-05-03T08:44:36.995Z</time></trkpt><trkpt lat="45.047404516080285" lon="9.58074094094931"><ele>62.0</ele><time>2026-05-03T08:44:37.995Z</time></trkpt><trkpt lat="45.04743949198089" lon="9.580830108850272"><ele>62.0</ele><time>2026-05-03T08:44:38.995Z</time></trkpt><trkpt lat="45.04747787779612" lon="9.58091667249905"><ele>62.0</ele><time>2026-05-03T08:44:39.995Z</time></trkpt><trkpt lat="45.04750526440826" lon="9.581003692559696"><ele>62.00000000000001</ele><time>2026-05-03T08:44:40.995Z</time></trkpt><trkpt lat="45.047540208708924" lon="9.581091436485975"><ele>62.0</ele><time>2026-05-03T08:44:41.995Z</time></trkpt><trkpt lat="45.047581925236955" lon="9.581181788856123"><ele>62.0</ele><time>2026-05-03T08:44:42.995Z</time></trkpt><trkpt lat="45.04762405890092" lon="9.581261747253274"><ele>62.00000000000001</ele><time>2026-05-03T08:44:43.994Z</time></trkpt><trkpt lat="45.047659791246794" lon="9.581340431477377"><ele>62.0</ele><time>2026-05-03T08:44:44.994Z</time></trkpt><trkpt lat="45.047691177737185" lon="9.5814219608819"><ele>62.0</ele><time>2026-05-03T08:44:45.995Z</time></trkpt><trkpt lat="45.047750009416035" lon="9.581568842818657"><ele>62.2</ele><time>2026-05-03T08:44:47.994Z</time></trkpt><trkpt lat="45.04777883846255" lon="9.581650453253001"><ele>62.400000000000006</ele><time>2026-05-03T08:44:48.994Z</time></trkpt><trkpt lat="45.047818397145384" lon="9.58172269720985"><ele>62.599999999999994</ele><time>2026-05-03T08:44:49.994Z</time></trkpt><trkpt lat="45.04788477638981" lon="9.581877725871433"><ele>62.8</ele><time>2026-05-03T08:44:51.994Z</time></trkpt><trkpt lat="45.04792081988247" lon="9.581954299581799"><ele>63.0</ele><time>2026-05-03T08:44:52.995Z</time></trkpt><trkpt lat="45.04798707402544" lon="9.582110037058744"><ele>63.0</ele><time>2026-05-03T08:44:54.995Z</time></trkpt><trkpt lat="45.04804277544936" lon="9.582248475212413"><ele>63.0</ele><time>2026-05-03T08:44:56.994Z</time></trkpt><trkpt lat="45.04807825429671" lon="9.582328185830635"><ele>63.0</ele><time>2026-05-03T08:44:57.994Z</time></trkpt><trkpt lat="45.04811556504922" lon="9.582405204063546"><ele>63.0</ele><time>2026-05-03T08:44:58.994Z</time></trkpt><trkpt lat="45.04816597171455" lon="9.582553949209487"><ele>63.0</ele><time>2026-05-03T08:45:00.994Z</time></trkpt><trkpt lat="45.048202439829915" lon="9.582632656370395"><ele>63.0</ele><time>2026-05-03T08:45:01.994Z</time></trkpt><trkpt lat="45.04823624050748" lon="9.582712366621985"><ele>63.0</ele><time>2026-05-03T08:45:02.994Z</time></trkpt><trkpt lat="45.04825856431605" lon="9.582798729073586"><ele>63.0</ele><time>2026-05-03T08:45:03.994Z</time></trkpt><trkpt lat="45.04828717356924" lon="9.58288264017046"><ele>63.0</ele><time>2026-05-03T08:45:04.994Z</time></trkpt><trkpt lat="45.048318485273015" lon="9.582960202561672"><ele>63.0</ele><time>2026-05-03T08:45:05.994Z</time></trkpt><trkpt lat="45.04835038551243" lon="9.583040671666154"><ele>63.0</ele><time>2026-05-03T08:45:06.994Z</time></trkpt><trkpt lat="45.04838239844103" lon="9.583121403633086"><ele>63.0</ele><time>2026-05-03T08:45:07.994Z</time></trkpt><trkpt lat="45.04841307916451" lon="9.583203470222086"><ele>63.0</ele><time>2026-05-03T08:45:08.994Z</time></trkpt><trkpt lat="45.04847836516922" lon="9.583355936827687"><ele>62.8</ele><time>2026-05-03T08:45:10.994Z</time></trkpt><trkpt lat="45.04851304891428" lon="9.58343255430963"><ele>62.599999999999994</ele><time>2026-05-03T08:45:11.994Z</time></trkpt><trkpt lat="45.04854478636374" lon="9.583515519292613"><ele>62.400000000000006</ele><time>2026-05-03T08:45:12.994Z</time></trkpt><trkpt lat="45.04860715116951" lon="9.5836710567009"><ele>62.2</ele><time>2026-05-03T08:45:14.994Z</time></trkpt><trkpt lat="45.04866459438713" lon="9.583820130547775"><ele>62.0</ele><time>2026-05-03T08:45:16.994Z</time></trkpt><trkpt lat="45.04873291170057" lon="9.583971240270047"><ele>62.00000000000001</ele><time>2026-05-03T08:45:18.994Z</time></trkpt><trkpt lat="45.04876508330533" lon="9.584054945004619"><ele>62.0</ele><time>2026-05-03T08:45:19.994Z</time></trkpt><trkpt lat="45.04879654247086" lon="9.584136580728169"><ele>62.0</ele><time>2026-05-03T08:45:20.994Z</time></trkpt><trkpt lat="45.04883805571354" lon="9.584206438736674"><ele>62.0</ele><time>2026-05-03T08:45:21.994Z</time></trkpt><trkpt lat="45.048902451034024" lon="9.584363694960981"><ele>62.00000000000001</ele><time>2026-05-03T08:45:23.994Z</time></trkpt><trkpt lat="45.048934626522076" lon="9.584444358809504"><ele>62.0</ele><time>2026-05-03T08:45:24.994Z</time></trkpt><trkpt lat="45.048966858416854" lon="9.584522848432266"><ele>62.16666666666667</ele><time>2026-05-03T08:45:25.994Z</time></trkpt><trkpt lat="45.048997126567606" lon="9.584609865181235"><ele>62.333333333333336</ele><time>2026-05-03T08:45:26.994Z</time></trkpt><trkpt lat="45.04902528065463" lon="9.58469304778605"><ele>62.5</ele><time>2026-05-03T08:45:27.994Z</time></trkpt><trkpt lat="45.04909425182399" lon="9.584839251519151"><ele>62.66666666666667</ele><time>2026-05-03T08:45:29.994Z</time></trkpt><trkpt lat="45.04912702543784" lon="9.584917628715793"><ele>62.833333333333336</ele><time>2026-05-03T08:45:30.994Z</time></trkpt><trkpt lat="45.049157217957635" lon="9.584997172076369"><ele>63.0</ele><time>2026-05-03T08:45:31.994Z</time></trkpt><trkpt lat="45.049192568746335" lon="9.585077110488868"><ele>62.8</ele><time>2026-05-03T08:45:32.994Z</time></trkpt><trkpt lat="45.049224825725695" lon="9.58515724865372"><ele>62.599999999999994</ele><time>2026-05-03T08:45:33.994Z</time></trkpt><trkpt lat="45.049258887665076" lon="9.585234798950456"><ele>62.400000000000006</ele><time>2026-05-03T08:45:34.994Z</time></trkpt><trkpt lat="45.04929503543571" lon="9.585312452597918"><ele>62.2</ele><time>2026-05-03T08:45:35.994Z</time></trkpt><trkpt lat="45.049363550087364" lon="9.585476848282804"><ele>62.0</ele><time>2026-05-03T08:45:37.994Z</time></trkpt><trkpt lat="45.04942753957248" lon="9.585634559279622"><ele>62.0</ele><time>2026-05-03T08:45:39.994Z</time></trkpt><trkpt lat="45.049469076279024" lon="9.585708746430656"><ele>62.0</ele><time>2026-05-03T08:45:40.994Z</time></trkpt><trkpt lat="45.04950106183701" lon="9.58578623619022"><ele>62.0</ele><time>2026-05-03T08:45:41.994Z</time></trkpt><trkpt lat="45.04957087326491" lon="9.585931595981782"><ele>62.0</ele><time>2026-05-03T08:45:43.994Z</time></trkpt><trkpt lat="45.04964282278407" lon="9.586073835120244"><ele>62.0</ele><time>2026-05-03T08:45:45.994Z</time></trkpt><trkpt lat="45.04972936591081" lon="9.586196761840897"><ele>61.75</ele><time>2026-05-03T08:45:47.994Z</time></trkpt><trkpt lat="45.04982311206663" lon="9.586312942971897"><ele>61.5</ele><time>2026-05-03T08:45:49.994Z</time></trkpt><trkpt lat="45.04991346117227" lon="9.58642953126782"><ele>61.25</ele><time>2026-05-03T08:45:51.994Z</time></trkpt><trkpt lat="45.050007033811106" lon="9.586544167296026"><ele>61.0</ele><time>2026-05-03T08:45:53.994Z</time></trkpt><trkpt lat="45.050094554821335" lon="9.586654152402254"><ele>60.75</ele><time>2026-05-03T08:45:55.994Z</time></trkpt><trkpt lat="45.05018912105467" lon="9.586763379453764"><ele>60.5</ele><time>2026-05-03T08:45:57.994Z</time></trkpt><trkpt lat="45.05027201501773" lon="9.586887222546542"><ele>60.25</ele><time>2026-05-03T08:45:59.994Z</time></trkpt><trkpt lat="45.050347087891105" lon="9.586999207324643"><ele>60.0</ele><time>2026-05-03T08:46:01.994Z</time></trkpt><trkpt lat="45.050432104030875" lon="9.58711249706708"><ele>60.4</ele><time>2026-05-03T08:46:03.994Z</time></trkpt><trkpt lat="45.050507202584356" lon="9.587211357981186"><ele>60.8</ele><time>2026-05-03T08:46:05.994Z</time></trkpt><trkpt lat="45.050579645311956" lon="9.587304529709794"><ele>61.2</ele><time>2026-05-03T08:46:07.994Z</time></trkpt><trkpt lat="45.05064305354306" lon="9.58740973909497"><ele>61.6</ele><time>2026-05-03T08:46:09.994Z</time></trkpt><trkpt lat="45.05071433572024" lon="9.58750590629335"><ele>62.0</ele><time>2026-05-03T08:46:11.994Z</time></trkpt><trkpt lat="45.0507878388544" lon="9.58760260548816"><ele>61.8</ele><time>2026-05-03T08:46:13.994Z</time></trkpt><trkpt lat="45.050864365324166" lon="9.587709106738474"><ele>61.6</ele><time>2026-05-03T08:46:15.994Z</time></trkpt><trkpt lat="45.05093541191957" lon="9.587814461272352"><ele>61.39999999999999</ele><time>2026-05-03T08:46:17.994Z</time></trkpt><trkpt lat="45.05101916174061" lon="9.58791125532363"><ele>61.199999999999996</ele><time>2026-05-03T08:46:19.994Z</time></trkpt><trkpt lat="45.05109237736609" lon="9.588017829054532"><ele>61.0</ele><time>2026-05-03T08:46:21.994Z</time></trkpt><trkpt lat="45.051167061066295" lon="9.588129565523708"><ele>61.4</ele><time>2026-05-03T08:46:23.994Z</time></trkpt><trkpt lat="45.051247040821195" lon="9.588230589686042"><ele>61.8</ele><time>2026-05-03T08:46:25.994Z</time></trkpt><trkpt lat="45.051319939383816" lon="9.588329628270065"><ele>62.199999999999996</ele><time>2026-05-03T08:46:27.994Z</time></trkpt><trkpt lat="45.05140013169189" lon="9.588439921141438"><ele>62.599999999999994</ele><time>2026-05-03T08:46:29.994Z</time></trkpt><trkpt lat="45.05148081184519" lon="9.588543498084517"><ele>63.0</ele><time>2026-05-03T08:46:31.994Z</time></trkpt><trkpt lat="45.05155374978327" lon="9.588647150859021"><ele>62.599999999999994</ele><time>2026-05-03T08:46:33.994Z</time></trkpt><trkpt lat="45.05161910648634" lon="9.588771287788884"><ele>62.199999999999996</ele><time>2026-05-03T08:46:35.994Z</time></trkpt><trkpt lat="45.05166460715122" lon="9.588908527635901"><ele>61.8</ele><time>2026-05-03T08:46:37.994Z</time></trkpt><trkpt lat="45.05171178599484" lon="9.5890479546165"><ele>61.4</ele><time>2026-05-03T08:46:39.994Z</time></trkpt><trkpt lat="45.05176028558062" lon="9.589176522315396"><ele>61.0</ele><time>2026-05-03T08:46:41.994Z</time></trkpt><trkpt lat="45.051805854176294" lon="9.589299189346667"><ele>61.0</ele><time>2026-05-03T08:46:43.994Z</time></trkpt><trkpt lat="45.051828734377665" lon="9.58944134726438"><ele>60.99999999999999</ele><time>2026-05-03T08:46:45.994Z</time></trkpt><trkpt lat="45.051838315817434" lon="9.589600237437805"><ele>60.99999999999999</ele><time>2026-05-03T08:46:47.994Z</time></trkpt><trkpt lat="45.05185350616608" lon="9.589746986336907"><ele>61.0</ele><time>2026-05-03T08:46:49.994Z</time></trkpt><trkpt lat="45.05187346465141" lon="9.589896137884661"><ele>61.0</ele><time>2026-05-03T08:46:51.994Z</time></trkpt><trkpt lat="45.051889152625755" lon="9.590049375561136"><ele>61.25</ele><time>2026-05-03T08:46:53.994Z</time></trkpt><trkpt lat="45.051902096041516" lon="9.590202990455547"><ele>61.5</ele><time>2026-05-03T08:46:55.994Z</time></trkpt><trkpt lat="45.05192213463868" lon="9.590364148322646"><ele>61.75</ele><time>2026-05-03T08:46:57.994Z</time></trkpt><trkpt lat="45.051936966588315" lon="9.590523051219494"><ele>62.0</ele><time>2026-05-03T08:46:59.993Z</time></trkpt><trkpt lat="45.051956818810545" lon="9.590680314692873"><ele>62.0</ele><time>2026-05-03T08:47:01.994Z</time></trkpt><trkpt lat="45.05196581603657" lon="9.590841174803193"><ele>62.0</ele><time>2026-05-03T08:47:03.994Z</time></trkpt><trkpt lat="45.05198305143107" lon="9.590996409574393"><ele>62.0</ele><time>2026-05-03T08:47:05.994Z</time></trkpt><trkpt lat="45.05200227872447" lon="9.591149944965016"><ele>62.0</ele><time>2026-05-03T08:47:07.993Z</time></trkpt><trkpt lat="45.052021739374254" lon="9.591301942044126"><ele>62.0</ele><time>2026-05-03T08:47:09.993Z</time></trkpt><trkpt lat="45.052032118460616" lon="9.591453518932179"><ele>62.0</ele><time>2026-05-03T08:47:11.993Z</time></trkpt><trkpt lat="45.0520479978618" lon="9.591609504929966"><ele>62.0</ele><time>2026-05-03T08:47:13.993Z</time></trkpt><trkpt lat="45.05206300107283" lon="9.591767780392045"><ele>62.0</ele><time>2026-05-03T08:47:15.993Z</time></trkpt><trkpt lat="45.05207950723199" lon="9.591929722160046"><ele>62.0</ele><time>2026-05-03T08:47:17.993Z</time></trkpt><trkpt lat="45.052094108108975" lon="9.592082955670964"><ele>62.0</ele><time>2026-05-03T08:47:19.993Z</time></trkpt><trkpt lat="45.05211411213481" lon="9.592250550215331"><ele>61.5</ele><time>2026-05-03T08:47:21.993Z</time></trkpt><trkpt lat="45.0521230182934" lon="9.592415545931418"><ele>61.0</ele><time>2026-05-03T08:47:23.993Z</time></trkpt><trkpt lat="45.05212984190443" lon="9.592580573225318"><ele>60.5</ele><time>2026-05-03T08:47:25.993Z</time></trkpt><trkpt lat="45.05213570766096" lon="9.59274400021695"><ele>60.0</ele><time>2026-05-03T08:47:27.993Z</time></trkpt><trkpt lat="45.05213167315272" lon="9.592902774006241"><ele>59.8</ele><time>2026-05-03T08:47:29.993Z</time></trkpt><trkpt lat="45.052136144796016" lon="9.593046800296335"><ele>59.6</ele><time>2026-05-03T08:47:31.993Z</time></trkpt><trkpt lat="45.0521396436595" lon="9.593206641827761"><ele>59.400000000000006</ele><time>2026-05-03T08:47:33.993Z</time></trkpt><trkpt lat="45.052136212662276" lon="9.593360855260196"><ele>59.2</ele><time>2026-05-03T08:47:35.993Z</time></trkpt><trkpt lat="45.05213068990191" lon="9.593515455172403"><ele>59.0</ele><time>2026-05-03T08:47:37.993Z</time></trkpt><trkpt lat="45.05213334864483" lon="9.593669798409898"><ele>59.0</ele><time>2026-05-03T08:47:39.993Z</time></trkpt><trkpt lat="45.052138370506746" lon="9.593818397381655"><ele>59.0</ele><time>2026-05-03T08:47:41.993Z</time></trkpt><trkpt lat="45.05213884862703" lon="9.59397463899228"><ele>59.0</ele><time>2026-05-03T08:47:43.993Z</time></trkpt><trkpt lat="45.05213790786493" lon="9.59412354640123"><ele>59.0</ele><time>2026-05-03T08:47:45.993Z</time></trkpt><trkpt lat="45.052131971395895" lon="9.594273489477356"><ele>59.0</ele><time>2026-05-03T08:47:47.993Z</time></trkpt></trkseg></trk></gpx>